<?xml version="1.0" encoding="UTF-8"?>
<gpx version="1.1" creator="https://www.youtrack.es" xsi:schemaLocation="http://www.topografix.com/GPX/1/1 http://www.topografix.com/GPX/1/1/gpx.xsd http://www.garmin.com/xmlschemas/GpxExtensions/v3 http://www.garmin.com/xmlschemas/GpxExtensionsv3.xsd http://www.garmin.com/xmlschemas/TrackPointExtension/v1 http://www.garmin.com/xmlschemas/TrackPointExtensionv1.xsd" xmlns:gpxtpx="http://www.garmin.com/xmlschemas/TrackPointExtension/v1" xmlns:gpxx="http://www.garmin.com/xmlschemas/GpxExtensions/v3" xmlns:xsi="http://www.w3.org/2001/XMLSchema-instance">
  <metadata>
    <author>
      <name>Ángel Luis Ortega Fernández</name>
      <email id="contafisca" domain="gmail.com"/>
    </author>
    <link href="https://www.youtrack.es">
      <text>YouTrack.es</text>
    </link>
    <time>2026-05-07T22:29:18Z</time>
  </metadata>
  <trk>
    <src>https://www.youtrack.es</src>
    <link href="https://www.youtrack.es/ruta/17990-ruta-embalse-guajaraz--arges-layos">
      <text>YouTrack.es</text>
    </link>
    <trkseg>
      <trkpt lat="39.79921" lon="-4.083172">
        <ele>-20000.0</ele>
        <time>2020-12-09T11:40:20Z</time>
      </trkpt>
      <trkpt lat="39.79919" lon="-4.08317">
        <ele>-20000.0</ele>
        <time>2020-12-09T11:40:21Z</time>
      </trkpt>
      <trkpt lat="39.799187" lon="-4.0831695">
        <ele>-20000.0</ele>
        <time>2020-12-09T11:40:22Z</time>
      </trkpt>
      <trkpt lat="39.799183" lon="-4.083171">
        <ele>-20000.0</ele>
        <time>2020-12-09T11:40:23Z</time>
      </trkpt>
      <trkpt lat="39.799175" lon="-4.083176">
        <ele>-20000.0</ele>
        <time>2020-12-09T11:40:24Z</time>
      </trkpt>
      <trkpt lat="39.79917" lon="-4.0831842">
        <ele>-20000.0</ele>
        <time>2020-12-09T11:40:25Z</time>
      </trkpt>
      <trkpt lat="39.799164" lon="-4.083195">
        <ele>-20000.0</ele>
        <time>2020-12-09T11:40:26Z</time>
      </trkpt>
      <trkpt lat="39.79916" lon="-4.0832086">
        <ele>-20000.0</ele>
        <time>2020-12-09T11:40:27Z</time>
      </trkpt>
      <trkpt lat="39.79916" lon="-4.083225">
        <ele>-20000.0</ele>
        <time>2020-12-09T11:40:28Z</time>
      </trkpt>
      <trkpt lat="39.799156" lon="-4.083242">
        <ele>-20000.0</ele>
        <time>2020-12-09T11:40:29Z</time>
      </trkpt>
      <trkpt lat="39.799156" lon="-4.083261">
        <ele>609.72</ele>
        <time>2020-12-09T11:40:30Z</time>
      </trkpt>
      <trkpt lat="39.799156" lon="-4.083279">
        <ele>609.72</ele>
        <time>2020-12-09T11:40:31Z</time>
      </trkpt>
      <trkpt lat="39.799156" lon="-4.0833545">
        <ele>609.72</ele>
        <time>2020-12-09T11:40:35Z</time>
      </trkpt>
      <trkpt lat="39.79916" lon="-4.083433">
        <ele>609.72</ele>
        <time>2020-12-09T11:40:39Z</time>
      </trkpt>
      <trkpt lat="39.799168" lon="-4.083509">
        <ele>609.72</ele>
        <time>2020-12-09T11:40:43Z</time>
      </trkpt>
      <trkpt lat="39.799183" lon="-4.0835886">
        <ele>609.72</ele>
        <time>2020-12-09T11:40:47Z</time>
      </trkpt>
      <trkpt lat="39.799194" lon="-4.083666">
        <ele>609.72</ele>
        <time>2020-12-09T11:40:51Z</time>
      </trkpt>
      <trkpt lat="39.79921" lon="-4.0837455">
        <ele>609.72</ele>
        <time>2020-12-09T11:40:55Z</time>
      </trkpt>
      <trkpt lat="39.799232" lon="-4.08383">
        <ele>609.72</ele>
        <time>2020-12-09T11:41:00Z</time>
      </trkpt>
      <trkpt lat="39.799255" lon="-4.0838966">
        <ele>609.72</ele>
        <time>2020-12-09T11:41:03Z</time>
      </trkpt>
      <trkpt lat="39.799274" lon="-4.083964">
        <ele>609.72</ele>
        <time>2020-12-09T11:41:06Z</time>
      </trkpt>
      <trkpt lat="39.7993" lon="-4.0840216">
        <ele>609.72</ele>
        <time>2020-12-09T11:41:09Z</time>
      </trkpt>
      <trkpt lat="39.79932" lon="-4.084077">
        <ele>609.72</ele>
        <time>2020-12-09T11:41:12Z</time>
      </trkpt>
      <trkpt lat="39.799343" lon="-4.0841556">
        <ele>609.72</ele>
        <time>2020-12-09T11:41:16Z</time>
      </trkpt>
      <trkpt lat="39.79936" lon="-4.084234">
        <ele>609.72</ele>
        <time>2020-12-09T11:41:20Z</time>
      </trkpt>
      <trkpt lat="39.79937" lon="-4.0843067">
        <ele>609.72</ele>
        <time>2020-12-09T11:41:24Z</time>
      </trkpt>
      <trkpt lat="39.799366" lon="-4.0843744">
        <ele>609.72</ele>
        <time>2020-12-09T11:41:28Z</time>
      </trkpt>
      <trkpt lat="39.799377" lon="-4.0844407">
        <ele>609.72</ele>
        <time>2020-12-09T11:41:32Z</time>
      </trkpt>
      <trkpt lat="39.79939" lon="-4.0845084">
        <ele>609.72</ele>
        <time>2020-12-09T11:41:36Z</time>
      </trkpt>
      <trkpt lat="39.799393" lon="-4.084583">
        <ele>609.72</ele>
        <time>2020-12-09T11:41:40Z</time>
      </trkpt>
      <trkpt lat="39.799397" lon="-4.0846505">
        <ele>609.72</ele>
        <time>2020-12-09T11:41:44Z</time>
      </trkpt>
      <trkpt lat="39.799408" lon="-4.08473">
        <ele>609.72</ele>
        <time>2020-12-09T11:41:49Z</time>
      </trkpt>
      <trkpt lat="39.79944" lon="-4.084809">
        <ele>610.99</ele>
        <time>2020-12-09T11:41:54Z</time>
      </trkpt>
      <trkpt lat="39.79946" lon="-4.0848722">
        <ele>610.99</ele>
        <time>2020-12-09T11:41:58Z</time>
      </trkpt>
      <trkpt lat="39.799488" lon="-4.084936">
        <ele>610.99</ele>
        <time>2020-12-09T11:42:02Z</time>
      </trkpt>
      <trkpt lat="39.799515" lon="-4.0849915">
        <ele>610.99</ele>
        <time>2020-12-09T11:42:05Z</time>
      </trkpt>
      <trkpt lat="39.799545" lon="-4.0850525">
        <ele>610.99</ele>
        <time>2020-12-09T11:42:09Z</time>
      </trkpt>
      <trkpt lat="39.79958" lon="-4.0851164">
        <ele>610.99</ele>
        <time>2020-12-09T11:42:13Z</time>
      </trkpt>
      <trkpt lat="39.79962" lon="-4.08518">
        <ele>612.17</ele>
        <time>2020-12-09T11:42:17Z</time>
      </trkpt>
      <trkpt lat="39.799664" lon="-4.085238">
        <ele>612.17</ele>
        <time>2020-12-09T11:42:21Z</time>
      </trkpt>
      <trkpt lat="39.79971" lon="-4.085297">
        <ele>612.17</ele>
        <time>2020-12-09T11:42:25Z</time>
      </trkpt>
      <trkpt lat="39.799747" lon="-4.085359">
        <ele>612.17</ele>
        <time>2020-12-09T11:42:29Z</time>
      </trkpt>
      <trkpt lat="39.799786" lon="-4.085418">
        <ele>606.62</ele>
        <time>2020-12-09T11:42:33Z</time>
      </trkpt>
      <trkpt lat="39.79982" lon="-4.085467">
        <ele>606.62</ele>
        <time>2020-12-09T11:42:36Z</time>
      </trkpt>
      <trkpt lat="39.799854" lon="-4.085534">
        <ele>605.44</ele>
        <time>2020-12-09T11:42:40Z</time>
      </trkpt>
      <trkpt lat="39.79987" lon="-4.0855975">
        <ele>605.44</ele>
        <time>2020-12-09T11:42:44Z</time>
      </trkpt>
      <trkpt lat="39.799892" lon="-4.085675">
        <ele>605.44</ele>
        <time>2020-12-09T11:42:48Z</time>
      </trkpt>
      <trkpt lat="39.799904" lon="-4.085751">
        <ele>605.44</ele>
        <time>2020-12-09T11:42:52Z</time>
      </trkpt>
      <trkpt lat="39.79991" lon="-4.0858293">
        <ele>605.44</ele>
        <time>2020-12-09T11:42:56Z</time>
      </trkpt>
      <trkpt lat="39.79992" lon="-4.085907">
        <ele>605.44</ele>
        <time>2020-12-09T11:43:00Z</time>
      </trkpt>
      <trkpt lat="39.799927" lon="-4.0859776">
        <ele>605.44</ele>
        <time>2020-12-09T11:43:03Z</time>
      </trkpt>
      <trkpt lat="39.79993" lon="-4.0860653">
        <ele>605.44</ele>
        <time>2020-12-09T11:43:07Z</time>
      </trkpt>
      <trkpt lat="39.799934" lon="-4.0861263">
        <ele>605.44</ele>
        <time>2020-12-09T11:43:10Z</time>
      </trkpt>
      <trkpt lat="39.799934" lon="-4.086212">
        <ele>605.44</ele>
        <time>2020-12-09T11:43:14Z</time>
      </trkpt>
      <trkpt lat="39.799934" lon="-4.086292">
        <ele>605.44</ele>
        <time>2020-12-09T11:43:18Z</time>
      </trkpt>
      <trkpt lat="39.79994" lon="-4.086372">
        <ele>605.44</ele>
        <time>2020-12-09T11:43:22Z</time>
      </trkpt>
      <trkpt lat="39.799942" lon="-4.086451">
        <ele>605.44</ele>
        <time>2020-12-09T11:43:26Z</time>
      </trkpt>
      <trkpt lat="39.79995" lon="-4.086529">
        <ele>605.44</ele>
        <time>2020-12-09T11:43:30Z</time>
      </trkpt>
      <trkpt lat="39.799953" lon="-4.086604">
        <ele>605.44</ele>
        <time>2020-12-09T11:43:34Z</time>
      </trkpt>
      <trkpt lat="39.799957" lon="-4.08668">
        <ele>605.44</ele>
        <time>2020-12-09T11:43:38Z</time>
      </trkpt>
      <trkpt lat="39.79996" lon="-4.0867586">
        <ele>605.44</ele>
        <time>2020-12-09T11:43:42Z</time>
      </trkpt>
      <trkpt lat="39.799965" lon="-4.0868626">
        <ele>605.44</ele>
        <time>2020-12-09T11:43:47Z</time>
      </trkpt>
      <trkpt lat="39.799965" lon="-4.0869484">
        <ele>605.44</ele>
        <time>2020-12-09T11:43:51Z</time>
      </trkpt>
      <trkpt lat="39.799973" lon="-4.087016">
        <ele>605.44</ele>
        <time>2020-12-09T11:43:54Z</time>
      </trkpt>
      <trkpt lat="39.799973" lon="-4.0871034">
        <ele>605.44</ele>
        <time>2020-12-09T11:43:58Z</time>
      </trkpt>
      <trkpt lat="39.79997" lon="-4.0872087">
        <ele>605.44</ele>
        <time>2020-12-09T11:44:03Z</time>
      </trkpt>
      <trkpt lat="39.799976" lon="-4.0872903">
        <ele>605.44</ele>
        <time>2020-12-09T11:44:07Z</time>
      </trkpt>
      <trkpt lat="39.799984" lon="-4.087372">
        <ele>605.44</ele>
        <time>2020-12-09T11:44:11Z</time>
      </trkpt>
      <trkpt lat="39.79999" lon="-4.0874596">
        <ele>605.44</ele>
        <time>2020-12-09T11:44:15Z</time>
      </trkpt>
      <trkpt lat="39.799995" lon="-4.087522">
        <ele>605.44</ele>
        <time>2020-12-09T11:44:18Z</time>
      </trkpt>
      <trkpt lat="39.8" lon="-4.0876064">
        <ele>605.44</ele>
        <time>2020-12-09T11:44:22Z</time>
      </trkpt>
      <trkpt lat="39.800003" lon="-4.087694">
        <ele>605.44</ele>
        <time>2020-12-09T11:44:26Z</time>
      </trkpt>
      <trkpt lat="39.800007" lon="-4.0877595">
        <ele>605.44</ele>
        <time>2020-12-09T11:44:29Z</time>
      </trkpt>
      <trkpt lat="39.800007" lon="-4.0878243">
        <ele>599.67</ele>
        <time>2020-12-09T11:44:32Z</time>
      </trkpt>
      <trkpt lat="39.80001" lon="-4.0879154">
        <ele>599.67</ele>
        <time>2020-12-09T11:44:36Z</time>
      </trkpt>
      <trkpt lat="39.80001" lon="-4.0879855">
        <ele>599.67</ele>
        <time>2020-12-09T11:44:39Z</time>
      </trkpt>
      <trkpt lat="39.800014" lon="-4.08806">
        <ele>599.67</ele>
        <time>2020-12-09T11:44:42Z</time>
      </trkpt>
      <trkpt lat="39.800014" lon="-4.088134">
        <ele>599.67</ele>
        <time>2020-12-09T11:44:45Z</time>
      </trkpt>
      <trkpt lat="39.800014" lon="-4.0882015">
        <ele>599.67</ele>
        <time>2020-12-09T11:44:48Z</time>
      </trkpt>
      <trkpt lat="39.80002" lon="-4.088269">
        <ele>599.67</ele>
        <time>2020-12-09T11:44:51Z</time>
      </trkpt>
      <trkpt lat="39.80002" lon="-4.0883384">
        <ele>599.67</ele>
        <time>2020-12-09T11:44:54Z</time>
      </trkpt>
      <trkpt lat="39.80002" lon="-4.0884266">
        <ele>599.67</ele>
        <time>2020-12-09T11:44:58Z</time>
      </trkpt>
      <trkpt lat="39.800022" lon="-4.088497">
        <ele>599.67</ele>
        <time>2020-12-09T11:45:01Z</time>
      </trkpt>
      <trkpt lat="39.800026" lon="-4.0885687">
        <ele>599.67</ele>
        <time>2020-12-09T11:45:04Z</time>
      </trkpt>
      <trkpt lat="39.800026" lon="-4.088637">
        <ele>599.67</ele>
        <time>2020-12-09T11:45:07Z</time>
      </trkpt>
      <trkpt lat="39.80003" lon="-4.088705">
        <ele>599.67</ele>
        <time>2020-12-09T11:45:10Z</time>
      </trkpt>
      <trkpt lat="39.800026" lon="-4.0887737">
        <ele>599.67</ele>
        <time>2020-12-09T11:45:13Z</time>
      </trkpt>
      <trkpt lat="39.800022" lon="-4.088839">
        <ele>599.67</ele>
        <time>2020-12-09T11:45:16Z</time>
      </trkpt>
      <trkpt lat="39.800026" lon="-4.088927">
        <ele>599.67</ele>
        <time>2020-12-09T11:45:20Z</time>
      </trkpt>
      <trkpt lat="39.800034" lon="-4.088997">
        <ele>599.67</ele>
        <time>2020-12-09T11:45:23Z</time>
      </trkpt>
      <trkpt lat="39.800034" lon="-4.08906">
        <ele>599.67</ele>
        <time>2020-12-09T11:45:26Z</time>
      </trkpt>
      <trkpt lat="39.80004" lon="-4.089147">
        <ele>599.67</ele>
        <time>2020-12-09T11:45:30Z</time>
      </trkpt>
      <trkpt lat="39.800045" lon="-4.0892115">
        <ele>599.67</ele>
        <time>2020-12-09T11:45:33Z</time>
      </trkpt>
      <trkpt lat="39.800045" lon="-4.089289">
        <ele>599.67</ele>
        <time>2020-12-09T11:45:37Z</time>
      </trkpt>
      <trkpt lat="39.800045" lon="-4.0893703">
        <ele>599.67</ele>
        <time>2020-12-09T11:45:41Z</time>
      </trkpt>
      <trkpt lat="39.80005" lon="-4.0894375">
        <ele>599.67</ele>
        <time>2020-12-09T11:45:44Z</time>
      </trkpt>
      <trkpt lat="39.800056" lon="-4.089523">
        <ele>599.67</ele>
        <time>2020-12-09T11:45:48Z</time>
      </trkpt>
      <trkpt lat="39.80006" lon="-4.0895824">
        <ele>599.67</ele>
        <time>2020-12-09T11:45:51Z</time>
      </trkpt>
      <trkpt lat="39.80006" lon="-4.0896683">
        <ele>599.67</ele>
        <time>2020-12-09T11:45:55Z</time>
      </trkpt>
      <trkpt lat="39.80006" lon="-4.0897527">
        <ele>599.67</ele>
        <time>2020-12-09T11:45:59Z</time>
      </trkpt>
      <trkpt lat="39.80006" lon="-4.0898175">
        <ele>599.67</ele>
        <time>2020-12-09T11:46:02Z</time>
      </trkpt>
      <trkpt lat="39.800053" lon="-4.089904">
        <ele>600.85</ele>
        <time>2020-12-09T11:46:06Z</time>
      </trkpt>
      <trkpt lat="39.80005" lon="-4.089966">
        <ele>600.85</ele>
        <time>2020-12-09T11:46:09Z</time>
      </trkpt>
      <trkpt lat="39.800026" lon="-4.090125">
        <ele>600.85</ele>
        <time>2020-12-09T11:53:38Z</time>
      </trkpt>
      <trkpt lat="39.80001" lon="-4.090101">
        <ele>600.85</ele>
        <time>2020-12-09T11:53:45Z</time>
      </trkpt>
      <trkpt lat="39.799957" lon="-4.0900645">
        <ele>600.85</ele>
        <time>2020-12-09T11:53:49Z</time>
      </trkpt>
      <trkpt lat="39.799896" lon="-4.090077">
        <ele>600.85</ele>
        <time>2020-12-09T11:53:53Z</time>
      </trkpt>
      <trkpt lat="39.79986" lon="-4.0901103">
        <ele>600.85</ele>
        <time>2020-12-09T11:53:56Z</time>
      </trkpt>
      <trkpt lat="39.79981" lon="-4.0901585">
        <ele>600.85</ele>
        <time>2020-12-09T11:54:00Z</time>
      </trkpt>
      <trkpt lat="39.799747" lon="-4.0901875">
        <ele>600.85</ele>
        <time>2020-12-09T11:54:04Z</time>
      </trkpt>
      <trkpt lat="39.799686" lon="-4.090214">
        <ele>600.85</ele>
        <time>2020-12-09T11:54:08Z</time>
      </trkpt>
      <trkpt lat="39.79964" lon="-4.0902596">
        <ele>600.85</ele>
        <time>2020-12-09T11:54:12Z</time>
      </trkpt>
      <trkpt lat="39.7996" lon="-4.0902996">
        <ele>600.85</ele>
        <time>2020-12-09T11:54:16Z</time>
      </trkpt>
      <trkpt lat="39.79953" lon="-4.090305">
        <ele>599.67</ele>
        <time>2020-12-09T11:55:50Z</time>
      </trkpt>
      <trkpt lat="39.799503" lon="-4.090312">
        <ele>599.67</ele>
        <time>2020-12-09T11:55:53Z</time>
      </trkpt>
      <trkpt lat="39.799446" lon="-4.0903344">
        <ele>599.67</ele>
        <time>2020-12-09T11:55:57Z</time>
      </trkpt>
      <trkpt lat="39.799377" lon="-4.090353">
        <ele>599.67</ele>
        <time>2020-12-09T11:56:01Z</time>
      </trkpt>
      <trkpt lat="39.79933" lon="-4.090376">
        <ele>600.85</ele>
        <time>2020-12-09T11:56:05Z</time>
      </trkpt>
      <trkpt lat="39.79928" lon="-4.0903893">
        <ele>602.03</ele>
        <time>2020-12-09T11:56:09Z</time>
      </trkpt>
      <trkpt lat="39.79923" lon="-4.0904245">
        <ele>602.03</ele>
        <time>2020-12-09T11:56:13Z</time>
      </trkpt>
      <trkpt lat="39.799183" lon="-4.0904627">
        <ele>602.03</ele>
        <time>2020-12-09T11:56:17Z</time>
      </trkpt>
      <trkpt lat="39.79912" lon="-4.090474">
        <ele>602.03</ele>
        <time>2020-12-09T11:56:21Z</time>
      </trkpt>
      <trkpt lat="39.79908" lon="-4.0904655">
        <ele>602.03</ele>
        <time>2020-12-09T11:56:25Z</time>
      </trkpt>
      <trkpt lat="39.79907" lon="-4.090482">
        <ele>602.03</ele>
        <time>2020-12-09T11:56:33Z</time>
      </trkpt>
      <trkpt lat="39.79909" lon="-4.0905337">
        <ele>602.03</ele>
        <time>2020-12-09T11:56:38Z</time>
      </trkpt>
      <trkpt lat="39.79905" lon="-4.0905724">
        <ele>602.03</ele>
        <time>2020-12-09T11:56:44Z</time>
      </trkpt>
      <trkpt lat="39.798985" lon="-4.0905833">
        <ele>602.03</ele>
        <time>2020-12-09T11:56:50Z</time>
      </trkpt>
      <trkpt lat="39.79894" lon="-4.0905805">
        <ele>600.12</ele>
        <time>2020-12-09T11:56:55Z</time>
      </trkpt>
      <trkpt lat="39.79889" lon="-4.090598">
        <ele>600.12</ele>
        <time>2020-12-09T11:57:00Z</time>
      </trkpt>
      <trkpt lat="39.798847" lon="-4.090645">
        <ele>600.12</ele>
        <time>2020-12-09T11:57:05Z</time>
      </trkpt>
      <trkpt lat="39.7988" lon="-4.0906935">
        <ele>600.12</ele>
        <time>2020-12-09T11:57:10Z</time>
      </trkpt>
      <trkpt lat="39.79875" lon="-4.0907245">
        <ele>600.12</ele>
        <time>2020-12-09T11:57:14Z</time>
      </trkpt>
      <trkpt lat="39.798687" lon="-4.090734">
        <ele>601.3</ele>
        <time>2020-12-09T11:57:18Z</time>
      </trkpt>
      <trkpt lat="39.798634" lon="-4.0907345">
        <ele>601.3</ele>
        <time>2020-12-09T11:57:21Z</time>
      </trkpt>
      <trkpt lat="39.79858" lon="-4.0907416">
        <ele>601.3</ele>
        <time>2020-12-09T11:57:24Z</time>
      </trkpt>
      <trkpt lat="39.798527" lon="-4.0907583">
        <ele>601.3</ele>
        <time>2020-12-09T11:57:27Z</time>
      </trkpt>
      <trkpt lat="39.798473" lon="-4.090773">
        <ele>601.3</ele>
        <time>2020-12-09T11:57:30Z</time>
      </trkpt>
      <trkpt lat="39.798424" lon="-4.0907936">
        <ele>601.3</ele>
        <time>2020-12-09T11:57:33Z</time>
      </trkpt>
      <trkpt lat="39.79837" lon="-4.090822">
        <ele>602.48</ele>
        <time>2020-12-09T11:57:37Z</time>
      </trkpt>
      <trkpt lat="39.798317" lon="-4.0908237">
        <ele>603.67</ele>
        <time>2020-12-09T11:57:41Z</time>
      </trkpt>
      <trkpt lat="39.798256" lon="-4.0908256">
        <ele>603.67</ele>
        <time>2020-12-09T11:57:45Z</time>
      </trkpt>
      <trkpt lat="39.798195" lon="-4.0908456">
        <ele>603.67</ele>
        <time>2020-12-09T11:57:49Z</time>
      </trkpt>
      <trkpt lat="39.798138" lon="-4.090837">
        <ele>604.92</ele>
        <time>2020-12-09T11:57:53Z</time>
      </trkpt>
      <trkpt lat="39.798084" lon="-4.0908027">
        <ele>603.65</ele>
        <time>2020-12-09T11:57:57Z</time>
      </trkpt>
      <trkpt lat="39.798027" lon="-4.090761">
        <ele>603.65</ele>
        <time>2020-12-09T11:58:01Z</time>
      </trkpt>
      <trkpt lat="39.797966" lon="-4.0907655">
        <ele>603.65</ele>
        <time>2020-12-09T11:58:05Z</time>
      </trkpt>
      <trkpt lat="39.79792" lon="-4.0908074">
        <ele>603.65</ele>
        <time>2020-12-09T11:58:09Z</time>
      </trkpt>
      <trkpt lat="39.79787" lon="-4.0908413">
        <ele>603.65</ele>
        <time>2020-12-09T11:58:13Z</time>
      </trkpt>
      <trkpt lat="39.797813" lon="-4.0908394">
        <ele>603.65</ele>
        <time>2020-12-09T11:58:17Z</time>
      </trkpt>
      <trkpt lat="39.797752" lon="-4.090836">
        <ele>603.65</ele>
        <time>2020-12-09T11:58:21Z</time>
      </trkpt>
      <trkpt lat="39.79769" lon="-4.090841">
        <ele>602.38</ele>
        <time>2020-12-09T11:58:25Z</time>
      </trkpt>
      <trkpt lat="39.797638" lon="-4.090863">
        <ele>602.38</ele>
        <time>2020-12-09T11:58:29Z</time>
      </trkpt>
      <trkpt lat="39.797577" lon="-4.090884">
        <ele>601.1</ele>
        <time>2020-12-09T11:58:33Z</time>
      </trkpt>
      <trkpt lat="39.797512" lon="-4.0909033">
        <ele>599.83</ele>
        <time>2020-12-09T11:58:37Z</time>
      </trkpt>
      <trkpt lat="39.797455" lon="-4.090926">
        <ele>599.83</ele>
        <time>2020-12-09T11:58:41Z</time>
      </trkpt>
      <trkpt lat="39.797405" lon="-4.0909514">
        <ele>599.83</ele>
        <time>2020-12-09T11:58:45Z</time>
      </trkpt>
      <trkpt lat="39.797356" lon="-4.090943">
        <ele>599.83</ele>
        <time>2020-12-09T11:58:50Z</time>
      </trkpt>
      <trkpt lat="39.797295" lon="-4.0909305">
        <ele>599.83</ele>
        <time>2020-12-09T11:58:54Z</time>
      </trkpt>
      <trkpt lat="39.79724" lon="-4.0909314">
        <ele>599.83</ele>
        <time>2020-12-09T11:58:58Z</time>
      </trkpt>
      <trkpt lat="39.797184" lon="-4.0909295">
        <ele>599.83</ele>
        <time>2020-12-09T11:59:02Z</time>
      </trkpt>
      <trkpt lat="39.797127" lon="-4.090918">
        <ele>599.83</ele>
        <time>2020-12-09T11:59:06Z</time>
      </trkpt>
      <trkpt lat="39.797092" lon="-4.0909486">
        <ele>599.83</ele>
        <time>2020-12-09T11:59:10Z</time>
      </trkpt>
      <trkpt lat="39.79705" lon="-4.090996">
        <ele>601.1</ele>
        <time>2020-12-09T11:59:15Z</time>
      </trkpt>
      <trkpt lat="39.79701" lon="-4.0909553">
        <ele>601.1</ele>
        <time>2020-12-09T11:59:21Z</time>
      </trkpt>
      <trkpt lat="39.796967" lon="-4.0909133">
        <ele>601.1</ele>
        <time>2020-12-09T11:59:25Z</time>
      </trkpt>
      <trkpt lat="39.796913" lon="-4.090922">
        <ele>601.1</ele>
        <time>2020-12-09T11:59:29Z</time>
      </trkpt>
      <trkpt lat="39.796867" lon="-4.090968">
        <ele>602.38</ele>
        <time>2020-12-09T11:59:33Z</time>
      </trkpt>
      <trkpt lat="39.79683" lon="-4.091022">
        <ele>602.38</ele>
        <time>2020-12-09T11:59:37Z</time>
      </trkpt>
      <trkpt lat="39.796787" lon="-4.091055">
        <ele>603.56</ele>
        <time>2020-12-09T11:59:41Z</time>
      </trkpt>
      <trkpt lat="39.796734" lon="-4.091093">
        <ele>604.83</ele>
        <time>2020-12-09T11:59:46Z</time>
      </trkpt>
      <trkpt lat="39.796696" lon="-4.0911317">
        <ele>612.58</ele>
        <time>2020-12-09T11:59:50Z</time>
      </trkpt>
      <trkpt lat="39.796646" lon="-4.0911684">
        <ele>613.95</ele>
        <time>2020-12-09T11:59:55Z</time>
      </trkpt>
      <trkpt lat="39.796593" lon="-4.091203">
        <ele>615.13</ele>
        <time>2020-12-09T12:00:00Z</time>
      </trkpt>
      <trkpt lat="39.796543" lon="-4.09115">
        <ele>616.31</ele>
        <time>2020-12-09T12:00:05Z</time>
      </trkpt>
      <trkpt lat="39.79652" lon="-4.0910935">
        <ele>616.31</ele>
        <time>2020-12-09T12:00:08Z</time>
      </trkpt>
      <trkpt lat="39.7965" lon="-4.091017">
        <ele>616.31</ele>
        <time>2020-12-09T12:00:12Z</time>
      </trkpt>
      <trkpt lat="39.79646" lon="-4.090988">
        <ele>617.49</ele>
        <time>2020-12-09T12:00:16Z</time>
      </trkpt>
      <trkpt lat="39.796402" lon="-4.0909824">
        <ele>617.49</ele>
        <time>2020-12-09T12:00:20Z</time>
      </trkpt>
      <trkpt lat="39.796345" lon="-4.0909576">
        <ele>617.49</ele>
        <time>2020-12-09T12:00:24Z</time>
      </trkpt>
      <trkpt lat="39.796284" lon="-4.0909534">
        <ele>617.49</ele>
        <time>2020-12-09T12:00:28Z</time>
      </trkpt>
      <trkpt lat="39.796234" lon="-4.0909758">
        <ele>617.49</ele>
        <time>2020-12-09T12:00:32Z</time>
      </trkpt>
      <trkpt lat="39.796192" lon="-4.09103">
        <ele>617.49</ele>
        <time>2020-12-09T12:00:36Z</time>
      </trkpt>
      <trkpt lat="39.796154" lon="-4.091085">
        <ele>617.49</ele>
        <time>2020-12-09T12:00:40Z</time>
      </trkpt>
      <trkpt lat="39.796112" lon="-4.0911303">
        <ele>616.22</ele>
        <time>2020-12-09T12:00:44Z</time>
      </trkpt>
      <trkpt lat="39.79607" lon="-4.0911846">
        <ele>616.22</ele>
        <time>2020-12-09T12:00:48Z</time>
      </trkpt>
      <trkpt lat="39.79604" lon="-4.0912337">
        <ele>616.22</ele>
        <time>2020-12-09T12:00:51Z</time>
      </trkpt>
      <trkpt lat="39.795994" lon="-4.091278">
        <ele>615.04</ele>
        <time>2020-12-09T12:00:55Z</time>
      </trkpt>
      <trkpt lat="39.79595" lon="-4.091317">
        <ele>615.04</ele>
        <time>2020-12-09T12:00:59Z</time>
      </trkpt>
      <trkpt lat="39.7959" lon="-4.091324">
        <ele>613.76</ele>
        <time>2020-12-09T12:01:03Z</time>
      </trkpt>
      <trkpt lat="39.795845" lon="-4.091308">
        <ele>613.76</ele>
        <time>2020-12-09T12:01:06Z</time>
      </trkpt>
      <trkpt lat="39.79579" lon="-4.091287">
        <ele>613.76</ele>
        <time>2020-12-09T12:01:09Z</time>
      </trkpt>
      <trkpt lat="39.79574" lon="-4.0912714">
        <ele>613.76</ele>
        <time>2020-12-09T12:01:12Z</time>
      </trkpt>
      <trkpt lat="39.795685" lon="-4.091272">
        <ele>613.76</ele>
        <time>2020-12-09T12:01:15Z</time>
      </trkpt>
      <trkpt lat="39.795635" lon="-4.091308">
        <ele>613.76</ele>
        <time>2020-12-09T12:01:19Z</time>
      </trkpt>
      <trkpt lat="39.795605" lon="-4.091378">
        <ele>615.04</ele>
        <time>2020-12-09T12:01:23Z</time>
      </trkpt>
      <trkpt lat="39.79558" lon="-4.0914354">
        <ele>615.04</ele>
        <time>2020-12-09T12:01:27Z</time>
      </trkpt>
      <trkpt lat="39.795525" lon="-4.0914755">
        <ele>616.31</ele>
        <time>2020-12-09T12:01:32Z</time>
      </trkpt>
      <trkpt lat="39.795464" lon="-4.091505">
        <ele>617.67</ele>
        <time>2020-12-09T12:01:38Z</time>
      </trkpt>
      <trkpt lat="39.79541" lon="-4.0914693">
        <ele>618.85</ele>
        <time>2020-12-09T12:01:43Z</time>
      </trkpt>
      <trkpt lat="39.795353" lon="-4.091444">
        <ele>620.13</ele>
        <time>2020-12-09T12:01:48Z</time>
      </trkpt>
      <trkpt lat="39.795296" lon="-4.091428">
        <ele>615.87</ele>
        <time>2020-12-09T12:01:52Z</time>
      </trkpt>
      <trkpt lat="39.79524" lon="-4.091376">
        <ele>615.87</ele>
        <time>2020-12-09T12:01:57Z</time>
      </trkpt>
      <trkpt lat="39.79519" lon="-4.0913553">
        <ele>617.15</ele>
        <time>2020-12-09T12:02:01Z</time>
      </trkpt>
      <trkpt lat="39.79513" lon="-4.091325">
        <ele>617.15</ele>
        <time>2020-12-09T12:02:05Z</time>
      </trkpt>
      <trkpt lat="39.79509" lon="-4.0913057">
        <ele>617.15</ele>
        <time>2020-12-09T12:02:08Z</time>
      </trkpt>
      <trkpt lat="39.79503" lon="-4.091287">
        <ele>617.15</ele>
        <time>2020-12-09T12:02:12Z</time>
      </trkpt>
      <trkpt lat="39.79497" lon="-4.091269">
        <ele>617.15</ele>
        <time>2020-12-09T12:02:16Z</time>
      </trkpt>
      <trkpt lat="39.794907" lon="-4.0912495">
        <ele>617.15</ele>
        <time>2020-12-09T12:02:20Z</time>
      </trkpt>
      <trkpt lat="39.794857" lon="-4.091253">
        <ele>617.15</ele>
        <time>2020-12-09T12:02:23Z</time>
      </trkpt>
      <trkpt lat="39.794796" lon="-4.091259">
        <ele>617.15</ele>
        <time>2020-12-09T12:02:27Z</time>
      </trkpt>
      <trkpt lat="39.794735" lon="-4.0912504">
        <ele>618.33</ele>
        <time>2020-12-09T12:02:31Z</time>
      </trkpt>
      <trkpt lat="39.794678" lon="-4.0912275">
        <ele>618.33</ele>
        <time>2020-12-09T12:02:35Z</time>
      </trkpt>
      <trkpt lat="39.794624" lon="-4.0911894">
        <ele>618.33</ele>
        <time>2020-12-09T12:02:39Z</time>
      </trkpt>
      <trkpt lat="39.794582" lon="-4.091142">
        <ele>618.33</ele>
        <time>2020-12-09T12:02:43Z</time>
      </trkpt>
      <trkpt lat="39.794533" lon="-4.0911">
        <ele>618.33</ele>
        <time>2020-12-09T12:02:47Z</time>
      </trkpt>
      <trkpt lat="39.794407" lon="-4.090935">
        <ele>618.33</ele>
        <time>2020-12-09T12:04:09Z</time>
      </trkpt>
      <trkpt lat="39.794422" lon="-4.0909452">
        <ele>618.33</ele>
        <time>2020-12-09T12:04:11Z</time>
      </trkpt>
      <trkpt lat="39.794476" lon="-4.0910287">
        <ele>618.33</ele>
        <time>2020-12-09T12:04:17Z</time>
      </trkpt>
      <trkpt lat="39.79448" lon="-4.0911016">
        <ele>618.33</ele>
        <time>2020-12-09T12:04:21Z</time>
      </trkpt>
      <trkpt lat="39.794456" lon="-4.0911775">
        <ele>617.15</ele>
        <time>2020-12-09T12:04:25Z</time>
      </trkpt>
      <trkpt lat="39.79444" lon="-4.091235">
        <ele>617.15</ele>
        <time>2020-12-09T12:04:28Z</time>
      </trkpt>
      <trkpt lat="39.794403" lon="-4.0912905">
        <ele>617.15</ele>
        <time>2020-12-09T12:04:32Z</time>
      </trkpt>
      <trkpt lat="39.794346" lon="-4.091285">
        <ele>617.15</ele>
        <time>2020-12-09T12:04:36Z</time>
      </trkpt>
      <trkpt lat="39.794285" lon="-4.091265">
        <ele>615.97</ele>
        <time>2020-12-09T12:04:40Z</time>
      </trkpt>
      <trkpt lat="39.79423" lon="-4.0912933">
        <ele>615.97</ele>
        <time>2020-12-09T12:04:44Z</time>
      </trkpt>
      <trkpt lat="39.794178" lon="-4.0913324">
        <ele>615.97</ele>
        <time>2020-12-09T12:04:48Z</time>
      </trkpt>
      <trkpt lat="39.794117" lon="-4.0913377">
        <ele>615.97</ele>
        <time>2020-12-09T12:04:52Z</time>
      </trkpt>
      <trkpt lat="39.794052" lon="-4.091332">
        <ele>614.78</ele>
        <time>2020-12-09T12:04:56Z</time>
      </trkpt>
      <trkpt lat="39.793987" lon="-4.0913224">
        <ele>614.78</ele>
        <time>2020-12-09T12:05:00Z</time>
      </trkpt>
      <trkpt lat="39.79393" lon="-4.091335">
        <ele>614.78</ele>
        <time>2020-12-09T12:05:04Z</time>
      </trkpt>
      <trkpt lat="39.79387" lon="-4.0913644">
        <ele>613.6</ele>
        <time>2020-12-09T12:05:08Z</time>
      </trkpt>
      <trkpt lat="39.79381" lon="-4.091401">
        <ele>612.42</ele>
        <time>2020-12-09T12:05:12Z</time>
      </trkpt>
      <trkpt lat="39.79376" lon="-4.0914135">
        <ele>612.42</ele>
        <time>2020-12-09T12:05:16Z</time>
      </trkpt>
      <trkpt lat="39.793694" lon="-4.0913806">
        <ele>611.24</ele>
        <time>2020-12-09T12:05:21Z</time>
      </trkpt>
      <trkpt lat="39.79364" lon="-4.091359">
        <ele>611.24</ele>
        <time>2020-12-09T12:05:25Z</time>
      </trkpt>
      <trkpt lat="39.79359" lon="-4.0913525">
        <ele>609.97</ele>
        <time>2020-12-09T12:05:29Z</time>
      </trkpt>
      <trkpt lat="39.793545" lon="-4.091345">
        <ele>609.97</ele>
        <time>2020-12-09T12:05:34Z</time>
      </trkpt>
      <trkpt lat="39.793488" lon="-4.0913644">
        <ele>608.78</ele>
        <time>2020-12-09T12:05:39Z</time>
      </trkpt>
      <trkpt lat="39.793434" lon="-4.091391">
        <ele>608.78</ele>
        <time>2020-12-09T12:05:43Z</time>
      </trkpt>
      <trkpt lat="39.793392" lon="-4.09143">
        <ele>608.78</ele>
        <time>2020-12-09T12:05:47Z</time>
      </trkpt>
      <trkpt lat="39.793396" lon="-4.091542">
        <ele>608.78</ele>
        <time>2020-12-09T12:06:25Z</time>
      </trkpt>
      <trkpt lat="39.793377" lon="-4.091559">
        <ele>608.78</ele>
        <time>2020-12-09T12:06:33Z</time>
      </trkpt>
      <trkpt lat="39.793312" lon="-4.091606">
        <ele>608.78</ele>
        <time>2020-12-09T12:06:37Z</time>
      </trkpt>
      <trkpt lat="39.793236" lon="-4.0916605">
        <ele>608.78</ele>
        <time>2020-12-09T12:06:41Z</time>
      </trkpt>
      <trkpt lat="39.793186" lon="-4.091694">
        <ele>608.78</ele>
        <time>2020-12-09T12:06:44Z</time>
      </trkpt>
      <trkpt lat="39.79314" lon="-4.0917196">
        <ele>608.78</ele>
        <time>2020-12-09T12:06:47Z</time>
      </trkpt>
      <trkpt lat="39.793087" lon="-4.091733">
        <ele>608.78</ele>
        <time>2020-12-09T12:06:51Z</time>
      </trkpt>
      <trkpt lat="39.79304" lon="-4.091771">
        <ele>608.78</ele>
        <time>2020-12-09T12:06:55Z</time>
      </trkpt>
      <trkpt lat="39.792995" lon="-4.0918303">
        <ele>608.78</ele>
        <time>2020-12-09T12:06:59Z</time>
      </trkpt>
      <trkpt lat="39.792984" lon="-4.091904">
        <ele>608.78</ele>
        <time>2020-12-09T12:07:03Z</time>
      </trkpt>
      <trkpt lat="39.792965" lon="-4.0919685">
        <ele>608.78</ele>
        <time>2020-12-09T12:07:07Z</time>
      </trkpt>
      <trkpt lat="39.79294" lon="-4.092024">
        <ele>608.78</ele>
        <time>2020-12-09T12:07:11Z</time>
      </trkpt>
      <trkpt lat="39.79288" lon="-4.092059">
        <ele>608.78</ele>
        <time>2020-12-09T12:07:16Z</time>
      </trkpt>
      <trkpt lat="39.792828" lon="-4.092089">
        <ele>607.6</ele>
        <time>2020-12-09T12:07:20Z</time>
      </trkpt>
      <trkpt lat="39.792767" lon="-4.0920806">
        <ele>607.6</ele>
        <time>2020-12-09T12:07:25Z</time>
      </trkpt>
      <trkpt lat="39.792713" lon="-4.092037">
        <ele>606.24</ele>
        <time>2020-12-09T12:07:29Z</time>
      </trkpt>
      <trkpt lat="39.792667" lon="-4.092006">
        <ele>606.24</ele>
        <time>2020-12-09T12:07:32Z</time>
      </trkpt>
      <trkpt lat="39.792614" lon="-4.091982">
        <ele>604.97</ele>
        <time>2020-12-09T12:07:35Z</time>
      </trkpt>
      <trkpt lat="39.79256" lon="-4.0919642">
        <ele>604.97</ele>
        <time>2020-12-09T12:07:38Z</time>
      </trkpt>
      <trkpt lat="39.792507" lon="-4.091955">
        <ele>603.78</ele>
        <time>2020-12-09T12:07:41Z</time>
      </trkpt>
      <trkpt lat="39.79246" lon="-4.0919533">
        <ele>603.78</ele>
        <time>2020-12-09T12:07:44Z</time>
      </trkpt>
      <trkpt lat="39.792404" lon="-4.0919256">
        <ele>602.6</ele>
        <time>2020-12-09T12:07:48Z</time>
      </trkpt>
      <trkpt lat="39.792343" lon="-4.091901">
        <ele>602.6</ele>
        <time>2020-12-09T12:07:52Z</time>
      </trkpt>
      <trkpt lat="39.792282" lon="-4.091871">
        <ele>602.6</ele>
        <time>2020-12-09T12:07:56Z</time>
      </trkpt>
      <trkpt lat="39.79223" lon="-4.0918455">
        <ele>602.6</ele>
        <time>2020-12-09T12:08:00Z</time>
      </trkpt>
      <trkpt lat="39.792168" lon="-4.0918355">
        <ele>602.6</ele>
        <time>2020-12-09T12:08:04Z</time>
      </trkpt>
      <trkpt lat="39.79211" lon="-4.091838">
        <ele>603.87</ele>
        <time>2020-12-09T12:08:08Z</time>
      </trkpt>
      <trkpt lat="39.792053" lon="-4.09182">
        <ele>603.87</ele>
        <time>2020-12-09T12:08:12Z</time>
      </trkpt>
      <trkpt lat="39.791992" lon="-4.0917993">
        <ele>603.87</ele>
        <time>2020-12-09T12:08:16Z</time>
      </trkpt>
      <trkpt lat="39.79193" lon="-4.0918117">
        <ele>603.87</ele>
        <time>2020-12-09T12:08:20Z</time>
      </trkpt>
      <trkpt lat="39.791866" lon="-4.091834">
        <ele>603.87</ele>
        <time>2020-12-09T12:08:24Z</time>
      </trkpt>
      <trkpt lat="39.79182" lon="-4.0918465">
        <ele>603.87</ele>
        <time>2020-12-09T12:08:27Z</time>
      </trkpt>
      <trkpt lat="39.791763" lon="-4.0918446">
        <ele>608.22</ele>
        <time>2020-12-09T12:08:31Z</time>
      </trkpt>
      <trkpt lat="39.79171" lon="-4.0918617">
        <ele>608.22</ele>
        <time>2020-12-09T12:08:35Z</time>
      </trkpt>
      <trkpt lat="39.791668" lon="-4.0919056">
        <ele>606.95</ele>
        <time>2020-12-09T12:08:39Z</time>
      </trkpt>
      <trkpt lat="39.79163" lon="-4.091954">
        <ele>606.95</ele>
        <time>2020-12-09T12:08:43Z</time>
      </trkpt>
      <trkpt lat="39.791595" lon="-4.092002">
        <ele>605.68</ele>
        <time>2020-12-09T12:08:47Z</time>
      </trkpt>
      <trkpt lat="39.791553" lon="-4.09205">
        <ele>605.68</ele>
        <time>2020-12-09T12:08:51Z</time>
      </trkpt>
      <trkpt lat="39.791534" lon="-4.092119">
        <ele>604.41</ele>
        <time>2020-12-09T12:08:55Z</time>
      </trkpt>
      <trkpt lat="39.791546" lon="-4.092192">
        <ele>604.41</ele>
        <time>2020-12-09T12:08:59Z</time>
      </trkpt>
      <trkpt lat="39.791573" lon="-4.0922575">
        <ele>604.41</ele>
        <time>2020-12-09T12:09:03Z</time>
      </trkpt>
      <trkpt lat="39.791595" lon="-4.092329">
        <ele>604.41</ele>
        <time>2020-12-09T12:09:07Z</time>
      </trkpt>
      <trkpt lat="39.79159" lon="-4.092405">
        <ele>604.41</ele>
        <time>2020-12-09T12:09:11Z</time>
      </trkpt>
      <trkpt lat="39.79159" lon="-4.0924773">
        <ele>604.41</ele>
        <time>2020-12-09T12:09:15Z</time>
      </trkpt>
      <trkpt lat="39.79159" lon="-4.092549">
        <ele>604.41</ele>
        <time>2020-12-09T12:09:19Z</time>
      </trkpt>
      <trkpt lat="39.791573" lon="-4.0926223">
        <ele>604.41</ele>
        <time>2020-12-09T12:09:24Z</time>
      </trkpt>
      <trkpt lat="39.79152" lon="-4.0926642">
        <ele>604.41</ele>
        <time>2020-12-09T12:09:29Z</time>
      </trkpt>
      <trkpt lat="39.791466" lon="-4.0926976">
        <ele>604.41</ele>
        <time>2020-12-09T12:09:33Z</time>
      </trkpt>
      <trkpt lat="39.79142" lon="-4.0927467">
        <ele>605.59</ele>
        <time>2020-12-09T12:09:37Z</time>
      </trkpt>
      <trkpt lat="39.791397" lon="-4.0928006">
        <ele>605.59</ele>
        <time>2020-12-09T12:09:41Z</time>
      </trkpt>
      <trkpt lat="39.791424" lon="-4.0928574">
        <ele>605.59</ele>
        <time>2020-12-09T12:09:47Z</time>
      </trkpt>
      <trkpt lat="39.79145" lon="-4.0929313">
        <ele>606.86</ele>
        <time>2020-12-09T12:09:53Z</time>
      </trkpt>
      <trkpt lat="39.79148" lon="-4.092986">
        <ele>608.04</ele>
        <time>2020-12-09T12:09:58Z</time>
      </trkpt>
      <trkpt lat="39.791496" lon="-4.0930552">
        <ele>609.41</ele>
        <time>2020-12-09T12:10:07Z</time>
      </trkpt>
      <trkpt lat="39.7915" lon="-4.093119">
        <ele>609.41</ele>
        <time>2020-12-09T12:10:12Z</time>
      </trkpt>
      <trkpt lat="39.791523" lon="-4.093201">
        <ele>609.41</ele>
        <time>2020-12-09T12:10:17Z</time>
      </trkpt>
      <trkpt lat="39.79154" lon="-4.0932603">
        <ele>609.41</ele>
        <time>2020-12-09T12:10:22Z</time>
      </trkpt>
      <trkpt lat="39.791527" lon="-4.093335">
        <ele>609.41</ele>
        <time>2020-12-09T12:10:27Z</time>
      </trkpt>
      <trkpt lat="39.791492" lon="-4.093392">
        <ele>611.06</ele>
        <time>2020-12-09T12:10:32Z</time>
      </trkpt>
      <trkpt lat="39.791477" lon="-4.0934567">
        <ele>611.06</ele>
        <time>2020-12-09T12:10:37Z</time>
      </trkpt>
      <trkpt lat="39.79151" lon="-4.0935044">
        <ele>611.06</ele>
        <time>2020-12-09T12:10:43Z</time>
      </trkpt>
      <trkpt lat="39.791565" lon="-4.093529">
        <ele>611.06</ele>
        <time>2020-12-09T12:10:48Z</time>
      </trkpt>
      <trkpt lat="39.7916" lon="-4.09359">
        <ele>612.6</ele>
        <time>2020-12-09T12:10:53Z</time>
      </trkpt>
      <trkpt lat="39.79161" lon="-4.09366">
        <ele>612.6</ele>
        <time>2020-12-09T12:10:57Z</time>
      </trkpt>
      <trkpt lat="39.79165" lon="-4.093723">
        <ele>612.6</ele>
        <time>2020-12-09T12:11:01Z</time>
      </trkpt>
      <trkpt lat="39.791687" lon="-4.0937796">
        <ele>613.78</ele>
        <time>2020-12-09T12:11:05Z</time>
      </trkpt>
      <trkpt lat="39.7917" lon="-4.0938625">
        <ele>613.78</ele>
        <time>2020-12-09T12:11:10Z</time>
      </trkpt>
      <trkpt lat="39.79169" lon="-4.0939274">
        <ele>613.78</ele>
        <time>2020-12-09T12:11:17Z</time>
      </trkpt>
      <trkpt lat="39.791714" lon="-4.094001">
        <ele>612.51</ele>
        <time>2020-12-09T12:11:23Z</time>
      </trkpt>
      <trkpt lat="39.791748" lon="-4.0940576">
        <ele>611.33</ele>
        <time>2020-12-09T12:11:27Z</time>
      </trkpt>
      <trkpt lat="39.791782" lon="-4.094126">
        <ele>610.15</ele>
        <time>2020-12-09T12:11:32Z</time>
      </trkpt>
      <trkpt lat="39.791813" lon="-4.0941935">
        <ele>608.96</ele>
        <time>2020-12-09T12:11:37Z</time>
      </trkpt>
      <trkpt lat="39.79185" lon="-4.0942535">
        <ele>607.78</ele>
        <time>2020-12-09T12:11:42Z</time>
      </trkpt>
      <trkpt lat="39.791885" lon="-4.09429">
        <ele>606.6</ele>
        <time>2020-12-09T12:11:47Z</time>
      </trkpt>
      <trkpt lat="39.791885" lon="-4.0945005">
        <ele>602.6</ele>
        <time>2020-12-09T12:12:11Z</time>
      </trkpt>
      <trkpt lat="39.79185" lon="-4.094548">
        <ele>601.33</ele>
        <time>2020-12-09T12:12:16Z</time>
      </trkpt>
      <trkpt lat="39.791843" lon="-4.094616">
        <ele>601.33</ele>
        <time>2020-12-09T12:12:22Z</time>
      </trkpt>
      <trkpt lat="39.791862" lon="-4.0946765">
        <ele>603.96</ele>
        <time>2020-12-09T12:12:28Z</time>
      </trkpt>
      <trkpt lat="39.79185" lon="-4.0947366">
        <ele>605.24</ele>
        <time>2020-12-09T12:12:36Z</time>
      </trkpt>
      <trkpt lat="39.791794" lon="-4.094756">
        <ele>605.24</ele>
        <time>2020-12-09T12:12:42Z</time>
      </trkpt>
      <trkpt lat="39.79211" lon="-4.09533">
        <ele>-20000.0</ele>
        <time>2020-12-09T12:18:06Z</time>
      </trkpt>
      <trkpt lat="39.79212" lon="-4.095327">
        <ele>-20000.0</ele>
        <time>2020-12-09T12:18:07Z</time>
      </trkpt>
      <trkpt lat="39.792126" lon="-4.0953255">
        <ele>-20000.0</ele>
        <time>2020-12-09T12:18:08Z</time>
      </trkpt>
      <trkpt lat="39.792133" lon="-4.0953236">
        <ele>-20000.0</ele>
        <time>2020-12-09T12:18:09Z</time>
      </trkpt>
      <trkpt lat="39.79214" lon="-4.095323">
        <ele>-20000.0</ele>
        <time>2020-12-09T12:18:10Z</time>
      </trkpt>
      <trkpt lat="39.792152" lon="-4.095321">
        <ele>-20000.0</ele>
        <time>2020-12-09T12:18:11Z</time>
      </trkpt>
      <trkpt lat="39.792164" lon="-4.09532">
        <ele>-20000.0</ele>
        <time>2020-12-09T12:18:12Z</time>
      </trkpt>
      <trkpt lat="39.79217" lon="-4.095319">
        <ele>-20000.0</ele>
        <time>2020-12-09T12:18:13Z</time>
      </trkpt>
      <trkpt lat="39.792183" lon="-4.0953183">
        <ele>-20000.0</ele>
        <time>2020-12-09T12:18:14Z</time>
      </trkpt>
      <trkpt lat="39.79219" lon="-4.095317">
        <ele>-20000.0</ele>
        <time>2020-12-09T12:18:15Z</time>
      </trkpt>
      <trkpt lat="39.7922" lon="-4.0953145">
        <ele>622.14</ele>
        <time>2020-12-09T12:18:16Z</time>
      </trkpt>
      <trkpt lat="39.79221" lon="-4.095315">
        <ele>622.14</ele>
        <time>2020-12-09T12:18:17Z</time>
      </trkpt>
      <trkpt lat="39.79222" lon="-4.0953174">
        <ele>622.14</ele>
        <time>2020-12-09T12:18:18Z</time>
      </trkpt>
      <trkpt lat="39.79227" lon="-4.0953403">
        <ele>622.14</ele>
        <time>2020-12-09T12:18:22Z</time>
      </trkpt>
      <trkpt lat="39.79232" lon="-4.095382">
        <ele>622.14</ele>
        <time>2020-12-09T12:18:26Z</time>
      </trkpt>
      <trkpt lat="39.79237" lon="-4.0954266">
        <ele>623.32</ele>
        <time>2020-12-09T12:18:30Z</time>
      </trkpt>
      <trkpt lat="39.792416" lon="-4.0954757">
        <ele>624.59</ele>
        <time>2020-12-09T12:18:34Z</time>
      </trkpt>
      <trkpt lat="39.79245" lon="-4.095527">
        <ele>624.59</ele>
        <time>2020-12-09T12:18:38Z</time>
      </trkpt>
      <trkpt lat="39.792446" lon="-4.095608">
        <ele>625.77</ele>
        <time>2020-12-09T12:18:43Z</time>
      </trkpt>
      <trkpt lat="39.79244" lon="-4.0956826">
        <ele>625.77</ele>
        <time>2020-12-09T12:18:47Z</time>
      </trkpt>
      <trkpt lat="39.79245" lon="-4.0957537">
        <ele>625.77</ele>
        <time>2020-12-09T12:18:51Z</time>
      </trkpt>
      <trkpt lat="39.792454" lon="-4.095825">
        <ele>625.77</ele>
        <time>2020-12-09T12:18:55Z</time>
      </trkpt>
      <trkpt lat="39.792454" lon="-4.095894">
        <ele>624.32</ele>
        <time>2020-12-09T12:18:59Z</time>
      </trkpt>
      <trkpt lat="39.792465" lon="-4.095969">
        <ele>623.04</ele>
        <time>2020-12-09T12:19:04Z</time>
      </trkpt>
      <trkpt lat="39.79249" lon="-4.096038">
        <ele>621.86</ele>
        <time>2020-12-09T12:19:09Z</time>
      </trkpt>
      <trkpt lat="39.792526" lon="-4.0961013">
        <ele>620.59</ele>
        <time>2020-12-09T12:19:14Z</time>
      </trkpt>
      <trkpt lat="39.79257" lon="-4.096147">
        <ele>620.59</ele>
        <time>2020-12-09T12:19:18Z</time>
      </trkpt>
      <trkpt lat="39.792587" lon="-4.09621">
        <ele>619.41</ele>
        <time>2020-12-09T12:19:23Z</time>
      </trkpt>
      <trkpt lat="39.792557" lon="-4.0962605">
        <ele>618.23</ele>
        <time>2020-12-09T12:19:29Z</time>
      </trkpt>
      <trkpt lat="39.792526" lon="-4.096305">
        <ele>616.95</ele>
        <time>2020-12-09T12:19:36Z</time>
      </trkpt>
      <trkpt lat="39.79254" lon="-4.096355">
        <ele>616.95</ele>
        <time>2020-12-09T12:19:44Z</time>
      </trkpt>
      <trkpt lat="39.792576" lon="-4.0964165">
        <ele>615.77</ele>
        <time>2020-12-09T12:19:52Z</time>
      </trkpt>
      <trkpt lat="39.79261" lon="-4.096476">
        <ele>615.77</ele>
        <time>2020-12-09T12:19:57Z</time>
      </trkpt>
      <trkpt lat="39.79265" lon="-4.096532">
        <ele>615.77</ele>
        <time>2020-12-09T12:21:01Z</time>
      </trkpt>
      <trkpt lat="39.792675" lon="-4.0965047">
        <ele>615.77</ele>
        <time>2020-12-09T12:21:10Z</time>
      </trkpt>
      <trkpt lat="39.792713" lon="-4.0965486">
        <ele>615.77</ele>
        <time>2020-12-09T12:21:18Z</time>
      </trkpt>
      <trkpt lat="39.79276" lon="-4.096594">
        <ele>614.59</ele>
        <time>2020-12-09T12:21:25Z</time>
      </trkpt>
      <trkpt lat="39.79279" lon="-4.096641">
        <ele>613.32</ele>
        <time>2020-12-09T12:21:31Z</time>
      </trkpt>
      <trkpt lat="39.79277" lon="-4.096709">
        <ele>612.14</ele>
        <time>2020-12-09T12:21:37Z</time>
      </trkpt>
      <trkpt lat="39.79279" lon="-4.0967836">
        <ele>612.14</ele>
        <time>2020-12-09T12:21:42Z</time>
      </trkpt>
      <trkpt lat="39.79283" lon="-4.096815">
        <ele>612.14</ele>
        <time>2020-12-09T12:21:45Z</time>
      </trkpt>
      <trkpt lat="39.7929" lon="-4.096834">
        <ele>612.14</ele>
        <time>2020-12-09T12:21:49Z</time>
      </trkpt>
      <trkpt lat="39.79295" lon="-4.096838">
        <ele>612.14</ele>
        <time>2020-12-09T12:21:52Z</time>
      </trkpt>
      <trkpt lat="39.793" lon="-4.0968394">
        <ele>612.14</ele>
        <time>2020-12-09T12:21:55Z</time>
      </trkpt>
      <trkpt lat="39.793064" lon="-4.096856">
        <ele>612.14</ele>
        <time>2020-12-09T12:21:59Z</time>
      </trkpt>
      <trkpt lat="39.79311" lon="-4.096872">
        <ele>613.41</ele>
        <time>2020-12-09T12:22:02Z</time>
      </trkpt>
      <trkpt lat="39.79317" lon="-4.09687">
        <ele>613.41</ele>
        <time>2020-12-09T12:22:06Z</time>
      </trkpt>
      <trkpt lat="39.79322" lon="-4.096856">
        <ele>613.41</ele>
        <time>2020-12-09T12:22:09Z</time>
      </trkpt>
      <trkpt lat="39.793297" lon="-4.096834">
        <ele>614.68</ele>
        <time>2020-12-09T12:22:14Z</time>
      </trkpt>
      <trkpt lat="39.79335" lon="-4.096829">
        <ele>615.95</ele>
        <time>2020-12-09T12:22:18Z</time>
      </trkpt>
      <trkpt lat="39.793415" lon="-4.0968328">
        <ele>617.14</ele>
        <time>2020-12-09T12:22:22Z</time>
      </trkpt>
      <trkpt lat="39.79347" lon="-4.096854">
        <ele>618.32</ele>
        <time>2020-12-09T12:22:26Z</time>
      </trkpt>
      <trkpt lat="39.793514" lon="-4.096889">
        <ele>618.32</ele>
        <time>2020-12-09T12:22:30Z</time>
      </trkpt>
      <trkpt lat="39.793568" lon="-4.096934">
        <ele>619.5</ele>
        <time>2020-12-09T12:22:34Z</time>
      </trkpt>
      <trkpt lat="39.793617" lon="-4.096978">
        <ele>619.5</ele>
        <time>2020-12-09T12:22:38Z</time>
      </trkpt>
      <trkpt lat="39.793667" lon="-4.0970235">
        <ele>620.77</ele>
        <time>2020-12-09T12:22:42Z</time>
      </trkpt>
      <trkpt lat="39.793716" lon="-4.0970564">
        <ele>621.95</ele>
        <time>2020-12-09T12:22:46Z</time>
      </trkpt>
      <trkpt lat="39.793777" lon="-4.0970664">
        <ele>623.14</ele>
        <time>2020-12-09T12:22:50Z</time>
      </trkpt>
      <trkpt lat="39.793827" lon="-4.097061">
        <ele>623.14</ele>
        <time>2020-12-09T12:22:54Z</time>
      </trkpt>
      <trkpt lat="39.793884" lon="-4.0970573">
        <ele>624.41</ele>
        <time>2020-12-09T12:22:58Z</time>
      </trkpt>
      <trkpt lat="39.79394" lon="-4.0970516">
        <ele>624.41</ele>
        <time>2020-12-09T12:23:02Z</time>
      </trkpt>
      <trkpt lat="39.793995" lon="-4.0970635">
        <ele>624.18</ele>
        <time>2020-12-09T12:23:06Z</time>
      </trkpt>
      <trkpt lat="39.794052" lon="-4.097081">
        <ele>625.36</ele>
        <time>2020-12-09T12:23:10Z</time>
      </trkpt>
      <trkpt lat="39.79411" lon="-4.0971">
        <ele>625.36</ele>
        <time>2020-12-09T12:23:14Z</time>
      </trkpt>
      <trkpt lat="39.79417" lon="-4.0971003">
        <ele>626.54</ele>
        <time>2020-12-09T12:23:18Z</time>
      </trkpt>
      <trkpt lat="39.79423" lon="-4.097094">
        <ele>626.54</ele>
        <time>2020-12-09T12:23:22Z</time>
      </trkpt>
      <trkpt lat="39.794304" lon="-4.0970736">
        <ele>626.54</ele>
        <time>2020-12-09T12:24:14Z</time>
      </trkpt>
      <trkpt lat="39.79432" lon="-4.0970855">
        <ele>626.54</ele>
        <time>2020-12-09T12:24:21Z</time>
      </trkpt>
      <trkpt lat="39.79438" lon="-4.097124">
        <ele>626.54</ele>
        <time>2020-12-09T12:24:25Z</time>
      </trkpt>
      <trkpt lat="39.794437" lon="-4.0971494">
        <ele>626.54</ele>
        <time>2020-12-09T12:24:28Z</time>
      </trkpt>
      <trkpt lat="39.794487" lon="-4.097181">
        <ele>627.72</ele>
        <time>2020-12-09T12:24:31Z</time>
      </trkpt>
      <trkpt lat="39.794533" lon="-4.0972147">
        <ele>627.72</ele>
        <time>2020-12-09T12:24:34Z</time>
      </trkpt>
      <trkpt lat="39.794582" lon="-4.097254">
        <ele>628.9</ele>
        <time>2020-12-09T12:24:38Z</time>
      </trkpt>
      <trkpt lat="39.794636" lon="-4.097303">
        <ele>630.18</ele>
        <time>2020-12-09T12:24:43Z</time>
      </trkpt>
      <trkpt lat="39.794693" lon="-4.097338">
        <ele>630.18</ele>
        <time>2020-12-09T12:25:44Z</time>
      </trkpt>
      <trkpt lat="39.79471" lon="-4.0973463">
        <ele>630.18</ele>
        <time>2020-12-09T12:25:50Z</time>
      </trkpt>
      <trkpt lat="39.794773" lon="-4.0973682">
        <ele>630.18</ele>
        <time>2020-12-09T12:25:54Z</time>
      </trkpt>
      <trkpt lat="39.794827" lon="-4.0973973">
        <ele>630.18</ele>
        <time>2020-12-09T12:25:57Z</time>
      </trkpt>
      <trkpt lat="39.794876" lon="-4.09743">
        <ele>630.18</ele>
        <time>2020-12-09T12:26:00Z</time>
      </trkpt>
      <trkpt lat="39.79494" lon="-4.097491">
        <ele>630.18</ele>
        <time>2020-12-09T12:26:05Z</time>
      </trkpt>
      <trkpt lat="39.79497" lon="-4.097556">
        <ele>630.18</ele>
        <time>2020-12-09T12:26:09Z</time>
      </trkpt>
      <trkpt lat="39.79501" lon="-4.09772">
        <ele>630.18</ele>
        <time>2020-12-09T12:29:14Z</time>
      </trkpt>
      <trkpt lat="39.79499" lon="-4.097734">
        <ele>630.18</ele>
        <time>2020-12-09T12:29:18Z</time>
      </trkpt>
      <trkpt lat="39.794926" lon="-4.0977745">
        <ele>630.18</ele>
        <time>2020-12-09T12:29:22Z</time>
      </trkpt>
      <trkpt lat="39.79487" lon="-4.0978007">
        <ele>630.18</ele>
        <time>2020-12-09T12:29:25Z</time>
      </trkpt>
      <trkpt lat="39.79481" lon="-4.097817">
        <ele>630.18</ele>
        <time>2020-12-09T12:29:28Z</time>
      </trkpt>
      <trkpt lat="39.794754" lon="-4.09783">
        <ele>630.18</ele>
        <time>2020-12-09T12:29:31Z</time>
      </trkpt>
      <trkpt lat="39.7947" lon="-4.0978465">
        <ele>630.18</ele>
        <time>2020-12-09T12:29:34Z</time>
      </trkpt>
      <trkpt lat="39.794647" lon="-4.097872">
        <ele>630.18</ele>
        <time>2020-12-09T12:29:37Z</time>
      </trkpt>
      <trkpt lat="39.79458" lon="-4.0979195">
        <ele>630.18</ele>
        <time>2020-12-09T12:29:40Z</time>
      </trkpt>
      <trkpt lat="39.79453" lon="-4.097987">
        <ele>628.99</ele>
        <time>2020-12-09T12:29:45Z</time>
      </trkpt>
      <trkpt lat="39.794502" lon="-4.0980473">
        <ele>628.99</ele>
        <time>2020-12-09T12:29:48Z</time>
      </trkpt>
      <trkpt lat="39.794483" lon="-4.098136">
        <ele>628.99</ele>
        <time>2020-12-09T12:29:52Z</time>
      </trkpt>
      <trkpt lat="39.79449" lon="-4.0982003">
        <ele>628.99</ele>
        <time>2020-12-09T12:29:55Z</time>
      </trkpt>
      <trkpt lat="39.79451" lon="-4.098283">
        <ele>628.99</ele>
        <time>2020-12-09T12:29:59Z</time>
      </trkpt>
      <trkpt lat="39.794525" lon="-4.0983424">
        <ele>630.18</ele>
        <time>2020-12-09T12:30:02Z</time>
      </trkpt>
      <trkpt lat="39.79456" lon="-4.0984178">
        <ele>630.18</ele>
        <time>2020-12-09T12:30:06Z</time>
      </trkpt>
      <trkpt lat="39.794582" lon="-4.0984755">
        <ele>631.36</ele>
        <time>2020-12-09T12:30:09Z</time>
      </trkpt>
      <trkpt lat="39.794594" lon="-4.0985622">
        <ele>631.36</ele>
        <time>2020-12-09T12:30:13Z</time>
      </trkpt>
      <trkpt lat="39.794598" lon="-4.0986276">
        <ele>631.36</ele>
        <time>2020-12-09T12:30:16Z</time>
      </trkpt>
      <trkpt lat="39.794582" lon="-4.098713">
        <ele>631.36</ele>
        <time>2020-12-09T12:30:20Z</time>
      </trkpt>
      <trkpt lat="39.79456" lon="-4.098772">
        <ele>631.36</ele>
        <time>2020-12-09T12:30:23Z</time>
      </trkpt>
      <trkpt lat="39.794506" lon="-4.0988545">
        <ele>631.36</ele>
        <time>2020-12-09T12:30:28Z</time>
      </trkpt>
      <trkpt lat="39.794464" lon="-4.098897">
        <ele>631.36</ele>
        <time>2020-12-09T12:30:31Z</time>
      </trkpt>
      <trkpt lat="39.794422" lon="-4.0989356">
        <ele>631.36</ele>
        <time>2020-12-09T12:30:34Z</time>
      </trkpt>
      <trkpt lat="39.79438" lon="-4.098975">
        <ele>631.36</ele>
        <time>2020-12-09T12:30:37Z</time>
      </trkpt>
      <trkpt lat="39.794334" lon="-4.0990376">
        <ele>631.36</ele>
        <time>2020-12-09T12:30:41Z</time>
      </trkpt>
      <trkpt lat="39.794304" lon="-4.0991335">
        <ele>632.63</ele>
        <time>2020-12-09T12:30:44Z</time>
      </trkpt>
      <trkpt lat="39.794292" lon="-4.09918">
        <ele>632.63</ele>
        <time>2020-12-09T12:30:47Z</time>
      </trkpt>
      <trkpt lat="39.79425" lon="-4.0992675">
        <ele>633.9</ele>
        <time>2020-12-09T12:30:53Z</time>
      </trkpt>
      <trkpt lat="39.794216" lon="-4.09932">
        <ele>633.9</ele>
        <time>2020-12-09T12:30:56Z</time>
      </trkpt>
      <trkpt lat="39.794186" lon="-4.099377">
        <ele>633.9</ele>
        <time>2020-12-09T12:30:59Z</time>
      </trkpt>
      <trkpt lat="39.794163" lon="-4.099465">
        <ele>633.9</ele>
        <time>2020-12-09T12:31:03Z</time>
      </trkpt>
      <trkpt lat="39.794155" lon="-4.099531">
        <ele>635.09</ele>
        <time>2020-12-09T12:31:06Z</time>
      </trkpt>
      <trkpt lat="39.79415" lon="-4.09962">
        <ele>635.09</ele>
        <time>2020-12-09T12:31:10Z</time>
      </trkpt>
      <trkpt lat="39.79415" lon="-4.099686">
        <ele>635.09</ele>
        <time>2020-12-09T12:31:13Z</time>
      </trkpt>
      <trkpt lat="39.794155" lon="-4.099754">
        <ele>635.35</ele>
        <time>2020-12-09T12:31:16Z</time>
      </trkpt>
      <trkpt lat="39.794163" lon="-4.099821">
        <ele>635.35</ele>
        <time>2020-12-09T12:31:19Z</time>
      </trkpt>
      <trkpt lat="39.79417" lon="-4.0999084">
        <ele>635.35</ele>
        <time>2020-12-09T12:31:23Z</time>
      </trkpt>
      <trkpt lat="39.794174" lon="-4.0999746">
        <ele>635.35</ele>
        <time>2020-12-09T12:31:26Z</time>
      </trkpt>
      <trkpt lat="39.794186" lon="-4.1000395">
        <ele>635.35</ele>
        <time>2020-12-09T12:31:29Z</time>
      </trkpt>
      <trkpt lat="39.79419" lon="-4.1001267">
        <ele>634.16</ele>
        <time>2020-12-09T12:31:33Z</time>
      </trkpt>
      <trkpt lat="39.794186" lon="-4.100196">
        <ele>634.16</ele>
        <time>2020-12-09T12:31:36Z</time>
      </trkpt>
      <trkpt lat="39.79418" lon="-4.100263">
        <ele>634.16</ele>
        <time>2020-12-09T12:31:39Z</time>
      </trkpt>
      <trkpt lat="39.79417" lon="-4.1003485">
        <ele>632.98</ele>
        <time>2020-12-09T12:31:43Z</time>
      </trkpt>
      <trkpt lat="39.794167" lon="-4.100409">
        <ele>632.98</ele>
        <time>2020-12-09T12:31:46Z</time>
      </trkpt>
      <trkpt lat="39.794155" lon="-4.100492">
        <ele>631.8</ele>
        <time>2020-12-09T12:31:50Z</time>
      </trkpt>
      <trkpt lat="39.79414" lon="-4.1005783">
        <ele>631.8</ele>
        <time>2020-12-09T12:31:54Z</time>
      </trkpt>
      <trkpt lat="39.79414" lon="-4.1006446">
        <ele>631.8</ele>
        <time>2020-12-09T12:31:57Z</time>
      </trkpt>
      <trkpt lat="39.79415" lon="-4.1007233">
        <ele>630.53</ele>
        <time>2020-12-09T12:32:01Z</time>
      </trkpt>
      <trkpt lat="39.794186" lon="-4.100784">
        <ele>629.16</ele>
        <time>2020-12-09T12:32:05Z</time>
      </trkpt>
      <trkpt lat="39.794205" lon="-4.100849">
        <ele>629.16</ele>
        <time>2020-12-09T12:32:09Z</time>
      </trkpt>
      <trkpt lat="39.794212" lon="-4.10093">
        <ele>627.98</ele>
        <time>2020-12-09T12:32:13Z</time>
      </trkpt>
      <trkpt lat="39.794212" lon="-4.1009946">
        <ele>627.98</ele>
        <time>2020-12-09T12:32:16Z</time>
      </trkpt>
      <trkpt lat="39.794212" lon="-4.101083">
        <ele>626.8</ele>
        <time>2020-12-09T12:32:20Z</time>
      </trkpt>
      <trkpt lat="39.79422" lon="-4.1011505">
        <ele>626.8</ele>
        <time>2020-12-09T12:32:23Z</time>
      </trkpt>
      <trkpt lat="39.794228" lon="-4.1012135">
        <ele>625.53</ele>
        <time>2020-12-09T12:32:26Z</time>
      </trkpt>
      <trkpt lat="39.7942" lon="-4.1012897">
        <ele>625.53</ele>
        <time>2020-12-09T12:32:30Z</time>
      </trkpt>
      <trkpt lat="39.794147" lon="-4.1013207">
        <ele>625.53</ele>
        <time>2020-12-09T12:32:34Z</time>
      </trkpt>
      <trkpt lat="39.79408" lon="-4.101327">
        <ele>624.35</ele>
        <time>2020-12-09T12:32:38Z</time>
      </trkpt>
      <trkpt lat="39.79403" lon="-4.101342">
        <ele>624.35</ele>
        <time>2020-12-09T12:32:41Z</time>
      </trkpt>
      <trkpt lat="39.793983" lon="-4.1013694">
        <ele>624.35</ele>
        <time>2020-12-09T12:32:44Z</time>
      </trkpt>
      <trkpt lat="39.793934" lon="-4.1014314">
        <ele>623.16</ele>
        <time>2020-12-09T12:32:48Z</time>
      </trkpt>
      <trkpt lat="39.793915" lon="-4.101493">
        <ele>623.16</ele>
        <time>2020-12-09T12:32:51Z</time>
      </trkpt>
      <trkpt lat="39.793903" lon="-4.1015615">
        <ele>623.16</ele>
        <time>2020-12-09T12:32:54Z</time>
      </trkpt>
      <trkpt lat="39.793888" lon="-4.1016245">
        <ele>623.16</ele>
        <time>2020-12-09T12:32:57Z</time>
      </trkpt>
      <trkpt lat="39.793846" lon="-4.101682">
        <ele>623.16</ele>
        <time>2020-12-09T12:33:01Z</time>
      </trkpt>
      <trkpt lat="39.793793" lon="-4.1017222">
        <ele>623.16</ele>
        <time>2020-12-09T12:33:05Z</time>
      </trkpt>
      <trkpt lat="39.793743" lon="-4.101744">
        <ele>623.16</ele>
        <time>2020-12-09T12:33:08Z</time>
      </trkpt>
      <trkpt lat="39.793694" lon="-4.101752">
        <ele>623.16</ele>
        <time>2020-12-09T12:33:11Z</time>
      </trkpt>
      <trkpt lat="39.79364" lon="-4.101754">
        <ele>623.16</ele>
        <time>2020-12-09T12:33:14Z</time>
      </trkpt>
      <trkpt lat="39.79358" lon="-4.1017895">
        <ele>631.78</ele>
        <time>2020-12-09T12:33:18Z</time>
      </trkpt>
      <trkpt lat="39.79355" lon="-4.1018624">
        <ele>633.05</ele>
        <time>2020-12-09T12:33:22Z</time>
      </trkpt>
      <trkpt lat="39.79353" lon="-4.1019173">
        <ele>633.05</ele>
        <time>2020-12-09T12:33:25Z</time>
      </trkpt>
      <trkpt lat="39.793495" lon="-4.101972">
        <ele>634.23</ele>
        <time>2020-12-09T12:33:29Z</time>
      </trkpt>
      <trkpt lat="39.79345" lon="-4.10202">
        <ele>635.41</ele>
        <time>2020-12-09T12:33:33Z</time>
      </trkpt>
      <trkpt lat="39.793404" lon="-4.102073">
        <ele>636.6</ele>
        <time>2020-12-09T12:33:37Z</time>
      </trkpt>
      <trkpt lat="39.79337" lon="-4.10214">
        <ele>637.78</ele>
        <time>2020-12-09T12:33:41Z</time>
      </trkpt>
      <trkpt lat="39.79335" lon="-4.1022205">
        <ele>638.96</ele>
        <time>2020-12-09T12:33:45Z</time>
      </trkpt>
      <trkpt lat="39.79333" lon="-4.102299">
        <ele>638.96</ele>
        <time>2020-12-09T12:33:49Z</time>
      </trkpt>
      <trkpt lat="39.793285" lon="-4.102351">
        <ele>640.23</ele>
        <time>2020-12-09T12:33:53Z</time>
      </trkpt>
      <trkpt lat="39.793224" lon="-4.102368">
        <ele>640.23</ele>
        <time>2020-12-09T12:33:57Z</time>
      </trkpt>
      <trkpt lat="39.79316" lon="-4.102373">
        <ele>640.23</ele>
        <time>2020-12-09T12:34:01Z</time>
      </trkpt>
      <trkpt lat="39.793095" lon="-4.1023774">
        <ele>641.51</ele>
        <time>2020-12-09T12:34:05Z</time>
      </trkpt>
      <trkpt lat="39.793037" lon="-4.1023846">
        <ele>642.69</ele>
        <time>2020-12-09T12:34:09Z</time>
      </trkpt>
      <trkpt lat="39.79298" lon="-4.102404">
        <ele>644.05</ele>
        <time>2020-12-09T12:34:13Z</time>
      </trkpt>
      <trkpt lat="39.792934" lon="-4.102424">
        <ele>644.05</ele>
        <time>2020-12-09T12:34:16Z</time>
      </trkpt>
      <trkpt lat="39.792873" lon="-4.1024575">
        <ele>645.23</ele>
        <time>2020-12-09T12:34:20Z</time>
      </trkpt>
      <trkpt lat="39.792816" lon="-4.1024895">
        <ele>645.23</ele>
        <time>2020-12-09T12:34:24Z</time>
      </trkpt>
      <trkpt lat="39.79276" lon="-4.102536">
        <ele>645.23</ele>
        <time>2020-12-09T12:34:28Z</time>
      </trkpt>
      <trkpt lat="39.79272" lon="-4.1025825">
        <ele>644.05</ele>
        <time>2020-12-09T12:34:31Z</time>
      </trkpt>
      <trkpt lat="39.79268" lon="-4.1026525">
        <ele>644.05</ele>
        <time>2020-12-09T12:34:35Z</time>
      </trkpt>
      <trkpt lat="39.792652" lon="-4.1027093">
        <ele>644.05</ele>
        <time>2020-12-09T12:34:38Z</time>
      </trkpt>
      <trkpt lat="39.79262" lon="-4.102763">
        <ele>644.05</ele>
        <time>2020-12-09T12:34:41Z</time>
      </trkpt>
      <trkpt lat="39.792587" lon="-4.102809">
        <ele>644.05</ele>
        <time>2020-12-09T12:34:44Z</time>
      </trkpt>
      <trkpt lat="39.792534" lon="-4.102857">
        <ele>645.23</ele>
        <time>2020-12-09T12:34:48Z</time>
      </trkpt>
      <trkpt lat="39.79247" lon="-4.1028776">
        <ele>645.23</ele>
        <time>2020-12-09T12:34:52Z</time>
      </trkpt>
      <trkpt lat="39.79242" lon="-4.1028957">
        <ele>645.23</ele>
        <time>2020-12-09T12:34:55Z</time>
      </trkpt>
      <trkpt lat="39.79236" lon="-4.102923">
        <ele>645.23</ele>
        <time>2020-12-09T12:34:59Z</time>
      </trkpt>
      <trkpt lat="39.792297" lon="-4.102929">
        <ele>646.41</ele>
        <time>2020-12-09T12:35:03Z</time>
      </trkpt>
      <trkpt lat="39.792236" lon="-4.102928">
        <ele>646.41</ele>
        <time>2020-12-09T12:35:07Z</time>
      </trkpt>
      <trkpt lat="39.79217" lon="-4.102934">
        <ele>647.6</ele>
        <time>2020-12-09T12:35:11Z</time>
      </trkpt>
      <trkpt lat="39.79211" lon="-4.102944">
        <ele>637.04</ele>
        <time>2020-12-09T12:35:15Z</time>
      </trkpt>
      <trkpt lat="39.79205" lon="-4.1029515">
        <ele>638.23</ele>
        <time>2020-12-09T12:35:19Z</time>
      </trkpt>
      <trkpt lat="39.79199" lon="-4.102959">
        <ele>638.23</ele>
        <time>2020-12-09T12:35:23Z</time>
      </trkpt>
      <trkpt lat="39.79191" lon="-4.102995">
        <ele>638.23</ele>
        <time>2020-12-09T12:36:30Z</time>
      </trkpt>
      <trkpt lat="39.791885" lon="-4.1030025">
        <ele>638.23</ele>
        <time>2020-12-09T12:36:35Z</time>
      </trkpt>
      <trkpt lat="39.791813" lon="-4.103023">
        <ele>638.23</ele>
        <time>2020-12-09T12:36:39Z</time>
      </trkpt>
      <trkpt lat="39.791748" lon="-4.1030335">
        <ele>638.23</ele>
        <time>2020-12-09T12:36:42Z</time>
      </trkpt>
      <trkpt lat="39.791687" lon="-4.103039">
        <ele>638.23</ele>
        <time>2020-12-09T12:36:45Z</time>
      </trkpt>
      <trkpt lat="39.79163" lon="-4.1030393">
        <ele>638.23</ele>
        <time>2020-12-09T12:36:48Z</time>
      </trkpt>
      <trkpt lat="39.791573" lon="-4.1030393">
        <ele>638.23</ele>
        <time>2020-12-09T12:36:51Z</time>
      </trkpt>
      <trkpt lat="39.7915" lon="-4.10303">
        <ele>638.23</ele>
        <time>2020-12-09T12:36:55Z</time>
      </trkpt>
      <trkpt lat="39.791447" lon="-4.103026">
        <ele>638.23</ele>
        <time>2020-12-09T12:36:58Z</time>
      </trkpt>
      <trkpt lat="39.791393" lon="-4.103023">
        <ele>637.04</ele>
        <time>2020-12-09T12:37:01Z</time>
      </trkpt>
      <trkpt lat="39.79134" lon="-4.103021">
        <ele>637.04</ele>
        <time>2020-12-09T12:37:04Z</time>
      </trkpt>
      <trkpt lat="39.79129" lon="-4.103021">
        <ele>637.04</ele>
        <time>2020-12-09T12:37:07Z</time>
      </trkpt>
      <trkpt lat="39.791233" lon="-4.103019">
        <ele>637.04</ele>
        <time>2020-12-09T12:37:10Z</time>
      </trkpt>
      <trkpt lat="39.79117" lon="-4.1030197">
        <ele>635.86</ele>
        <time>2020-12-09T12:37:14Z</time>
      </trkpt>
      <trkpt lat="39.791115" lon="-4.103019">
        <ele>635.86</ele>
        <time>2020-12-09T12:37:17Z</time>
      </trkpt>
      <trkpt lat="39.791046" lon="-4.1030173">
        <ele>634.68</ele>
        <time>2020-12-09T12:37:21Z</time>
      </trkpt>
      <trkpt lat="39.790974" lon="-4.103017">
        <ele>634.68</ele>
        <time>2020-12-09T12:37:25Z</time>
      </trkpt>
      <trkpt lat="39.79092" lon="-4.1030135">
        <ele>634.68</ele>
        <time>2020-12-09T12:37:28Z</time>
      </trkpt>
      <trkpt lat="39.790863" lon="-4.1030064">
        <ele>634.68</ele>
        <time>2020-12-09T12:37:31Z</time>
      </trkpt>
      <trkpt lat="39.790813" lon="-4.102989">
        <ele>633.5</ele>
        <time>2020-12-09T12:37:34Z</time>
      </trkpt>
      <trkpt lat="39.790733" lon="-4.1029415">
        <ele>633.5</ele>
        <time>2020-12-09T12:37:39Z</time>
      </trkpt>
      <trkpt lat="39.79069" lon="-4.1029005">
        <ele>633.5</ele>
        <time>2020-12-09T12:37:42Z</time>
      </trkpt>
      <trkpt lat="39.79065" lon="-4.1028557">
        <ele>632.23</ele>
        <time>2020-12-09T12:37:45Z</time>
      </trkpt>
      <trkpt lat="39.790607" lon="-4.102809">
        <ele>632.23</ele>
        <time>2020-12-09T12:37:48Z</time>
      </trkpt>
      <trkpt lat="39.79057" lon="-4.102767">
        <ele>632.23</ele>
        <time>2020-12-09T12:37:51Z</time>
      </trkpt>
      <trkpt lat="39.790527" lon="-4.1027226">
        <ele>632.23</ele>
        <time>2020-12-09T12:37:54Z</time>
      </trkpt>
      <trkpt lat="39.790485" lon="-4.102679">
        <ele>631.04</ele>
        <time>2020-12-09T12:37:57Z</time>
      </trkpt>
      <trkpt lat="39.79043" lon="-4.1026244">
        <ele>631.04</ele>
        <time>2020-12-09T12:38:01Z</time>
      </trkpt>
      <trkpt lat="39.79039" lon="-4.1025825">
        <ele>631.04</ele>
        <time>2020-12-09T12:38:04Z</time>
      </trkpt>
      <trkpt lat="39.790348" lon="-4.1025405">
        <ele>631.04</ele>
        <time>2020-12-09T12:38:07Z</time>
      </trkpt>
      <trkpt lat="39.79031" lon="-4.1024966">
        <ele>629.86</ele>
        <time>2020-12-09T12:38:10Z</time>
      </trkpt>
      <trkpt lat="39.79026" lon="-4.10244">
        <ele>629.86</ele>
        <time>2020-12-09T12:38:14Z</time>
      </trkpt>
      <trkpt lat="39.790222" lon="-4.1023955">
        <ele>629.86</ele>
        <time>2020-12-09T12:38:17Z</time>
      </trkpt>
      <trkpt lat="39.790173" lon="-4.102338">
        <ele>628.68</ele>
        <time>2020-12-09T12:38:21Z</time>
      </trkpt>
      <trkpt lat="39.79013" lon="-4.102297">
        <ele>628.68</ele>
        <time>2020-12-09T12:38:24Z</time>
      </trkpt>
      <trkpt lat="39.79009" lon="-4.1022573">
        <ele>628.68</ele>
        <time>2020-12-09T12:38:27Z</time>
      </trkpt>
      <trkpt lat="39.790035" lon="-4.1022162">
        <ele>635.2</ele>
        <time>2020-12-09T12:38:31Z</time>
      </trkpt>
      <trkpt lat="39.78998" lon="-4.102203">
        <ele>635.2</ele>
        <time>2020-12-09T12:38:35Z</time>
      </trkpt>
      <trkpt lat="39.78992" lon="-4.1021996">
        <ele>635.2</ele>
        <time>2020-12-09T12:38:39Z</time>
      </trkpt>
      <trkpt lat="39.78987" lon="-4.1022043">
        <ele>635.2</ele>
        <time>2020-12-09T12:38:42Z</time>
      </trkpt>
      <trkpt lat="39.789806" lon="-4.102212">
        <ele>635.2</ele>
        <time>2020-12-09T12:38:46Z</time>
      </trkpt>
      <trkpt lat="39.78975" lon="-4.102226">
        <ele>635.2</ele>
        <time>2020-12-09T12:38:50Z</time>
      </trkpt>
      <trkpt lat="39.789696" lon="-4.1022453">
        <ele>635.2</ele>
        <time>2020-12-09T12:38:54Z</time>
      </trkpt>
      <trkpt lat="39.78965" lon="-4.1022677">
        <ele>635.2</ele>
        <time>2020-12-09T12:38:58Z</time>
      </trkpt>
      <trkpt lat="39.789684" lon="-4.102253">
        <ele>635.2</ele>
        <time>2020-12-09T12:39:07Z</time>
      </trkpt>
      <trkpt lat="39.789745" lon="-4.102235">
        <ele>635.2</ele>
        <time>2020-12-09T12:39:11Z</time>
      </trkpt>
      <trkpt lat="39.789803" lon="-4.102214">
        <ele>635.2</ele>
        <time>2020-12-09T12:39:15Z</time>
      </trkpt>
      <trkpt lat="39.78986" lon="-4.1022053">
        <ele>635.2</ele>
        <time>2020-12-09T12:39:19Z</time>
      </trkpt>
      <trkpt lat="39.789906" lon="-4.1021776">
        <ele>635.2</ele>
        <time>2020-12-09T12:39:23Z</time>
      </trkpt>
      <trkpt lat="39.78991" lon="-4.102119">
        <ele>635.2</ele>
        <time>2020-12-09T12:39:27Z</time>
      </trkpt>
      <trkpt lat="39.78989" lon="-4.102033">
        <ele>635.2</ele>
        <time>2020-12-09T12:39:32Z</time>
      </trkpt>
      <trkpt lat="39.78987" lon="-4.101961">
        <ele>635.2</ele>
        <time>2020-12-09T12:39:36Z</time>
      </trkpt>
      <trkpt lat="39.789856" lon="-4.1018867">
        <ele>635.2</ele>
        <time>2020-12-09T12:39:40Z</time>
      </trkpt>
      <trkpt lat="39.789852" lon="-4.1018167">
        <ele>635.2</ele>
        <time>2020-12-09T12:39:44Z</time>
      </trkpt>
      <trkpt lat="39.78991" lon="-4.101774">
        <ele>635.2</ele>
        <time>2020-12-09T12:39:49Z</time>
      </trkpt>
      <trkpt lat="39.789967" lon="-4.101731">
        <ele>634.02</ele>
        <time>2020-12-09T12:39:53Z</time>
      </trkpt>
      <trkpt lat="39.790012" lon="-4.1016665">
        <ele>634.02</ele>
        <time>2020-12-09T12:39:57Z</time>
      </trkpt>
      <trkpt lat="39.790043" lon="-4.1016145">
        <ele>634.02</ele>
        <time>2020-12-09T12:40:00Z</time>
      </trkpt>
      <trkpt lat="39.79007" lon="-4.101539">
        <ele>632.84</ele>
        <time>2020-12-09T12:40:04Z</time>
      </trkpt>
      <trkpt lat="39.790077" lon="-4.101466">
        <ele>632.84</ele>
        <time>2020-12-09T12:40:08Z</time>
      </trkpt>
      <trkpt lat="39.79007" lon="-4.101393">
        <ele>632.84</ele>
        <time>2020-12-09T12:40:12Z</time>
      </trkpt>
      <trkpt lat="39.790054" lon="-4.1013255">
        <ele>632.84</ele>
        <time>2020-12-09T12:40:16Z</time>
      </trkpt>
      <trkpt lat="39.790047" lon="-4.101251">
        <ele>632.84</ele>
        <time>2020-12-09T12:40:20Z</time>
      </trkpt>
      <trkpt lat="39.79006" lon="-4.1011825">
        <ele>631.65</ele>
        <time>2020-12-09T12:40:24Z</time>
      </trkpt>
      <trkpt lat="39.790054" lon="-4.101104">
        <ele>631.65</ele>
        <time>2020-12-09T12:40:29Z</time>
      </trkpt>
      <trkpt lat="39.79003" lon="-4.1010365">
        <ele>628.69</ele>
        <time>2020-12-09T12:40:34Z</time>
      </trkpt>
      <trkpt lat="39.790024" lon="-4.100971">
        <ele>628.69</ele>
        <time>2020-12-09T12:40:38Z</time>
      </trkpt>
      <trkpt lat="39.790012" lon="-4.100904">
        <ele>627.51</ele>
        <time>2020-12-09T12:40:43Z</time>
      </trkpt>
      <trkpt lat="39.790043" lon="-4.100835">
        <ele>627.51</ele>
        <time>2020-12-09T12:40:50Z</time>
      </trkpt>
      <trkpt lat="39.790085" lon="-4.100833">
        <ele>627.51</ele>
        <time>2020-12-09T12:40:54Z</time>
      </trkpt>
      <trkpt lat="39.790134" lon="-4.1007915">
        <ele>627.51</ele>
        <time>2020-12-09T12:40:59Z</time>
      </trkpt>
      <trkpt lat="39.790188" lon="-4.1007566">
        <ele>627.51</ele>
        <time>2020-12-09T12:41:03Z</time>
      </trkpt>
      <trkpt lat="39.79023" lon="-4.1007233">
        <ele>627.51</ele>
        <time>2020-12-09T12:41:07Z</time>
      </trkpt>
      <trkpt lat="39.79028" lon="-4.1006775">
        <ele>628.69</ele>
        <time>2020-12-09T12:41:12Z</time>
      </trkpt>
      <trkpt lat="39.790314" lon="-4.100614">
        <ele>628.69</ele>
        <time>2020-12-09T12:41:16Z</time>
      </trkpt>
      <trkpt lat="39.79034" lon="-4.1005425">
        <ele>628.69</ele>
        <time>2020-12-09T12:41:20Z</time>
      </trkpt>
      <trkpt lat="39.79036" lon="-4.100466">
        <ele>629.87</ele>
        <time>2020-12-09T12:41:24Z</time>
      </trkpt>
      <trkpt lat="39.790382" lon="-4.1003838">
        <ele>629.87</ele>
        <time>2020-12-09T12:41:28Z</time>
      </trkpt>
      <trkpt lat="39.79041" lon="-4.1003275">
        <ele>629.87</ele>
        <time>2020-12-09T12:41:31Z</time>
      </trkpt>
      <trkpt lat="39.790443" lon="-4.10026">
        <ele>629.87</ele>
        <time>2020-12-09T12:41:35Z</time>
      </trkpt>
      <trkpt lat="39.7905" lon="-4.100182">
        <ele>629.87</ele>
        <time>2020-12-09T12:41:40Z</time>
      </trkpt>
      <trkpt lat="39.79054" lon="-4.100134">
        <ele>629.87</ele>
        <time>2020-12-09T12:41:43Z</time>
      </trkpt>
      <trkpt lat="39.79059" lon="-4.1000724">
        <ele>629.87</ele>
        <time>2020-12-09T12:41:47Z</time>
      </trkpt>
      <trkpt lat="39.790623" lon="-4.100031">
        <ele>629.87</ele>
        <time>2020-12-09T12:41:50Z</time>
      </trkpt>
      <trkpt lat="39.79067" lon="-4.099982">
        <ele>629.87</ele>
        <time>2020-12-09T12:41:54Z</time>
      </trkpt>
      <trkpt lat="39.790714" lon="-4.099934">
        <ele>629.87</ele>
        <time>2020-12-09T12:41:58Z</time>
      </trkpt>
      <trkpt lat="39.79085" lon="-4.0997334">
        <ele>629.87</ele>
        <time>2020-12-09T12:42:26Z</time>
      </trkpt>
      <trkpt lat="39.79088" lon="-4.099643">
        <ele>629.87</ele>
        <time>2020-12-09T12:42:34Z</time>
      </trkpt>
      <trkpt lat="39.79089" lon="-4.0995603">
        <ele>629.87</ele>
        <time>2020-12-09T12:42:39Z</time>
      </trkpt>
      <trkpt lat="39.79048" lon="-4.0989933">
        <ele>629.87</ele>
        <time>2020-12-09T12:44:20Z</time>
      </trkpt>
      <trkpt lat="39.79045" lon="-4.098921">
        <ele>629.87</ele>
        <time>2020-12-09T12:44:28Z</time>
      </trkpt>
      <trkpt lat="39.79041" lon="-4.0988703">
        <ele>629.87</ele>
        <time>2020-12-09T12:44:33Z</time>
      </trkpt>
      <trkpt lat="39.79035" lon="-4.0988355">
        <ele>628.6</ele>
        <time>2020-12-09T12:44:38Z</time>
      </trkpt>
      <trkpt lat="39.790302" lon="-4.0988083">
        <ele>628.6</ele>
        <time>2020-12-09T12:44:42Z</time>
      </trkpt>
      <trkpt lat="39.790237" lon="-4.098787">
        <ele>627.42</ele>
        <time>2020-12-09T12:44:47Z</time>
      </trkpt>
      <trkpt lat="39.790184" lon="-4.0987854">
        <ele>627.42</ele>
        <time>2020-12-09T12:44:51Z</time>
      </trkpt>
      <trkpt lat="39.790127" lon="-4.0987864">
        <ele>626.24</ele>
        <time>2020-12-09T12:44:55Z</time>
      </trkpt>
      <trkpt lat="39.79008" lon="-4.0987763">
        <ele>626.24</ele>
        <time>2020-12-09T12:44:59Z</time>
      </trkpt>
      <trkpt lat="39.79006" lon="-4.098707">
        <ele>625.05</ele>
        <time>2020-12-09T12:45:04Z</time>
      </trkpt>
      <trkpt lat="39.79005" lon="-4.098649">
        <ele>625.05</ele>
        <time>2020-12-09T12:45:08Z</time>
      </trkpt>
      <trkpt lat="39.790054" lon="-4.0985613">
        <ele>623.87</ele>
        <time>2020-12-09T12:45:13Z</time>
      </trkpt>
      <trkpt lat="39.790062" lon="-4.0984855">
        <ele>623.87</ele>
        <time>2020-12-09T12:45:17Z</time>
      </trkpt>
      <trkpt lat="39.79006" lon="-4.0984173">
        <ele>622.69</ele>
        <time>2020-12-09T12:45:21Z</time>
      </trkpt>
      <trkpt lat="39.790043" lon="-4.0983577">
        <ele>622.69</ele>
        <time>2020-12-09T12:45:25Z</time>
      </trkpt>
      <trkpt lat="39.790005" lon="-4.098302">
        <ele>621.42</ele>
        <time>2020-12-09T12:45:30Z</time>
      </trkpt>
      <trkpt lat="39.789955" lon="-4.0982857">
        <ele>621.42</ele>
        <time>2020-12-09T12:45:34Z</time>
      </trkpt>
      <trkpt lat="39.7899" lon="-4.0982714">
        <ele>620.24</ele>
        <time>2020-12-09T12:45:38Z</time>
      </trkpt>
      <trkpt lat="39.78985" lon="-4.0982594">
        <ele>620.24</ele>
        <time>2020-12-09T12:45:42Z</time>
      </trkpt>
      <trkpt lat="39.789787" lon="-4.0982494">
        <ele>619.05</ele>
        <time>2020-12-09T12:45:46Z</time>
      </trkpt>
      <trkpt lat="39.78973" lon="-4.0982494">
        <ele>619.05</ele>
        <time>2020-12-09T12:45:50Z</time>
      </trkpt>
      <trkpt lat="39.789677" lon="-4.098245">
        <ele>619.05</ele>
        <time>2020-12-09T12:45:54Z</time>
      </trkpt>
      <trkpt lat="39.789642" lon="-4.0981865">
        <ele>619.05</ele>
        <time>2020-12-09T12:45:59Z</time>
      </trkpt>
      <trkpt lat="39.789608" lon="-4.0981073">
        <ele>619.05</ele>
        <time>2020-12-09T12:46:04Z</time>
      </trkpt>
      <trkpt lat="39.789593" lon="-4.0980415">
        <ele>617.87</ele>
        <time>2020-12-09T12:46:08Z</time>
      </trkpt>
      <trkpt lat="39.78959" lon="-4.097981">
        <ele>616.51</ele>
        <time>2020-12-09T12:46:12Z</time>
      </trkpt>
      <trkpt lat="39.78955" lon="-4.097921">
        <ele>616.51</ele>
        <time>2020-12-09T12:46:18Z</time>
      </trkpt>
      <trkpt lat="39.789524" lon="-4.0978584">
        <ele>616.55</ele>
        <time>2020-12-09T12:46:25Z</time>
      </trkpt>
      <trkpt lat="39.789536" lon="-4.0977836">
        <ele>615.28</ele>
        <time>2020-12-09T12:46:30Z</time>
      </trkpt>
      <trkpt lat="39.78955" lon="-4.0977163">
        <ele>614.01</ele>
        <time>2020-12-09T12:46:35Z</time>
      </trkpt>
      <trkpt lat="39.789593" lon="-4.097659">
        <ele>614.01</ele>
        <time>2020-12-09T12:46:40Z</time>
      </trkpt>
      <trkpt lat="39.789604" lon="-4.0975924">
        <ele>612.64</ele>
        <time>2020-12-09T12:46:44Z</time>
      </trkpt>
      <trkpt lat="39.78959" lon="-4.0975046">
        <ele>612.64</ele>
        <time>2020-12-09T12:46:48Z</time>
      </trkpt>
      <trkpt lat="39.789577" lon="-4.097437">
        <ele>611.37</ele>
        <time>2020-12-09T12:46:51Z</time>
      </trkpt>
      <trkpt lat="39.78956" lon="-4.0973616">
        <ele>610.01</ele>
        <time>2020-12-09T12:46:55Z</time>
      </trkpt>
      <trkpt lat="39.789543" lon="-4.0972896">
        <ele>610.01</ele>
        <time>2020-12-09T12:46:59Z</time>
      </trkpt>
      <trkpt lat="39.78953" lon="-4.0972295">
        <ele>608.82</ele>
        <time>2020-12-09T12:47:02Z</time>
      </trkpt>
      <trkpt lat="39.789513" lon="-4.097155">
        <ele>608.82</ele>
        <time>2020-12-09T12:47:06Z</time>
      </trkpt>
      <trkpt lat="39.789486" lon="-4.097091">
        <ele>607.64</ele>
        <time>2020-12-09T12:47:10Z</time>
      </trkpt>
      <trkpt lat="39.789444" lon="-4.0970335">
        <ele>607.64</ele>
        <time>2020-12-09T12:47:16Z</time>
      </trkpt>
      <trkpt lat="39.789474" lon="-4.097093">
        <ele>607.64</ele>
        <time>2020-12-09T12:47:22Z</time>
      </trkpt>
      <trkpt lat="39.789494" lon="-4.097153">
        <ele>607.64</ele>
        <time>2020-12-09T12:47:25Z</time>
      </trkpt>
      <trkpt lat="39.78951" lon="-4.0972185">
        <ele>607.64</ele>
        <time>2020-12-09T12:47:28Z</time>
      </trkpt>
      <trkpt lat="39.789528" lon="-4.0973">
        <ele>607.64</ele>
        <time>2020-12-09T12:47:32Z</time>
      </trkpt>
      <trkpt lat="39.78954" lon="-4.097365">
        <ele>607.64</ele>
        <time>2020-12-09T12:47:35Z</time>
      </trkpt>
      <trkpt lat="39.78956" lon="-4.0974417">
        <ele>608.91</ele>
        <time>2020-12-09T12:47:39Z</time>
      </trkpt>
      <trkpt lat="39.789574" lon="-4.097514">
        <ele>610.28</ele>
        <time>2020-12-09T12:47:43Z</time>
      </trkpt>
      <trkpt lat="39.78959" lon="-4.097588">
        <ele>610.28</ele>
        <time>2020-12-09T12:47:47Z</time>
      </trkpt>
      <trkpt lat="39.789593" lon="-4.09766">
        <ele>611.46</ele>
        <time>2020-12-09T12:47:51Z</time>
      </trkpt>
      <trkpt lat="39.78957" lon="-4.097727">
        <ele>612.64</ele>
        <time>2020-12-09T12:47:55Z</time>
      </trkpt>
      <trkpt lat="39.789536" lon="-4.0977907">
        <ele>612.64</ele>
        <time>2020-12-09T12:47:58Z</time>
      </trkpt>
      <trkpt lat="39.789505" lon="-4.097856">
        <ele>613.82</ele>
        <time>2020-12-09T12:48:05Z</time>
      </trkpt>
      <trkpt lat="39.789524" lon="-4.0979195">
        <ele>615.1</ele>
        <time>2020-12-09T12:48:11Z</time>
      </trkpt>
      <trkpt lat="39.789562" lon="-4.097975">
        <ele>616.28</ele>
        <time>2020-12-09T12:48:16Z</time>
      </trkpt>
      <trkpt lat="39.789574" lon="-4.098036">
        <ele>616.28</ele>
        <time>2020-12-09T12:48:20Z</time>
      </trkpt>
      <trkpt lat="39.789593" lon="-4.0980997">
        <ele>615.9</ele>
        <time>2020-12-09T12:48:24Z</time>
      </trkpt>
      <trkpt lat="39.78959" lon="-4.0981727">
        <ele>617.17</ele>
        <time>2020-12-09T12:48:28Z</time>
      </trkpt>
      <trkpt lat="39.78959" lon="-4.098255">
        <ele>617.17</ele>
        <time>2020-12-09T12:48:32Z</time>
      </trkpt>
      <trkpt lat="39.78961" lon="-4.098325">
        <ele>618.44</ele>
        <time>2020-12-09T12:48:36Z</time>
      </trkpt>
      <trkpt lat="39.789646" lon="-4.0983906">
        <ele>618.44</ele>
        <time>2020-12-09T12:48:40Z</time>
      </trkpt>
      <trkpt lat="39.789677" lon="-4.0984426">
        <ele>619.71</ele>
        <time>2020-12-09T12:48:43Z</time>
      </trkpt>
      <trkpt lat="39.789722" lon="-4.0984917">
        <ele>619.71</ele>
        <time>2020-12-09T12:48:47Z</time>
      </trkpt>
      <trkpt lat="39.789772" lon="-4.0985317">
        <ele>620.89</ele>
        <time>2020-12-09T12:48:51Z</time>
      </trkpt>
      <trkpt lat="39.789787" lon="-4.0985975">
        <ele>620.89</ele>
        <time>2020-12-09T12:48:56Z</time>
      </trkpt>
      <trkpt lat="39.78974" lon="-4.0986295">
        <ele>622.08</ele>
        <time>2020-12-09T12:49:02Z</time>
      </trkpt>
      <trkpt lat="39.789684" lon="-4.0986624">
        <ele>622.08</ele>
        <time>2020-12-09T12:49:07Z</time>
      </trkpt>
      <trkpt lat="39.789677" lon="-4.0987277">
        <ele>620.89</ele>
        <time>2020-12-09T12:49:13Z</time>
      </trkpt>
      <trkpt lat="39.7897" lon="-4.0987926">
        <ele>620.89</ele>
        <time>2020-12-09T12:49:18Z</time>
      </trkpt>
      <trkpt lat="39.789715" lon="-4.098878">
        <ele>622.17</ele>
        <time>2020-12-09T12:49:23Z</time>
      </trkpt>
      <trkpt lat="39.78973" lon="-4.0989585">
        <ele>622.17</ele>
        <time>2020-12-09T12:49:28Z</time>
      </trkpt>
      <trkpt lat="39.789726" lon="-4.099033">
        <ele>622.17</ele>
        <time>2020-12-09T12:49:34Z</time>
      </trkpt>
      <trkpt lat="39.789738" lon="-4.099098">
        <ele>622.17</ele>
        <time>2020-12-09T12:49:39Z</time>
      </trkpt>
      <trkpt lat="39.789738" lon="-4.0991654">
        <ele>622.17</ele>
        <time>2020-12-09T12:49:46Z</time>
      </trkpt>
      <trkpt lat="39.789722" lon="-4.099178">
        <ele>622.17</ele>
        <time>2020-12-09T12:50:06Z</time>
      </trkpt>
      <trkpt lat="39.789673" lon="-4.0992274">
        <ele>622.17</ele>
        <time>2020-12-09T12:50:10Z</time>
      </trkpt>
      <trkpt lat="39.789616" lon="-4.099255">
        <ele>622.17</ele>
        <time>2020-12-09T12:50:14Z</time>
      </trkpt>
      <trkpt lat="39.789562" lon="-4.099282">
        <ele>622.17</ele>
        <time>2020-12-09T12:50:18Z</time>
      </trkpt>
      <trkpt lat="39.78951" lon="-4.0993094">
        <ele>622.17</ele>
        <time>2020-12-09T12:50:22Z</time>
      </trkpt>
      <trkpt lat="39.78945" lon="-4.0993137">
        <ele>623.62</ele>
        <time>2020-12-09T12:50:26Z</time>
      </trkpt>
      <trkpt lat="39.7894" lon="-4.0993056">
        <ele>623.62</ele>
        <time>2020-12-09T12:50:30Z</time>
      </trkpt>
      <trkpt lat="39.789345" lon="-4.0992928">
        <ele>612.66</ele>
        <time>2020-12-09T12:50:34Z</time>
      </trkpt>
      <trkpt lat="39.789295" lon="-4.09926">
        <ele>612.66</ele>
        <time>2020-12-09T12:50:38Z</time>
      </trkpt>
      <trkpt lat="39.78925" lon="-4.0992365">
        <ele>612.66</ele>
        <time>2020-12-09T12:50:42Z</time>
      </trkpt>
      <trkpt lat="39.789185" lon="-4.099246">
        <ele>612.66</ele>
        <time>2020-12-09T12:50:47Z</time>
      </trkpt>
      <trkpt lat="39.789135" lon="-4.099244">
        <ele>612.66</ele>
        <time>2020-12-09T12:50:52Z</time>
      </trkpt>
      <trkpt lat="39.78908" lon="-4.0992765">
        <ele>612.66</ele>
        <time>2020-12-09T12:50:59Z</time>
      </trkpt>
      <trkpt lat="39.78905" lon="-4.0993285">
        <ele>612.66</ele>
        <time>2020-12-09T12:51:03Z</time>
      </trkpt>
      <trkpt lat="39.789017" lon="-4.0993752">
        <ele>612.66</ele>
        <time>2020-12-09T12:51:07Z</time>
      </trkpt>
      <trkpt lat="39.78897" lon="-4.099417">
        <ele>613.84</ele>
        <time>2020-12-09T12:51:13Z</time>
      </trkpt>
      <trkpt lat="39.788918" lon="-4.0994463">
        <ele>612.57</ele>
        <time>2020-12-09T12:51:19Z</time>
      </trkpt>
      <trkpt lat="39.788883" lon="-4.099512">
        <ele>612.57</ele>
        <time>2020-12-09T12:51:25Z</time>
      </trkpt>
      <trkpt lat="39.788834" lon="-4.099535">
        <ele>612.57</ele>
        <time>2020-12-09T12:51:32Z</time>
      </trkpt>
      <trkpt lat="39.788788" lon="-4.0995035">
        <ele>611.39</ele>
        <time>2020-12-09T12:51:43Z</time>
      </trkpt>
      <trkpt lat="39.78873" lon="-4.0995097">
        <ele>611.39</ele>
        <time>2020-12-09T12:51:51Z</time>
      </trkpt>
      <trkpt lat="39.788677" lon="-4.099511">
        <ele>611.39</ele>
        <time>2020-12-09T12:51:58Z</time>
      </trkpt>
      <trkpt lat="39.788628" lon="-4.099496">
        <ele>611.39</ele>
        <time>2020-12-09T12:52:06Z</time>
      </trkpt>
      <trkpt lat="39.788567" lon="-4.099471">
        <ele>611.39</ele>
        <time>2020-12-09T12:52:12Z</time>
      </trkpt>
      <trkpt lat="39.78851" lon="-4.09945">
        <ele>613.21</ele>
        <time>2020-12-09T12:52:16Z</time>
      </trkpt>
      <trkpt lat="39.788456" lon="-4.099441">
        <ele>613.21</ele>
        <time>2020-12-09T12:52:20Z</time>
      </trkpt>
      <trkpt lat="39.788418" lon="-4.099393">
        <ele>614.39</ele>
        <time>2020-12-09T12:52:24Z</time>
      </trkpt>
      <trkpt lat="39.788383" lon="-4.0993295">
        <ele>614.39</ele>
        <time>2020-12-09T12:52:28Z</time>
      </trkpt>
      <trkpt lat="39.788353" lon="-4.099266">
        <ele>621.22</ele>
        <time>2020-12-09T12:52:32Z</time>
      </trkpt>
      <trkpt lat="39.788322" lon="-4.099203">
        <ele>622.41</ele>
        <time>2020-12-09T12:52:36Z</time>
      </trkpt>
      <trkpt lat="39.788292" lon="-4.0991373">
        <ele>622.41</ele>
        <time>2020-12-09T12:52:40Z</time>
      </trkpt>
      <trkpt lat="39.78827" lon="-4.0990644">
        <ele>622.41</ele>
        <time>2020-12-09T12:52:44Z</time>
      </trkpt>
      <trkpt lat="39.78825" lon="-4.0989847">
        <ele>622.41</ele>
        <time>2020-12-09T12:52:48Z</time>
      </trkpt>
      <trkpt lat="39.788235" lon="-4.0989184">
        <ele>622.41</ele>
        <time>2020-12-09T12:52:51Z</time>
      </trkpt>
      <trkpt lat="39.788223" lon="-4.098836">
        <ele>622.41</ele>
        <time>2020-12-09T12:52:55Z</time>
      </trkpt>
      <trkpt lat="39.788208" lon="-4.098771">
        <ele>622.41</ele>
        <time>2020-12-09T12:52:58Z</time>
      </trkpt>
      <trkpt lat="39.788177" lon="-4.0986915">
        <ele>622.41</ele>
        <time>2020-12-09T12:53:02Z</time>
      </trkpt>
      <trkpt lat="39.78815" lon="-4.098632">
        <ele>622.41</ele>
        <time>2020-12-09T12:53:05Z</time>
      </trkpt>
      <trkpt lat="39.788124" lon="-4.0985785">
        <ele>622.41</ele>
        <time>2020-12-09T12:53:08Z</time>
      </trkpt>
      <trkpt lat="39.788094" lon="-4.0985227">
        <ele>622.41</ele>
        <time>2020-12-09T12:53:11Z</time>
      </trkpt>
      <trkpt lat="39.788055" lon="-4.098451">
        <ele>622.41</ele>
        <time>2020-12-09T12:53:15Z</time>
      </trkpt>
      <trkpt lat="39.78802" lon="-4.098399">
        <ele>623.59</ele>
        <time>2020-12-09T12:53:18Z</time>
      </trkpt>
      <trkpt lat="39.787983" lon="-4.09835">
        <ele>623.59</ele>
        <time>2020-12-09T12:53:21Z</time>
      </trkpt>
      <trkpt lat="39.78794" lon="-4.0983033">
        <ele>623.59</ele>
        <time>2020-12-09T12:53:24Z</time>
      </trkpt>
      <trkpt lat="39.787903" lon="-4.0982575">
        <ele>623.59</ele>
        <time>2020-12-09T12:53:27Z</time>
      </trkpt>
      <trkpt lat="39.78786" lon="-4.0982156">
        <ele>623.59</ele>
        <time>2020-12-09T12:53:30Z</time>
      </trkpt>
      <trkpt lat="39.78782" lon="-4.09817">
        <ele>624.77</ele>
        <time>2020-12-09T12:53:33Z</time>
      </trkpt>
      <trkpt lat="39.787785" lon="-4.098097">
        <ele>624.77</ele>
        <time>2020-12-09T12:53:37Z</time>
      </trkpt>
      <trkpt lat="39.78777" lon="-4.0980377">
        <ele>624.77</ele>
        <time>2020-12-09T12:53:40Z</time>
      </trkpt>
      <trkpt lat="39.787758" lon="-4.097953">
        <ele>624.77</ele>
        <time>2020-12-09T12:53:44Z</time>
      </trkpt>
      <trkpt lat="39.787743" lon="-4.0978875">
        <ele>624.77</ele>
        <time>2020-12-09T12:53:47Z</time>
      </trkpt>
      <trkpt lat="39.787724" lon="-4.0977993">
        <ele>624.77</ele>
        <time>2020-12-09T12:53:51Z</time>
      </trkpt>
      <trkpt lat="39.78771" lon="-4.0977354">
        <ele>624.77</ele>
        <time>2020-12-09T12:53:54Z</time>
      </trkpt>
      <trkpt lat="39.787693" lon="-4.0976706">
        <ele>624.77</ele>
        <time>2020-12-09T12:53:57Z</time>
      </trkpt>
      <trkpt lat="39.787678" lon="-4.0976086">
        <ele>624.77</ele>
        <time>2020-12-09T12:54:00Z</time>
      </trkpt>
      <trkpt lat="39.78764" lon="-4.097535">
        <ele>624.77</ele>
        <time>2020-12-09T12:54:04Z</time>
      </trkpt>
      <trkpt lat="39.7876" lon="-4.097488">
        <ele>624.77</ele>
        <time>2020-12-09T12:54:07Z</time>
      </trkpt>
      <trkpt lat="39.78756" lon="-4.0974455">
        <ele>623.59</ele>
        <time>2020-12-09T12:54:10Z</time>
      </trkpt>
      <trkpt lat="39.787502" lon="-4.097398">
        <ele>623.59</ele>
        <time>2020-12-09T12:54:14Z</time>
      </trkpt>
      <trkpt lat="39.78746" lon="-4.0973577">
        <ele>623.59</ele>
        <time>2020-12-09T12:54:17Z</time>
      </trkpt>
      <trkpt lat="39.78742" lon="-4.0973125">
        <ele>623.59</ele>
        <time>2020-12-09T12:54:20Z</time>
      </trkpt>
      <trkpt lat="39.78738" lon="-4.0972633">
        <ele>623.59</ele>
        <time>2020-12-09T12:54:23Z</time>
      </trkpt>
      <trkpt lat="39.78735" lon="-4.097213">
        <ele>623.59</ele>
        <time>2020-12-09T12:54:26Z</time>
      </trkpt>
      <trkpt lat="39.787315" lon="-4.0971584">
        <ele>623.59</ele>
        <time>2020-12-09T12:54:29Z</time>
      </trkpt>
      <trkpt lat="39.787277" lon="-4.097088">
        <ele>623.53</ele>
        <time>2020-12-09T12:54:33Z</time>
      </trkpt>
      <trkpt lat="39.787247" lon="-4.097034">
        <ele>623.53</ele>
        <time>2020-12-09T12:54:36Z</time>
      </trkpt>
      <trkpt lat="39.78721" lon="-4.0969596">
        <ele>623.53</ele>
        <time>2020-12-09T12:54:40Z</time>
      </trkpt>
      <trkpt lat="39.78718" lon="-4.0968995">
        <ele>623.53</ele>
        <time>2020-12-09T12:54:43Z</time>
      </trkpt>
      <trkpt lat="39.787163" lon="-4.096835">
        <ele>623.53</ele>
        <time>2020-12-09T12:54:46Z</time>
      </trkpt>
      <trkpt lat="39.787148" lon="-4.096771">
        <ele>623.53</ele>
        <time>2020-12-09T12:54:49Z</time>
      </trkpt>
      <trkpt lat="39.787132" lon="-4.096707">
        <ele>623.53</ele>
        <time>2020-12-09T12:54:52Z</time>
      </trkpt>
      <trkpt lat="39.78711" lon="-4.0966225">
        <ele>623.53</ele>
        <time>2020-12-09T12:54:56Z</time>
      </trkpt>
      <trkpt lat="39.787098" lon="-4.0965586">
        <ele>623.53</ele>
        <time>2020-12-09T12:54:59Z</time>
      </trkpt>
      <trkpt lat="39.787094" lon="-4.096493">
        <ele>623.53</ele>
        <time>2020-12-09T12:55:02Z</time>
      </trkpt>
      <trkpt lat="39.787106" lon="-4.096406">
        <ele>623.53</ele>
        <time>2020-12-09T12:55:06Z</time>
      </trkpt>
      <trkpt lat="39.787117" lon="-4.096346">
        <ele>623.53</ele>
        <time>2020-12-09T12:55:09Z</time>
      </trkpt>
      <trkpt lat="39.78712" lon="-4.096273">
        <ele>623.53</ele>
        <time>2020-12-09T12:55:13Z</time>
      </trkpt>
      <trkpt lat="39.787125" lon="-4.0962615">
        <ele>623.53</ele>
        <time>2020-12-09T12:56:08Z</time>
      </trkpt>
      <trkpt lat="39.787148" lon="-4.0961823">
        <ele>623.53</ele>
        <time>2020-12-09T12:56:18Z</time>
      </trkpt>
      <trkpt lat="39.787178" lon="-4.0961223">
        <ele>623.53</ele>
        <time>2020-12-09T12:56:21Z</time>
      </trkpt>
      <trkpt lat="39.787212" lon="-4.0960674">
        <ele>623.53</ele>
        <time>2020-12-09T12:56:24Z</time>
      </trkpt>
      <trkpt lat="39.787247" lon="-4.0960226">
        <ele>622.34</ele>
        <time>2020-12-09T12:56:27Z</time>
      </trkpt>
      <trkpt lat="39.787292" lon="-4.0959654">
        <ele>622.34</ele>
        <time>2020-12-09T12:56:31Z</time>
      </trkpt>
      <trkpt lat="39.787323" lon="-4.0959067">
        <ele>622.34</ele>
        <time>2020-12-09T12:56:35Z</time>
      </trkpt>
      <trkpt lat="39.787346" lon="-4.0958405">
        <ele>621.16</ele>
        <time>2020-12-09T12:56:39Z</time>
      </trkpt>
      <trkpt lat="39.78736" lon="-4.095772">
        <ele>621.16</ele>
        <time>2020-12-09T12:56:43Z</time>
      </trkpt>
      <trkpt lat="39.787365" lon="-4.0957017">
        <ele>619.98</ele>
        <time>2020-12-09T12:56:47Z</time>
      </trkpt>
      <trkpt lat="39.78737" lon="-4.095599">
        <ele>619.98</ele>
        <time>2020-12-09T12:56:53Z</time>
      </trkpt>
      <trkpt lat="39.78737" lon="-4.095527">
        <ele>619.98</ele>
        <time>2020-12-09T12:56:57Z</time>
      </trkpt>
      <trkpt lat="39.787376" lon="-4.0954523">
        <ele>618.8</ele>
        <time>2020-12-09T12:57:01Z</time>
      </trkpt>
      <trkpt lat="39.787388" lon="-4.095372">
        <ele>618.8</ele>
        <time>2020-12-09T12:57:05Z</time>
      </trkpt>
      <trkpt lat="39.787395" lon="-4.0952945">
        <ele>617.53</ele>
        <time>2020-12-09T12:57:09Z</time>
      </trkpt>
      <trkpt lat="39.78739" lon="-4.095219">
        <ele>617.53</ele>
        <time>2020-12-09T12:57:13Z</time>
      </trkpt>
      <trkpt lat="39.787376" lon="-4.095136">
        <ele>617.53</ele>
        <time>2020-12-09T12:57:17Z</time>
      </trkpt>
      <trkpt lat="39.78736" lon="-4.0950584">
        <ele>617.53</ele>
        <time>2020-12-09T12:57:21Z</time>
      </trkpt>
      <trkpt lat="39.78735" lon="-4.094985">
        <ele>617.53</ele>
        <time>2020-12-09T12:57:25Z</time>
      </trkpt>
      <trkpt lat="39.78735" lon="-4.094911">
        <ele>616.34</ele>
        <time>2020-12-09T12:57:29Z</time>
      </trkpt>
      <trkpt lat="39.787376" lon="-4.0948453">
        <ele>616.34</ele>
        <time>2020-12-09T12:57:33Z</time>
      </trkpt>
      <trkpt lat="39.787407" lon="-4.0947833">
        <ele>616.34</ele>
        <time>2020-12-09T12:57:37Z</time>
      </trkpt>
      <trkpt lat="39.787434" lon="-4.094712">
        <ele>615.16</ele>
        <time>2020-12-09T12:57:41Z</time>
      </trkpt>
      <trkpt lat="39.78745" lon="-4.0946503">
        <ele>615.16</ele>
        <time>2020-12-09T12:57:44Z</time>
      </trkpt>
      <trkpt lat="39.78747" lon="-4.094575">
        <ele>615.16</ele>
        <time>2020-12-09T12:57:48Z</time>
      </trkpt>
      <trkpt lat="39.787487" lon="-4.094491">
        <ele>613.98</ele>
        <time>2020-12-09T12:57:52Z</time>
      </trkpt>
      <trkpt lat="39.787495" lon="-4.094412">
        <ele>613.98</ele>
        <time>2020-12-09T12:57:56Z</time>
      </trkpt>
      <trkpt lat="39.787502" lon="-4.0943294">
        <ele>613.98</ele>
        <time>2020-12-09T12:58:00Z</time>
      </trkpt>
      <trkpt lat="39.787464" lon="-4.0942945">
        <ele>613.98</ele>
        <time>2020-12-09T12:58:05Z</time>
      </trkpt>
      <trkpt lat="39.78741" lon="-4.094302">
        <ele>613.98</ele>
        <time>2020-12-09T12:58:09Z</time>
      </trkpt>
      <trkpt lat="39.78735" lon="-4.094319">
        <ele>616.99</ele>
        <time>2020-12-09T12:58:13Z</time>
      </trkpt>
      <trkpt lat="39.78729" lon="-4.094341">
        <ele>616.99</ele>
        <time>2020-12-09T12:58:17Z</time>
      </trkpt>
      <trkpt lat="39.787243" lon="-4.0943565">
        <ele>618.17</ele>
        <time>2020-12-09T12:58:20Z</time>
      </trkpt>
      <trkpt lat="39.787178" lon="-4.094354">
        <ele>618.17</ele>
        <time>2020-12-09T12:58:24Z</time>
      </trkpt>
      <trkpt lat="39.787117" lon="-4.094322">
        <ele>619.35</ele>
        <time>2020-12-09T12:58:28Z</time>
      </trkpt>
      <trkpt lat="39.78707" lon="-4.0942984">
        <ele>619.35</ele>
        <time>2020-12-09T12:58:31Z</time>
      </trkpt>
      <trkpt lat="39.787006" lon="-4.094268">
        <ele>620.53</ele>
        <time>2020-12-09T12:58:35Z</time>
      </trkpt>
      <trkpt lat="39.78696" lon="-4.094247">
        <ele>620.53</ele>
        <time>2020-12-09T12:58:38Z</time>
      </trkpt>
      <trkpt lat="39.7869" lon="-4.094231">
        <ele>620.53</ele>
        <time>2020-12-09T12:58:42Z</time>
      </trkpt>
      <trkpt lat="39.78683" lon="-4.094228">
        <ele>621.72</ele>
        <time>2020-12-09T12:58:46Z</time>
      </trkpt>
      <trkpt lat="39.78677" lon="-4.0942254">
        <ele>621.72</ele>
        <time>2020-12-09T12:58:50Z</time>
      </trkpt>
      <trkpt lat="39.78671" lon="-4.094219">
        <ele>622.9</ele>
        <time>2020-12-09T12:58:54Z</time>
      </trkpt>
      <trkpt lat="39.786648" lon="-4.0942225">
        <ele>622.9</ele>
        <time>2020-12-09T12:58:58Z</time>
      </trkpt>
      <trkpt lat="39.7866" lon="-4.0942273">
        <ele>622.9</ele>
        <time>2020-12-09T12:59:01Z</time>
      </trkpt>
      <trkpt lat="39.786533" lon="-4.0942407">
        <ele>622.9</ele>
        <time>2020-12-09T12:59:05Z</time>
      </trkpt>
      <trkpt lat="39.786476" lon="-4.0942507">
        <ele>622.9</ele>
        <time>2020-12-09T12:59:09Z</time>
      </trkpt>
      <trkpt lat="39.786423" lon="-4.094234">
        <ele>622.9</ele>
        <time>2020-12-09T12:59:13Z</time>
      </trkpt>
      <trkpt lat="39.786366" lon="-4.094195">
        <ele>622.9</ele>
        <time>2020-12-09T12:59:17Z</time>
      </trkpt>
      <trkpt lat="39.786316" lon="-4.0941634">
        <ele>622.9</ele>
        <time>2020-12-09T12:59:20Z</time>
      </trkpt>
      <trkpt lat="39.78625" lon="-4.0941305">
        <ele>622.9</ele>
        <time>2020-12-09T12:59:24Z</time>
      </trkpt>
      <trkpt lat="39.7862" lon="-4.094114">
        <ele>624.08</ele>
        <time>2020-12-09T12:59:27Z</time>
      </trkpt>
      <trkpt lat="39.786144" lon="-4.094109">
        <ele>624.08</ele>
        <time>2020-12-09T12:59:30Z</time>
      </trkpt>
      <trkpt lat="39.78609" lon="-4.094114">
        <ele>624.08</ele>
        <time>2020-12-09T12:59:33Z</time>
      </trkpt>
      <trkpt lat="39.78604" lon="-4.094125">
        <ele>624.08</ele>
        <time>2020-12-09T12:59:36Z</time>
      </trkpt>
      <trkpt lat="39.785988" lon="-4.094137">
        <ele>624.08</ele>
        <time>2020-12-09T12:59:39Z</time>
      </trkpt>
      <trkpt lat="39.78594" lon="-4.094146">
        <ele>624.08</ele>
        <time>2020-12-09T12:59:42Z</time>
      </trkpt>
      <trkpt lat="39.78587" lon="-4.0941453">
        <ele>624.08</ele>
        <time>2020-12-09T12:59:46Z</time>
      </trkpt>
      <trkpt lat="39.785824" lon="-4.094138">
        <ele>624.08</ele>
        <time>2020-12-09T12:59:49Z</time>
      </trkpt>
      <trkpt lat="39.785755" lon="-4.094138">
        <ele>624.08</ele>
        <time>2020-12-09T12:59:53Z</time>
      </trkpt>
      <trkpt lat="39.785686" lon="-4.0941424">
        <ele>624.08</ele>
        <time>2020-12-09T12:59:57Z</time>
      </trkpt>
      <trkpt lat="39.785633" lon="-4.0941515">
        <ele>624.08</ele>
        <time>2020-12-09T13:00:00Z</time>
      </trkpt>
      <trkpt lat="39.785583" lon="-4.0941606">
        <ele>624.08</ele>
        <time>2020-12-09T13:00:03Z</time>
      </trkpt>
      <trkpt lat="39.78553" lon="-4.094162">
        <ele>624.08</ele>
        <time>2020-12-09T13:00:06Z</time>
      </trkpt>
      <trkpt lat="39.78548" lon="-4.0941505">
        <ele>624.08</ele>
        <time>2020-12-09T13:00:09Z</time>
      </trkpt>
      <trkpt lat="39.785416" lon="-4.094126">
        <ele>618.42</ele>
        <time>2020-12-09T13:00:13Z</time>
      </trkpt>
      <trkpt lat="39.78535" lon="-4.0941014">
        <ele>619.6</ele>
        <time>2020-12-09T13:00:17Z</time>
      </trkpt>
      <trkpt lat="39.785286" lon="-4.0940785">
        <ele>619.6</ele>
        <time>2020-12-09T13:00:21Z</time>
      </trkpt>
      <trkpt lat="39.785233" lon="-4.094066">
        <ele>620.88</ele>
        <time>2020-12-09T13:00:24Z</time>
      </trkpt>
      <trkpt lat="39.78518" lon="-4.094058">
        <ele>620.88</ele>
        <time>2020-12-09T13:00:27Z</time>
      </trkpt>
      <trkpt lat="39.78513" lon="-4.094047">
        <ele>620.88</ele>
        <time>2020-12-09T13:00:30Z</time>
      </trkpt>
      <trkpt lat="39.785065" lon="-4.094019">
        <ele>620.88</ele>
        <time>2020-12-09T13:00:34Z</time>
      </trkpt>
      <trkpt lat="39.785007" lon="-4.0939813">
        <ele>622.06</ele>
        <time>2020-12-09T13:00:38Z</time>
      </trkpt>
      <trkpt lat="39.784966" lon="-4.0939407">
        <ele>622.06</ele>
        <time>2020-12-09T13:00:41Z</time>
      </trkpt>
      <trkpt lat="39.784927" lon="-4.093899">
        <ele>622.06</ele>
        <time>2020-12-09T13:00:44Z</time>
      </trkpt>
      <trkpt lat="39.784885" lon="-4.0938334">
        <ele>622.06</ele>
        <time>2020-12-09T13:00:48Z</time>
      </trkpt>
      <trkpt lat="39.784863" lon="-4.0937724">
        <ele>622.06</ele>
        <time>2020-12-09T13:00:51Z</time>
      </trkpt>
      <trkpt lat="39.78483" lon="-4.093703">
        <ele>622.06</ele>
        <time>2020-12-09T13:00:55Z</time>
      </trkpt>
      <trkpt lat="39.7848" lon="-4.093634">
        <ele>622.06</ele>
        <time>2020-12-09T13:00:59Z</time>
      </trkpt>
      <trkpt lat="39.784775" lon="-4.0935674">
        <ele>622.06</ele>
        <time>2020-12-09T13:01:03Z</time>
      </trkpt>
      <trkpt lat="39.78475" lon="-4.0935035">
        <ele>622.06</ele>
        <time>2020-12-09T13:01:07Z</time>
      </trkpt>
      <trkpt lat="39.784718" lon="-4.09344">
        <ele>622.06</ele>
        <time>2020-12-09T13:01:11Z</time>
      </trkpt>
      <trkpt lat="39.78467" lon="-4.0933867">
        <ele>622.06</ele>
        <time>2020-12-09T13:01:15Z</time>
      </trkpt>
      <trkpt lat="39.784645" lon="-4.0933185">
        <ele>622.06</ele>
        <time>2020-12-09T13:01:19Z</time>
      </trkpt>
      <trkpt lat="39.784637" lon="-4.0932393">
        <ele>622.06</ele>
        <time>2020-12-09T13:01:23Z</time>
      </trkpt>
      <trkpt lat="39.784634" lon="-4.0931597">
        <ele>622.06</ele>
        <time>2020-12-09T13:01:27Z</time>
      </trkpt>
      <trkpt lat="39.784637" lon="-4.093095">
        <ele>622.06</ele>
        <time>2020-12-09T13:01:30Z</time>
      </trkpt>
      <trkpt lat="39.784657" lon="-4.0930142">
        <ele>622.06</ele>
        <time>2020-12-09T13:01:34Z</time>
      </trkpt>
      <trkpt lat="39.784676" lon="-4.0929503">
        <ele>622.06</ele>
        <time>2020-12-09T13:01:37Z</time>
      </trkpt>
      <trkpt lat="39.784687" lon="-4.092878">
        <ele>622.06</ele>
        <time>2020-12-09T13:01:41Z</time>
      </trkpt>
      <trkpt lat="39.7847" lon="-4.0928">
        <ele>622.06</ele>
        <time>2020-12-09T13:01:45Z</time>
      </trkpt>
      <trkpt lat="39.78471" lon="-4.0927415">
        <ele>622.06</ele>
        <time>2020-12-09T13:01:48Z</time>
      </trkpt>
      <trkpt lat="39.78472" lon="-4.0926585">
        <ele>622.06</ele>
        <time>2020-12-09T13:01:52Z</time>
      </trkpt>
      <trkpt lat="39.78473" lon="-4.092574">
        <ele>622.06</ele>
        <time>2020-12-09T13:01:56Z</time>
      </trkpt>
      <trkpt lat="39.784733" lon="-4.092508">
        <ele>623.24</ele>
        <time>2020-12-09T13:01:59Z</time>
      </trkpt>
      <trkpt lat="39.784744" lon="-4.092423">
        <ele>623.24</ele>
        <time>2020-12-09T13:02:03Z</time>
      </trkpt>
      <trkpt lat="39.784756" lon="-4.092357">
        <ele>623.24</ele>
        <time>2020-12-09T13:02:06Z</time>
      </trkpt>
      <trkpt lat="39.784775" lon="-4.0922914">
        <ele>623.24</ele>
        <time>2020-12-09T13:02:09Z</time>
      </trkpt>
      <trkpt lat="39.784794" lon="-4.092203">
        <ele>624.86</ele>
        <time>2020-12-09T13:02:13Z</time>
      </trkpt>
      <trkpt lat="39.7848" lon="-4.0921345">
        <ele>624.86</ele>
        <time>2020-12-09T13:02:16Z</time>
      </trkpt>
      <trkpt lat="39.784798" lon="-4.092068">
        <ele>624.86</ele>
        <time>2020-12-09T13:02:19Z</time>
      </trkpt>
      <trkpt lat="39.784775" lon="-4.092006">
        <ele>624.86</ele>
        <time>2020-12-09T13:02:22Z</time>
      </trkpt>
      <trkpt lat="39.784744" lon="-4.091953">
        <ele>623.68</ele>
        <time>2020-12-09T13:02:25Z</time>
      </trkpt>
      <trkpt lat="39.78471" lon="-4.091897">
        <ele>623.68</ele>
        <time>2020-12-09T13:02:28Z</time>
      </trkpt>
      <trkpt lat="39.784687" lon="-4.091838">
        <ele>623.68</ele>
        <time>2020-12-09T13:02:31Z</time>
      </trkpt>
      <trkpt lat="39.784676" lon="-4.091758">
        <ele>623.68</ele>
        <time>2020-12-09T13:02:35Z</time>
      </trkpt>
      <trkpt lat="39.78468" lon="-4.0916696">
        <ele>623.68</ele>
        <time>2020-12-09T13:02:39Z</time>
      </trkpt>
      <trkpt lat="39.784687" lon="-4.0916033">
        <ele>622.49</ele>
        <time>2020-12-09T13:02:42Z</time>
      </trkpt>
      <trkpt lat="39.784687" lon="-4.0915356">
        <ele>622.49</ele>
        <time>2020-12-09T13:02:45Z</time>
      </trkpt>
      <trkpt lat="39.784676" lon="-4.0914674">
        <ele>622.49</ele>
        <time>2020-12-09T13:02:48Z</time>
      </trkpt>
      <trkpt lat="39.78465" lon="-4.091379">
        <ele>622.49</ele>
        <time>2020-12-09T13:02:52Z</time>
      </trkpt>
      <trkpt lat="39.78462" lon="-4.091316">
        <ele>622.49</ele>
        <time>2020-12-09T13:02:55Z</time>
      </trkpt>
      <trkpt lat="39.78459" lon="-4.0912533">
        <ele>621.31</ele>
        <time>2020-12-09T13:02:58Z</time>
      </trkpt>
      <trkpt lat="39.784576" lon="-4.0911894">
        <ele>621.31</ele>
        <time>2020-12-09T13:03:01Z</time>
      </trkpt>
      <trkpt lat="39.784565" lon="-4.0911">
        <ele>621.31</ele>
        <time>2020-12-09T13:03:05Z</time>
      </trkpt>
      <trkpt lat="39.784565" lon="-4.0910087">
        <ele>621.31</ele>
        <time>2020-12-09T13:03:09Z</time>
      </trkpt>
      <trkpt lat="39.784565" lon="-4.0909376">
        <ele>621.31</ele>
        <time>2020-12-09T13:03:12Z</time>
      </trkpt>
      <trkpt lat="39.78456" lon="-4.090869">
        <ele>621.31</ele>
        <time>2020-12-09T13:03:15Z</time>
      </trkpt>
      <trkpt lat="39.78456" lon="-4.0907965">
        <ele>620.13</ele>
        <time>2020-12-09T13:03:18Z</time>
      </trkpt>
      <trkpt lat="39.78455" lon="-4.090726">
        <ele>620.13</ele>
        <time>2020-12-09T13:03:21Z</time>
      </trkpt>
      <trkpt lat="39.784534" lon="-4.0906606">
        <ele>620.13</ele>
        <time>2020-12-09T13:03:24Z</time>
      </trkpt>
      <trkpt lat="39.784534" lon="-4.0905695">
        <ele>620.13</ele>
        <time>2020-12-09T13:03:28Z</time>
      </trkpt>
      <trkpt lat="39.78455" lon="-4.090506">
        <ele>620.13</ele>
        <time>2020-12-09T13:03:31Z</time>
      </trkpt>
      <trkpt lat="39.78457" lon="-4.090444">
        <ele>618.95</ele>
        <time>2020-12-09T13:03:34Z</time>
      </trkpt>
      <trkpt lat="39.784584" lon="-4.0903807">
        <ele>618.95</ele>
        <time>2020-12-09T13:03:37Z</time>
      </trkpt>
      <trkpt lat="39.784595" lon="-4.090291">
        <ele>618.95</ele>
        <time>2020-12-09T13:03:41Z</time>
      </trkpt>
      <trkpt lat="39.784607" lon="-4.0902257">
        <ele>618.95</ele>
        <time>2020-12-09T13:03:44Z</time>
      </trkpt>
      <trkpt lat="39.784622" lon="-4.0901628">
        <ele>617.68</ele>
        <time>2020-12-09T13:03:47Z</time>
      </trkpt>
      <trkpt lat="39.784645" lon="-4.090103">
        <ele>617.68</ele>
        <time>2020-12-09T13:03:50Z</time>
      </trkpt>
      <trkpt lat="39.78468" lon="-4.0900254">
        <ele>617.68</ele>
        <time>2020-12-09T13:03:54Z</time>
      </trkpt>
      <trkpt lat="39.78471" lon="-4.089946">
        <ele>617.68</ele>
        <time>2020-12-09T13:03:58Z</time>
      </trkpt>
      <trkpt lat="39.78474" lon="-4.089884">
        <ele>616.49</ele>
        <time>2020-12-09T13:04:01Z</time>
      </trkpt>
      <trkpt lat="39.784782" lon="-4.089836">
        <ele>616.49</ele>
        <time>2020-12-09T13:04:04Z</time>
      </trkpt>
      <trkpt lat="39.784824" lon="-4.089802">
        <ele>616.49</ele>
        <time>2020-12-09T13:04:07Z</time>
      </trkpt>
      <trkpt lat="39.78488" lon="-4.089762">
        <ele>615.31</ele>
        <time>2020-12-09T13:04:11Z</time>
      </trkpt>
      <trkpt lat="39.78493" lon="-4.089739">
        <ele>615.49</ele>
        <time>2020-12-09T13:04:14Z</time>
      </trkpt>
      <trkpt lat="39.78498" lon="-4.089712">
        <ele>614.31</ele>
        <time>2020-12-09T13:04:17Z</time>
      </trkpt>
      <trkpt lat="39.785023" lon="-4.089676">
        <ele>614.31</ele>
        <time>2020-12-09T13:04:20Z</time>
      </trkpt>
      <trkpt lat="39.785076" lon="-4.0896177">
        <ele>614.31</ele>
        <time>2020-12-09T13:04:24Z</time>
      </trkpt>
      <trkpt lat="39.785122" lon="-4.089593">
        <ele>613.13</ele>
        <time>2020-12-09T13:04:27Z</time>
      </trkpt>
      <trkpt lat="39.78517" lon="-4.0895786">
        <ele>613.13</ele>
        <time>2020-12-09T13:04:30Z</time>
      </trkpt>
      <trkpt lat="39.78524" lon="-4.089564">
        <ele>611.94</ele>
        <time>2020-12-09T13:04:34Z</time>
      </trkpt>
      <trkpt lat="39.78529" lon="-4.08955">
        <ele>611.94</ele>
        <time>2020-12-09T13:04:37Z</time>
      </trkpt>
      <trkpt lat="39.785336" lon="-4.0895276">
        <ele>611.94</ele>
        <time>2020-12-09T13:04:40Z</time>
      </trkpt>
      <trkpt lat="39.785397" lon="-4.089476">
        <ele>610.76</ele>
        <time>2020-12-09T13:04:45Z</time>
      </trkpt>
      <trkpt lat="39.785446" lon="-4.089422">
        <ele>610.76</ele>
        <time>2020-12-09T13:04:48Z</time>
      </trkpt>
      <trkpt lat="39.785477" lon="-4.089366">
        <ele>610.76</ele>
        <time>2020-12-09T13:04:51Z</time>
      </trkpt>
      <trkpt lat="39.78551" lon="-4.089288">
        <ele>610.76</ele>
        <time>2020-12-09T13:04:55Z</time>
      </trkpt>
      <trkpt lat="39.785553" lon="-4.089213">
        <ele>610.76</ele>
        <time>2020-12-09T13:04:59Z</time>
      </trkpt>
      <trkpt lat="39.785583" lon="-4.089166">
        <ele>610.76</ele>
        <time>2020-12-09T13:05:02Z</time>
      </trkpt>
      <trkpt lat="39.78564" lon="-4.089104">
        <ele>610.76</ele>
        <time>2020-12-09T13:05:06Z</time>
      </trkpt>
      <trkpt lat="39.785675" lon="-4.0890317">
        <ele>610.76</ele>
        <time>2020-12-09T13:06:00Z</time>
      </trkpt>
      <trkpt lat="39.785686" lon="-4.0889964">
        <ele>610.76</ele>
        <time>2020-12-09T13:06:06Z</time>
      </trkpt>
      <trkpt lat="39.78568" lon="-4.0889206">
        <ele>610.76</ele>
        <time>2020-12-09T13:06:10Z</time>
      </trkpt>
      <trkpt lat="39.785637" lon="-4.088863">
        <ele>610.76</ele>
        <time>2020-12-09T13:06:14Z</time>
      </trkpt>
      <trkpt lat="39.78559" lon="-4.0888057">
        <ele>610.76</ele>
        <time>2020-12-09T13:06:18Z</time>
      </trkpt>
      <trkpt lat="39.785557" lon="-4.0887303">
        <ele>611.94</ele>
        <time>2020-12-09T13:06:22Z</time>
      </trkpt>
      <trkpt lat="39.785534" lon="-4.088671">
        <ele>613.13</ele>
        <time>2020-12-09T13:06:25Z</time>
      </trkpt>
      <trkpt lat="39.785503" lon="-4.088598">
        <ele>614.31</ele>
        <time>2020-12-09T13:06:29Z</time>
      </trkpt>
      <trkpt lat="39.78548" lon="-4.0885215">
        <ele>615.67</ele>
        <time>2020-12-09T13:06:33Z</time>
      </trkpt>
      <trkpt lat="39.785477" lon="-4.088444">
        <ele>615.67</ele>
        <time>2020-12-09T13:06:37Z</time>
      </trkpt>
      <trkpt lat="39.785477" lon="-4.0883665">
        <ele>616.94</ele>
        <time>2020-12-09T13:06:41Z</time>
      </trkpt>
      <trkpt lat="39.78545" lon="-4.0883">
        <ele>618.4</ele>
        <time>2020-12-09T13:06:45Z</time>
      </trkpt>
      <trkpt lat="39.785427" lon="-4.088239">
        <ele>619.67</ele>
        <time>2020-12-09T13:06:49Z</time>
      </trkpt>
      <trkpt lat="39.785427" lon="-4.088146">
        <ele>621.04</ele>
        <time>2020-12-09T13:06:54Z</time>
      </trkpt>
      <trkpt lat="39.785435" lon="-4.088071">
        <ele>621.04</ele>
        <time>2020-12-09T13:06:58Z</time>
      </trkpt>
      <trkpt lat="39.785404" lon="-4.087988">
        <ele>622.22</ele>
        <time>2020-12-09T13:07:03Z</time>
      </trkpt>
      <trkpt lat="39.785355" lon="-4.0879445">
        <ele>622.22</ele>
        <time>2020-12-09T13:07:07Z</time>
      </trkpt>
      <trkpt lat="39.78529" lon="-4.087909">
        <ele>623.49</ele>
        <time>2020-12-09T13:07:11Z</time>
      </trkpt>
      <trkpt lat="39.785244" lon="-4.0878863">
        <ele>624.85</ele>
        <time>2020-12-09T13:07:14Z</time>
      </trkpt>
      <trkpt lat="39.785183" lon="-4.0878587">
        <ele>624.85</ele>
        <time>2020-12-09T13:07:18Z</time>
      </trkpt>
      <trkpt lat="39.785122" lon="-4.0878453">
        <ele>626.13</ele>
        <time>2020-12-09T13:07:22Z</time>
      </trkpt>
      <trkpt lat="39.78506" lon="-4.087849">
        <ele>627.49</ele>
        <time>2020-12-09T13:07:26Z</time>
      </trkpt>
      <trkpt lat="39.785" lon="-4.087855">
        <ele>627.49</ele>
        <time>2020-12-09T13:07:30Z</time>
      </trkpt>
      <trkpt lat="39.784935" lon="-4.0878477">
        <ele>627.49</ele>
        <time>2020-12-09T13:07:34Z</time>
      </trkpt>
      <trkpt lat="39.78487" lon="-4.0878325">
        <ele>627.49</ele>
        <time>2020-12-09T13:07:38Z</time>
      </trkpt>
      <trkpt lat="39.78482" lon="-4.0878215">
        <ele>627.49</ele>
        <time>2020-12-09T13:07:41Z</time>
      </trkpt>
      <trkpt lat="39.78475" lon="-4.08782">
        <ele>627.49</ele>
        <time>2020-12-09T13:07:45Z</time>
      </trkpt>
      <trkpt lat="39.784702" lon="-4.08783">
        <ele>627.49</ele>
        <time>2020-12-09T13:07:48Z</time>
      </trkpt>
      <trkpt lat="39.78464" lon="-4.087861">
        <ele>626.22</ele>
        <time>2020-12-09T13:07:52Z</time>
      </trkpt>
      <trkpt lat="39.784595" lon="-4.087887">
        <ele>626.22</ele>
        <time>2020-12-09T13:07:55Z</time>
      </trkpt>
      <trkpt lat="39.78453" lon="-4.0879145">
        <ele>624.94</ele>
        <time>2020-12-09T13:07:59Z</time>
      </trkpt>
      <trkpt lat="39.78447" lon="-4.087949">
        <ele>616.42</ele>
        <time>2020-12-09T13:08:03Z</time>
      </trkpt>
      <trkpt lat="39.78442" lon="-4.087971">
        <ele>615.24</ele>
        <time>2020-12-09T13:08:06Z</time>
      </trkpt>
      <trkpt lat="39.784367" lon="-4.087991">
        <ele>615.24</ele>
        <time>2020-12-09T13:08:09Z</time>
      </trkpt>
      <trkpt lat="39.78432" lon="-4.0879965">
        <ele>613.97</ele>
        <time>2020-12-09T13:08:12Z</time>
      </trkpt>
      <trkpt lat="39.784252" lon="-4.087982">
        <ele>613.97</ele>
        <time>2020-12-09T13:08:16Z</time>
      </trkpt>
      <trkpt lat="39.784206" lon="-4.087958">
        <ele>612.6</ele>
        <time>2020-12-09T13:08:19Z</time>
      </trkpt>
      <trkpt lat="39.784153" lon="-4.087905">
        <ele>612.6</ele>
        <time>2020-12-09T13:08:23Z</time>
      </trkpt>
      <trkpt lat="39.784107" lon="-4.087851">
        <ele>611.42</ele>
        <time>2020-12-09T13:08:27Z</time>
      </trkpt>
      <trkpt lat="39.784054" lon="-4.0878115">
        <ele>611.42</ele>
        <time>2020-12-09T13:08:31Z</time>
      </trkpt>
      <trkpt lat="39.784" lon="-4.087765">
        <ele>610.15</ele>
        <time>2020-12-09T13:08:35Z</time>
      </trkpt>
      <trkpt lat="39.783947" lon="-4.087716">
        <ele>608.88</ele>
        <time>2020-12-09T13:08:39Z</time>
      </trkpt>
      <trkpt lat="39.783886" lon="-4.087696">
        <ele>608.88</ele>
        <time>2020-12-09T13:08:43Z</time>
      </trkpt>
      <trkpt lat="39.783836" lon="-4.087697">
        <ele>607.69</ele>
        <time>2020-12-09T13:08:46Z</time>
      </trkpt>
      <trkpt lat="39.783783" lon="-4.08771">
        <ele>607.69</ele>
        <time>2020-12-09T13:08:49Z</time>
      </trkpt>
      <trkpt lat="39.783722" lon="-4.0876946">
        <ele>606.42</ele>
        <time>2020-12-09T13:08:53Z</time>
      </trkpt>
      <trkpt lat="39.783676" lon="-4.08764">
        <ele>606.42</ele>
        <time>2020-12-09T13:08:57Z</time>
      </trkpt>
      <trkpt lat="39.78365" lon="-4.0875635">
        <ele>606.42</ele>
        <time>2020-12-09T13:09:01Z</time>
      </trkpt>
      <trkpt lat="39.783627" lon="-4.0875025">
        <ele>605.15</ele>
        <time>2020-12-09T13:09:04Z</time>
      </trkpt>
      <trkpt lat="39.7836" lon="-4.0874414">
        <ele>605.15</ele>
        <time>2020-12-09T13:09:07Z</time>
      </trkpt>
      <trkpt lat="39.78357" lon="-4.0873613">
        <ele>603.97</ele>
        <time>2020-12-09T13:09:11Z</time>
      </trkpt>
      <trkpt lat="39.78354" lon="-4.087307">
        <ele>603.97</ele>
        <time>2020-12-09T13:09:14Z</time>
      </trkpt>
      <trkpt lat="39.78353" lon="-4.087229">
        <ele>603.97</ele>
        <time>2020-12-09T13:09:18Z</time>
      </trkpt>
      <trkpt lat="39.783558" lon="-4.0871477">
        <ele>602.78</ele>
        <time>2020-12-09T13:09:22Z</time>
      </trkpt>
      <trkpt lat="39.78357" lon="-4.0870824">
        <ele>602.78</ele>
        <time>2020-12-09T13:09:25Z</time>
      </trkpt>
      <trkpt lat="39.783566" lon="-4.0870137">
        <ele>602.78</ele>
        <time>2020-12-09T13:09:28Z</time>
      </trkpt>
      <trkpt lat="39.783554" lon="-4.0869465">
        <ele>601.6</ele>
        <time>2020-12-09T13:09:31Z</time>
      </trkpt>
      <trkpt lat="39.783535" lon="-4.0868845">
        <ele>601.6</ele>
        <time>2020-12-09T13:09:34Z</time>
      </trkpt>
      <trkpt lat="39.783524" lon="-4.0868006">
        <ele>600.42</ele>
        <time>2020-12-09T13:09:38Z</time>
      </trkpt>
      <trkpt lat="39.783546" lon="-4.0867233">
        <ele>600.42</ele>
        <time>2020-12-09T13:09:42Z</time>
      </trkpt>
      <trkpt lat="39.783558" lon="-4.086648">
        <ele>600.42</ele>
        <time>2020-12-09T13:09:46Z</time>
      </trkpt>
      <trkpt lat="39.783546" lon="-4.086579">
        <ele>600.42</ele>
        <time>2020-12-09T13:09:50Z</time>
      </trkpt>
      <trkpt lat="39.78351" lon="-4.0865192">
        <ele>599.06</ele>
        <time>2020-12-09T13:09:55Z</time>
      </trkpt>
      <trkpt lat="39.783455" lon="-4.0864882">
        <ele>597.88</ele>
        <time>2020-12-09T13:10:00Z</time>
      </trkpt>
      <trkpt lat="39.783405" lon="-4.086477">
        <ele>618.08</ele>
        <time>2020-12-09T13:10:04Z</time>
      </trkpt>
      <trkpt lat="39.783318" lon="-4.0864983">
        <ele>616.9</ele>
        <time>2020-12-09T13:10:10Z</time>
      </trkpt>
      <trkpt lat="39.783283" lon="-4.0865035">
        <ele>616.9</ele>
        <time>2020-12-09T13:10:14Z</time>
      </trkpt>
      <trkpt lat="39.783226" lon="-4.086508">
        <ele>616.9</ele>
        <time>2020-12-09T13:10:18Z</time>
      </trkpt>
      <trkpt lat="39.783173" lon="-4.0865006">
        <ele>616.9</ele>
        <time>2020-12-09T13:10:22Z</time>
      </trkpt>
      <trkpt lat="39.783127" lon="-4.08645">
        <ele>616.9</ele>
        <time>2020-12-09T13:10:27Z</time>
      </trkpt>
      <trkpt lat="39.783127" lon="-4.0863657">
        <ele>616.9</ele>
        <time>2020-12-09T13:10:32Z</time>
      </trkpt>
      <trkpt lat="39.78314" lon="-4.08629">
        <ele>616.9</ele>
        <time>2020-12-09T13:10:36Z</time>
      </trkpt>
      <trkpt lat="39.783134" lon="-4.086227">
        <ele>616.9</ele>
        <time>2020-12-09T13:10:39Z</time>
      </trkpt>
      <trkpt lat="39.783104" lon="-4.0861597">
        <ele>616.9</ele>
        <time>2020-12-09T13:10:43Z</time>
      </trkpt>
      <trkpt lat="39.78308" lon="-4.086089">
        <ele>616.9</ele>
        <time>2020-12-09T13:10:47Z</time>
      </trkpt>
      <trkpt lat="39.783085" lon="-4.086015">
        <ele>616.9</ele>
        <time>2020-12-09T13:10:51Z</time>
      </trkpt>
      <trkpt lat="39.783073" lon="-4.0859523">
        <ele>616.9</ele>
        <time>2020-12-09T13:10:55Z</time>
      </trkpt>
      <trkpt lat="39.783005" lon="-4.0859275">
        <ele>616.9</ele>
        <time>2020-12-09T13:11:00Z</time>
      </trkpt>
      <trkpt lat="39.78294" lon="-4.085933">
        <ele>616.9</ele>
        <time>2020-12-09T13:11:04Z</time>
      </trkpt>
      <trkpt lat="39.7829" lon="-4.085902">
        <ele>616.9</ele>
        <time>2020-12-09T13:11:08Z</time>
      </trkpt>
      <trkpt lat="39.782906" lon="-4.0858254">
        <ele>616.9</ele>
        <time>2020-12-09T13:11:12Z</time>
      </trkpt>
      <trkpt lat="39.782906" lon="-4.085761">
        <ele>616.9</ele>
        <time>2020-12-09T13:11:15Z</time>
      </trkpt>
      <trkpt lat="39.7829" lon="-4.085674">
        <ele>616.9</ele>
        <time>2020-12-09T13:11:19Z</time>
      </trkpt>
      <trkpt lat="39.78289" lon="-4.085612">
        <ele>616.9</ele>
        <time>2020-12-09T13:11:22Z</time>
      </trkpt>
      <trkpt lat="39.782864" lon="-4.0855355">
        <ele>616.9</ele>
        <time>2020-12-09T13:11:26Z</time>
      </trkpt>
      <trkpt lat="39.782814" lon="-4.0854745">
        <ele>616.9</ele>
        <time>2020-12-09T13:11:30Z</time>
      </trkpt>
      <trkpt lat="39.78277" lon="-4.085443">
        <ele>616.9</ele>
        <time>2020-12-09T13:11:33Z</time>
      </trkpt>
      <trkpt lat="39.782722" lon="-4.085416">
        <ele>616.9</ele>
        <time>2020-12-09T13:11:36Z</time>
      </trkpt>
      <trkpt lat="39.782677" lon="-4.085362">
        <ele>616.9</ele>
        <time>2020-12-09T13:11:40Z</time>
      </trkpt>
      <trkpt lat="39.78268" lon="-4.0852942">
        <ele>616.9</ele>
        <time>2020-12-09T13:11:44Z</time>
      </trkpt>
      <trkpt lat="39.782707" lon="-4.0852237">
        <ele>616.9</ele>
        <time>2020-12-09T13:11:48Z</time>
      </trkpt>
      <trkpt lat="39.782715" lon="-4.0851455">
        <ele>616.9</ele>
        <time>2020-12-09T13:11:52Z</time>
      </trkpt>
      <trkpt lat="39.782703" lon="-4.085059">
        <ele>616.9</ele>
        <time>2020-12-09T13:11:56Z</time>
      </trkpt>
      <trkpt lat="39.782692" lon="-4.084994">
        <ele>616.9</ele>
        <time>2020-12-09T13:11:59Z</time>
      </trkpt>
      <trkpt lat="39.782684" lon="-4.0849166">
        <ele>606.38</ele>
        <time>2020-12-09T13:12:03Z</time>
      </trkpt>
      <trkpt lat="39.78266" lon="-4.084852">
        <ele>606.38</ele>
        <time>2020-12-09T13:12:07Z</time>
      </trkpt>
      <trkpt lat="39.78261" lon="-4.084811">
        <ele>606.38</ele>
        <time>2020-12-09T13:12:11Z</time>
      </trkpt>
      <trkpt lat="39.78252" lon="-4.08473">
        <ele>606.38</ele>
        <time>2020-12-09T13:14:04Z</time>
      </trkpt>
      <trkpt lat="39.78253" lon="-4.084722">
        <ele>606.38</ele>
        <time>2020-12-09T13:14:06Z</time>
      </trkpt>
      <trkpt lat="39.78254" lon="-4.0846405">
        <ele>606.38</ele>
        <time>2020-12-09T13:14:12Z</time>
      </trkpt>
      <trkpt lat="39.782494" lon="-4.084596">
        <ele>606.38</ele>
        <time>2020-12-09T13:14:16Z</time>
      </trkpt>
      <trkpt lat="39.78244" lon="-4.0846186">
        <ele>606.38</ele>
        <time>2020-12-09T13:14:20Z</time>
      </trkpt>
      <trkpt lat="39.7824" lon="-4.084668">
        <ele>606.38</ele>
        <time>2020-12-09T13:14:24Z</time>
      </trkpt>
      <trkpt lat="39.78234" lon="-4.084674">
        <ele>606.38</ele>
        <time>2020-12-09T13:14:28Z</time>
      </trkpt>
      <trkpt lat="39.78229" lon="-4.084633">
        <ele>606.38</ele>
        <time>2020-12-09T13:14:32Z</time>
      </trkpt>
      <trkpt lat="39.78225" lon="-4.0845733">
        <ele>606.38</ele>
        <time>2020-12-09T13:14:36Z</time>
      </trkpt>
      <trkpt lat="39.782207" lon="-4.0845404">
        <ele>606.38</ele>
        <time>2020-12-09T13:14:39Z</time>
      </trkpt>
      <trkpt lat="39.782158" lon="-4.0845246">
        <ele>606.38</ele>
        <time>2020-12-09T13:14:42Z</time>
      </trkpt>
      <trkpt lat="39.782093" lon="-4.084521">
        <ele>606.38</ele>
        <time>2020-12-09T13:14:46Z</time>
      </trkpt>
      <trkpt lat="39.782024" lon="-4.0845265">
        <ele>606.38</ele>
        <time>2020-12-09T13:14:50Z</time>
      </trkpt>
      <trkpt lat="39.781967" lon="-4.08455">
        <ele>606.38</ele>
        <time>2020-12-09T13:14:54Z</time>
      </trkpt>
      <trkpt lat="39.78191" lon="-4.0845847">
        <ele>606.38</ele>
        <time>2020-12-09T13:14:58Z</time>
      </trkpt>
      <trkpt lat="39.78186" lon="-4.084615">
        <ele>606.38</ele>
        <time>2020-12-09T13:15:02Z</time>
      </trkpt>
      <trkpt lat="39.781807" lon="-4.084636">
        <ele>606.38</ele>
        <time>2020-12-09T13:15:06Z</time>
      </trkpt>
      <trkpt lat="39.78176" lon="-4.0846634">
        <ele>606.38</ele>
        <time>2020-12-09T13:15:10Z</time>
      </trkpt>
      <trkpt lat="39.78172" lon="-4.0847163">
        <ele>606.38</ele>
        <time>2020-12-09T13:15:14Z</time>
      </trkpt>
      <trkpt lat="39.78167" lon="-4.084772">
        <ele>606.38</ele>
        <time>2020-12-09T13:15:18Z</time>
      </trkpt>
      <trkpt lat="39.78163" lon="-4.0847945">
        <ele>606.38</ele>
        <time>2020-12-09T13:15:21Z</time>
      </trkpt>
      <trkpt lat="39.781578" lon="-4.084825">
        <ele>606.38</ele>
        <time>2020-12-09T13:15:25Z</time>
      </trkpt>
      <trkpt lat="39.78153" lon="-4.0848703">
        <ele>606.38</ele>
        <time>2020-12-09T13:15:29Z</time>
      </trkpt>
      <trkpt lat="39.78148" lon="-4.0849304">
        <ele>606.38</ele>
        <time>2020-12-09T13:15:33Z</time>
      </trkpt>
      <trkpt lat="39.78144" lon="-4.084994">
        <ele>606.38</ele>
        <time>2020-12-09T13:15:37Z</time>
      </trkpt>
      <trkpt lat="39.781403" lon="-4.085063">
        <ele>606.38</ele>
        <time>2020-12-09T13:15:41Z</time>
      </trkpt>
      <trkpt lat="39.781376" lon="-4.0851135">
        <ele>606.38</ele>
        <time>2020-12-09T13:15:44Z</time>
      </trkpt>
      <trkpt lat="39.78133" lon="-4.085181">
        <ele>606.38</ele>
        <time>2020-12-09T13:15:48Z</time>
      </trkpt>
      <trkpt lat="39.7813" lon="-4.085224">
        <ele>606.38</ele>
        <time>2020-12-09T13:15:51Z</time>
      </trkpt>
      <trkpt lat="39.781292" lon="-4.085304">
        <ele>607.65</ele>
        <time>2020-12-09T13:15:56Z</time>
      </trkpt>
      <trkpt lat="39.781284" lon="-4.085376">
        <ele>607.65</ele>
        <time>2020-12-09T13:16:00Z</time>
      </trkpt>
      <trkpt lat="39.781258" lon="-4.0854373">
        <ele>608.09</ele>
        <time>2020-12-09T13:16:04Z</time>
      </trkpt>
      <trkpt lat="39.781216" lon="-4.085491">
        <ele>609.27</ele>
        <time>2020-12-09T13:16:08Z</time>
      </trkpt>
      <trkpt lat="39.78117" lon="-4.085535">
        <ele>609.27</ele>
        <time>2020-12-09T13:16:12Z</time>
      </trkpt>
      <trkpt lat="39.781128" lon="-4.085557">
        <ele>610.45</ele>
        <time>2020-12-09T13:16:15Z</time>
      </trkpt>
      <trkpt lat="39.781075" lon="-4.0855894">
        <ele>610.45</ele>
        <time>2020-12-09T13:16:19Z</time>
      </trkpt>
      <trkpt lat="39.781013" lon="-4.0856447">
        <ele>610.45</ele>
        <time>2020-12-09T13:16:24Z</time>
      </trkpt>
      <trkpt lat="39.780968" lon="-4.0856996">
        <ele>610.45</ele>
        <time>2020-12-09T13:16:28Z</time>
      </trkpt>
      <trkpt lat="39.780926" lon="-4.085758">
        <ele>610.45</ele>
        <time>2020-12-09T13:16:32Z</time>
      </trkpt>
      <trkpt lat="39.780872" lon="-4.085801">
        <ele>610.45</ele>
        <time>2020-12-09T13:16:36Z</time>
      </trkpt>
      <trkpt lat="39.780834" lon="-4.08586">
        <ele>610.45</ele>
        <time>2020-12-09T13:16:40Z</time>
      </trkpt>
      <trkpt lat="39.78081" lon="-4.085924">
        <ele>611.63</ele>
        <time>2020-12-09T13:16:44Z</time>
      </trkpt>
      <trkpt lat="39.7808" lon="-4.085999">
        <ele>612.91</ele>
        <time>2020-12-09T13:16:48Z</time>
      </trkpt>
      <trkpt lat="39.780792" lon="-4.086058">
        <ele>612.91</ele>
        <time>2020-12-09T13:16:51Z</time>
      </trkpt>
      <trkpt lat="39.780777" lon="-4.0861344">
        <ele>612.91</ele>
        <time>2020-12-09T13:16:55Z</time>
      </trkpt>
      <trkpt lat="39.780758" lon="-4.086189">
        <ele>612.91</ele>
        <time>2020-12-09T13:16:58Z</time>
      </trkpt>
      <trkpt lat="39.78074" lon="-4.0862565">
        <ele>612.91</ele>
        <time>2020-12-09T13:17:02Z</time>
      </trkpt>
      <trkpt lat="39.780704" lon="-4.086312">
        <ele>612.91</ele>
        <time>2020-12-09T13:17:06Z</time>
      </trkpt>
      <trkpt lat="39.780678" lon="-4.086387">
        <ele>612.91</ele>
        <time>2020-12-09T13:17:10Z</time>
      </trkpt>
      <trkpt lat="39.780678" lon="-4.0864644">
        <ele>612.91</ele>
        <time>2020-12-09T13:17:14Z</time>
      </trkpt>
      <trkpt lat="39.780632" lon="-4.086529">
        <ele>612.91</ele>
        <time>2020-12-09T13:17:20Z</time>
      </trkpt>
      <trkpt lat="39.78058" lon="-4.086523">
        <ele>611.54</ele>
        <time>2020-12-09T13:17:24Z</time>
      </trkpt>
      <trkpt lat="39.780525" lon="-4.0865088">
        <ele>611.54</ele>
        <time>2020-12-09T13:17:28Z</time>
      </trkpt>
      <trkpt lat="39.780476" lon="-4.086506">
        <ele>611.54</ele>
        <time>2020-12-09T13:17:32Z</time>
      </trkpt>
      <trkpt lat="39.780415" lon="-4.0864906">
        <ele>610.36</ele>
        <time>2020-12-09T13:17:36Z</time>
      </trkpt>
      <trkpt lat="39.780354" lon="-4.086477">
        <ele>609.09</ele>
        <time>2020-12-09T13:17:40Z</time>
      </trkpt>
      <trkpt lat="39.780296" lon="-4.086495">
        <ele>609.09</ele>
        <time>2020-12-09T13:17:44Z</time>
      </trkpt>
      <trkpt lat="39.780243" lon="-4.0865135">
        <ele>607.82</ele>
        <time>2020-12-09T13:17:48Z</time>
      </trkpt>
      <trkpt lat="39.780193" lon="-4.086517">
        <ele>607.82</ele>
        <time>2020-12-09T13:17:52Z</time>
      </trkpt>
      <trkpt lat="39.780132" lon="-4.086521">
        <ele>606.45</ele>
        <time>2020-12-09T13:17:57Z</time>
      </trkpt>
      <trkpt lat="39.780075" lon="-4.0865374">
        <ele>605.18</ele>
        <time>2020-12-09T13:18:01Z</time>
      </trkpt>
      <trkpt lat="39.780003" lon="-4.0865545">
        <ele>600.02</ele>
        <time>2020-12-09T13:18:06Z</time>
      </trkpt>
      <trkpt lat="39.779953" lon="-4.0865254">
        <ele>600.02</ele>
        <time>2020-12-09T13:18:10Z</time>
      </trkpt>
      <trkpt lat="39.779903" lon="-4.086489">
        <ele>600.02</ele>
        <time>2020-12-09T13:18:14Z</time>
      </trkpt>
      <trkpt lat="39.779846" lon="-4.086451">
        <ele>600.02</ele>
        <time>2020-12-09T13:18:18Z</time>
      </trkpt>
      <trkpt lat="39.779797" lon="-4.086408">
        <ele>600.02</ele>
        <time>2020-12-09T13:18:22Z</time>
      </trkpt>
      <trkpt lat="39.779747" lon="-4.086373">
        <ele>600.02</ele>
        <time>2020-12-09T13:18:26Z</time>
      </trkpt>
      <trkpt lat="39.779694" lon="-4.086342">
        <ele>598.84</ele>
        <time>2020-12-09T13:18:30Z</time>
      </trkpt>
      <trkpt lat="39.779648" lon="-4.086302">
        <ele>598.84</ele>
        <time>2020-12-09T13:18:35Z</time>
      </trkpt>
      <trkpt lat="39.779613" lon="-4.0862513">
        <ele>598.84</ele>
        <time>2020-12-09T13:18:40Z</time>
      </trkpt>
      <trkpt lat="39.779556" lon="-4.086232">
        <ele>597.66</ele>
        <time>2020-12-09T13:18:45Z</time>
      </trkpt>
      <trkpt lat="39.7795" lon="-4.086212">
        <ele>597.66</ele>
        <time>2020-12-09T13:18:50Z</time>
      </trkpt>
      <trkpt lat="39.779453" lon="-4.08625">
        <ele>597.66</ele>
        <time>2020-12-09T13:18:55Z</time>
      </trkpt>
      <trkpt lat="39.779408" lon="-4.086275">
        <ele>598.93</ele>
        <time>2020-12-09T13:18:59Z</time>
      </trkpt>
      <trkpt lat="39.779354" lon="-4.086299">
        <ele>598.93</ele>
        <time>2020-12-09T13:19:03Z</time>
      </trkpt>
      <trkpt lat="39.779312" lon="-4.086346">
        <ele>600.3</ele>
        <time>2020-12-09T13:19:08Z</time>
      </trkpt>
      <trkpt lat="39.77929" lon="-4.0864105">
        <ele>601.57</ele>
        <time>2020-12-09T13:19:14Z</time>
      </trkpt>
      <trkpt lat="39.77927" lon="-4.086477">
        <ele>602.75</ele>
        <time>2020-12-09T13:19:19Z</time>
      </trkpt>
      <trkpt lat="39.779263" lon="-4.086549">
        <ele>603.93</ele>
        <time>2020-12-09T13:19:24Z</time>
      </trkpt>
      <trkpt lat="39.779213" lon="-4.086578">
        <ele>603.93</ele>
        <time>2020-12-09T13:19:29Z</time>
      </trkpt>
      <trkpt lat="39.779156" lon="-4.0866156">
        <ele>603.93</ele>
        <time>2020-12-09T13:19:34Z</time>
      </trkpt>
      <trkpt lat="39.779114" lon="-4.086656">
        <ele>603.93</ele>
        <time>2020-12-09T13:19:38Z</time>
      </trkpt>
      <trkpt lat="39.779076" lon="-4.0867147">
        <ele>603.93</ele>
        <time>2020-12-09T13:19:43Z</time>
      </trkpt>
      <trkpt lat="39.77907" lon="-4.086776">
        <ele>603.93</ele>
        <time>2020-12-09T13:19:47Z</time>
      </trkpt>
      <trkpt lat="39.77906" lon="-4.0868497">
        <ele>605.21</ele>
        <time>2020-12-09T13:19:52Z</time>
      </trkpt>
      <trkpt lat="39.77905" lon="-4.086924">
        <ele>605.21</ele>
        <time>2020-12-09T13:19:57Z</time>
      </trkpt>
      <trkpt lat="39.77909" lon="-4.0869803">
        <ele>606.39</ele>
        <time>2020-12-09T13:20:02Z</time>
      </trkpt>
      <trkpt lat="39.77912" lon="-4.0870495">
        <ele>611.6</ele>
        <time>2020-12-09T13:20:07Z</time>
      </trkpt>
      <trkpt lat="39.77913" lon="-4.0871167">
        <ele>612.87</ele>
        <time>2020-12-09T13:20:12Z</time>
      </trkpt>
      <trkpt lat="39.779133" lon="-4.087201">
        <ele>612.87</ele>
        <time>2020-12-09T13:20:17Z</time>
      </trkpt>
      <trkpt lat="39.77915" lon="-4.0872736">
        <ele>614.05</ele>
        <time>2020-12-09T13:20:22Z</time>
      </trkpt>
      <trkpt lat="39.779167" lon="-4.0873246">
        <ele>614.05</ele>
        <time>2020-12-09T13:20:26Z</time>
      </trkpt>
      <trkpt lat="39.779194" lon="-4.087402">
        <ele>614.05</ele>
        <time>2020-12-09T13:20:31Z</time>
      </trkpt>
      <trkpt lat="39.779243" lon="-4.0874486">
        <ele>614.05</ele>
        <time>2020-12-09T13:20:35Z</time>
      </trkpt>
      <trkpt lat="39.77929" lon="-4.087503">
        <ele>615.23</ele>
        <time>2020-12-09T13:20:39Z</time>
      </trkpt>
      <trkpt lat="39.779316" lon="-4.087569">
        <ele>615.23</ele>
        <time>2020-12-09T13:20:43Z</time>
      </trkpt>
      <trkpt lat="39.77933" lon="-4.087623">
        <ele>615.23</ele>
        <time>2020-12-09T13:20:47Z</time>
      </trkpt>
      <trkpt lat="39.779346" lon="-4.087696">
        <ele>616.51</ele>
        <time>2020-12-09T13:20:52Z</time>
      </trkpt>
      <trkpt lat="39.779354" lon="-4.087764">
        <ele>616.51</ele>
        <time>2020-12-09T13:20:56Z</time>
      </trkpt>
      <trkpt lat="39.779335" lon="-4.087834">
        <ele>616.51</ele>
        <time>2020-12-09T13:21:00Z</time>
      </trkpt>
      <trkpt lat="39.77932" lon="-4.0879064">
        <ele>616.51</ele>
        <time>2020-12-09T13:21:04Z</time>
      </trkpt>
      <trkpt lat="39.779346" lon="-4.0879726">
        <ele>617.69</ele>
        <time>2020-12-09T13:21:09Z</time>
      </trkpt>
      <trkpt lat="39.77939" lon="-4.088041">
        <ele>617.69</ele>
        <time>2020-12-09T13:21:14Z</time>
      </trkpt>
      <trkpt lat="39.779434" lon="-4.0880904">
        <ele>617.69</ele>
        <time>2020-12-09T13:21:18Z</time>
      </trkpt>
      <trkpt lat="39.779484" lon="-4.088136">
        <ele>618.87</ele>
        <time>2020-12-09T13:21:22Z</time>
      </trkpt>
      <trkpt lat="39.779526" lon="-4.088197">
        <ele>618.87</ele>
        <time>2020-12-09T13:21:26Z</time>
      </trkpt>
      <trkpt lat="39.779556" lon="-4.0882635">
        <ele>618.87</ele>
        <time>2020-12-09T13:21:30Z</time>
      </trkpt>
      <trkpt lat="39.779587" lon="-4.088339">
        <ele>620.05</ele>
        <time>2020-12-09T13:21:34Z</time>
      </trkpt>
      <trkpt lat="39.77961" lon="-4.0883985">
        <ele>620.05</ele>
        <time>2020-12-09T13:21:37Z</time>
      </trkpt>
      <trkpt lat="39.779625" lon="-4.088477">
        <ele>620.05</ele>
        <time>2020-12-09T13:21:41Z</time>
      </trkpt>
      <trkpt lat="39.779633" lon="-4.0885615">
        <ele>621.23</ele>
        <time>2020-12-09T13:21:45Z</time>
      </trkpt>
      <trkpt lat="39.77963" lon="-4.0886273">
        <ele>621.23</ele>
        <time>2020-12-09T13:21:48Z</time>
      </trkpt>
      <trkpt lat="39.779625" lon="-4.0887003">
        <ele>622.41</ele>
        <time>2020-12-09T13:21:52Z</time>
      </trkpt>
      <trkpt lat="39.779636" lon="-4.088763">
        <ele>622.41</ele>
        <time>2020-12-09T13:21:56Z</time>
      </trkpt>
      <trkpt lat="39.77965" lon="-4.0888295">
        <ele>622.41</ele>
        <time>2020-12-09T13:22:00Z</time>
      </trkpt>
      <trkpt lat="39.77967" lon="-4.088905">
        <ele>616.37</ele>
        <time>2020-12-09T13:22:05Z</time>
      </trkpt>
      <trkpt lat="39.779667" lon="-4.088983">
        <ele>617.56</ele>
        <time>2020-12-09T13:22:10Z</time>
      </trkpt>
      <trkpt lat="39.779663" lon="-4.089054">
        <ele>617.56</ele>
        <time>2020-12-09T13:22:17Z</time>
      </trkpt>
      <trkpt lat="39.779663" lon="-4.08912">
        <ele>618.74</ele>
        <time>2020-12-09T13:22:21Z</time>
      </trkpt>
      <trkpt lat="39.77966" lon="-4.089194">
        <ele>618.74</ele>
        <time>2020-12-09T13:22:26Z</time>
      </trkpt>
      <trkpt lat="39.77963" lon="-4.0892615">
        <ele>619.92</ele>
        <time>2020-12-09T13:22:31Z</time>
      </trkpt>
      <trkpt lat="39.77959" lon="-4.089326">
        <ele>619.92</ele>
        <time>2020-12-09T13:22:36Z</time>
      </trkpt>
      <trkpt lat="39.7796" lon="-4.0893955">
        <ele>619.92</ele>
        <time>2020-12-09T13:22:41Z</time>
      </trkpt>
      <trkpt lat="39.77959" lon="-4.0894756">
        <ele>621.1</ele>
        <time>2020-12-09T13:22:46Z</time>
      </trkpt>
      <trkpt lat="39.779575" lon="-4.089543">
        <ele>621.1</ele>
        <time>2020-12-09T13:22:50Z</time>
      </trkpt>
      <trkpt lat="39.779602" lon="-4.089611">
        <ele>621.1</ele>
        <time>2020-12-09T13:22:55Z</time>
      </trkpt>
      <trkpt lat="39.779644" lon="-4.089652">
        <ele>622.28</ele>
        <time>2020-12-09T13:22:59Z</time>
      </trkpt>
      <trkpt lat="39.779705" lon="-4.0896873">
        <ele>622.28</ele>
        <time>2020-12-09T13:23:03Z</time>
      </trkpt>
      <trkpt lat="39.77975" lon="-4.0897174">
        <ele>623.56</ele>
        <time>2020-12-09T13:23:07Z</time>
      </trkpt>
      <trkpt lat="39.779808" lon="-4.089721">
        <ele>623.56</ele>
        <time>2020-12-09T13:23:12Z</time>
      </trkpt>
      <trkpt lat="39.779854" lon="-4.0897255">
        <ele>624.83</ele>
        <time>2020-12-09T13:23:23Z</time>
      </trkpt>
      <trkpt lat="39.779903" lon="-4.0897036">
        <ele>624.83</ele>
        <time>2020-12-09T13:23:31Z</time>
      </trkpt>
      <trkpt lat="39.779957" lon="-4.0897346">
        <ele>624.83</ele>
        <time>2020-12-09T13:23:37Z</time>
      </trkpt>
      <trkpt lat="39.77994" lon="-4.089793">
        <ele>624.83</ele>
        <time>2020-12-09T13:23:43Z</time>
      </trkpt>
      <trkpt lat="39.77988" lon="-4.0898294">
        <ele>624.83</ele>
        <time>2020-12-09T13:23:48Z</time>
      </trkpt>
      <trkpt lat="39.779823" lon="-4.089866">
        <ele>624.83</ele>
        <time>2020-12-09T13:23:52Z</time>
      </trkpt>
      <trkpt lat="39.77977" lon="-4.089914">
        <ele>624.83</ele>
        <time>2020-12-09T13:23:56Z</time>
      </trkpt>
      <trkpt lat="39.779716" lon="-4.0899606">
        <ele>624.83</ele>
        <time>2020-12-09T13:24:00Z</time>
      </trkpt>
      <trkpt lat="39.77966" lon="-4.0899935">
        <ele>622.41</ele>
        <time>2020-12-09T13:24:04Z</time>
      </trkpt>
      <trkpt lat="39.779613" lon="-4.090032">
        <ele>622.41</ele>
        <time>2020-12-09T13:24:08Z</time>
      </trkpt>
      <trkpt lat="39.77957" lon="-4.0900545">
        <ele>622.41</ele>
        <time>2020-12-09T13:24:12Z</time>
      </trkpt>
      <trkpt lat="39.77952" lon="-4.090037">
        <ele>622.41</ele>
        <time>2020-12-09T13:24:17Z</time>
      </trkpt>
      <trkpt lat="39.779457" lon="-4.090016">
        <ele>622.41</ele>
        <time>2020-12-09T13:24:22Z</time>
      </trkpt>
      <trkpt lat="39.779396" lon="-4.0899973">
        <ele>622.41</ele>
        <time>2020-12-09T13:24:27Z</time>
      </trkpt>
      <trkpt lat="39.779346" lon="-4.090007">
        <ele>622.41</ele>
        <time>2020-12-09T13:24:32Z</time>
      </trkpt>
      <trkpt lat="39.779324" lon="-4.0900693">
        <ele>623.59</ele>
        <time>2020-12-09T13:24:38Z</time>
      </trkpt>
      <trkpt lat="39.77932" lon="-4.09015">
        <ele>623.59</ele>
        <time>2020-12-09T13:24:44Z</time>
      </trkpt>
      <trkpt lat="39.77929" lon="-4.090206">
        <ele>624.77</ele>
        <time>2020-12-09T13:24:49Z</time>
      </trkpt>
      <trkpt lat="39.779263" lon="-4.09027">
        <ele>624.77</ele>
        <time>2020-12-09T13:24:54Z</time>
      </trkpt>
      <trkpt lat="39.77925" lon="-4.0903454">
        <ele>626.05</ele>
        <time>2020-12-09T13:24:59Z</time>
      </trkpt>
      <trkpt lat="39.77924" lon="-4.0904164">
        <ele>626.05</ele>
        <time>2020-12-09T13:25:04Z</time>
      </trkpt>
      <trkpt lat="39.77921" lon="-4.0904756">
        <ele>627.23</ele>
        <time>2020-12-09T13:25:09Z</time>
      </trkpt>
      <trkpt lat="39.779156" lon="-4.0904775">
        <ele>628.5</ele>
        <time>2020-12-09T13:25:14Z</time>
      </trkpt>
      <trkpt lat="39.7791" lon="-4.0904665">
        <ele>628.5</ele>
        <time>2020-12-09T13:25:19Z</time>
      </trkpt>
      <trkpt lat="39.779034" lon="-4.0904617">
        <ele>628.5</ele>
        <time>2020-12-09T13:25:24Z</time>
      </trkpt>
      <trkpt lat="39.77897" lon="-4.090471">
        <ele>628.5</ele>
        <time>2020-12-09T13:25:29Z</time>
      </trkpt>
      <trkpt lat="39.77891" lon="-4.0904675">
        <ele>627.32</ele>
        <time>2020-12-09T13:25:33Z</time>
      </trkpt>
      <trkpt lat="39.77886" lon="-4.0904555">
        <ele>627.32</ele>
        <time>2020-12-09T13:25:37Z</time>
      </trkpt>
      <trkpt lat="39.778805" lon="-4.0904436">
        <ele>627.32</ele>
        <time>2020-12-09T13:25:42Z</time>
      </trkpt>
      <trkpt lat="39.778755" lon="-4.090449">
        <ele>627.32</ele>
        <time>2020-12-09T13:25:47Z</time>
      </trkpt>
      <trkpt lat="39.778713" lon="-4.0904865">
        <ele>627.32</ele>
        <time>2020-12-09T13:25:52Z</time>
      </trkpt>
      <trkpt lat="39.778667" lon="-4.0905294">
        <ele>628.5</ele>
        <time>2020-12-09T13:25:58Z</time>
      </trkpt>
      <trkpt lat="39.77864" lon="-4.0905766">
        <ele>630.77</ele>
        <time>2020-12-09T13:26:04Z</time>
      </trkpt>
      <trkpt lat="39.77858" lon="-4.090601">
        <ele>632.05</ele>
        <time>2020-12-09T13:26:10Z</time>
      </trkpt>
      <trkpt lat="39.77853" lon="-4.090626">
        <ele>633.23</ele>
        <time>2020-12-09T13:26:15Z</time>
      </trkpt>
      <trkpt lat="39.77847" lon="-4.0906167">
        <ele>634.5</ele>
        <time>2020-12-09T13:26:20Z</time>
      </trkpt>
      <trkpt lat="39.778416" lon="-4.0906177">
        <ele>634.5</ele>
        <time>2020-12-09T13:26:24Z</time>
      </trkpt>
      <trkpt lat="39.77837" lon="-4.090633">
        <ele>634.5</ele>
        <time>2020-12-09T13:26:28Z</time>
      </trkpt>
      <trkpt lat="39.778324" lon="-4.0906825">
        <ele>635.77</ele>
        <time>2020-12-09T13:26:33Z</time>
      </trkpt>
      <trkpt lat="39.77831" lon="-4.0907516">
        <ele>635.77</ele>
        <time>2020-12-09T13:26:38Z</time>
      </trkpt>
      <trkpt lat="39.77829" lon="-4.0908165">
        <ele>635.77</ele>
        <time>2020-12-09T13:26:43Z</time>
      </trkpt>
      <trkpt lat="39.778263" lon="-4.090885">
        <ele>635.77</ele>
        <time>2020-12-09T13:26:48Z</time>
      </trkpt>
      <trkpt lat="39.778233" lon="-4.090938">
        <ele>635.77</ele>
        <time>2020-12-09T13:26:52Z</time>
      </trkpt>
      <trkpt lat="39.7782" lon="-4.0909944">
        <ele>634.5</ele>
        <time>2020-12-09T13:26:56Z</time>
      </trkpt>
      <trkpt lat="39.77817" lon="-4.091067">
        <ele>633.32</ele>
        <time>2020-12-09T13:27:00Z</time>
      </trkpt>
      <trkpt lat="39.77815" lon="-4.0911365">
        <ele>633.32</ele>
        <time>2020-12-09T13:27:04Z</time>
      </trkpt>
      <trkpt lat="39.778133" lon="-4.091207">
        <ele>632.14</ele>
        <time>2020-12-09T13:27:08Z</time>
      </trkpt>
      <trkpt lat="39.778103" lon="-4.0912676">
        <ele>632.14</ele>
        <time>2020-12-09T13:27:13Z</time>
      </trkpt>
      <trkpt lat="39.77808" lon="-4.091326">
        <ele>630.96</ele>
        <time>2020-12-09T13:27:17Z</time>
      </trkpt>
      <trkpt lat="39.77808" lon="-4.0913925">
        <ele>630.96</ele>
        <time>2020-12-09T13:27:21Z</time>
      </trkpt>
      <trkpt lat="39.778114" lon="-4.0914545">
        <ele>630.96</ele>
        <time>2020-12-09T13:27:25Z</time>
      </trkpt>
      <trkpt lat="39.77815" lon="-4.091512">
        <ele>630.96</ele>
        <time>2020-12-09T13:27:29Z</time>
      </trkpt>
      <trkpt lat="39.778187" lon="-4.091561">
        <ele>630.96</ele>
        <time>2020-12-09T13:27:33Z</time>
      </trkpt>
      <trkpt lat="39.77822" lon="-4.0916195">
        <ele>629.77</ele>
        <time>2020-12-09T13:27:38Z</time>
      </trkpt>
      <trkpt lat="39.77825" lon="-4.0916867">
        <ele>629.77</ele>
        <time>2020-12-09T13:27:43Z</time>
      </trkpt>
      <trkpt lat="39.778275" lon="-4.0917583">
        <ele>628.59</ele>
        <time>2020-12-09T13:27:48Z</time>
      </trkpt>
      <trkpt lat="39.77824" lon="-4.0918155">
        <ele>627.41</ele>
        <time>2020-12-09T13:27:53Z</time>
      </trkpt>
      <trkpt lat="39.778183" lon="-4.091863">
        <ele>627.41</ele>
        <time>2020-12-09T13:27:58Z</time>
      </trkpt>
      <trkpt lat="39.778126" lon="-4.091895">
        <ele>627.41</ele>
        <time>2020-12-09T13:28:02Z</time>
      </trkpt>
      <trkpt lat="39.778072" lon="-4.091926">
        <ele>625.42</ele>
        <time>2020-12-09T13:28:06Z</time>
      </trkpt>
      <trkpt lat="39.77802" lon="-4.0919695">
        <ele>625.42</ele>
        <time>2020-12-09T13:28:10Z</time>
      </trkpt>
      <trkpt lat="39.777973" lon="-4.092019">
        <ele>624.14</ele>
        <time>2020-12-09T13:28:14Z</time>
      </trkpt>
      <trkpt lat="39.777935" lon="-4.092076">
        <ele>622.96</ele>
        <time>2020-12-09T13:28:18Z</time>
      </trkpt>
      <trkpt lat="39.777905" lon="-4.092139">
        <ele>622.96</ele>
        <time>2020-12-09T13:28:22Z</time>
      </trkpt>
      <trkpt lat="39.777874" lon="-4.092213">
        <ele>621.78</ele>
        <time>2020-12-09T13:28:26Z</time>
      </trkpt>
      <trkpt lat="39.777847" lon="-4.0922947">
        <ele>621.78</ele>
        <time>2020-12-09T13:28:30Z</time>
      </trkpt>
      <trkpt lat="39.77782" lon="-4.092347">
        <ele>621.78</ele>
        <time>2020-12-09T13:28:33Z</time>
      </trkpt>
      <trkpt lat="39.777775" lon="-4.092409">
        <ele>621.78</ele>
        <time>2020-12-09T13:28:37Z</time>
      </trkpt>
      <trkpt lat="39.777725" lon="-4.0924554">
        <ele>621.78</ele>
        <time>2020-12-09T13:28:41Z</time>
      </trkpt>
      <trkpt lat="39.77766" lon="-4.0924864">
        <ele>621.78</ele>
        <time>2020-12-09T13:28:45Z</time>
      </trkpt>
      <trkpt lat="39.77761" lon="-4.0925">
        <ele>621.78</ele>
        <time>2020-12-09T13:28:48Z</time>
      </trkpt>
      <trkpt lat="39.77756" lon="-4.092516">
        <ele>621.78</ele>
        <time>2020-12-09T13:28:51Z</time>
      </trkpt>
      <trkpt lat="39.777493" lon="-4.09253">
        <ele>620.6</ele>
        <time>2020-12-09T13:28:55Z</time>
      </trkpt>
      <trkpt lat="39.777443" lon="-4.092537">
        <ele>620.6</ele>
        <time>2020-12-09T13:28:58Z</time>
      </trkpt>
      <trkpt lat="39.77739" lon="-4.0925455">
        <ele>620.6</ele>
        <time>2020-12-09T13:29:01Z</time>
      </trkpt>
      <trkpt lat="39.777325" lon="-4.092564">
        <ele>620.6</ele>
        <time>2020-12-09T13:29:05Z</time>
      </trkpt>
      <trkpt lat="39.77727" lon="-4.092584">
        <ele>620.6</ele>
        <time>2020-12-09T13:29:08Z</time>
      </trkpt>
      <trkpt lat="39.77722" lon="-4.092604">
        <ele>620.6</ele>
        <time>2020-12-09T13:29:11Z</time>
      </trkpt>
      <trkpt lat="39.777172" lon="-4.0926323">
        <ele>620.6</ele>
        <time>2020-12-09T13:29:14Z</time>
      </trkpt>
      <trkpt lat="39.777126" lon="-4.0926642">
        <ele>620.6</ele>
        <time>2020-12-09T13:29:17Z</time>
      </trkpt>
      <trkpt lat="39.777073" lon="-4.092721">
        <ele>619.32</ele>
        <time>2020-12-09T13:29:21Z</time>
      </trkpt>
      <trkpt lat="39.777046" lon="-4.092773">
        <ele>619.32</ele>
        <time>2020-12-09T13:29:24Z</time>
      </trkpt>
      <trkpt lat="39.77702" lon="-4.0928535">
        <ele>619.32</ele>
        <time>2020-12-09T13:29:28Z</time>
      </trkpt>
      <trkpt lat="39.777008" lon="-4.092917">
        <ele>619.32</ele>
        <time>2020-12-09T13:29:31Z</time>
      </trkpt>
      <trkpt lat="39.777" lon="-4.0929794">
        <ele>619.32</ele>
        <time>2020-12-09T13:29:34Z</time>
      </trkpt>
      <trkpt lat="39.77699" lon="-4.0930653">
        <ele>620.51</ele>
        <time>2020-12-09T13:29:38Z</time>
      </trkpt>
      <trkpt lat="39.77698" lon="-4.09313">
        <ele>620.51</ele>
        <time>2020-12-09T13:29:41Z</time>
      </trkpt>
      <trkpt lat="39.77697" lon="-4.093212">
        <ele>620.51</ele>
        <time>2020-12-09T13:29:45Z</time>
      </trkpt>
      <trkpt lat="39.77696" lon="-4.0932975">
        <ele>621.69</ele>
        <time>2020-12-09T13:29:49Z</time>
      </trkpt>
      <trkpt lat="39.77695" lon="-4.0933623">
        <ele>621.69</ele>
        <time>2020-12-09T13:29:52Z</time>
      </trkpt>
      <trkpt lat="39.77694" lon="-4.093433">
        <ele>622.96</ele>
        <time>2020-12-09T13:29:55Z</time>
      </trkpt>
      <trkpt lat="39.77693" lon="-4.093497">
        <ele>622.96</ele>
        <time>2020-12-09T13:29:58Z</time>
      </trkpt>
      <trkpt lat="39.77693" lon="-4.0935793">
        <ele>624.14</ele>
        <time>2020-12-09T13:30:02Z</time>
      </trkpt>
      <trkpt lat="39.776928" lon="-4.0936584">
        <ele>631.58</ele>
        <time>2020-12-09T13:30:06Z</time>
      </trkpt>
      <trkpt lat="39.776924" lon="-4.09374">
        <ele>632.85</ele>
        <time>2020-12-09T13:30:10Z</time>
      </trkpt>
      <trkpt lat="39.776913" lon="-4.0937996">
        <ele>632.85</ele>
        <time>2020-12-09T13:30:13Z</time>
      </trkpt>
      <trkpt lat="39.776894" lon="-4.0938764">
        <ele>634.21</ele>
        <time>2020-12-09T13:30:17Z</time>
      </trkpt>
      <trkpt lat="39.77686" lon="-4.0939417">
        <ele>634.21</ele>
        <time>2020-12-09T13:30:21Z</time>
      </trkpt>
      <trkpt lat="39.776817" lon="-4.093992">
        <ele>635.49</ele>
        <time>2020-12-09T13:30:25Z</time>
      </trkpt>
      <trkpt lat="39.77676" lon="-4.094023">
        <ele>635.49</ele>
        <time>2020-12-09T13:30:29Z</time>
      </trkpt>
      <trkpt lat="39.776714" lon="-4.0940385">
        <ele>635.49</ele>
        <time>2020-12-09T13:30:32Z</time>
      </trkpt>
      <trkpt lat="39.776653" lon="-4.0940666">
        <ele>635.49</ele>
        <time>2020-12-09T13:30:36Z</time>
      </trkpt>
      <trkpt lat="39.77659" lon="-4.0940967">
        <ele>635.49</ele>
        <time>2020-12-09T13:30:40Z</time>
      </trkpt>
      <trkpt lat="39.77654" lon="-4.0941257">
        <ele>635.49</ele>
        <time>2020-12-09T13:30:43Z</time>
      </trkpt>
      <trkpt lat="39.776497" lon="-4.0941577">
        <ele>635.49</ele>
        <time>2020-12-09T13:30:46Z</time>
      </trkpt>
      <trkpt lat="39.776443" lon="-4.094211">
        <ele>635.49</ele>
        <time>2020-12-09T13:30:50Z</time>
      </trkpt>
      <trkpt lat="39.7764" lon="-4.09425">
        <ele>634.3</ele>
        <time>2020-12-09T13:30:53Z</time>
      </trkpt>
      <trkpt lat="39.776356" lon="-4.0942845">
        <ele>634.3</ele>
        <time>2020-12-09T13:30:56Z</time>
      </trkpt>
      <trkpt lat="39.776306" lon="-4.094313">
        <ele>634.3</ele>
        <time>2020-12-09T13:30:59Z</time>
      </trkpt>
      <trkpt lat="39.776257" lon="-4.094332">
        <ele>634.3</ele>
        <time>2020-12-09T13:31:02Z</time>
      </trkpt>
      <trkpt lat="39.77619" lon="-4.0943503">
        <ele>634.3</ele>
        <time>2020-12-09T13:31:06Z</time>
      </trkpt>
      <trkpt lat="39.77613" lon="-4.094365">
        <ele>634.3</ele>
        <time>2020-12-09T13:31:10Z</time>
      </trkpt>
      <trkpt lat="39.77608" lon="-4.0943747">
        <ele>634.3</ele>
        <time>2020-12-09T13:31:13Z</time>
      </trkpt>
      <trkpt lat="39.77602" lon="-4.0943866">
        <ele>634.3</ele>
        <time>2020-12-09T13:31:17Z</time>
      </trkpt>
      <trkpt lat="39.77597" lon="-4.094395">
        <ele>634.3</ele>
        <time>2020-12-09T13:31:20Z</time>
      </trkpt>
      <trkpt lat="39.7759" lon="-4.0944037">
        <ele>634.3</ele>
        <time>2020-12-09T13:31:24Z</time>
      </trkpt>
      <trkpt lat="39.775852" lon="-4.094406">
        <ele>634.3</ele>
        <time>2020-12-09T13:31:27Z</time>
      </trkpt>
      <trkpt lat="39.7758" lon="-4.0944037">
        <ele>634.3</ele>
        <time>2020-12-09T13:31:30Z</time>
      </trkpt>
      <trkpt lat="39.775745" lon="-4.0943985">
        <ele>634.3</ele>
        <time>2020-12-09T13:31:33Z</time>
      </trkpt>
      <trkpt lat="39.775692" lon="-4.094394">
        <ele>634.3</ele>
        <time>2020-12-09T13:31:36Z</time>
      </trkpt>
      <trkpt lat="39.775627" lon="-4.094382">
        <ele>634.3</ele>
        <time>2020-12-09T13:31:40Z</time>
      </trkpt>
      <trkpt lat="39.775578" lon="-4.0943666">
        <ele>634.3</ele>
        <time>2020-12-09T13:31:43Z</time>
      </trkpt>
      <trkpt lat="39.775524" lon="-4.0943503">
        <ele>634.3</ele>
        <time>2020-12-09T13:31:46Z</time>
      </trkpt>
      <trkpt lat="39.77546" lon="-4.094353">
        <ele>634.3</ele>
        <time>2020-12-09T13:31:50Z</time>
      </trkpt>
      <trkpt lat="39.77541" lon="-4.094374">
        <ele>634.3</ele>
        <time>2020-12-09T13:31:53Z</time>
      </trkpt>
      <trkpt lat="39.77536" lon="-4.0943985">
        <ele>634.3</ele>
        <time>2020-12-09T13:31:56Z</time>
      </trkpt>
      <trkpt lat="39.775295" lon="-4.094432">
        <ele>634.3</ele>
        <time>2020-12-09T13:32:00Z</time>
      </trkpt>
      <trkpt lat="39.77525" lon="-4.094453">
        <ele>634.3</ele>
        <time>2020-12-09T13:32:03Z</time>
      </trkpt>
      <trkpt lat="39.775192" lon="-4.094467">
        <ele>629.79</ele>
        <time>2020-12-09T13:32:07Z</time>
      </trkpt>
      <trkpt lat="39.775124" lon="-4.094478">
        <ele>629.79</ele>
        <time>2020-12-09T13:32:11Z</time>
      </trkpt>
      <trkpt lat="39.775074" lon="-4.0944867">
        <ele>629.79</ele>
        <time>2020-12-09T13:32:14Z</time>
      </trkpt>
      <trkpt lat="39.775005" lon="-4.094493">
        <ele>629.79</ele>
        <time>2020-12-09T13:32:18Z</time>
      </trkpt>
      <trkpt lat="39.774956" lon="-4.094498">
        <ele>629.79</ele>
        <time>2020-12-09T13:32:21Z</time>
      </trkpt>
      <trkpt lat="39.774887" lon="-4.0945125">
        <ele>629.79</ele>
        <time>2020-12-09T13:32:25Z</time>
      </trkpt>
      <trkpt lat="39.774837" lon="-4.094523">
        <ele>629.79</ele>
        <time>2020-12-09T13:32:28Z</time>
      </trkpt>
      <trkpt lat="39.77477" lon="-4.0945344">
        <ele>629.79</ele>
        <time>2020-12-09T13:32:32Z</time>
      </trkpt>
      <trkpt lat="39.77472" lon="-4.0945406">
        <ele>629.79</ele>
        <time>2020-12-09T13:32:35Z</time>
      </trkpt>
      <trkpt lat="39.774666" lon="-4.09455">
        <ele>629.79</ele>
        <time>2020-12-09T13:32:38Z</time>
      </trkpt>
      <trkpt lat="39.774612" lon="-4.094558">
        <ele>629.79</ele>
        <time>2020-12-09T13:32:41Z</time>
      </trkpt>
      <trkpt lat="39.77456" lon="-4.0945625">
        <ele>629.79</ele>
        <time>2020-12-09T13:32:44Z</time>
      </trkpt>
      <trkpt lat="39.774506" lon="-4.094559">
        <ele>629.79</ele>
        <time>2020-12-09T13:32:47Z</time>
      </trkpt>
      <trkpt lat="39.774452" lon="-4.094548">
        <ele>629.79</ele>
        <time>2020-12-09T13:32:50Z</time>
      </trkpt>
      <trkpt lat="39.774387" lon="-4.0945272">
        <ele>629.79</ele>
        <time>2020-12-09T13:32:54Z</time>
      </trkpt>
      <trkpt lat="39.774338" lon="-4.094515">
        <ele>629.79</ele>
        <time>2020-12-09T13:32:57Z</time>
      </trkpt>
      <trkpt lat="39.774258" lon="-4.094511">
        <ele>629.79</ele>
        <time>2020-12-09T13:33:01Z</time>
      </trkpt>
      <trkpt lat="39.774193" lon="-4.094556">
        <ele>630.97</ele>
        <time>2020-12-09T13:33:06Z</time>
      </trkpt>
      <trkpt lat="39.774147" lon="-4.094587">
        <ele>630.97</ele>
        <time>2020-12-09T13:33:09Z</time>
      </trkpt>
      <trkpt lat="39.774094" lon="-4.094607">
        <ele>630.97</ele>
        <time>2020-12-09T13:33:12Z</time>
      </trkpt>
      <trkpt lat="39.77401" lon="-4.094631">
        <ele>630.97</ele>
        <time>2020-12-09T13:33:17Z</time>
      </trkpt>
      <trkpt lat="39.77396" lon="-4.0946445">
        <ele>630.97</ele>
        <time>2020-12-09T13:33:20Z</time>
      </trkpt>
      <trkpt lat="39.773907" lon="-4.0946617">
        <ele>630.97</ele>
        <time>2020-12-09T13:33:23Z</time>
      </trkpt>
      <trkpt lat="39.773857" lon="-4.0946894">
        <ele>630.97</ele>
        <time>2020-12-09T13:33:26Z</time>
      </trkpt>
      <trkpt lat="39.77381" lon="-4.094725">
        <ele>632.15</ele>
        <time>2020-12-09T13:33:29Z</time>
      </trkpt>
      <trkpt lat="39.773773" lon="-4.0947685">
        <ele>632.15</ele>
        <time>2020-12-09T13:33:32Z</time>
      </trkpt>
      <trkpt lat="39.773724" lon="-4.0948286">
        <ele>632.15</ele>
        <time>2020-12-09T13:33:36Z</time>
      </trkpt>
      <trkpt lat="39.77369" lon="-4.0948687">
        <ele>632.15</ele>
        <time>2020-12-09T13:33:39Z</time>
      </trkpt>
      <trkpt lat="39.77365" lon="-4.094923">
        <ele>632.15</ele>
        <time>2020-12-09T13:33:43Z</time>
      </trkpt>
      <trkpt lat="39.77363" lon="-4.0949965">
        <ele>632.15</ele>
        <time>2020-12-09T13:33:47Z</time>
      </trkpt>
      <trkpt lat="39.773617" lon="-4.095073">
        <ele>630.97</ele>
        <time>2020-12-09T13:33:51Z</time>
      </trkpt>
      <trkpt lat="39.77361" lon="-4.095154">
        <ele>630.97</ele>
        <time>2020-12-09T13:33:55Z</time>
      </trkpt>
      <trkpt lat="39.773605" lon="-4.0952177">
        <ele>630.97</ele>
        <time>2020-12-09T13:33:58Z</time>
      </trkpt>
      <trkpt lat="39.7736" lon="-4.095303">
        <ele>630.97</ele>
        <time>2020-12-09T13:34:02Z</time>
      </trkpt>
      <trkpt lat="39.773605" lon="-4.09537">
        <ele>635.86</ele>
        <time>2020-12-09T13:34:05Z</time>
      </trkpt>
      <trkpt lat="39.773613" lon="-4.095455">
        <ele>637.04</ele>
        <time>2020-12-09T13:34:09Z</time>
      </trkpt>
      <trkpt lat="39.77363" lon="-4.0955296">
        <ele>637.04</ele>
        <time>2020-12-09T13:34:13Z</time>
      </trkpt>
      <trkpt lat="39.773636" lon="-4.095607">
        <ele>638.22</ele>
        <time>2020-12-09T13:34:17Z</time>
      </trkpt>
      <trkpt lat="39.773636" lon="-4.095671">
        <ele>638.22</ele>
        <time>2020-12-09T13:34:20Z</time>
      </trkpt>
      <trkpt lat="39.77363" lon="-4.095757">
        <ele>638.22</ele>
        <time>2020-12-09T13:34:24Z</time>
      </trkpt>
      <trkpt lat="39.773613" lon="-4.0958443">
        <ele>639.4</ele>
        <time>2020-12-09T13:34:28Z</time>
      </trkpt>
      <trkpt lat="39.7736" lon="-4.095909">
        <ele>639.4</ele>
        <time>2020-12-09T13:34:31Z</time>
      </trkpt>
      <trkpt lat="39.77359" lon="-4.096024">
        <ele>639.4</ele>
        <time>2020-12-09T13:34:36Z</time>
      </trkpt>
      <trkpt lat="39.77359" lon="-4.096093">
        <ele>639.4</ele>
        <time>2020-12-09T13:34:39Z</time>
      </trkpt>
      <trkpt lat="39.773594" lon="-4.096161">
        <ele>639.4</ele>
        <time>2020-12-09T13:34:42Z</time>
      </trkpt>
      <trkpt lat="39.77359" lon="-4.0962214">
        <ele>639.4</ele>
        <time>2020-12-09T13:34:45Z</time>
      </trkpt>
      <trkpt lat="39.773567" lon="-4.0962944">
        <ele>639.4</ele>
        <time>2020-12-09T13:34:49Z</time>
      </trkpt>
      <trkpt lat="39.773537" lon="-4.0963364">
        <ele>639.4</ele>
        <time>2020-12-09T13:34:52Z</time>
      </trkpt>
      <trkpt lat="39.773483" lon="-4.096381">
        <ele>639.4</ele>
        <time>2020-12-09T13:34:56Z</time>
      </trkpt>
      <trkpt lat="39.773422" lon="-4.0964103">
        <ele>639.4</ele>
        <time>2020-12-09T13:35:00Z</time>
      </trkpt>
      <trkpt lat="39.77336" lon="-4.096432">
        <ele>639.4</ele>
        <time>2020-12-09T13:35:04Z</time>
      </trkpt>
      <trkpt lat="39.773296" lon="-4.0964475">
        <ele>639.4</ele>
        <time>2020-12-09T13:35:08Z</time>
      </trkpt>
      <trkpt lat="39.77323" lon="-4.096455">
        <ele>639.4</ele>
        <time>2020-12-09T13:35:12Z</time>
      </trkpt>
      <trkpt lat="39.773182" lon="-4.09646">
        <ele>639.4</ele>
        <time>2020-12-09T13:35:15Z</time>
      </trkpt>
      <trkpt lat="39.773113" lon="-4.0964665">
        <ele>639.4</ele>
        <time>2020-12-09T13:35:19Z</time>
      </trkpt>
      <trkpt lat="39.77305" lon="-4.096465">
        <ele>639.4</ele>
        <time>2020-12-09T13:35:23Z</time>
      </trkpt>
      <trkpt lat="39.772995" lon="-4.096462">
        <ele>639.4</ele>
        <time>2020-12-09T13:35:26Z</time>
      </trkpt>
      <trkpt lat="39.77294" lon="-4.096464">
        <ele>639.4</ele>
        <time>2020-12-09T13:35:29Z</time>
      </trkpt>
      <trkpt lat="39.772892" lon="-4.096473">
        <ele>639.4</ele>
        <time>2020-12-09T13:35:32Z</time>
      </trkpt>
      <trkpt lat="39.772827" lon="-4.096479">
        <ele>639.4</ele>
        <time>2020-12-09T13:35:36Z</time>
      </trkpt>
      <trkpt lat="39.772778" lon="-4.096481">
        <ele>639.4</ele>
        <time>2020-12-09T13:35:39Z</time>
      </trkpt>
      <trkpt lat="39.77271" lon="-4.0964847">
        <ele>639.4</ele>
        <time>2020-12-09T13:35:43Z</time>
      </trkpt>
      <trkpt lat="39.77266" lon="-4.0964923">
        <ele>640.58</ele>
        <time>2020-12-09T13:35:46Z</time>
      </trkpt>
      <trkpt lat="39.772587" lon="-4.096502">
        <ele>640.58</ele>
        <time>2020-12-09T13:35:50Z</time>
      </trkpt>
      <trkpt lat="39.772533" lon="-4.0965056">
        <ele>640.58</ele>
        <time>2020-12-09T13:35:53Z</time>
      </trkpt>
      <trkpt lat="39.77248" lon="-4.0965075">
        <ele>640.58</ele>
        <time>2020-12-09T13:35:56Z</time>
      </trkpt>
      <trkpt lat="39.772427" lon="-4.096511">
        <ele>640.58</ele>
        <time>2020-12-09T13:35:59Z</time>
      </trkpt>
      <trkpt lat="39.772373" lon="-4.0965176">
        <ele>640.58</ele>
        <time>2020-12-09T13:36:02Z</time>
      </trkpt>
      <trkpt lat="39.77232" lon="-4.096521">
        <ele>630.94</ele>
        <time>2020-12-09T13:36:05Z</time>
      </trkpt>
      <trkpt lat="39.772274" lon="-4.096524">
        <ele>630.94</ele>
        <time>2020-12-09T13:36:08Z</time>
      </trkpt>
      <trkpt lat="39.7722" lon="-4.096529">
        <ele>630.94</ele>
        <time>2020-12-09T13:36:12Z</time>
      </trkpt>
      <trkpt lat="39.772152" lon="-4.096542">
        <ele>630.94</ele>
        <time>2020-12-09T13:36:15Z</time>
      </trkpt>
      <trkpt lat="39.772083" lon="-4.0965366">
        <ele>630.94</ele>
        <time>2020-12-09T13:36:20Z</time>
      </trkpt>
      <trkpt lat="39.772038" lon="-4.0964885">
        <ele>630.94</ele>
        <time>2020-12-09T13:36:24Z</time>
      </trkpt>
      <trkpt lat="39.772007" lon="-4.096421">
        <ele>630.94</ele>
        <time>2020-12-09T13:36:28Z</time>
      </trkpt>
      <trkpt lat="39.771988" lon="-4.096349">
        <ele>630.94</ele>
        <time>2020-12-09T13:36:32Z</time>
      </trkpt>
      <trkpt lat="39.771976" lon="-4.0962768">
        <ele>629.76</ele>
        <time>2020-12-09T13:36:36Z</time>
      </trkpt>
      <trkpt lat="39.771965" lon="-4.096194">
        <ele>629.76</ele>
        <time>2020-12-09T13:36:40Z</time>
      </trkpt>
      <trkpt lat="39.771946" lon="-4.096111">
        <ele>629.76</ele>
        <time>2020-12-09T13:36:44Z</time>
      </trkpt>
      <trkpt lat="39.771935" lon="-4.096045">
        <ele>629.76</ele>
        <time>2020-12-09T13:36:47Z</time>
      </trkpt>
      <trkpt lat="39.77193" lon="-4.095981">
        <ele>628.57</ele>
        <time>2020-12-09T13:36:50Z</time>
      </trkpt>
      <trkpt lat="39.77191" lon="-4.0959024">
        <ele>628.57</ele>
        <time>2020-12-09T13:36:54Z</time>
      </trkpt>
      <trkpt lat="39.771885" lon="-4.0958405">
        <ele>628.57</ele>
        <time>2020-12-09T13:36:58Z</time>
      </trkpt>
      <trkpt lat="39.771843" lon="-4.095796">
        <ele>628.57</ele>
        <time>2020-12-09T13:37:02Z</time>
      </trkpt>
      <trkpt lat="39.771797" lon="-4.095743">
        <ele>628.57</ele>
        <time>2020-12-09T13:37:06Z</time>
      </trkpt>
      <trkpt lat="39.77175" lon="-4.0956845">
        <ele>628.57</ele>
        <time>2020-12-09T13:37:10Z</time>
      </trkpt>
      <trkpt lat="39.771698" lon="-4.0956383">
        <ele>628.57</ele>
        <time>2020-12-09T13:37:14Z</time>
      </trkpt>
      <trkpt lat="39.771633" lon="-4.0956473">
        <ele>628.57</ele>
        <time>2020-12-09T13:37:18Z</time>
      </trkpt>
      <trkpt lat="39.771576" lon="-4.0956635">
        <ele>628.57</ele>
        <time>2020-12-09T13:37:22Z</time>
      </trkpt>
      <trkpt lat="39.77151" lon="-4.095659">
        <ele>628.57</ele>
        <time>2020-12-09T13:37:26Z</time>
      </trkpt>
      <trkpt lat="39.77146" lon="-4.095641">
        <ele>628.57</ele>
        <time>2020-12-09T13:37:29Z</time>
      </trkpt>
      <trkpt lat="39.7714" lon="-4.0956063">
        <ele>628.57</ele>
        <time>2020-12-09T13:37:33Z</time>
      </trkpt>
      <trkpt lat="39.77135" lon="-4.0955825">
        <ele>628.57</ele>
        <time>2020-12-09T13:37:36Z</time>
      </trkpt>
      <trkpt lat="39.7713" lon="-4.095555">
        <ele>628.57</ele>
        <time>2020-12-09T13:37:39Z</time>
      </trkpt>
      <trkpt lat="39.771248" lon="-4.0955057">
        <ele>628.57</ele>
        <time>2020-12-09T13:37:43Z</time>
      </trkpt>
      <trkpt lat="39.771217" lon="-4.0954537">
        <ele>628.57</ele>
        <time>2020-12-09T13:37:46Z</time>
      </trkpt>
      <trkpt lat="39.771194" lon="-4.0953703">
        <ele>628.57</ele>
        <time>2020-12-09T13:37:50Z</time>
      </trkpt>
      <trkpt lat="39.771183" lon="-4.0953035">
        <ele>627.39</ele>
        <time>2020-12-09T13:37:53Z</time>
      </trkpt>
      <trkpt lat="39.77117" lon="-4.0952373">
        <ele>627.39</ele>
        <time>2020-12-09T13:37:56Z</time>
      </trkpt>
      <trkpt lat="39.77115" lon="-4.095157">
        <ele>627.39</ele>
        <time>2020-12-09T13:38:00Z</time>
      </trkpt>
      <trkpt lat="39.771133" lon="-4.095097">
        <ele>626.21</ele>
        <time>2020-12-09T13:38:03Z</time>
      </trkpt>
      <trkpt lat="39.77111" lon="-4.095011">
        <ele>628.65</ele>
        <time>2020-12-09T13:38:07Z</time>
      </trkpt>
      <trkpt lat="39.7711" lon="-4.094947">
        <ele>627.47</ele>
        <time>2020-12-09T13:38:10Z</time>
      </trkpt>
      <trkpt lat="39.771095" lon="-4.0948825">
        <ele>627.47</ele>
        <time>2020-12-09T13:38:13Z</time>
      </trkpt>
      <trkpt lat="39.771126" lon="-4.0948095">
        <ele>627.47</ele>
        <time>2020-12-09T13:38:17Z</time>
      </trkpt>
      <trkpt lat="39.771168" lon="-4.094742">
        <ele>627.47</ele>
        <time>2020-12-09T13:38:21Z</time>
      </trkpt>
      <trkpt lat="39.771183" lon="-4.0946856">
        <ele>626.2</ele>
        <time>2020-12-09T13:38:24Z</time>
      </trkpt>
      <trkpt lat="39.7712" lon="-4.0946016">
        <ele>626.2</ele>
        <time>2020-12-09T13:38:28Z</time>
      </trkpt>
      <trkpt lat="39.771214" lon="-4.0945187">
        <ele>626.2</ele>
        <time>2020-12-09T13:38:32Z</time>
      </trkpt>
      <trkpt lat="39.77123" lon="-4.094455">
        <ele>624.93</ele>
        <time>2020-12-09T13:38:35Z</time>
      </trkpt>
      <trkpt lat="39.77124" lon="-4.0943713">
        <ele>624.93</ele>
        <time>2020-12-09T13:38:39Z</time>
      </trkpt>
      <trkpt lat="39.77124" lon="-4.094305">
        <ele>624.93</ele>
        <time>2020-12-09T13:38:42Z</time>
      </trkpt>
      <trkpt lat="39.771225" lon="-4.094223">
        <ele>624.93</ele>
        <time>2020-12-09T13:38:46Z</time>
      </trkpt>
      <trkpt lat="39.7712" lon="-4.094146">
        <ele>623.75</ele>
        <time>2020-12-09T13:38:50Z</time>
      </trkpt>
      <trkpt lat="39.771168" lon="-4.094093">
        <ele>623.75</ele>
        <time>2020-12-09T13:38:53Z</time>
      </trkpt>
      <trkpt lat="39.771137" lon="-4.094041">
        <ele>623.75</ele>
        <time>2020-12-09T13:38:56Z</time>
      </trkpt>
      <trkpt lat="39.77109" lon="-4.093973">
        <ele>622.56</ele>
        <time>2020-12-09T13:39:00Z</time>
      </trkpt>
      <trkpt lat="39.771053" lon="-4.0939245">
        <ele>622.56</ele>
        <time>2020-12-09T13:39:03Z</time>
      </trkpt>
      <trkpt lat="39.77102" lon="-4.0938716">
        <ele>622.56</ele>
        <time>2020-12-09T13:39:06Z</time>
      </trkpt>
      <trkpt lat="39.770992" lon="-4.093815">
        <ele>621.38</ele>
        <time>2020-12-09T13:39:09Z</time>
      </trkpt>
      <trkpt lat="39.77097" lon="-4.0937366">
        <ele>621.38</ele>
        <time>2020-12-09T13:39:13Z</time>
      </trkpt>
      <trkpt lat="39.770916" lon="-4.093685">
        <ele>620.2</ele>
        <time>2020-12-09T13:39:17Z</time>
      </trkpt>
      <trkpt lat="39.770866" lon="-4.0936646">
        <ele>620.2</ele>
        <time>2020-12-09T13:39:20Z</time>
      </trkpt>
      <trkpt lat="39.770817" lon="-4.0936513">
        <ele>620.2</ele>
        <time>2020-12-09T13:39:23Z</time>
      </trkpt>
      <trkpt lat="39.770763" lon="-4.093638">
        <ele>619.02</ele>
        <time>2020-12-09T13:39:26Z</time>
      </trkpt>
      <trkpt lat="39.77071" lon="-4.093623">
        <ele>619.02</ele>
        <time>2020-12-09T13:39:29Z</time>
      </trkpt>
      <trkpt lat="39.770657" lon="-4.0936203">
        <ele>619.02</ele>
        <time>2020-12-09T13:39:32Z</time>
      </trkpt>
      <trkpt lat="39.770603" lon="-4.093622">
        <ele>619.02</ele>
        <time>2020-12-09T13:39:35Z</time>
      </trkpt>
      <trkpt lat="39.77055" lon="-4.0936203">
        <ele>619.02</ele>
        <time>2020-12-09T13:39:38Z</time>
      </trkpt>
      <trkpt lat="39.77049" lon="-4.0936174">
        <ele>619.02</ele>
        <time>2020-12-09T13:39:42Z</time>
      </trkpt>
      <trkpt lat="39.77046" lon="-4.093635">
        <ele>619.02</ele>
        <time>2020-12-09T13:40:24Z</time>
      </trkpt>
      <trkpt lat="39.77043" lon="-4.0936084">
        <ele>619.02</ele>
        <time>2020-12-09T13:40:30Z</time>
      </trkpt>
      <trkpt lat="39.770386" lon="-4.09357">
        <ele>619.02</ele>
        <time>2020-12-09T13:40:35Z</time>
      </trkpt>
      <trkpt lat="39.77034" lon="-4.0935316">
        <ele>619.02</ele>
        <time>2020-12-09T13:40:40Z</time>
      </trkpt>
      <trkpt lat="39.770306" lon="-4.0934772">
        <ele>619.02</ele>
        <time>2020-12-09T13:40:45Z</time>
      </trkpt>
      <trkpt lat="39.770275" lon="-4.0934224">
        <ele>619.02</ele>
        <time>2020-12-09T13:40:50Z</time>
      </trkpt>
      <trkpt lat="39.77026" lon="-4.093343">
        <ele>619.02</ele>
        <time>2020-12-09T13:40:55Z</time>
      </trkpt>
      <trkpt lat="39.770237" lon="-4.0932765">
        <ele>619.02</ele>
        <time>2020-12-09T13:40:59Z</time>
      </trkpt>
      <trkpt lat="39.7702" lon="-4.0932255">
        <ele>619.02</ele>
        <time>2020-12-09T13:41:03Z</time>
      </trkpt>
      <trkpt lat="39.770004" lon="-4.0931616">
        <ele>619.02</ele>
        <time>2020-12-09T13:41:29Z</time>
      </trkpt>
      <trkpt lat="39.76994" lon="-4.0931582">
        <ele>619.02</ele>
        <time>2020-12-09T13:41:35Z</time>
      </trkpt>
      <trkpt lat="39.769882" lon="-4.0931444">
        <ele>619.02</ele>
        <time>2020-12-09T13:41:39Z</time>
      </trkpt>
      <trkpt lat="39.769825" lon="-4.093113">
        <ele>619.02</ele>
        <time>2020-12-09T13:41:43Z</time>
      </trkpt>
      <trkpt lat="39.769775" lon="-4.0930943">
        <ele>620.38</ele>
        <time>2020-12-09T13:41:47Z</time>
      </trkpt>
      <trkpt lat="39.769726" lon="-4.0931163">
        <ele>620.38</ele>
        <time>2020-12-09T13:41:51Z</time>
      </trkpt>
      <trkpt lat="39.769672" lon="-4.0931425">
        <ele>621.65</ele>
        <time>2020-12-09T13:41:55Z</time>
      </trkpt>
      <trkpt lat="39.769615" lon="-4.09317">
        <ele>621.65</ele>
        <time>2020-12-09T13:41:59Z</time>
      </trkpt>
      <trkpt lat="39.769558" lon="-4.093191">
        <ele>621.65</ele>
        <time>2020-12-09T13:42:03Z</time>
      </trkpt>
      <trkpt lat="39.769512" lon="-4.0932174">
        <ele>621.65</ele>
        <time>2020-12-09T13:42:06Z</time>
      </trkpt>
      <trkpt lat="39.769455" lon="-4.093253">
        <ele>621.65</ele>
        <time>2020-12-09T13:42:10Z</time>
      </trkpt>
      <trkpt lat="39.769398" lon="-4.0932946">
        <ele>621.65</ele>
        <time>2020-12-09T13:42:14Z</time>
      </trkpt>
      <trkpt lat="39.769356" lon="-4.0933204">
        <ele>621.65</ele>
        <time>2020-12-09T13:42:17Z</time>
      </trkpt>
      <trkpt lat="39.76927" lon="-4.093392">
        <ele>621.65</ele>
        <time>2020-12-09T13:43:00Z</time>
      </trkpt>
      <trkpt lat="39.76926" lon="-4.0934086">
        <ele>621.65</ele>
        <time>2020-12-09T13:43:02Z</time>
      </trkpt>
      <trkpt lat="39.76921" lon="-4.093475">
        <ele>621.65</ele>
        <time>2020-12-09T13:43:07Z</time>
      </trkpt>
      <trkpt lat="39.769176" lon="-4.09352">
        <ele>621.65</ele>
        <time>2020-12-09T13:43:11Z</time>
      </trkpt>
      <trkpt lat="39.769115" lon="-4.093551">
        <ele>621.65</ele>
        <time>2020-12-09T13:43:16Z</time>
      </trkpt>
      <trkpt lat="39.769054" lon="-4.093573">
        <ele>621.65</ele>
        <time>2020-12-09T13:43:20Z</time>
      </trkpt>
      <trkpt lat="39.769" lon="-4.0936">
        <ele>621.65</ele>
        <time>2020-12-09T13:43:24Z</time>
      </trkpt>
      <trkpt lat="39.768974" lon="-4.0936418">
        <ele>621.65</ele>
        <time>2020-12-09T13:43:28Z</time>
      </trkpt>
      <trkpt lat="39.76897" lon="-4.0937243">
        <ele>621.65</ele>
        <time>2020-12-09T13:43:33Z</time>
      </trkpt>
      <trkpt lat="39.768967" lon="-4.0937924">
        <ele>621.65</ele>
        <time>2020-12-09T13:43:37Z</time>
      </trkpt>
      <trkpt lat="39.768955" lon="-4.0938616">
        <ele>621.65</ele>
        <time>2020-12-09T13:43:41Z</time>
      </trkpt>
      <trkpt lat="39.768932" lon="-4.0939274">
        <ele>621.65</ele>
        <time>2020-12-09T13:43:45Z</time>
      </trkpt>
      <trkpt lat="39.768913" lon="-4.093991">
        <ele>621.65</ele>
        <time>2020-12-09T13:43:49Z</time>
      </trkpt>
      <trkpt lat="39.768867" lon="-4.094036">
        <ele>621.65</ele>
        <time>2020-12-09T13:43:53Z</time>
      </trkpt>
      <trkpt lat="39.768826" lon="-4.094061">
        <ele>621.65</ele>
        <time>2020-12-09T13:43:56Z</time>
      </trkpt>
      <trkpt lat="39.768764" lon="-4.094095">
        <ele>621.65</ele>
        <time>2020-12-09T13:44:00Z</time>
      </trkpt>
      <trkpt lat="39.768703" lon="-4.094129">
        <ele>621.65</ele>
        <time>2020-12-09T13:44:04Z</time>
      </trkpt>
      <trkpt lat="39.768658" lon="-4.094146">
        <ele>621.65</ele>
        <time>2020-12-09T13:44:07Z</time>
      </trkpt>
      <trkpt lat="39.7686" lon="-4.0941725">
        <ele>622.84</ele>
        <time>2020-12-09T13:44:11Z</time>
      </trkpt>
      <trkpt lat="39.768555" lon="-4.094193">
        <ele>622.84</ele>
        <time>2020-12-09T13:44:14Z</time>
      </trkpt>
      <trkpt lat="39.768494" lon="-4.09421">
        <ele>622.84</ele>
        <time>2020-12-09T13:44:18Z</time>
      </trkpt>
      <trkpt lat="39.768425" lon="-4.0942187">
        <ele>622.84</ele>
        <time>2020-12-09T13:44:22Z</time>
      </trkpt>
      <trkpt lat="39.76837" lon="-4.0942163">
        <ele>622.84</ele>
        <time>2020-12-09T13:44:25Z</time>
      </trkpt>
      <trkpt lat="39.76831" lon="-4.094225">
        <ele>622.84</ele>
        <time>2020-12-09T13:44:29Z</time>
      </trkpt>
      <trkpt lat="39.768257" lon="-4.0942326">
        <ele>622.84</ele>
        <time>2020-12-09T13:44:33Z</time>
      </trkpt>
      <trkpt lat="39.768215" lon="-4.094195">
        <ele>622.84</ele>
        <time>2020-12-09T13:44:37Z</time>
      </trkpt>
      <trkpt lat="39.768185" lon="-4.094123">
        <ele>622.84</ele>
        <time>2020-12-09T13:44:41Z</time>
      </trkpt>
      <trkpt lat="39.76815" lon="-4.0940595">
        <ele>621.56</ele>
        <time>2020-12-09T13:44:45Z</time>
      </trkpt>
      <trkpt lat="39.768105" lon="-4.094011">
        <ele>621.56</ele>
        <time>2020-12-09T13:44:49Z</time>
      </trkpt>
      <trkpt lat="39.768066" lon="-4.0939627">
        <ele>621.56</ele>
        <time>2020-12-09T13:44:54Z</time>
      </trkpt>
      <trkpt lat="39.768017" lon="-4.09391">
        <ele>621.56</ele>
        <time>2020-12-09T13:44:59Z</time>
      </trkpt>
      <trkpt lat="39.76797" lon="-4.093888">
        <ele>619.32</ele>
        <time>2020-12-09T13:45:03Z</time>
      </trkpt>
      <trkpt lat="39.76791" lon="-4.0938993">
        <ele>619.32</ele>
        <time>2020-12-09T13:45:07Z</time>
      </trkpt>
      <trkpt lat="39.767857" lon="-4.093923">
        <ele>620.5</ele>
        <time>2020-12-09T13:45:11Z</time>
      </trkpt>
      <trkpt lat="39.767807" lon="-4.093949">
        <ele>620.5</ele>
        <time>2020-12-09T13:45:15Z</time>
      </trkpt>
      <trkpt lat="39.767754" lon="-4.0939503">
        <ele>620.5</ele>
        <time>2020-12-09T13:45:19Z</time>
      </trkpt>
      <trkpt lat="39.767693" lon="-4.0939326">
        <ele>620.5</ele>
        <time>2020-12-09T13:45:24Z</time>
      </trkpt>
      <trkpt lat="39.767662" lon="-4.0938907">
        <ele>621.68</ele>
        <time>2020-12-09T13:45:31Z</time>
      </trkpt>
      <trkpt lat="39.767677" lon="-4.093806">
        <ele>621.68</ele>
        <time>2020-12-09T13:45:36Z</time>
      </trkpt>
      <trkpt lat="39.767696" lon="-4.093736">
        <ele>621.68</ele>
        <time>2020-12-09T13:45:40Z</time>
      </trkpt>
      <trkpt lat="39.767715" lon="-4.093674">
        <ele>621.68</ele>
        <time>2020-12-09T13:45:44Z</time>
      </trkpt>
      <trkpt lat="39.767735" lon="-4.093624">
        <ele>622.86</ele>
        <time>2020-12-09T13:45:49Z</time>
      </trkpt>
      <trkpt lat="39.767693" lon="-4.0935516">
        <ele>622.86</ele>
        <time>2020-12-09T13:45:55Z</time>
      </trkpt>
      <trkpt lat="39.76766" lon="-4.0935054">
        <ele>624.05</ele>
        <time>2020-12-09T13:45:59Z</time>
      </trkpt>
      <trkpt lat="39.76761" lon="-4.0934424">
        <ele>624.05</ele>
        <time>2020-12-09T13:46:04Z</time>
      </trkpt>
      <trkpt lat="39.767555" lon="-4.0934095">
        <ele>624.05</ele>
        <time>2020-12-09T13:46:08Z</time>
      </trkpt>
      <trkpt lat="39.76751" lon="-4.093392">
        <ele>624.05</ele>
        <time>2020-12-09T13:46:11Z</time>
      </trkpt>
      <trkpt lat="39.767456" lon="-4.0933642">
        <ele>625.23</ele>
        <time>2020-12-09T13:46:15Z</time>
      </trkpt>
      <trkpt lat="39.767395" lon="-4.0933294">
        <ele>625.23</ele>
        <time>2020-12-09T13:46:19Z</time>
      </trkpt>
      <trkpt lat="39.767353" lon="-4.0933003">
        <ele>625.23</ele>
        <time>2020-12-09T13:46:22Z</time>
      </trkpt>
      <trkpt lat="39.767307" lon="-4.093246">
        <ele>625.23</ele>
        <time>2020-12-09T13:46:26Z</time>
      </trkpt>
      <trkpt lat="39.767258" lon="-4.093196">
        <ele>625.23</ele>
        <time>2020-12-09T13:46:30Z</time>
      </trkpt>
      <trkpt lat="39.7672" lon="-4.093177">
        <ele>625.23</ele>
        <time>2020-12-09T13:46:34Z</time>
      </trkpt>
      <trkpt lat="39.767143" lon="-4.0931897">
        <ele>625.23</ele>
        <time>2020-12-09T13:46:38Z</time>
      </trkpt>
      <trkpt lat="39.76709" lon="-4.093188">
        <ele>625.23</ele>
        <time>2020-12-09T13:46:42Z</time>
      </trkpt>
      <trkpt lat="39.76703" lon="-4.0931697">
        <ele>625.23</ele>
        <time>2020-12-09T13:46:46Z</time>
      </trkpt>
      <trkpt lat="39.76698" lon="-4.0931234">
        <ele>625.23</ele>
        <time>2020-12-09T13:46:51Z</time>
      </trkpt>
      <trkpt lat="39.76694" lon="-4.0930605">
        <ele>625.23</ele>
        <time>2020-12-09T13:46:56Z</time>
      </trkpt>
      <trkpt lat="39.766895" lon="-4.0929995">
        <ele>625.23</ele>
        <time>2020-12-09T13:47:01Z</time>
      </trkpt>
      <trkpt lat="39.76686" lon="-4.092947">
        <ele>625.23</ele>
        <time>2020-12-09T13:47:05Z</time>
      </trkpt>
      <trkpt lat="39.766823" lon="-4.0928955">
        <ele>625.23</ele>
        <time>2020-12-09T13:47:11Z</time>
      </trkpt>
      <trkpt lat="39.766785" lon="-4.0928464">
        <ele>625.23</ele>
        <time>2020-12-09T13:47:15Z</time>
      </trkpt>
      <trkpt lat="39.76675" lon="-4.0927944">
        <ele>625.23</ele>
        <time>2020-12-09T13:47:19Z</time>
      </trkpt>
      <trkpt lat="39.766724" lon="-4.0927296">
        <ele>625.23</ele>
        <time>2020-12-09T13:47:23Z</time>
      </trkpt>
      <trkpt lat="39.76671" lon="-4.092653">
        <ele>625.23</ele>
        <time>2020-12-09T13:47:27Z</time>
      </trkpt>
      <trkpt lat="39.766693" lon="-4.092596">
        <ele>625.23</ele>
        <time>2020-12-09T13:47:30Z</time>
      </trkpt>
      <trkpt lat="39.76669" lon="-4.0925217">
        <ele>625.23</ele>
        <time>2020-12-09T13:47:34Z</time>
      </trkpt>
      <trkpt lat="39.766697" lon="-4.092458">
        <ele>623.96</ele>
        <time>2020-12-09T13:47:38Z</time>
      </trkpt>
      <trkpt lat="39.766716" lon="-4.0923824">
        <ele>623.96</ele>
        <time>2020-12-09T13:47:43Z</time>
      </trkpt>
      <trkpt lat="39.766735" lon="-4.0923185">
        <ele>623.96</ele>
        <time>2020-12-09T13:47:48Z</time>
      </trkpt>
      <trkpt lat="39.766766" lon="-4.09225">
        <ele>622.77</ele>
        <time>2020-12-09T13:47:54Z</time>
      </trkpt>
      <trkpt lat="39.76677" lon="-4.0921874">
        <ele>622.77</ele>
        <time>2020-12-09T13:47:58Z</time>
      </trkpt>
      <trkpt lat="39.766758" lon="-4.092117">
        <ele>622.77</ele>
        <time>2020-12-09T13:48:03Z</time>
      </trkpt>
      <trkpt lat="39.766758" lon="-4.0920396">
        <ele>622.77</ele>
        <time>2020-12-09T13:48:08Z</time>
      </trkpt>
      <trkpt lat="39.766777" lon="-4.09197">
        <ele>621.59</ele>
        <time>2020-12-09T13:48:13Z</time>
      </trkpt>
      <trkpt lat="39.76682" lon="-4.091917">
        <ele>621.59</ele>
        <time>2020-12-09T13:48:17Z</time>
      </trkpt>
      <trkpt lat="39.76687" lon="-4.091893">
        <ele>621.59</ele>
        <time>2020-12-09T13:48:20Z</time>
      </trkpt>
      <trkpt lat="39.766922" lon="-4.091863">
        <ele>621.59</ele>
        <time>2020-12-09T13:48:23Z</time>
      </trkpt>
      <trkpt lat="39.766968" lon="-4.0918245">
        <ele>621.59</ele>
        <time>2020-12-09T13:48:26Z</time>
      </trkpt>
      <trkpt lat="39.767002" lon="-4.091782">
        <ele>621.59</ele>
        <time>2020-12-09T13:48:29Z</time>
      </trkpt>
      <trkpt lat="39.76703" lon="-4.091717">
        <ele>621.59</ele>
        <time>2020-12-09T13:48:33Z</time>
      </trkpt>
      <trkpt lat="39.767044" lon="-4.0916505">
        <ele>620.41</ele>
        <time>2020-12-09T13:48:37Z</time>
      </trkpt>
      <trkpt lat="39.76707" lon="-4.091588">
        <ele>620.41</ele>
        <time>2020-12-09T13:48:41Z</time>
      </trkpt>
      <trkpt lat="39.76708" lon="-4.091518">
        <ele>620.41</ele>
        <time>2020-12-09T13:48:45Z</time>
      </trkpt>
      <trkpt lat="39.767056" lon="-4.0914536">
        <ele>620.41</ele>
        <time>2020-12-09T13:48:49Z</time>
      </trkpt>
      <trkpt lat="39.76705" lon="-4.091386">
        <ele>620.41</ele>
        <time>2020-12-09T13:48:53Z</time>
      </trkpt>
      <trkpt lat="39.767086" lon="-4.091316">
        <ele>619.23</ele>
        <time>2020-12-09T13:48:58Z</time>
      </trkpt>
      <trkpt lat="39.76711" lon="-4.0912557">
        <ele>618.77</ele>
        <time>2020-12-09T13:49:03Z</time>
      </trkpt>
      <trkpt lat="39.76714" lon="-4.091201">
        <ele>618.77</ele>
        <time>2020-12-09T13:49:08Z</time>
      </trkpt>
      <trkpt lat="39.76717" lon="-4.0911503">
        <ele>617.4</ele>
        <time>2020-12-09T13:49:13Z</time>
      </trkpt>
      <trkpt lat="39.76719" lon="-4.0910854">
        <ele>616.22</ele>
        <time>2020-12-09T13:49:19Z</time>
      </trkpt>
      <trkpt lat="39.76718" lon="-4.091016">
        <ele>615.04</ele>
        <time>2020-12-09T13:49:25Z</time>
      </trkpt>
      <trkpt lat="39.767166" lon="-4.0909414">
        <ele>615.04</ele>
        <time>2020-12-09T13:49:31Z</time>
      </trkpt>
      <trkpt lat="39.767155" lon="-4.09088">
        <ele>615.04</ele>
        <time>2020-12-09T13:49:37Z</time>
      </trkpt>
      <trkpt lat="39.767143" lon="-4.09081">
        <ele>615.04</ele>
        <time>2020-12-09T13:49:44Z</time>
      </trkpt>
      <trkpt lat="39.767117" lon="-4.09075">
        <ele>613.86</ele>
        <time>2020-12-09T13:49:50Z</time>
      </trkpt>
      <trkpt lat="39.767117" lon="-4.090685">
        <ele>612.68</ele>
        <time>2020-12-09T13:49:56Z</time>
      </trkpt>
      <trkpt lat="39.76716" lon="-4.0906262">
        <ele>611.31</ele>
        <time>2020-12-09T13:50:03Z</time>
      </trkpt>
      <trkpt lat="39.767204" lon="-4.0905895">
        <ele>611.31</ele>
        <time>2020-12-09T13:50:07Z</time>
      </trkpt>
      <trkpt lat="39.767223" lon="-4.0905156">
        <ele>610.13</ele>
        <time>2020-12-09T13:50:12Z</time>
      </trkpt>
      <trkpt lat="39.76723" lon="-4.0904446">
        <ele>608.95</ele>
        <time>2020-12-09T13:50:17Z</time>
      </trkpt>
      <trkpt lat="39.767246" lon="-4.0903726">
        <ele>607.77</ele>
        <time>2020-12-09T13:50:22Z</time>
      </trkpt>
      <trkpt lat="39.767258" lon="-4.090298">
        <ele>607.77</ele>
        <time>2020-12-09T13:50:26Z</time>
      </trkpt>
      <trkpt lat="39.767273" lon="-4.0902357">
        <ele>606.59</ele>
        <time>2020-12-09T13:50:30Z</time>
      </trkpt>
      <trkpt lat="39.767303" lon="-4.090172">
        <ele>606.59</ele>
        <time>2020-12-09T13:50:34Z</time>
      </trkpt>
      <trkpt lat="39.76733" lon="-4.0901256">
        <ele>606.59</ele>
        <time>2020-12-09T13:50:37Z</time>
      </trkpt>
      <trkpt lat="39.76736" lon="-4.0900617">
        <ele>606.59</ele>
        <time>2020-12-09T13:50:41Z</time>
      </trkpt>
      <trkpt lat="39.76739" lon="-4.089996">
        <ele>606.59</ele>
        <time>2020-12-09T13:50:45Z</time>
      </trkpt>
      <trkpt lat="39.76741" lon="-4.089926">
        <ele>606.59</ele>
        <time>2020-12-09T13:50:49Z</time>
      </trkpt>
      <trkpt lat="39.767426" lon="-4.0898466">
        <ele>606.59</ele>
        <time>2020-12-09T13:50:53Z</time>
      </trkpt>
      <trkpt lat="39.76745" lon="-4.0897655">
        <ele>606.59</ele>
        <time>2020-12-09T13:50:57Z</time>
      </trkpt>
      <trkpt lat="39.76746" lon="-4.089701">
        <ele>605.45</ele>
        <time>2020-12-09T13:51:00Z</time>
      </trkpt>
      <trkpt lat="39.76747" lon="-4.0896215">
        <ele>605.45</ele>
        <time>2020-12-09T13:51:04Z</time>
      </trkpt>
      <trkpt lat="39.76749" lon="-4.0895405">
        <ele>604.27</ele>
        <time>2020-12-09T13:51:08Z</time>
      </trkpt>
      <trkpt lat="39.76751" lon="-4.08948">
        <ele>604.27</ele>
        <time>2020-12-09T13:51:11Z</time>
      </trkpt>
      <trkpt lat="39.767544" lon="-4.0894094">
        <ele>603.0</ele>
        <time>2020-12-09T13:51:15Z</time>
      </trkpt>
      <trkpt lat="39.767586" lon="-4.089348">
        <ele>603.0</ele>
        <time>2020-12-09T13:51:19Z</time>
      </trkpt>
      <trkpt lat="39.767635" lon="-4.0892887">
        <ele>601.72</ele>
        <time>2020-12-09T13:51:23Z</time>
      </trkpt>
      <trkpt lat="39.767666" lon="-4.089224">
        <ele>601.72</ele>
        <time>2020-12-09T13:51:27Z</time>
      </trkpt>
      <trkpt lat="39.76766" lon="-4.089152">
        <ele>601.72</ele>
        <time>2020-12-09T13:51:31Z</time>
      </trkpt>
      <trkpt lat="39.767635" lon="-4.089095">
        <ele>601.72</ele>
        <time>2020-12-09T13:51:34Z</time>
      </trkpt>
      <trkpt lat="39.767605" lon="-4.089017">
        <ele>601.72</ele>
        <time>2020-12-09T13:51:38Z</time>
      </trkpt>
      <trkpt lat="39.767593" lon="-4.088937">
        <ele>601.72</ele>
        <time>2020-12-09T13:51:42Z</time>
      </trkpt>
      <trkpt lat="39.76759" lon="-4.0888734">
        <ele>601.72</ele>
        <time>2020-12-09T13:51:45Z</time>
      </trkpt>
      <trkpt lat="39.76758" lon="-4.088786">
        <ele>601.72</ele>
        <time>2020-12-09T13:51:49Z</time>
      </trkpt>
      <trkpt lat="39.76756" lon="-4.088721">
        <ele>601.72</ele>
        <time>2020-12-09T13:51:52Z</time>
      </trkpt>
      <trkpt lat="39.767536" lon="-4.088661">
        <ele>601.72</ele>
        <time>2020-12-09T13:51:55Z</time>
      </trkpt>
      <trkpt lat="39.767506" lon="-4.088582">
        <ele>602.91</ele>
        <time>2020-12-09T13:51:59Z</time>
      </trkpt>
      <trkpt lat="39.767483" lon="-4.088525">
        <ele>602.91</ele>
        <time>2020-12-09T13:52:02Z</time>
      </trkpt>
      <trkpt lat="39.76745" lon="-4.0884495">
        <ele>602.91</ele>
        <time>2020-12-09T13:52:06Z</time>
      </trkpt>
      <trkpt lat="39.76742" lon="-4.088391">
        <ele>604.09</ele>
        <time>2020-12-09T13:52:09Z</time>
      </trkpt>
      <trkpt lat="39.767406" lon="-4.08833">
        <ele>604.09</ele>
        <time>2020-12-09T13:52:12Z</time>
      </trkpt>
      <trkpt lat="39.76739" lon="-4.0882487">
        <ele>604.09</ele>
        <time>2020-12-09T13:52:16Z</time>
      </trkpt>
      <trkpt lat="39.767403" lon="-4.088168">
        <ele>604.09</ele>
        <time>2020-12-09T13:52:20Z</time>
      </trkpt>
      <trkpt lat="39.767426" lon="-4.088089">
        <ele>604.09</ele>
        <time>2020-12-09T13:52:24Z</time>
      </trkpt>
      <trkpt lat="39.76742" lon="-4.0880055">
        <ele>604.09</ele>
        <time>2020-12-09T13:52:28Z</time>
      </trkpt>
      <trkpt lat="39.767414" lon="-4.0879436">
        <ele>604.09</ele>
        <time>2020-12-09T13:52:31Z</time>
      </trkpt>
      <trkpt lat="39.767387" lon="-4.087862">
        <ele>605.27</ele>
        <time>2020-12-09T13:52:35Z</time>
      </trkpt>
      <trkpt lat="39.76737" lon="-4.087803">
        <ele>605.27</ele>
        <time>2020-12-09T13:52:38Z</time>
      </trkpt>
      <trkpt lat="39.76735" lon="-4.087722">
        <ele>605.27</ele>
        <time>2020-12-09T13:52:42Z</time>
      </trkpt>
      <trkpt lat="39.76735" lon="-4.0876365">
        <ele>605.27</ele>
        <time>2020-12-09T13:52:46Z</time>
      </trkpt>
      <trkpt lat="39.767353" lon="-4.08757">
        <ele>605.27</ele>
        <time>2020-12-09T13:52:49Z</time>
      </trkpt>
      <trkpt lat="39.76734" lon="-4.087486">
        <ele>604.09</ele>
        <time>2020-12-09T13:52:53Z</time>
      </trkpt>
      <trkpt lat="39.767315" lon="-4.0874314">
        <ele>604.09</ele>
        <time>2020-12-09T13:52:56Z</time>
      </trkpt>
      <trkpt lat="39.76728" lon="-4.0873656">
        <ele>606.21</ele>
        <time>2020-12-09T13:53:00Z</time>
      </trkpt>
      <trkpt lat="39.76725" lon="-4.087301">
        <ele>606.21</ele>
        <time>2020-12-09T13:53:04Z</time>
      </trkpt>
      <trkpt lat="39.767223" lon="-4.087228">
        <ele>605.03</ele>
        <time>2020-12-09T13:53:08Z</time>
      </trkpt>
      <trkpt lat="39.7672" lon="-4.087156">
        <ele>605.03</ele>
        <time>2020-12-09T13:53:12Z</time>
      </trkpt>
      <trkpt lat="39.76717" lon="-4.087077">
        <ele>603.76</ele>
        <time>2020-12-09T13:53:16Z</time>
      </trkpt>
      <trkpt lat="39.76714" lon="-4.087023">
        <ele>603.76</ele>
        <time>2020-12-09T13:53:19Z</time>
      </trkpt>
      <trkpt lat="39.7671" lon="-4.086974">
        <ele>603.76</ele>
        <time>2020-12-09T13:53:22Z</time>
      </trkpt>
      <trkpt lat="39.76706" lon="-4.0869327">
        <ele>603.76</ele>
        <time>2020-12-09T13:53:25Z</time>
      </trkpt>
      <trkpt lat="39.767" lon="-4.08689">
        <ele>603.76</ele>
        <time>2020-12-09T13:53:29Z</time>
      </trkpt>
      <trkpt lat="39.76695" lon="-4.086865">
        <ele>603.76</ele>
        <time>2020-12-09T13:53:32Z</time>
      </trkpt>
      <trkpt lat="39.7669" lon="-4.0868444">
        <ele>603.76</ele>
        <time>2020-12-09T13:53:35Z</time>
      </trkpt>
      <trkpt lat="39.76685" lon="-4.086821">
        <ele>603.76</ele>
        <time>2020-12-09T13:53:38Z</time>
      </trkpt>
      <trkpt lat="39.766785" lon="-4.086787">
        <ele>603.76</ele>
        <time>2020-12-09T13:53:42Z</time>
      </trkpt>
      <trkpt lat="39.766735" lon="-4.086761">
        <ele>603.76</ele>
        <time>2020-12-09T13:53:45Z</time>
      </trkpt>
      <trkpt lat="39.766685" lon="-4.0867395">
        <ele>603.76</ele>
        <time>2020-12-09T13:53:48Z</time>
      </trkpt>
      <trkpt lat="39.766636" lon="-4.08672">
        <ele>603.76</ele>
        <time>2020-12-09T13:53:51Z</time>
      </trkpt>
      <trkpt lat="39.766586" lon="-4.086702">
        <ele>603.76</ele>
        <time>2020-12-09T13:53:54Z</time>
      </trkpt>
      <trkpt lat="39.766533" lon="-4.0866847">
        <ele>603.76</ele>
        <time>2020-12-09T13:53:57Z</time>
      </trkpt>
      <trkpt lat="39.766468" lon="-4.0866656">
        <ele>603.76</ele>
        <time>2020-12-09T13:54:01Z</time>
      </trkpt>
      <trkpt lat="39.76641" lon="-4.086653">
        <ele>603.76</ele>
        <time>2020-12-09T13:54:05Z</time>
      </trkpt>
      <trkpt lat="39.766346" lon="-4.0866404">
        <ele>603.76</ele>
        <time>2020-12-09T13:54:09Z</time>
      </trkpt>
      <trkpt lat="39.766285" lon="-4.086623">
        <ele>603.76</ele>
        <time>2020-12-09T13:54:12Z</time>
      </trkpt>
      <trkpt lat="39.766228" lon="-4.0866127">
        <ele>603.76</ele>
        <time>2020-12-09T13:54:15Z</time>
      </trkpt>
      <trkpt lat="39.76618" lon="-4.0866055">
        <ele>603.76</ele>
        <time>2020-12-09T13:54:18Z</time>
      </trkpt>
      <trkpt lat="39.76612" lon="-4.0866055">
        <ele>603.76</ele>
        <time>2020-12-09T13:54:22Z</time>
      </trkpt>
      <trkpt lat="39.76606" lon="-4.086607">
        <ele>603.76</ele>
        <time>2020-12-09T13:54:26Z</time>
      </trkpt>
      <trkpt lat="39.765995" lon="-4.0866055">
        <ele>603.76</ele>
        <time>2020-12-09T13:54:30Z</time>
      </trkpt>
      <trkpt lat="39.76594" lon="-4.0866013">
        <ele>603.76</ele>
        <time>2020-12-09T13:54:33Z</time>
      </trkpt>
      <trkpt lat="39.765877" lon="-4.0865912">
        <ele>603.76</ele>
        <time>2020-12-09T13:54:37Z</time>
      </trkpt>
      <trkpt lat="39.765827" lon="-4.086586">
        <ele>603.76</ele>
        <time>2020-12-09T13:54:40Z</time>
      </trkpt>
      <trkpt lat="39.76576" lon="-4.0865865">
        <ele>603.76</ele>
        <time>2020-12-09T13:54:44Z</time>
      </trkpt>
      <trkpt lat="39.765713" lon="-4.0866003">
        <ele>603.76</ele>
        <time>2020-12-09T13:54:47Z</time>
      </trkpt>
      <trkpt lat="39.765644" lon="-4.086627">
        <ele>603.76</ele>
        <time>2020-12-09T13:54:51Z</time>
      </trkpt>
      <trkpt lat="39.7656" lon="-4.086654">
        <ele>603.76</ele>
        <time>2020-12-09T13:54:54Z</time>
      </trkpt>
      <trkpt lat="39.765553" lon="-4.086688">
        <ele>603.76</ele>
        <time>2020-12-09T13:54:57Z</time>
      </trkpt>
      <trkpt lat="39.765507" lon="-4.0867224">
        <ele>603.14</ele>
        <time>2020-12-09T13:55:00Z</time>
      </trkpt>
      <trkpt lat="39.765446" lon="-4.0867677">
        <ele>603.14</ele>
        <time>2020-12-09T13:55:04Z</time>
      </trkpt>
      <trkpt lat="39.7654" lon="-4.0867996">
        <ele>603.14</ele>
        <time>2020-12-09T13:55:07Z</time>
      </trkpt>
      <trkpt lat="39.765354" lon="-4.0868335">
        <ele>603.14</ele>
        <time>2020-12-09T13:55:10Z</time>
      </trkpt>
      <trkpt lat="39.76531" lon="-4.0868673">
        <ele>603.14</ele>
        <time>2020-12-09T13:55:13Z</time>
      </trkpt>
      <trkpt lat="39.765263" lon="-4.0868974">
        <ele>603.14</ele>
        <time>2020-12-09T13:55:16Z</time>
      </trkpt>
      <trkpt lat="39.7652" lon="-4.086938">
        <ele>603.14</ele>
        <time>2020-12-09T13:55:20Z</time>
      </trkpt>
      <trkpt lat="39.765156" lon="-4.0869694">
        <ele>604.33</ele>
        <time>2020-12-09T13:55:23Z</time>
      </trkpt>
      <trkpt lat="39.765106" lon="-4.087">
        <ele>604.33</ele>
        <time>2020-12-09T13:55:26Z</time>
      </trkpt>
      <trkpt lat="39.765057" lon="-4.087028">
        <ele>604.33</ele>
        <time>2020-12-09T13:55:29Z</time>
      </trkpt>
      <trkpt lat="39.76501" lon="-4.087055">
        <ele>604.33</ele>
        <time>2020-12-09T13:55:32Z</time>
      </trkpt>
      <trkpt lat="39.76495" lon="-4.0870943">
        <ele>604.33</ele>
        <time>2020-12-09T13:55:36Z</time>
      </trkpt>
      <trkpt lat="39.7649" lon="-4.0871205">
        <ele>604.33</ele>
        <time>2020-12-09T13:55:39Z</time>
      </trkpt>
      <trkpt lat="39.764854" lon="-4.0871477">
        <ele>604.33</ele>
        <time>2020-12-09T13:55:42Z</time>
      </trkpt>
      <trkpt lat="39.7648" lon="-4.087167">
        <ele>604.33</ele>
        <time>2020-12-09T13:55:45Z</time>
      </trkpt>
      <trkpt lat="39.76475" lon="-4.087191">
        <ele>604.33</ele>
        <time>2020-12-09T13:55:48Z</time>
      </trkpt>
      <trkpt lat="39.7647" lon="-4.087218">
        <ele>604.33</ele>
        <time>2020-12-09T13:55:51Z</time>
      </trkpt>
      <trkpt lat="39.764652" lon="-4.087246">
        <ele>605.51</ele>
        <time>2020-12-09T13:55:54Z</time>
      </trkpt>
      <trkpt lat="39.76459" lon="-4.0872893">
        <ele>605.51</ele>
        <time>2020-12-09T13:55:58Z</time>
      </trkpt>
      <trkpt lat="39.76455" lon="-4.087324">
        <ele>605.51</ele>
        <time>2020-12-09T13:56:01Z</time>
      </trkpt>
      <trkpt lat="39.764492" lon="-4.087366">
        <ele>605.51</ele>
        <time>2020-12-09T13:56:05Z</time>
      </trkpt>
      <trkpt lat="39.764442" lon="-4.0873895">
        <ele>605.51</ele>
        <time>2020-12-09T13:56:08Z</time>
      </trkpt>
      <trkpt lat="39.764397" lon="-4.087415">
        <ele>605.51</ele>
        <time>2020-12-09T13:56:11Z</time>
      </trkpt>
      <trkpt lat="39.764336" lon="-4.087453">
        <ele>605.51</ele>
        <time>2020-12-09T13:56:15Z</time>
      </trkpt>
      <trkpt lat="39.764294" lon="-4.087487">
        <ele>605.51</ele>
        <time>2020-12-09T13:56:18Z</time>
      </trkpt>
      <trkpt lat="39.764244" lon="-4.087534">
        <ele>605.51</ele>
        <time>2020-12-09T13:56:22Z</time>
      </trkpt>
      <trkpt lat="39.764194" lon="-4.08754">
        <ele>605.51</ele>
        <time>2020-12-09T13:56:26Z</time>
      </trkpt>
      <trkpt lat="39.76416" lon="-4.087474">
        <ele>605.51</ele>
        <time>2020-12-09T13:56:31Z</time>
      </trkpt>
      <trkpt lat="39.76416" lon="-4.087393">
        <ele>605.51</ele>
        <time>2020-12-09T13:56:35Z</time>
      </trkpt>
      <trkpt lat="39.76416" lon="-4.0873284">
        <ele>605.51</ele>
        <time>2020-12-09T13:56:38Z</time>
      </trkpt>
      <trkpt lat="39.764156" lon="-4.087242">
        <ele>604.33</ele>
        <time>2020-12-09T13:56:42Z</time>
      </trkpt>
      <trkpt lat="39.764137" lon="-4.087179">
        <ele>604.33</ele>
        <time>2020-12-09T13:56:45Z</time>
      </trkpt>
      <trkpt lat="39.76411" lon="-4.087108">
        <ele>604.33</ele>
        <time>2020-12-09T13:56:49Z</time>
      </trkpt>
      <trkpt lat="39.76409" lon="-4.0870433">
        <ele>604.33</ele>
        <time>2020-12-09T13:56:53Z</time>
      </trkpt>
      <trkpt lat="39.764084" lon="-4.0869765">
        <ele>602.96</ele>
        <time>2020-12-09T13:56:57Z</time>
      </trkpt>
      <trkpt lat="39.764084" lon="-4.086902">
        <ele>602.76</ele>
        <time>2020-12-09T13:57:01Z</time>
      </trkpt>
      <trkpt lat="39.764072" lon="-4.086837">
        <ele>602.76</ele>
        <time>2020-12-09T13:57:05Z</time>
      </trkpt>
      <trkpt lat="39.764076" lon="-4.0867705">
        <ele>602.76</ele>
        <time>2020-12-09T13:57:11Z</time>
      </trkpt>
      <trkpt lat="39.76414" lon="-4.086706">
        <ele>602.76</ele>
        <time>2020-12-09T13:57:17Z</time>
      </trkpt>
      <trkpt lat="39.764187" lon="-4.086658">
        <ele>602.76</ele>
        <time>2020-12-09T13:57:21Z</time>
      </trkpt>
      <trkpt lat="39.764236" lon="-4.086607">
        <ele>603.95</ele>
        <time>2020-12-09T13:57:25Z</time>
      </trkpt>
      <trkpt lat="39.764256" lon="-4.0865507">
        <ele>603.95</ele>
        <time>2020-12-09T13:57:29Z</time>
      </trkpt>
      <trkpt lat="39.764297" lon="-4.086499">
        <ele>603.95</ele>
        <time>2020-12-09T13:57:33Z</time>
      </trkpt>
      <trkpt lat="39.764343" lon="-4.0864515">
        <ele>603.95</ele>
        <time>2020-12-09T13:57:37Z</time>
      </trkpt>
      <trkpt lat="39.7644" lon="-4.086409">
        <ele>603.95</ele>
        <time>2020-12-09T13:57:41Z</time>
      </trkpt>
      <trkpt lat="39.764454" lon="-4.0863805">
        <ele>603.95</ele>
        <time>2020-12-09T13:57:45Z</time>
      </trkpt>
      <trkpt lat="39.764496" lon="-4.0863633">
        <ele>603.95</ele>
        <time>2020-12-09T13:57:48Z</time>
      </trkpt>
      <trkpt lat="39.764557" lon="-4.086343">
        <ele>603.95</ele>
        <time>2020-12-09T13:57:52Z</time>
      </trkpt>
      <trkpt lat="39.76461" lon="-4.0863113">
        <ele>603.95</ele>
        <time>2020-12-09T13:57:56Z</time>
      </trkpt>
      <trkpt lat="39.764652" lon="-4.086262">
        <ele>603.95</ele>
        <time>2020-12-09T13:58:00Z</time>
      </trkpt>
      <trkpt lat="39.764694" lon="-4.086203">
        <ele>603.95</ele>
        <time>2020-12-09T13:58:04Z</time>
      </trkpt>
      <trkpt lat="39.764732" lon="-4.086158">
        <ele>603.95</ele>
        <time>2020-12-09T13:58:07Z</time>
      </trkpt>
      <trkpt lat="39.764782" lon="-4.0861053">
        <ele>603.95</ele>
        <time>2020-12-09T13:58:11Z</time>
      </trkpt>
      <trkpt lat="39.764828" lon="-4.0860467">
        <ele>603.95</ele>
        <time>2020-12-09T13:58:15Z</time>
      </trkpt>
      <trkpt lat="39.76486" lon="-4.0859966">
        <ele>603.95</ele>
        <time>2020-12-09T13:58:18Z</time>
      </trkpt>
      <trkpt lat="39.7649" lon="-4.085929">
        <ele>603.95</ele>
        <time>2020-12-09T13:58:22Z</time>
      </trkpt>
      <trkpt lat="39.764935" lon="-4.085882">
        <ele>603.95</ele>
        <time>2020-12-09T13:58:25Z</time>
      </trkpt>
      <trkpt lat="39.764984" lon="-4.0858436">
        <ele>603.95</ele>
        <time>2020-12-09T13:58:29Z</time>
      </trkpt>
      <trkpt lat="39.765038" lon="-4.0858197">
        <ele>605.13</ele>
        <time>2020-12-09T13:58:33Z</time>
      </trkpt>
      <trkpt lat="39.765076" lon="-4.085776">
        <ele>606.4</ele>
        <time>2020-12-09T13:58:37Z</time>
      </trkpt>
      <trkpt lat="39.765106" lon="-4.085724">
        <ele>607.67</ele>
        <time>2020-12-09T13:58:41Z</time>
      </trkpt>
      <trkpt lat="39.765156" lon="-4.085677">
        <ele>608.86</ele>
        <time>2020-12-09T13:58:46Z</time>
      </trkpt>
      <trkpt lat="39.765213" lon="-4.0856533">
        <ele>608.86</ele>
        <time>2020-12-09T13:58:50Z</time>
      </trkpt>
      <trkpt lat="39.76526" lon="-4.0856304">
        <ele>608.86</ele>
        <time>2020-12-09T13:58:53Z</time>
      </trkpt>
      <trkpt lat="39.765316" lon="-4.085595">
        <ele>608.86</ele>
        <time>2020-12-09T13:59:26Z</time>
      </trkpt>
      <trkpt lat="39.765343" lon="-4.0855875">
        <ele>608.86</ele>
        <time>2020-12-09T13:59:30Z</time>
      </trkpt>
      <trkpt lat="39.765366" lon="-4.085532">
        <ele>608.86</ele>
        <time>2020-12-09T13:59:35Z</time>
      </trkpt>
      <trkpt lat="39.76535" lon="-4.0854526">
        <ele>608.86</ele>
        <time>2020-12-09T13:59:40Z</time>
      </trkpt>
      <trkpt lat="39.76533" lon="-4.085383">
        <ele>608.86</ele>
        <time>2020-12-09T13:59:44Z</time>
      </trkpt>
      <trkpt lat="39.76531" lon="-4.085314">
        <ele>610.04</ele>
        <time>2020-12-09T13:59:48Z</time>
      </trkpt>
      <trkpt lat="39.765285" lon="-4.085233">
        <ele>610.04</ele>
        <time>2020-12-09T13:59:52Z</time>
      </trkpt>
      <trkpt lat="39.765255" lon="-4.085166">
        <ele>610.04</ele>
        <time>2020-12-09T13:59:56Z</time>
      </trkpt>
      <trkpt lat="39.765232" lon="-4.085096">
        <ele>610.04</ele>
        <time>2020-12-09T14:00:00Z</time>
      </trkpt>
      <trkpt lat="39.765213" lon="-4.085035">
        <ele>610.04</ele>
        <time>2020-12-09T14:00:04Z</time>
      </trkpt>
      <trkpt lat="39.765194" lon="-4.084962">
        <ele>610.04</ele>
        <time>2020-12-09T14:00:09Z</time>
      </trkpt>
      <trkpt lat="39.765167" lon="-4.0848875">
        <ele>610.04</ele>
        <time>2020-12-09T14:00:14Z</time>
      </trkpt>
      <trkpt lat="39.76515" lon="-4.084824">
        <ele>610.04</ele>
        <time>2020-12-09T14:00:18Z</time>
      </trkpt>
      <trkpt lat="39.765125" lon="-4.084759">
        <ele>610.04</ele>
        <time>2020-12-09T14:00:22Z</time>
      </trkpt>
      <trkpt lat="39.765114" lon="-4.0846934">
        <ele>611.22</ele>
        <time>2020-12-09T14:00:26Z</time>
      </trkpt>
      <trkpt lat="39.76513" lon="-4.0846195">
        <ele>611.22</ele>
        <time>2020-12-09T14:00:31Z</time>
      </trkpt>
      <trkpt lat="39.76515" lon="-4.084545">
        <ele>611.22</ele>
        <time>2020-12-09T14:00:36Z</time>
      </trkpt>
      <trkpt lat="39.76516" lon="-4.084481">
        <ele>612.4</ele>
        <time>2020-12-09T14:00:40Z</time>
      </trkpt>
      <trkpt lat="39.76518" lon="-4.084379">
        <ele>612.4</ele>
        <time>2020-12-09T14:00:46Z</time>
      </trkpt>
      <trkpt lat="39.76519" lon="-4.0843177">
        <ele>612.4</ele>
        <time>2020-12-09T14:00:50Z</time>
      </trkpt>
      <trkpt lat="39.765236" lon="-4.0842853">
        <ele>612.4</ele>
        <time>2020-12-09T14:00:55Z</time>
      </trkpt>
      <trkpt lat="39.76528" lon="-4.0842657">
        <ele>612.4</ele>
        <time>2020-12-09T14:00:59Z</time>
      </trkpt>
      <trkpt lat="39.76533" lon="-4.0842433">
        <ele>612.4</ele>
        <time>2020-12-09T14:01:04Z</time>
      </trkpt>
      <trkpt lat="39.76538" lon="-4.084255">
        <ele>611.22</ele>
        <time>2020-12-09T14:01:10Z</time>
      </trkpt>
      <trkpt lat="39.765434" lon="-4.0842004">
        <ele>611.22</ele>
        <time>2020-12-09T14:01:15Z</time>
      </trkpt>
      <trkpt lat="39.765457" lon="-4.0841475">
        <ele>611.22</ele>
        <time>2020-12-09T14:01:19Z</time>
      </trkpt>
      <trkpt lat="39.76548" lon="-4.0840836">
        <ele>611.22</ele>
        <time>2020-12-09T14:01:24Z</time>
      </trkpt>
      <trkpt lat="39.765514" lon="-4.084026">
        <ele>613.67</ele>
        <time>2020-12-09T14:01:31Z</time>
      </trkpt>
      <trkpt lat="39.765568" lon="-4.083991">
        <ele>613.67</ele>
        <time>2020-12-09T14:01:37Z</time>
      </trkpt>
      <trkpt lat="39.765564" lon="-4.084022">
        <ele>613.67</ele>
        <time>2020-12-09T14:01:56Z</time>
      </trkpt>
      <trkpt lat="39.765514" lon="-4.0840425">
        <ele>613.67</ele>
        <time>2020-12-09T14:02:00Z</time>
      </trkpt>
      <trkpt lat="39.765453" lon="-4.084052">
        <ele>613.67</ele>
        <time>2020-12-09T14:02:05Z</time>
      </trkpt>
      <trkpt lat="39.76539" lon="-4.0840483">
        <ele>613.67</ele>
        <time>2020-12-09T14:02:10Z</time>
      </trkpt>
      <trkpt lat="39.76534" lon="-4.084089">
        <ele>613.67</ele>
        <time>2020-12-09T14:02:15Z</time>
      </trkpt>
      <trkpt lat="39.7653" lon="-4.0841355">
        <ele>613.67</ele>
        <time>2020-12-09T14:02:20Z</time>
      </trkpt>
      <trkpt lat="39.76525" lon="-4.0841556">
        <ele>613.67</ele>
        <time>2020-12-09T14:02:26Z</time>
      </trkpt>
      <trkpt lat="39.765217" lon="-4.0842075">
        <ele>613.67</ele>
        <time>2020-12-09T14:02:30Z</time>
      </trkpt>
      <trkpt lat="39.765198" lon="-4.0842805">
        <ele>613.67</ele>
        <time>2020-12-09T14:02:34Z</time>
      </trkpt>
      <trkpt lat="39.76518" lon="-4.0843616">
        <ele>613.67</ele>
        <time>2020-12-09T14:02:38Z</time>
      </trkpt>
      <trkpt lat="39.765167" lon="-4.0844235">
        <ele>613.67</ele>
        <time>2020-12-09T14:02:41Z</time>
      </trkpt>
      <trkpt lat="39.765156" lon="-4.084505">
        <ele>613.67</ele>
        <time>2020-12-09T14:02:45Z</time>
      </trkpt>
      <trkpt lat="39.76514" lon="-4.0845723">
        <ele>613.67</ele>
        <time>2020-12-09T14:02:48Z</time>
      </trkpt>
      <trkpt lat="39.765125" lon="-4.084643">
        <ele>613.67</ele>
        <time>2020-12-09T14:02:51Z</time>
      </trkpt>
      <trkpt lat="39.765118" lon="-4.084709">
        <ele>613.67</ele>
        <time>2020-12-09T14:02:54Z</time>
      </trkpt>
      <trkpt lat="39.765137" lon="-4.0847917">
        <ele>613.67</ele>
        <time>2020-12-09T14:02:58Z</time>
      </trkpt>
      <trkpt lat="39.765156" lon="-4.084853">
        <ele>613.67</ele>
        <time>2020-12-09T14:03:01Z</time>
      </trkpt>
      <trkpt lat="39.76518" lon="-4.084922">
        <ele>613.67</ele>
        <time>2020-12-09T14:03:04Z</time>
      </trkpt>
      <trkpt lat="39.7652" lon="-4.084988">
        <ele>613.67</ele>
        <time>2020-12-09T14:03:07Z</time>
      </trkpt>
      <trkpt lat="39.765217" lon="-4.0850534">
        <ele>613.67</ele>
        <time>2020-12-09T14:03:10Z</time>
      </trkpt>
      <trkpt lat="39.765232" lon="-4.085122">
        <ele>612.48</ele>
        <time>2020-12-09T14:03:13Z</time>
      </trkpt>
      <trkpt lat="39.765247" lon="-4.085191">
        <ele>612.48</ele>
        <time>2020-12-09T14:03:16Z</time>
      </trkpt>
      <trkpt lat="39.765266" lon="-4.085256">
        <ele>612.48</ele>
        <time>2020-12-09T14:03:19Z</time>
      </trkpt>
      <trkpt lat="39.76529" lon="-4.085339">
        <ele>612.48</ele>
        <time>2020-12-09T14:03:23Z</time>
      </trkpt>
      <trkpt lat="39.76531" lon="-4.0854025">
        <ele>612.48</ele>
        <time>2020-12-09T14:03:26Z</time>
      </trkpt>
      <trkpt lat="39.765327" lon="-4.0854673">
        <ele>612.48</ele>
        <time>2020-12-09T14:03:29Z</time>
      </trkpt>
      <trkpt lat="39.765354" lon="-4.0855255">
        <ele>615.16</ele>
        <time>2020-12-09T14:03:32Z</time>
      </trkpt>
      <trkpt lat="39.765396" lon="-4.0855637">
        <ele>615.16</ele>
        <time>2020-12-09T14:03:35Z</time>
      </trkpt>
      <trkpt lat="39.76546" lon="-4.0855803">
        <ele>613.98</ele>
        <time>2020-12-09T14:03:39Z</time>
      </trkpt>
      <trkpt lat="39.765522" lon="-4.085581">
        <ele>613.98</ele>
        <time>2020-12-09T14:03:43Z</time>
      </trkpt>
      <trkpt lat="39.765587" lon="-4.085604">
        <ele>613.98</ele>
        <time>2020-12-09T14:03:47Z</time>
      </trkpt>
      <trkpt lat="39.765633" lon="-4.0856175">
        <ele>613.98</ele>
        <time>2020-12-09T14:03:50Z</time>
      </trkpt>
      <trkpt lat="39.765694" lon="-4.085612">
        <ele>613.98</ele>
        <time>2020-12-09T14:03:54Z</time>
      </trkpt>
      <trkpt lat="39.76574" lon="-4.0855966">
        <ele>613.98</ele>
        <time>2020-12-09T14:03:57Z</time>
      </trkpt>
      <trkpt lat="39.7658" lon="-4.085568">
        <ele>613.98</ele>
        <time>2020-12-09T14:04:01Z</time>
      </trkpt>
      <trkpt lat="39.765858" lon="-4.0855503">
        <ele>613.98</ele>
        <time>2020-12-09T14:04:05Z</time>
      </trkpt>
      <trkpt lat="39.76592" lon="-4.0855265">
        <ele>613.98</ele>
        <time>2020-12-09T14:04:09Z</time>
      </trkpt>
      <trkpt lat="39.765976" lon="-4.085512">
        <ele>612.8</ele>
        <time>2020-12-09T14:04:13Z</time>
      </trkpt>
      <trkpt lat="39.766037" lon="-4.0855184">
        <ele>612.8</ele>
        <time>2020-12-09T14:04:17Z</time>
      </trkpt>
      <trkpt lat="39.766094" lon="-4.085535">
        <ele>611.61</ele>
        <time>2020-12-09T14:04:21Z</time>
      </trkpt>
      <trkpt lat="39.76615" lon="-4.085558">
        <ele>610.43</ele>
        <time>2020-12-09T14:04:25Z</time>
      </trkpt>
      <trkpt lat="39.766197" lon="-4.085581">
        <ele>610.43</ele>
        <time>2020-12-09T14:04:28Z</time>
      </trkpt>
      <trkpt lat="39.76626" lon="-4.0856094">
        <ele>610.43</ele>
        <time>2020-12-09T14:04:32Z</time>
      </trkpt>
      <trkpt lat="39.76632" lon="-4.0856295">
        <ele>610.43</ele>
        <time>2020-12-09T14:04:36Z</time>
      </trkpt>
      <trkpt lat="39.76638" lon="-4.0856543">
        <ele>610.43</ele>
        <time>2020-12-09T14:04:40Z</time>
      </trkpt>
      <trkpt lat="39.76643" lon="-4.0856757">
        <ele>610.43</ele>
        <time>2020-12-09T14:04:43Z</time>
      </trkpt>
      <trkpt lat="39.76648" lon="-4.0857005">
        <ele>610.43</ele>
        <time>2020-12-09T14:04:46Z</time>
      </trkpt>
      <trkpt lat="39.766544" lon="-4.085708">
        <ele>609.16</ele>
        <time>2020-12-09T14:04:50Z</time>
      </trkpt>
      <trkpt lat="39.766605" lon="-4.0857115">
        <ele>609.16</ele>
        <time>2020-12-09T14:04:54Z</time>
      </trkpt>
      <trkpt lat="39.766655" lon="-4.0857296">
        <ele>609.16</ele>
        <time>2020-12-09T14:04:57Z</time>
      </trkpt>
      <trkpt lat="39.766716" lon="-4.0857525">
        <ele>607.98</ele>
        <time>2020-12-09T14:05:01Z</time>
      </trkpt>
      <trkpt lat="39.766773" lon="-4.085763">
        <ele>607.98</ele>
        <time>2020-12-09T14:05:05Z</time>
      </trkpt>
      <trkpt lat="39.766827" lon="-4.085779">
        <ele>609.25</ele>
        <time>2020-12-09T14:05:09Z</time>
      </trkpt>
      <trkpt lat="39.76688" lon="-4.085807">
        <ele>609.25</ele>
        <time>2020-12-09T14:05:13Z</time>
      </trkpt>
      <trkpt lat="39.766937" lon="-4.085822">
        <ele>610.43</ele>
        <time>2020-12-09T14:05:17Z</time>
      </trkpt>
      <trkpt lat="39.766994" lon="-4.085834">
        <ele>610.43</ele>
        <time>2020-12-09T14:05:21Z</time>
      </trkpt>
      <trkpt lat="39.767056" lon="-4.0858555">
        <ele>611.71</ele>
        <time>2020-12-09T14:05:25Z</time>
      </trkpt>
      <trkpt lat="39.76712" lon="-4.0858746">
        <ele>611.71</ele>
        <time>2020-12-09T14:05:29Z</time>
      </trkpt>
      <trkpt lat="39.76717" lon="-4.085883">
        <ele>614.55</ele>
        <time>2020-12-09T14:05:32Z</time>
      </trkpt>
      <trkpt lat="39.76722" lon="-4.0858965">
        <ele>614.55</ele>
        <time>2020-12-09T14:05:35Z</time>
      </trkpt>
      <trkpt lat="39.767284" lon="-4.0859284">
        <ele>614.55</ele>
        <time>2020-12-09T14:05:39Z</time>
      </trkpt>
      <trkpt lat="39.767323" lon="-4.085973">
        <ele>614.55</ele>
        <time>2020-12-09T14:05:42Z</time>
      </trkpt>
      <trkpt lat="39.767353" lon="-4.0860286">
        <ele>613.37</ele>
        <time>2020-12-09T14:05:45Z</time>
      </trkpt>
      <trkpt lat="39.767384" lon="-4.0860868">
        <ele>613.37</ele>
        <time>2020-12-09T14:05:48Z</time>
      </trkpt>
      <trkpt lat="39.767414" lon="-4.0861406">
        <ele>613.37</ele>
        <time>2020-12-09T14:05:51Z</time>
      </trkpt>
      <trkpt lat="39.767456" lon="-4.086187">
        <ele>613.37</ele>
        <time>2020-12-09T14:05:54Z</time>
      </trkpt>
      <trkpt lat="39.767536" lon="-4.086247">
        <ele>613.37</ele>
        <time>2020-12-09T14:05:58Z</time>
      </trkpt>
      <trkpt lat="39.76761" lon="-4.086302">
        <ele>613.37</ele>
        <time>2020-12-09T14:06:04Z</time>
      </trkpt>
      <trkpt lat="39.767647" lon="-4.0863423">
        <ele>613.37</ele>
        <time>2020-12-09T14:06:07Z</time>
      </trkpt>
      <trkpt lat="39.767693" lon="-4.086405">
        <ele>613.37</ele>
        <time>2020-12-09T14:06:11Z</time>
      </trkpt>
      <trkpt lat="39.767727" lon="-4.0864515">
        <ele>613.37</ele>
        <time>2020-12-09T14:06:14Z</time>
      </trkpt>
      <trkpt lat="39.76777" lon="-4.0865197">
        <ele>613.37</ele>
        <time>2020-12-09T14:06:18Z</time>
      </trkpt>
      <trkpt lat="39.7678" lon="-4.0865746">
        <ele>613.37</ele>
        <time>2020-12-09T14:06:21Z</time>
      </trkpt>
      <trkpt lat="39.76783" lon="-4.086623">
        <ele>613.37</ele>
        <time>2020-12-09T14:06:24Z</time>
      </trkpt>
      <trkpt lat="39.767876" lon="-4.0866895">
        <ele>613.37</ele>
        <time>2020-12-09T14:06:28Z</time>
      </trkpt>
      <trkpt lat="39.767914" lon="-4.086738">
        <ele>613.37</ele>
        <time>2020-12-09T14:06:31Z</time>
      </trkpt>
      <trkpt lat="39.76795" lon="-4.086788">
        <ele>613.37</ele>
        <time>2020-12-09T14:06:34Z</time>
      </trkpt>
      <trkpt lat="39.767982" lon="-4.0868354">
        <ele>613.37</ele>
        <time>2020-12-09T14:06:37Z</time>
      </trkpt>
      <trkpt lat="39.768032" lon="-4.086899">
        <ele>613.37</ele>
        <time>2020-12-09T14:06:41Z</time>
      </trkpt>
      <trkpt lat="39.768066" lon="-4.0869474">
        <ele>613.37</ele>
        <time>2020-12-09T14:06:44Z</time>
      </trkpt>
      <trkpt lat="39.76811" lon="-4.087011">
        <ele>613.37</ele>
        <time>2020-12-09T14:06:48Z</time>
      </trkpt>
      <trkpt lat="39.768135" lon="-4.0870633">
        <ele>613.37</ele>
        <time>2020-12-09T14:06:51Z</time>
      </trkpt>
      <trkpt lat="39.768173" lon="-4.087129">
        <ele>614.55</ele>
        <time>2020-12-09T14:06:55Z</time>
      </trkpt>
      <trkpt lat="39.768215" lon="-4.087186">
        <ele>614.55</ele>
        <time>2020-12-09T14:06:59Z</time>
      </trkpt>
      <trkpt lat="39.768246" lon="-4.0872455">
        <ele>614.55</ele>
        <time>2020-12-09T14:07:03Z</time>
      </trkpt>
      <trkpt lat="39.768272" lon="-4.0873165">
        <ele>615.73</ele>
        <time>2020-12-09T14:07:08Z</time>
      </trkpt>
      <trkpt lat="39.76831" lon="-4.087372">
        <ele>617.0</ele>
        <time>2020-12-09T14:07:13Z</time>
      </trkpt>
      <trkpt lat="39.76835" lon="-4.087417">
        <ele>617.0</ele>
        <time>2020-12-09T14:07:17Z</time>
      </trkpt>
      <trkpt lat="39.768394" lon="-4.0874557">
        <ele>618.18</ele>
        <time>2020-12-09T14:07:21Z</time>
      </trkpt>
      <trkpt lat="39.768436" lon="-4.087498">
        <ele>618.18</ele>
        <time>2020-12-09T14:07:25Z</time>
      </trkpt>
      <trkpt lat="39.76848" lon="-4.087557">
        <ele>619.46</ele>
        <time>2020-12-09T14:07:29Z</time>
      </trkpt>
      <trkpt lat="39.768517" lon="-4.0876093">
        <ele>620.47</ele>
        <time>2020-12-09T14:07:33Z</time>
      </trkpt>
      <trkpt lat="39.768543" lon="-4.087665">
        <ele>621.74</ele>
        <time>2020-12-09T14:07:37Z</time>
      </trkpt>
      <trkpt lat="39.76857" lon="-4.087734">
        <ele>622.93</ele>
        <time>2020-12-09T14:07:42Z</time>
      </trkpt>
      <trkpt lat="39.7686" lon="-4.0878096">
        <ele>624.11</ele>
        <time>2020-12-09T14:07:47Z</time>
      </trkpt>
      <trkpt lat="39.76863" lon="-4.087855">
        <ele>624.11</ele>
        <time>2020-12-09T14:07:50Z</time>
      </trkpt>
      <trkpt lat="39.768673" lon="-4.087915">
        <ele>624.11</ele>
        <time>2020-12-09T14:07:54Z</time>
      </trkpt>
      <trkpt lat="39.76872" lon="-4.087988">
        <ele>624.11</ele>
        <time>2020-12-09T14:07:58Z</time>
      </trkpt>
      <trkpt lat="39.768753" lon="-4.088041">
        <ele>624.11</ele>
        <time>2020-12-09T14:08:01Z</time>
      </trkpt>
      <trkpt lat="39.768787" lon="-4.088088">
        <ele>624.11</ele>
        <time>2020-12-09T14:08:04Z</time>
      </trkpt>
      <trkpt lat="39.76882" lon="-4.088135">
        <ele>624.11</ele>
        <time>2020-12-09T14:08:07Z</time>
      </trkpt>
      <trkpt lat="39.768864" lon="-4.088177">
        <ele>624.11</ele>
        <time>2020-12-09T14:08:10Z</time>
      </trkpt>
      <trkpt lat="39.76891" lon="-4.0882173">
        <ele>624.11</ele>
        <time>2020-12-09T14:08:13Z</time>
      </trkpt>
      <trkpt lat="39.76897" lon="-4.0882664">
        <ele>624.11</ele>
        <time>2020-12-09T14:08:17Z</time>
      </trkpt>
      <trkpt lat="39.769012" lon="-4.0883007">
        <ele>624.11</ele>
        <time>2020-12-09T14:08:20Z</time>
      </trkpt>
      <trkpt lat="39.76906" lon="-4.0883317">
        <ele>624.11</ele>
        <time>2020-12-09T14:08:23Z</time>
      </trkpt>
      <trkpt lat="39.769104" lon="-4.088363">
        <ele>624.11</ele>
        <time>2020-12-09T14:08:26Z</time>
      </trkpt>
      <trkpt lat="39.76915" lon="-4.0883985">
        <ele>624.11</ele>
        <time>2020-12-09T14:08:29Z</time>
      </trkpt>
      <trkpt lat="39.7692" lon="-4.0884347">
        <ele>624.11</ele>
        <time>2020-12-09T14:08:32Z</time>
      </trkpt>
      <trkpt lat="39.76925" lon="-4.0884695">
        <ele>624.11</ele>
        <time>2020-12-09T14:08:35Z</time>
      </trkpt>
      <trkpt lat="39.7693" lon="-4.0885005">
        <ele>624.11</ele>
        <time>2020-12-09T14:08:38Z</time>
      </trkpt>
      <trkpt lat="39.76935" lon="-4.088524">
        <ele>624.11</ele>
        <time>2020-12-09T14:08:41Z</time>
      </trkpt>
      <trkpt lat="39.769398" lon="-4.088541">
        <ele>624.11</ele>
        <time>2020-12-09T14:08:44Z</time>
      </trkpt>
      <trkpt lat="39.76946" lon="-4.0885572">
        <ele>624.11</ele>
        <time>2020-12-09T14:08:48Z</time>
      </trkpt>
      <trkpt lat="39.769512" lon="-4.088563">
        <ele>624.11</ele>
        <time>2020-12-09T14:08:51Z</time>
      </trkpt>
      <trkpt lat="39.769577" lon="-4.0885725">
        <ele>624.11</ele>
        <time>2020-12-09T14:08:55Z</time>
      </trkpt>
      <trkpt lat="39.769646" lon="-4.088586">
        <ele>624.11</ele>
        <time>2020-12-09T14:08:59Z</time>
      </trkpt>
      <trkpt lat="39.76971" lon="-4.0886087">
        <ele>624.11</ele>
        <time>2020-12-09T14:09:03Z</time>
      </trkpt>
      <trkpt lat="39.769775" lon="-4.0886083">
        <ele>624.11</ele>
        <time>2020-12-09T14:09:07Z</time>
      </trkpt>
      <trkpt lat="39.769844" lon="-4.088602">
        <ele>624.11</ele>
        <time>2020-12-09T14:09:11Z</time>
      </trkpt>
      <trkpt lat="39.769894" lon="-4.088603">
        <ele>622.93</ele>
        <time>2020-12-09T14:09:14Z</time>
      </trkpt>
      <trkpt lat="39.769962" lon="-4.0886025">
        <ele>622.93</ele>
        <time>2020-12-09T14:09:18Z</time>
      </trkpt>
      <trkpt lat="39.77001" lon="-4.088595">
        <ele>622.93</ele>
        <time>2020-12-09T14:09:21Z</time>
      </trkpt>
      <trkpt lat="39.77006" lon="-4.088585">
        <ele>622.93</ele>
        <time>2020-12-09T14:09:24Z</time>
      </trkpt>
      <trkpt lat="39.770126" lon="-4.0885773">
        <ele>621.74</ele>
        <time>2020-12-09T14:09:28Z</time>
      </trkpt>
      <trkpt lat="39.770176" lon="-4.08857">
        <ele>621.74</ele>
        <time>2020-12-09T14:09:31Z</time>
      </trkpt>
      <trkpt lat="39.77024" lon="-4.08856">
        <ele>621.46</ele>
        <time>2020-12-09T14:09:35Z</time>
      </trkpt>
      <trkpt lat="39.770306" lon="-4.0885496">
        <ele>621.46</ele>
        <time>2020-12-09T14:09:39Z</time>
      </trkpt>
      <trkpt lat="39.770363" lon="-4.0885224">
        <ele>620.28</ele>
        <time>2020-12-09T14:09:43Z</time>
      </trkpt>
      <trkpt lat="39.770412" lon="-4.088473">
        <ele>620.28</ele>
        <time>2020-12-09T14:09:47Z</time>
      </trkpt>
      <trkpt lat="39.77046" lon="-4.0884194">
        <ele>619.1</ele>
        <time>2020-12-09T14:09:51Z</time>
      </trkpt>
      <trkpt lat="39.77051" lon="-4.088371">
        <ele>619.1</ele>
        <time>2020-12-09T14:09:55Z</time>
      </trkpt>
      <trkpt lat="39.770546" lon="-4.088324">
        <ele>617.92</ele>
        <time>2020-12-09T14:09:58Z</time>
      </trkpt>
      <trkpt lat="39.770588" lon="-4.0882554">
        <ele>617.92</ele>
        <time>2020-12-09T14:10:02Z</time>
      </trkpt>
      <trkpt lat="39.77062" lon="-4.088203">
        <ele>617.92</ele>
        <time>2020-12-09T14:10:05Z</time>
      </trkpt>
      <trkpt lat="39.77066" lon="-4.0881324">
        <ele>617.92</ele>
        <time>2020-12-09T14:10:09Z</time>
      </trkpt>
      <trkpt lat="39.770695" lon="-4.088086">
        <ele>616.73</ele>
        <time>2020-12-09T14:10:12Z</time>
      </trkpt>
      <trkpt lat="39.77074" lon="-4.0880265">
        <ele>616.73</ele>
        <time>2020-12-09T14:10:16Z</time>
      </trkpt>
      <trkpt lat="39.77077" lon="-4.0879774">
        <ele>616.73</ele>
        <time>2020-12-09T14:10:19Z</time>
      </trkpt>
      <trkpt lat="39.770813" lon="-4.087908">
        <ele>616.73</ele>
        <time>2020-12-09T14:10:23Z</time>
      </trkpt>
      <trkpt lat="39.77084" lon="-4.0878506">
        <ele>616.73</ele>
        <time>2020-12-09T14:10:26Z</time>
      </trkpt>
      <trkpt lat="39.77087" lon="-4.087776">
        <ele>616.73</ele>
        <time>2020-12-09T14:10:30Z</time>
      </trkpt>
      <trkpt lat="39.770893" lon="-4.0877175">
        <ele>616.73</ele>
        <time>2020-12-09T14:10:33Z</time>
      </trkpt>
      <trkpt lat="39.770924" lon="-4.087635">
        <ele>616.73</ele>
        <time>2020-12-09T14:10:37Z</time>
      </trkpt>
      <trkpt lat="39.770935" lon="-4.0875707">
        <ele>616.73</ele>
        <time>2020-12-09T14:10:40Z</time>
      </trkpt>
      <trkpt lat="39.770947" lon="-4.087509">
        <ele>617.92</ele>
        <time>2020-12-09T14:10:43Z</time>
      </trkpt>
      <trkpt lat="39.77097" lon="-4.0874352">
        <ele>617.92</ele>
        <time>2020-12-09T14:10:47Z</time>
      </trkpt>
      <trkpt lat="39.770977" lon="-4.087359">
        <ele>619.1</ele>
        <time>2020-12-09T14:10:51Z</time>
      </trkpt>
      <trkpt lat="39.770992" lon="-4.087281">
        <ele>619.1</ele>
        <time>2020-12-09T14:10:55Z</time>
      </trkpt>
      <trkpt lat="39.771023" lon="-4.087203">
        <ele>619.1</ele>
        <time>2020-12-09T14:10:59Z</time>
      </trkpt>
      <trkpt lat="39.771038" lon="-4.087144">
        <ele>619.1</ele>
        <time>2020-12-09T14:11:02Z</time>
      </trkpt>
      <trkpt lat="39.771076" lon="-4.0870743">
        <ele>619.1</ele>
        <time>2020-12-09T14:11:06Z</time>
      </trkpt>
      <trkpt lat="39.771114" lon="-4.087033">
        <ele>619.1</ele>
        <time>2020-12-09T14:11:09Z</time>
      </trkpt>
      <trkpt lat="39.771175" lon="-4.0870037">
        <ele>619.1</ele>
        <time>2020-12-09T14:11:13Z</time>
      </trkpt>
      <trkpt lat="39.77124" lon="-4.0869875">
        <ele>619.1</ele>
        <time>2020-12-09T14:11:17Z</time>
      </trkpt>
      <trkpt lat="39.771286" lon="-4.08698">
        <ele>620.28</ele>
        <time>2020-12-09T14:11:20Z</time>
      </trkpt>
      <trkpt lat="39.771347" lon="-4.086982">
        <ele>620.28</ele>
        <time>2020-12-09T14:11:24Z</time>
      </trkpt>
      <trkpt lat="39.771393" lon="-4.086991">
        <ele>621.46</ele>
        <time>2020-12-09T14:11:27Z</time>
      </trkpt>
      <trkpt lat="39.77146" lon="-4.0869865">
        <ele>621.46</ele>
        <time>2020-12-09T14:11:31Z</time>
      </trkpt>
      <trkpt lat="39.771523" lon="-4.0869546">
        <ele>619.21</ele>
        <time>2020-12-09T14:11:35Z</time>
      </trkpt>
      <trkpt lat="39.77157" lon="-4.0869246">
        <ele>619.21</ele>
        <time>2020-12-09T14:11:38Z</time>
      </trkpt>
      <trkpt lat="39.771614" lon="-4.086899">
        <ele>619.21</ele>
        <time>2020-12-09T14:11:41Z</time>
      </trkpt>
      <trkpt lat="39.77167" lon="-4.0868483">
        <ele>619.21</ele>
        <time>2020-12-09T14:12:50Z</time>
      </trkpt>
      <trkpt lat="39.771687" lon="-4.086789">
        <ele>619.21</ele>
        <time>2020-12-09T14:12:58Z</time>
      </trkpt>
      <trkpt lat="39.77171" lon="-4.08672">
        <ele>619.21</ele>
        <time>2020-12-09T14:13:01Z</time>
      </trkpt>
      <trkpt lat="39.771748" lon="-4.086659">
        <ele>619.21</ele>
        <time>2020-12-09T14:13:04Z</time>
      </trkpt>
      <trkpt lat="39.771805" lon="-4.086604">
        <ele>618.03</ele>
        <time>2020-12-09T14:13:08Z</time>
      </trkpt>
      <trkpt lat="39.77185" lon="-4.0865674">
        <ele>618.03</ele>
        <time>2020-12-09T14:13:11Z</time>
      </trkpt>
      <trkpt lat="39.771896" lon="-4.08653">
        <ele>616.84</ele>
        <time>2020-12-09T14:13:14Z</time>
      </trkpt>
      <trkpt lat="39.771942" lon="-4.086487">
        <ele>616.84</ele>
        <time>2020-12-09T14:13:17Z</time>
      </trkpt>
      <trkpt lat="39.771976" lon="-4.086439">
        <ele>616.84</ele>
        <time>2020-12-09T14:13:20Z</time>
      </trkpt>
      <trkpt lat="39.77202" lon="-4.086395">
        <ele>616.84</ele>
        <time>2020-12-09T14:13:23Z</time>
      </trkpt>
      <trkpt lat="39.772064" lon="-4.086356">
        <ele>616.84</ele>
        <time>2020-12-09T14:13:26Z</time>
      </trkpt>
      <trkpt lat="39.772106" lon="-4.0863223">
        <ele>616.84</ele>
        <time>2020-12-09T14:13:29Z</time>
      </trkpt>
      <trkpt lat="39.772175" lon="-4.0862746">
        <ele>618.03</ele>
        <time>2020-12-09T14:13:34Z</time>
      </trkpt>
      <trkpt lat="39.772224" lon="-4.086232">
        <ele>619.3</ele>
        <time>2020-12-09T14:13:38Z</time>
      </trkpt>
      <trkpt lat="39.772274" lon="-4.086187">
        <ele>619.3</ele>
        <time>2020-12-09T14:13:42Z</time>
      </trkpt>
      <trkpt lat="39.772327" lon="-4.086143">
        <ele>619.3</ele>
        <time>2020-12-09T14:13:46Z</time>
      </trkpt>
      <trkpt lat="39.772377" lon="-4.086115">
        <ele>619.3</ele>
        <time>2020-12-09T14:13:49Z</time>
      </trkpt>
      <trkpt lat="39.772438" lon="-4.0860825">
        <ele>619.3</ele>
        <time>2020-12-09T14:13:53Z</time>
      </trkpt>
      <trkpt lat="39.7725" lon="-4.0860653">
        <ele>619.3</ele>
        <time>2020-12-09T14:13:57Z</time>
      </trkpt>
      <trkpt lat="39.772556" lon="-4.0860353">
        <ele>619.3</ele>
        <time>2020-12-09T14:14:01Z</time>
      </trkpt>
      <trkpt lat="39.772606" lon="-4.0859957">
        <ele>618.12</ele>
        <time>2020-12-09T14:14:05Z</time>
      </trkpt>
      <trkpt lat="39.772648" lon="-4.0859523">
        <ele>618.12</ele>
        <time>2020-12-09T14:14:09Z</time>
      </trkpt>
      <trkpt lat="39.772682" lon="-4.085901">
        <ele>616.84</ele>
        <time>2020-12-09T14:14:13Z</time>
      </trkpt>
      <trkpt lat="39.772728" lon="-4.085851">
        <ele>615.66</ele>
        <time>2020-12-09T14:14:17Z</time>
      </trkpt>
      <trkpt lat="39.772774" lon="-4.085797">
        <ele>614.39</ele>
        <time>2020-12-09T14:14:21Z</time>
      </trkpt>
      <trkpt lat="39.772823" lon="-4.085738">
        <ele>614.39</ele>
        <time>2020-12-09T14:14:25Z</time>
      </trkpt>
      <trkpt lat="39.77287" lon="-4.0856996">
        <ele>613.21</ele>
        <time>2020-12-09T14:14:28Z</time>
      </trkpt>
      <trkpt lat="39.772907" lon="-4.0856547">
        <ele>613.21</ele>
        <time>2020-12-09T14:14:31Z</time>
      </trkpt>
      <trkpt lat="39.772953" lon="-4.085618">
        <ele>613.21</ele>
        <time>2020-12-09T14:14:34Z</time>
      </trkpt>
      <trkpt lat="39.773" lon="-4.085591">
        <ele>613.21</ele>
        <time>2020-12-09T14:14:37Z</time>
      </trkpt>
      <trkpt lat="39.773064" lon="-4.08557">
        <ele>613.21</ele>
        <time>2020-12-09T14:14:41Z</time>
      </trkpt>
      <trkpt lat="39.773117" lon="-4.085559">
        <ele>613.21</ele>
        <time>2020-12-09T14:14:44Z</time>
      </trkpt>
      <trkpt lat="39.773163" lon="-4.0855455">
        <ele>613.21</ele>
        <time>2020-12-09T14:14:47Z</time>
      </trkpt>
      <trkpt lat="39.77323" lon="-4.08552">
        <ele>613.21</ele>
        <time>2020-12-09T14:14:51Z</time>
      </trkpt>
      <trkpt lat="39.77328" lon="-4.0854945">
        <ele>609.73</ele>
        <time>2020-12-09T14:14:54Z</time>
      </trkpt>
      <trkpt lat="39.773335" lon="-4.085469">
        <ele>609.73</ele>
        <time>2020-12-09T14:14:57Z</time>
      </trkpt>
      <trkpt lat="39.773388" lon="-4.0854435">
        <ele>609.73</ele>
        <time>2020-12-09T14:15:00Z</time>
      </trkpt>
      <trkpt lat="39.773438" lon="-4.0854135">
        <ele>608.55</ele>
        <time>2020-12-09T14:15:03Z</time>
      </trkpt>
      <trkpt lat="39.77349" lon="-4.085377">
        <ele>608.55</ele>
        <time>2020-12-09T14:15:07Z</time>
      </trkpt>
      <trkpt lat="39.773537" lon="-4.0853524">
        <ele>607.28</ele>
        <time>2020-12-09T14:15:11Z</time>
      </trkpt>
      <trkpt lat="39.773586" lon="-4.0853133">
        <ele>607.28</ele>
        <time>2020-12-09T14:15:15Z</time>
      </trkpt>
      <trkpt lat="39.773647" lon="-4.085267">
        <ele>607.28</ele>
        <time>2020-12-09T14:15:19Z</time>
      </trkpt>
      <trkpt lat="39.773697" lon="-4.085241">
        <ele>606.01</ele>
        <time>2020-12-09T14:15:22Z</time>
      </trkpt>
      <trkpt lat="39.773746" lon="-4.085222">
        <ele>606.01</ele>
        <time>2020-12-09T14:15:25Z</time>
      </trkpt>
      <trkpt lat="39.773796" lon="-4.0852017">
        <ele>606.01</ele>
        <time>2020-12-09T14:15:28Z</time>
      </trkpt>
      <trkpt lat="39.77385" lon="-4.085183">
        <ele>606.01</ele>
        <time>2020-12-09T14:15:31Z</time>
      </trkpt>
      <trkpt lat="39.7739" lon="-4.085163">
        <ele>606.01</ele>
        <time>2020-12-09T14:15:34Z</time>
      </trkpt>
      <trkpt lat="39.77395" lon="-4.0851536">
        <ele>606.01</ele>
        <time>2020-12-09T14:15:37Z</time>
      </trkpt>
      <trkpt lat="39.77401" lon="-4.0851526">
        <ele>607.28</ele>
        <time>2020-12-09T14:15:41Z</time>
      </trkpt>
      <trkpt lat="39.77407" lon="-4.08518">
        <ele>607.28</ele>
        <time>2020-12-09T14:15:45Z</time>
      </trkpt>
      <trkpt lat="39.77413" lon="-4.085212">
        <ele>608.46</ele>
        <time>2020-12-09T14:15:49Z</time>
      </trkpt>
      <trkpt lat="39.77418" lon="-4.0852222">
        <ele>608.46</ele>
        <time>2020-12-09T14:15:52Z</time>
      </trkpt>
      <trkpt lat="39.77425" lon="-4.085221">
        <ele>608.46</ele>
        <time>2020-12-09T14:15:56Z</time>
      </trkpt>
      <trkpt lat="39.7743" lon="-4.0852227">
        <ele>609.64</ele>
        <time>2020-12-09T14:15:59Z</time>
      </trkpt>
      <trkpt lat="39.77435" lon="-4.085227">
        <ele>609.64</ele>
        <time>2020-12-09T14:16:02Z</time>
      </trkpt>
      <trkpt lat="39.774406" lon="-4.0852256">
        <ele>609.64</ele>
        <time>2020-12-09T14:16:05Z</time>
      </trkpt>
      <trkpt lat="39.77446" lon="-4.0852237">
        <ele>609.64</ele>
        <time>2020-12-09T14:16:08Z</time>
      </trkpt>
      <trkpt lat="39.77452" lon="-4.0852184">
        <ele>609.64</ele>
        <time>2020-12-09T14:16:12Z</time>
      </trkpt>
      <trkpt lat="39.774582" lon="-4.085217">
        <ele>609.64</ele>
        <time>2020-12-09T14:16:16Z</time>
      </trkpt>
      <trkpt lat="39.77463" lon="-4.085204">
        <ele>609.64</ele>
        <time>2020-12-09T14:16:19Z</time>
      </trkpt>
      <trkpt lat="39.774693" lon="-4.085179">
        <ele>610.82</ele>
        <time>2020-12-09T14:16:23Z</time>
      </trkpt>
      <trkpt lat="39.774746" lon="-4.085137">
        <ele>610.82</ele>
        <time>2020-12-09T14:16:27Z</time>
      </trkpt>
      <trkpt lat="39.7748" lon="-4.0850906">
        <ele>610.82</ele>
        <time>2020-12-09T14:16:31Z</time>
      </trkpt>
      <trkpt lat="39.774837" lon="-4.085057">
        <ele>610.82</ele>
        <time>2020-12-09T14:16:34Z</time>
      </trkpt>
      <trkpt lat="39.77489" lon="-4.085019">
        <ele>612.1</ele>
        <time>2020-12-09T14:16:38Z</time>
      </trkpt>
      <trkpt lat="39.774952" lon="-4.085014">
        <ele>612.1</ele>
        <time>2020-12-09T14:16:42Z</time>
      </trkpt>
      <trkpt lat="39.775005" lon="-4.085026">
        <ele>612.1</ele>
        <time>2020-12-09T14:16:45Z</time>
      </trkpt>
      <trkpt lat="39.77505" lon="-4.0850515">
        <ele>612.1</ele>
        <time>2020-12-09T14:16:48Z</time>
      </trkpt>
      <trkpt lat="39.775105" lon="-4.0851054">
        <ele>612.1</ele>
        <time>2020-12-09T14:16:52Z</time>
      </trkpt>
      <trkpt lat="39.775135" lon="-4.0851507">
        <ele>614.34</ele>
        <time>2020-12-09T14:16:55Z</time>
      </trkpt>
      <trkpt lat="39.77519" lon="-4.0852">
        <ele>613.07</ele>
        <time>2020-12-09T14:16:59Z</time>
      </trkpt>
      <trkpt lat="39.775238" lon="-4.085235">
        <ele>613.07</ele>
        <time>2020-12-09T14:17:02Z</time>
      </trkpt>
      <trkpt lat="39.775284" lon="-4.085266">
        <ele>613.07</ele>
        <time>2020-12-09T14:17:05Z</time>
      </trkpt>
      <trkpt lat="39.775333" lon="-4.085295">
        <ele>611.88</ele>
        <time>2020-12-09T14:17:08Z</time>
      </trkpt>
      <trkpt lat="39.775383" lon="-4.0853257">
        <ele>611.88</ele>
        <time>2020-12-09T14:17:11Z</time>
      </trkpt>
      <trkpt lat="39.775433" lon="-4.08536">
        <ele>611.88</ele>
        <time>2020-12-09T14:17:14Z</time>
      </trkpt>
      <trkpt lat="39.775482" lon="-4.085378">
        <ele>611.88</ele>
        <time>2020-12-09T14:17:17Z</time>
      </trkpt>
      <trkpt lat="39.77553" lon="-4.0853686">
        <ele>611.88</ele>
        <time>2020-12-09T14:17:20Z</time>
      </trkpt>
      <trkpt lat="39.775597" lon="-4.0853434">
        <ele>611.88</ele>
        <time>2020-12-09T14:17:24Z</time>
      </trkpt>
      <trkpt lat="39.77564" lon="-4.085305">
        <ele>610.7</ele>
        <time>2020-12-09T14:17:27Z</time>
      </trkpt>
      <trkpt lat="39.775677" lon="-4.0852613">
        <ele>610.7</ele>
        <time>2020-12-09T14:17:30Z</time>
      </trkpt>
      <trkpt lat="39.775734" lon="-4.085202">
        <ele>610.7</ele>
        <time>2020-12-09T14:17:34Z</time>
      </trkpt>
      <trkpt lat="39.775784" lon="-4.0851655">
        <ele>609.52</ele>
        <time>2020-12-09T14:17:37Z</time>
      </trkpt>
      <trkpt lat="39.775833" lon="-4.0851293">
        <ele>609.52</ele>
        <time>2020-12-09T14:17:40Z</time>
      </trkpt>
      <trkpt lat="39.77588" lon="-4.0851">
        <ele>609.52</ele>
        <time>2020-12-09T14:17:43Z</time>
      </trkpt>
      <trkpt lat="39.77593" lon="-4.08508">
        <ele>609.52</ele>
        <time>2020-12-09T14:17:46Z</time>
      </trkpt>
      <trkpt lat="39.775978" lon="-4.085055">
        <ele>609.52</ele>
        <time>2020-12-09T14:17:49Z</time>
      </trkpt>
      <trkpt lat="39.77604" lon="-4.0850153">
        <ele>609.52</ele>
        <time>2020-12-09T14:17:53Z</time>
      </trkpt>
      <trkpt lat="39.776085" lon="-4.0849824">
        <ele>609.52</ele>
        <time>2020-12-09T14:17:56Z</time>
      </trkpt>
      <trkpt lat="39.77613" lon="-4.084952">
        <ele>609.52</ele>
        <time>2020-12-09T14:17:59Z</time>
      </trkpt>
      <trkpt lat="39.776176" lon="-4.084923">
        <ele>609.52</ele>
        <time>2020-12-09T14:18:02Z</time>
      </trkpt>
      <trkpt lat="39.776234" lon="-4.084884">
        <ele>609.52</ele>
        <time>2020-12-09T14:18:06Z</time>
      </trkpt>
      <trkpt lat="39.776283" lon="-4.084852">
        <ele>610.88</ele>
        <time>2020-12-09T14:18:10Z</time>
      </trkpt>
      <trkpt lat="39.77634" lon="-4.0848255">
        <ele>610.88</ele>
        <time>2020-12-09T14:18:14Z</time>
      </trkpt>
      <trkpt lat="39.776398" lon="-4.0847964">
        <ele>612.07</ele>
        <time>2020-12-09T14:18:18Z</time>
      </trkpt>
      <trkpt lat="39.776463" lon="-4.084747">
        <ele>612.07</ele>
        <time>2020-12-09T14:18:23Z</time>
      </trkpt>
      <trkpt lat="39.77651" lon="-4.084714">
        <ele>613.25</ele>
        <time>2020-12-09T14:18:26Z</time>
      </trkpt>
      <trkpt lat="39.776566" lon="-4.084668">
        <ele>613.25</ele>
        <time>2020-12-09T14:18:30Z</time>
      </trkpt>
      <trkpt lat="39.77661" lon="-4.0846415">
        <ele>613.25</ele>
        <time>2020-12-09T14:18:33Z</time>
      </trkpt>
      <trkpt lat="39.776657" lon="-4.0846076">
        <ele>613.25</ele>
        <time>2020-12-09T14:18:36Z</time>
      </trkpt>
      <trkpt lat="39.77671" lon="-4.084552">
        <ele>613.25</ele>
        <time>2020-12-09T14:18:40Z</time>
      </trkpt>
      <trkpt lat="39.776756" lon="-4.0845184">
        <ele>613.25</ele>
        <time>2020-12-09T14:18:43Z</time>
      </trkpt>
      <trkpt lat="39.776802" lon="-4.0844965">
        <ele>613.25</ele>
        <time>2020-12-09T14:18:46Z</time>
      </trkpt>
      <trkpt lat="39.776863" lon="-4.0844655">
        <ele>613.25</ele>
        <time>2020-12-09T14:18:50Z</time>
      </trkpt>
      <trkpt lat="39.776917" lon="-4.084443">
        <ele>616.01</ele>
        <time>2020-12-09T14:18:54Z</time>
      </trkpt>
      <trkpt lat="39.77696" lon="-4.0844116">
        <ele>616.01</ele>
        <time>2020-12-09T14:18:58Z</time>
      </trkpt>
      <trkpt lat="39.777" lon="-4.0843697">
        <ele>617.19</ele>
        <time>2020-12-09T14:19:02Z</time>
      </trkpt>
      <trkpt lat="39.777042" lon="-4.084334">
        <ele>618.46</ele>
        <time>2020-12-09T14:19:06Z</time>
      </trkpt>
      <trkpt lat="39.7771" lon="-4.084317">
        <ele>618.46</ele>
        <time>2020-12-09T14:19:10Z</time>
      </trkpt>
      <trkpt lat="39.77716" lon="-4.0843024">
        <ele>618.46</ele>
        <time>2020-12-09T14:19:14Z</time>
      </trkpt>
      <trkpt lat="39.777225" lon="-4.084284">
        <ele>619.73</ele>
        <time>2020-12-09T14:19:18Z</time>
      </trkpt>
      <trkpt lat="39.777275" lon="-4.084272">
        <ele>619.73</ele>
        <time>2020-12-09T14:19:21Z</time>
      </trkpt>
      <trkpt lat="39.77733" lon="-4.0842366">
        <ele>619.73</ele>
        <time>2020-12-09T14:19:25Z</time>
      </trkpt>
      <trkpt lat="39.77738" lon="-4.0841928">
        <ele>620.91</ele>
        <time>2020-12-09T14:19:29Z</time>
      </trkpt>
      <trkpt lat="39.777435" lon="-4.0841465">
        <ele>620.91</ele>
        <time>2020-12-09T14:19:33Z</time>
      </trkpt>
      <trkpt lat="39.777493" lon="-4.084101">
        <ele>620.91</ele>
        <time>2020-12-09T14:19:37Z</time>
      </trkpt>
      <trkpt lat="39.77754" lon="-4.08404">
        <ele>620.91</ele>
        <time>2020-12-09T14:19:41Z</time>
      </trkpt>
      <trkpt lat="39.777565" lon="-4.083988">
        <ele>620.91</ele>
        <time>2020-12-09T14:19:44Z</time>
      </trkpt>
      <trkpt lat="39.77758" lon="-4.0839124">
        <ele>620.91</ele>
        <time>2020-12-09T14:19:48Z</time>
      </trkpt>
      <trkpt lat="39.777596" lon="-4.0838284">
        <ele>620.91</ele>
        <time>2020-12-09T14:19:52Z</time>
      </trkpt>
      <trkpt lat="39.777622" lon="-4.0837526">
        <ele>620.91</ele>
        <time>2020-12-09T14:19:56Z</time>
      </trkpt>
      <trkpt lat="39.77764" lon="-4.0836873">
        <ele>620.91</ele>
        <time>2020-12-09T14:19:59Z</time>
      </trkpt>
      <trkpt lat="39.77766" lon="-4.0836263">
        <ele>620.91</ele>
        <time>2020-12-09T14:20:02Z</time>
      </trkpt>
      <trkpt lat="39.77769" lon="-4.0835567">
        <ele>620.91</ele>
        <time>2020-12-09T14:20:06Z</time>
      </trkpt>
      <trkpt lat="39.777733" lon="-4.083494">
        <ele>619.73</ele>
        <time>2020-12-09T14:20:11Z</time>
      </trkpt>
      <trkpt lat="39.777767" lon="-4.083444">
        <ele>619.73</ele>
        <time>2020-12-09T14:20:15Z</time>
      </trkpt>
      <trkpt lat="39.777805" lon="-4.0833945">
        <ele>618.55</ele>
        <time>2020-12-09T14:20:19Z</time>
      </trkpt>
      <trkpt lat="39.77785" lon="-4.083346">
        <ele>617.28</ele>
        <time>2020-12-09T14:20:24Z</time>
      </trkpt>
      <trkpt lat="39.777893" lon="-4.0833097">
        <ele>615.91</ele>
        <time>2020-12-09T14:20:28Z</time>
      </trkpt>
      <trkpt lat="39.777946" lon="-4.0832853">
        <ele>614.55</ele>
        <time>2020-12-09T14:20:32Z</time>
      </trkpt>
      <trkpt lat="39.778008" lon="-4.083258">
        <ele>613.37</ele>
        <time>2020-12-09T14:20:36Z</time>
      </trkpt>
      <trkpt lat="39.778057" lon="-4.0832286">
        <ele>613.37</ele>
        <time>2020-12-09T14:20:39Z</time>
      </trkpt>
      <trkpt lat="39.778103" lon="-4.083203">
        <ele>613.37</ele>
        <time>2020-12-09T14:20:42Z</time>
      </trkpt>
      <trkpt lat="39.778168" lon="-4.083175">
        <ele>612.1</ele>
        <time>2020-12-09T14:20:46Z</time>
      </trkpt>
      <trkpt lat="39.77822" lon="-4.0831594">
        <ele>612.1</ele>
        <time>2020-12-09T14:20:49Z</time>
      </trkpt>
      <trkpt lat="39.778282" lon="-4.083168">
        <ele>608.95</ele>
        <time>2020-12-09T14:20:53Z</time>
      </trkpt>
      <trkpt lat="39.77833" lon="-4.0831866">
        <ele>608.95</ele>
        <time>2020-12-09T14:20:56Z</time>
      </trkpt>
      <trkpt lat="39.778397" lon="-4.0831933">
        <ele>608.95</ele>
        <time>2020-12-09T14:21:00Z</time>
      </trkpt>
      <trkpt lat="39.778446" lon="-4.0831904">
        <ele>608.95</ele>
        <time>2020-12-09T14:21:03Z</time>
      </trkpt>
      <trkpt lat="39.7785" lon="-4.083183">
        <ele>608.95</ele>
        <time>2020-12-09T14:21:07Z</time>
      </trkpt>
      <trkpt lat="39.778572" lon="-4.083157">
        <ele>608.95</ele>
        <time>2020-12-09T14:21:12Z</time>
      </trkpt>
      <trkpt lat="39.778625" lon="-4.083131">
        <ele>608.95</ele>
        <time>2020-12-09T14:21:15Z</time>
      </trkpt>
      <trkpt lat="39.778675" lon="-4.0831037">
        <ele>608.95</ele>
        <time>2020-12-09T14:21:18Z</time>
      </trkpt>
      <trkpt lat="39.77874" lon="-4.083073">
        <ele>608.95</ele>
        <time>2020-12-09T14:21:22Z</time>
      </trkpt>
      <trkpt lat="39.77879" lon="-4.0830636">
        <ele>608.95</ele>
        <time>2020-12-09T14:21:25Z</time>
      </trkpt>
      <trkpt lat="39.77886" lon="-4.083058">
        <ele>608.95</ele>
        <time>2020-12-09T14:21:29Z</time>
      </trkpt>
      <trkpt lat="39.778908" lon="-4.0830545">
        <ele>608.95</ele>
        <time>2020-12-09T14:21:32Z</time>
      </trkpt>
      <trkpt lat="39.77896" lon="-4.0830503">
        <ele>608.95</ele>
        <time>2020-12-09T14:21:35Z</time>
      </trkpt>
      <trkpt lat="39.77901" lon="-4.083044">
        <ele>608.95</ele>
        <time>2020-12-09T14:21:38Z</time>
      </trkpt>
      <trkpt lat="39.77908" lon="-4.083043">
        <ele>608.95</ele>
        <time>2020-12-09T14:21:42Z</time>
      </trkpt>
      <trkpt lat="39.77913" lon="-4.083032">
        <ele>608.95</ele>
        <time>2020-12-09T14:21:45Z</time>
      </trkpt>
      <trkpt lat="39.77919" lon="-4.083007">
        <ele>608.95</ele>
        <time>2020-12-09T14:21:49Z</time>
      </trkpt>
      <trkpt lat="39.779243" lon="-4.082991">
        <ele>608.95</ele>
        <time>2020-12-09T14:21:52Z</time>
      </trkpt>
      <trkpt lat="39.779293" lon="-4.082978">
        <ele>608.95</ele>
        <time>2020-12-09T14:21:55Z</time>
      </trkpt>
      <trkpt lat="39.779358" lon="-4.082972">
        <ele>608.95</ele>
        <time>2020-12-09T14:21:59Z</time>
      </trkpt>
      <trkpt lat="39.77941" lon="-4.0830054">
        <ele>608.95</ele>
        <time>2020-12-09T14:22:03Z</time>
      </trkpt>
      <trkpt lat="39.779446" lon="-4.0830617">
        <ele>608.95</ele>
        <time>2020-12-09T14:22:07Z</time>
      </trkpt>
      <trkpt lat="39.77948" lon="-4.083131">
        <ele>608.95</ele>
        <time>2020-12-09T14:22:11Z</time>
      </trkpt>
      <trkpt lat="39.779514" lon="-4.0832014">
        <ele>608.95</ele>
        <time>2020-12-09T14:22:15Z</time>
      </trkpt>
      <trkpt lat="39.779552" lon="-4.0832667">
        <ele>608.95</ele>
        <time>2020-12-09T14:22:19Z</time>
      </trkpt>
      <trkpt lat="39.779575" lon="-4.0833206">
        <ele>608.95</ele>
        <time>2020-12-09T14:22:22Z</time>
      </trkpt>
      <trkpt lat="39.779594" lon="-4.083397">
        <ele>608.95</ele>
        <time>2020-12-09T14:22:26Z</time>
      </trkpt>
      <trkpt lat="39.7796" lon="-4.083457">
        <ele>607.77</ele>
        <time>2020-12-09T14:22:29Z</time>
      </trkpt>
      <trkpt lat="39.779602" lon="-4.083537">
        <ele>607.77</ele>
        <time>2020-12-09T14:22:33Z</time>
      </trkpt>
      <trkpt lat="39.779606" lon="-4.08362">
        <ele>606.49</ele>
        <time>2020-12-09T14:22:37Z</time>
      </trkpt>
      <trkpt lat="39.779606" lon="-4.0836997">
        <ele>606.49</ele>
        <time>2020-12-09T14:22:41Z</time>
      </trkpt>
      <trkpt lat="39.779617" lon="-4.083772">
        <ele>605.22</ele>
        <time>2020-12-09T14:22:45Z</time>
      </trkpt>
      <trkpt lat="39.779625" lon="-4.083835">
        <ele>603.95</ele>
        <time>2020-12-09T14:22:49Z</time>
      </trkpt>
      <trkpt lat="39.779636" lon="-4.0839114">
        <ele>604.35</ele>
        <time>2020-12-09T14:22:55Z</time>
      </trkpt>
      <trkpt lat="39.779667" lon="-4.083985">
        <ele>603.08</ele>
        <time>2020-12-09T14:23:00Z</time>
      </trkpt>
      <trkpt lat="39.779694" lon="-4.0840445">
        <ele>601.81</ele>
        <time>2020-12-09T14:23:04Z</time>
      </trkpt>
      <trkpt lat="39.779724" lon="-4.0840964">
        <ele>600.62</ele>
        <time>2020-12-09T14:23:08Z</time>
      </trkpt>
      <trkpt lat="39.779804" lon="-4.0841317">
        <ele>600.62</ele>
        <time>2020-12-09T14:41:38Z</time>
      </trkpt>
      <trkpt lat="39.77979" lon="-4.084119">
        <ele>600.62</ele>
        <time>2020-12-09T14:41:45Z</time>
      </trkpt>
      <trkpt lat="39.779736" lon="-4.0840473">
        <ele>600.62</ele>
        <time>2020-12-09T14:41:50Z</time>
      </trkpt>
      <trkpt lat="39.779694" lon="-4.0839744">
        <ele>601.9</ele>
        <time>2020-12-09T14:41:54Z</time>
      </trkpt>
      <trkpt lat="39.779667" lon="-4.083925">
        <ele>601.9</ele>
        <time>2020-12-09T14:41:57Z</time>
      </trkpt>
      <trkpt lat="39.779644" lon="-4.0838413">
        <ele>603.26</ele>
        <time>2020-12-09T14:42:02Z</time>
      </trkpt>
      <trkpt lat="39.779636" lon="-4.0837693">
        <ele>604.53</ele>
        <time>2020-12-09T14:42:06Z</time>
      </trkpt>
      <trkpt lat="39.77962" lon="-4.0836926">
        <ele>605.81</ele>
        <time>2020-12-09T14:42:10Z</time>
      </trkpt>
      <trkpt lat="39.779613" lon="-4.083615">
        <ele>605.81</ele>
        <time>2020-12-09T14:42:14Z</time>
      </trkpt>
      <trkpt lat="39.779617" lon="-4.083536">
        <ele>607.08</ele>
        <time>2020-12-09T14:42:18Z</time>
      </trkpt>
      <trkpt lat="39.779617" lon="-4.083459">
        <ele>608.26</ele>
        <time>2020-12-09T14:42:22Z</time>
      </trkpt>
      <trkpt lat="39.77961" lon="-4.0833807">
        <ele>608.26</ele>
        <time>2020-12-09T14:42:26Z</time>
      </trkpt>
      <trkpt lat="39.77958" lon="-4.0833035">
        <ele>609.44</ele>
        <time>2020-12-09T14:42:30Z</time>
      </trkpt>
      <trkpt lat="39.779552" lon="-4.083248">
        <ele>609.44</ele>
        <time>2020-12-09T14:42:33Z</time>
      </trkpt>
      <trkpt lat="39.779522" lon="-4.0831923">
        <ele>609.44</ele>
        <time>2020-12-09T14:42:36Z</time>
      </trkpt>
      <trkpt lat="39.779488" lon="-4.083118">
        <ele>609.44</ele>
        <time>2020-12-09T14:42:40Z</time>
      </trkpt>
      <trkpt lat="39.779465" lon="-4.083062">
        <ele>609.44</ele>
        <time>2020-12-09T14:42:43Z</time>
      </trkpt>
      <trkpt lat="39.77944" lon="-4.082988">
        <ele>609.44</ele>
        <time>2020-12-09T14:42:47Z</time>
      </trkpt>
      <trkpt lat="39.779476" lon="-4.0829296">
        <ele>610.62</ele>
        <time>2020-12-09T14:42:52Z</time>
      </trkpt>
      <trkpt lat="39.779537" lon="-4.0828996">
        <ele>610.62</ele>
        <time>2020-12-09T14:42:56Z</time>
      </trkpt>
      <trkpt lat="39.779587" lon="-4.082875">
        <ele>610.62</ele>
        <time>2020-12-09T14:42:59Z</time>
      </trkpt>
      <trkpt lat="39.779636" lon="-4.0828476">
        <ele>610.62</ele>
        <time>2020-12-09T14:43:02Z</time>
      </trkpt>
      <trkpt lat="39.779682" lon="-4.082814">
        <ele>610.62</ele>
        <time>2020-12-09T14:43:05Z</time>
      </trkpt>
      <trkpt lat="39.779724" lon="-4.0827775">
        <ele>610.62</ele>
        <time>2020-12-09T14:43:08Z</time>
      </trkpt>
      <trkpt lat="39.779778" lon="-4.082723">
        <ele>610.62</ele>
        <time>2020-12-09T14:43:12Z</time>
      </trkpt>
      <trkpt lat="39.779816" lon="-4.0826755">
        <ele>610.62</ele>
        <time>2020-12-09T14:43:15Z</time>
      </trkpt>
      <trkpt lat="39.77985" lon="-4.08263">
        <ele>610.62</ele>
        <time>2020-12-09T14:43:18Z</time>
      </trkpt>
      <trkpt lat="39.779892" lon="-4.0825586">
        <ele>610.62</ele>
        <time>2020-12-09T14:43:22Z</time>
      </trkpt>
      <trkpt lat="39.77992" lon="-4.082503">
        <ele>610.62</ele>
        <time>2020-12-09T14:43:25Z</time>
      </trkpt>
      <trkpt lat="39.779953" lon="-4.082434">
        <ele>610.62</ele>
        <time>2020-12-09T14:43:29Z</time>
      </trkpt>
      <trkpt lat="39.779976" lon="-4.082379">
        <ele>610.62</ele>
        <time>2020-12-09T14:43:32Z</time>
      </trkpt>
      <trkpt lat="39.78001" lon="-4.082308">
        <ele>610.62</ele>
        <time>2020-12-09T14:43:36Z</time>
      </trkpt>
      <trkpt lat="39.780045" lon="-4.082242">
        <ele>611.81</ele>
        <time>2020-12-09T14:43:40Z</time>
      </trkpt>
      <trkpt lat="39.78008" lon="-4.082179">
        <ele>608.73</ele>
        <time>2020-12-09T14:43:44Z</time>
      </trkpt>
      <trkpt lat="39.78011" lon="-4.082114">
        <ele>608.73</ele>
        <time>2020-12-09T14:43:48Z</time>
      </trkpt>
      <trkpt lat="39.78012" lon="-4.0820384">
        <ele>609.92</ele>
        <time>2020-12-09T14:43:52Z</time>
      </trkpt>
      <trkpt lat="39.78013" lon="-4.08196">
        <ele>609.92</ele>
        <time>2020-12-09T14:43:56Z</time>
      </trkpt>
      <trkpt lat="39.78014" lon="-4.0818796">
        <ele>611.1</ele>
        <time>2020-12-09T14:44:00Z</time>
      </trkpt>
      <trkpt lat="39.78015" lon="-4.0817947">
        <ele>611.1</ele>
        <time>2020-12-09T14:44:04Z</time>
      </trkpt>
      <trkpt lat="39.780155" lon="-4.0817294">
        <ele>611.1</ele>
        <time>2020-12-09T14:44:07Z</time>
      </trkpt>
      <trkpt lat="39.780174" lon="-4.0816474">
        <ele>611.1</ele>
        <time>2020-12-09T14:44:11Z</time>
      </trkpt>
      <trkpt lat="39.780197" lon="-4.08159">
        <ele>611.1</ele>
        <time>2020-12-09T14:44:14Z</time>
      </trkpt>
      <trkpt lat="39.780228" lon="-4.0815125">
        <ele>609.92</ele>
        <time>2020-12-09T14:44:18Z</time>
      </trkpt>
      <trkpt lat="39.78025" lon="-4.081454">
        <ele>609.92</ele>
        <time>2020-12-09T14:44:21Z</time>
      </trkpt>
      <trkpt lat="39.780277" lon="-4.081398">
        <ele>609.92</ele>
        <time>2020-12-09T14:44:24Z</time>
      </trkpt>
      <trkpt lat="39.780304" lon="-4.0813165">
        <ele>608.73</ele>
        <time>2020-12-09T14:44:28Z</time>
      </trkpt>
      <trkpt lat="39.78032" lon="-4.0812526">
        <ele>608.73</ele>
        <time>2020-12-09T14:44:31Z</time>
      </trkpt>
      <trkpt lat="39.780334" lon="-4.0811667">
        <ele>608.73</ele>
        <time>2020-12-09T14:44:35Z</time>
      </trkpt>
      <trkpt lat="39.780346" lon="-4.0811033">
        <ele>608.73</ele>
        <time>2020-12-09T14:44:38Z</time>
      </trkpt>
      <trkpt lat="39.780357" lon="-4.0810375">
        <ele>608.73</ele>
        <time>2020-12-09T14:44:41Z</time>
      </trkpt>
      <trkpt lat="39.78037" lon="-4.0809565">
        <ele>608.73</ele>
        <time>2020-12-09T14:44:45Z</time>
      </trkpt>
      <trkpt lat="39.780376" lon="-4.08088">
        <ele>610.01</ele>
        <time>2020-12-09T14:44:49Z</time>
      </trkpt>
      <trkpt lat="39.780403" lon="-4.0808115">
        <ele>610.01</ele>
        <time>2020-12-09T14:44:53Z</time>
      </trkpt>
      <trkpt lat="39.78045" lon="-4.080763">
        <ele>610.01</ele>
        <time>2020-12-09T14:44:57Z</time>
      </trkpt>
      <trkpt lat="39.78051" lon="-4.0807366">
        <ele>610.01</ele>
        <time>2020-12-09T14:45:01Z</time>
      </trkpt>
      <trkpt lat="39.780567" lon="-4.0806966">
        <ele>610.01</ele>
        <time>2020-12-09T14:45:05Z</time>
      </trkpt>
      <trkpt lat="39.7806" lon="-4.080642">
        <ele>610.01</ele>
        <time>2020-12-09T14:45:09Z</time>
      </trkpt>
      <trkpt lat="39.780617" lon="-4.0805616">
        <ele>610.01</ele>
        <time>2020-12-09T14:45:14Z</time>
      </trkpt>
      <trkpt lat="39.78063" lon="-4.0803485">
        <ele>610.01</ele>
        <time>2020-12-09T14:45:53Z</time>
      </trkpt>
      <trkpt lat="39.780663" lon="-4.0802917">
        <ele>610.01</ele>
        <time>2020-12-09T14:46:52Z</time>
      </trkpt>
      <trkpt lat="39.780663" lon="-4.0802617">
        <ele>610.01</ele>
        <time>2020-12-09T14:46:58Z</time>
      </trkpt>
      <trkpt lat="39.78067" lon="-4.080167">
        <ele>610.01</ele>
        <time>2020-12-09T14:47:02Z</time>
      </trkpt>
      <trkpt lat="39.780674" lon="-4.0800815">
        <ele>610.01</ele>
        <time>2020-12-09T14:47:05Z</time>
      </trkpt>
      <trkpt lat="39.780678" lon="-4.0800066">
        <ele>610.01</ele>
        <time>2020-12-09T14:47:08Z</time>
      </trkpt>
      <trkpt lat="39.78068" lon="-4.079937">
        <ele>610.01</ele>
        <time>2020-12-09T14:47:11Z</time>
      </trkpt>
      <trkpt lat="39.780685" lon="-4.079868">
        <ele>610.01</ele>
        <time>2020-12-09T14:47:14Z</time>
      </trkpt>
      <trkpt lat="39.78069" lon="-4.079782">
        <ele>610.01</ele>
        <time>2020-12-09T14:47:18Z</time>
      </trkpt>
      <trkpt lat="39.780693" lon="-4.0797186">
        <ele>610.01</ele>
        <time>2020-12-09T14:47:21Z</time>
      </trkpt>
      <trkpt lat="39.780685" lon="-4.07963">
        <ele>610.01</ele>
        <time>2020-12-09T14:47:25Z</time>
      </trkpt>
      <trkpt lat="39.78068" lon="-4.079568">
        <ele>610.01</ele>
        <time>2020-12-09T14:47:28Z</time>
      </trkpt>
      <trkpt lat="39.78068" lon="-4.0794845">
        <ele>610.01</ele>
        <time>2020-12-09T14:47:32Z</time>
      </trkpt>
      <trkpt lat="39.78066" lon="-4.0794096">
        <ele>611.19</ele>
        <time>2020-12-09T14:47:36Z</time>
      </trkpt>
      <trkpt lat="39.780613" lon="-4.0793457">
        <ele>611.19</ele>
        <time>2020-12-09T14:47:40Z</time>
      </trkpt>
      <trkpt lat="39.780567" lon="-4.07929">
        <ele>611.19</ele>
        <time>2020-12-09T14:47:44Z</time>
      </trkpt>
      <trkpt lat="39.78052" lon="-4.0792403">
        <ele>612.37</ele>
        <time>2020-12-09T14:47:48Z</time>
      </trkpt>
      <trkpt lat="39.78047" lon="-4.0791917">
        <ele>612.37</ele>
        <time>2020-12-09T14:47:52Z</time>
      </trkpt>
      <trkpt lat="39.78042" lon="-4.0791373">
        <ele>612.37</ele>
        <time>2020-12-09T14:47:56Z</time>
      </trkpt>
      <trkpt lat="39.780354" lon="-4.079072">
        <ele>613.55</ele>
        <time>2020-12-09T14:48:01Z</time>
      </trkpt>
      <trkpt lat="39.780304" lon="-4.0790186">
        <ele>613.55</ele>
        <time>2020-12-09T14:48:05Z</time>
      </trkpt>
      <trkpt lat="39.780266" lon="-4.078977">
        <ele>613.55</ele>
        <time>2020-12-09T14:48:08Z</time>
      </trkpt>
      <trkpt lat="39.780224" lon="-4.078936">
        <ele>613.55</ele>
        <time>2020-12-09T14:48:11Z</time>
      </trkpt>
      <trkpt lat="39.780167" lon="-4.0788856">
        <ele>613.55</ele>
        <time>2020-12-09T14:48:15Z</time>
      </trkpt>
      <trkpt lat="39.780125" lon="-4.078852">
        <ele>613.55</ele>
        <time>2020-12-09T14:48:18Z</time>
      </trkpt>
      <trkpt lat="39.780064" lon="-4.0788035">
        <ele>613.55</ele>
        <time>2020-12-09T14:48:22Z</time>
      </trkpt>
      <trkpt lat="39.780025" lon="-4.0787673">
        <ele>613.55</ele>
        <time>2020-12-09T14:48:25Z</time>
      </trkpt>
      <trkpt lat="39.77997" lon="-4.078723">
        <ele>613.55</ele>
        <time>2020-12-09T14:48:29Z</time>
      </trkpt>
      <trkpt lat="39.779926" lon="-4.0786886">
        <ele>613.55</ele>
        <time>2020-12-09T14:48:32Z</time>
      </trkpt>
      <trkpt lat="39.779873" lon="-4.0786333">
        <ele>613.55</ele>
        <time>2020-12-09T14:48:36Z</time>
      </trkpt>
      <trkpt lat="39.77983" lon="-4.078588">
        <ele>613.55</ele>
        <time>2020-12-09T14:48:39Z</time>
      </trkpt>
      <trkpt lat="39.779793" lon="-4.078544">
        <ele>613.55</ele>
        <time>2020-12-09T14:48:42Z</time>
      </trkpt>
      <trkpt lat="39.779755" lon="-4.078498">
        <ele>613.55</ele>
        <time>2020-12-09T14:48:45Z</time>
      </trkpt>
      <trkpt lat="39.779705" lon="-4.078438">
        <ele>613.55</ele>
        <time>2020-12-09T14:48:49Z</time>
      </trkpt>
      <trkpt lat="39.779667" lon="-4.0783944">
        <ele>613.55</ele>
        <time>2020-12-09T14:48:52Z</time>
      </trkpt>
      <trkpt lat="39.779617" lon="-4.0783367">
        <ele>616.61</ele>
        <time>2020-12-09T14:48:56Z</time>
      </trkpt>
      <trkpt lat="39.77958" lon="-4.0782933">
        <ele>616.61</ele>
        <time>2020-12-09T14:48:59Z</time>
      </trkpt>
      <trkpt lat="39.779533" lon="-4.0782394">
        <ele>616.61</ele>
        <time>2020-12-09T14:49:03Z</time>
      </trkpt>
      <trkpt lat="39.77949" lon="-4.07819">
        <ele>616.61</ele>
        <time>2020-12-09T14:49:07Z</time>
      </trkpt>
      <trkpt lat="39.779453" lon="-4.0781484">
        <ele>616.61</ele>
        <time>2020-12-09T14:49:11Z</time>
      </trkpt>
      <trkpt lat="39.77941" lon="-4.078103">
        <ele>616.61</ele>
        <time>2020-12-09T14:49:15Z</time>
      </trkpt>
      <trkpt lat="39.77937" lon="-4.078051">
        <ele>616.61</ele>
        <time>2020-12-09T14:49:19Z</time>
      </trkpt>
      <trkpt lat="39.779335" lon="-4.0779996">
        <ele>616.61</ele>
        <time>2020-12-09T14:49:23Z</time>
      </trkpt>
      <trkpt lat="39.779316" lon="-4.0779386">
        <ele>616.61</ele>
        <time>2020-12-09T14:49:28Z</time>
      </trkpt>
      <trkpt lat="39.77935" lon="-4.077935">
        <ele>616.61</ele>
        <time>2020-12-09T14:50:06Z</time>
      </trkpt>
      <trkpt lat="39.77938" lon="-4.0779486">
        <ele>616.61</ele>
        <time>2020-12-09T14:50:12Z</time>
      </trkpt>
      <trkpt lat="39.779446" lon="-4.0779653">
        <ele>616.61</ele>
        <time>2020-12-09T14:50:16Z</time>
      </trkpt>
      <trkpt lat="39.779503" lon="-4.077982">
        <ele>615.43</ele>
        <time>2020-12-09T14:50:19Z</time>
      </trkpt>
      <trkpt lat="39.779568" lon="-4.078007">
        <ele>615.43</ele>
        <time>2020-12-09T14:50:23Z</time>
      </trkpt>
      <trkpt lat="39.779617" lon="-4.0780253">
        <ele>615.43</ele>
        <time>2020-12-09T14:50:26Z</time>
      </trkpt>
      <trkpt lat="39.77967" lon="-4.078045">
        <ele>615.43</ele>
        <time>2020-12-09T14:50:29Z</time>
      </trkpt>
      <trkpt lat="39.779716" lon="-4.0780635">
        <ele>615.43</ele>
        <time>2020-12-09T14:50:32Z</time>
      </trkpt>
      <trkpt lat="39.779766" lon="-4.0780845">
        <ele>615.43</ele>
        <time>2020-12-09T14:50:35Z</time>
      </trkpt>
      <trkpt lat="39.77983" lon="-4.078111">
        <ele>615.43</ele>
        <time>2020-12-09T14:50:39Z</time>
      </trkpt>
      <trkpt lat="39.77988" lon="-4.078128">
        <ele>615.43</ele>
        <time>2020-12-09T14:50:42Z</time>
      </trkpt>
      <trkpt lat="39.77994" lon="-4.078132">
        <ele>615.43</ele>
        <time>2020-12-09T14:50:46Z</time>
      </trkpt>
      <trkpt lat="39.78" lon="-4.0781054">
        <ele>614.24</ele>
        <time>2020-12-09T14:50:50Z</time>
      </trkpt>
      <trkpt lat="39.780045" lon="-4.078067">
        <ele>613.06</ele>
        <time>2020-12-09T14:50:54Z</time>
      </trkpt>
      <trkpt lat="39.780094" lon="-4.0780454">
        <ele>613.06</ele>
        <time>2020-12-09T14:50:58Z</time>
      </trkpt>
      <trkpt lat="39.780148" lon="-4.0780363">
        <ele>611.79</ele>
        <time>2020-12-09T14:51:02Z</time>
      </trkpt>
      <trkpt lat="39.780205" lon="-4.0780096">
        <ele>610.52</ele>
        <time>2020-12-09T14:51:06Z</time>
      </trkpt>
      <trkpt lat="39.78026" lon="-4.077964">
        <ele>609.34</ele>
        <time>2020-12-09T14:51:10Z</time>
      </trkpt>
      <trkpt lat="39.780308" lon="-4.077904">
        <ele>609.34</ele>
        <time>2020-12-09T14:51:14Z</time>
      </trkpt>
      <trkpt lat="39.78035" lon="-4.07786">
        <ele>609.34</ele>
        <time>2020-12-09T14:51:18Z</time>
      </trkpt>
      <trkpt lat="39.780396" lon="-4.077822">
        <ele>609.34</ele>
        <time>2020-12-09T14:51:28Z</time>
      </trkpt>
      <trkpt lat="39.780422" lon="-4.0777545">
        <ele>609.34</ele>
        <time>2020-12-09T14:51:33Z</time>
      </trkpt>
      <trkpt lat="39.78045" lon="-4.0776935">
        <ele>609.34</ele>
        <time>2020-12-09T14:51:37Z</time>
      </trkpt>
      <trkpt lat="39.780487" lon="-4.077651">
        <ele>609.34</ele>
        <time>2020-12-09T14:51:41Z</time>
      </trkpt>
      <trkpt lat="39.78054" lon="-4.0776215">
        <ele>610.7</ele>
        <time>2020-12-09T14:51:45Z</time>
      </trkpt>
      <trkpt lat="39.780598" lon="-4.0776052">
        <ele>611.88</ele>
        <time>2020-12-09T14:51:49Z</time>
      </trkpt>
      <trkpt lat="39.780666" lon="-4.077596">
        <ele>611.88</ele>
        <time>2020-12-09T14:51:53Z</time>
      </trkpt>
      <trkpt lat="39.780716" lon="-4.0775867">
        <ele>611.88</ele>
        <time>2020-12-09T14:51:56Z</time>
      </trkpt>
      <trkpt lat="39.780766" lon="-4.0775666">
        <ele>611.88</ele>
        <time>2020-12-09T14:51:59Z</time>
      </trkpt>
      <trkpt lat="39.78083" lon="-4.077531">
        <ele>611.88</ele>
        <time>2020-12-09T14:52:03Z</time>
      </trkpt>
      <trkpt lat="39.78088" lon="-4.0775137">
        <ele>611.88</ele>
        <time>2020-12-09T14:52:06Z</time>
      </trkpt>
      <trkpt lat="39.78093" lon="-4.0774918">
        <ele>617.86</ele>
        <time>2020-12-09T14:52:09Z</time>
      </trkpt>
      <trkpt lat="39.78098" lon="-4.0774636">
        <ele>616.68</ele>
        <time>2020-12-09T14:52:12Z</time>
      </trkpt>
      <trkpt lat="39.78103" lon="-4.0774364">
        <ele>616.68</ele>
        <time>2020-12-09T14:52:15Z</time>
      </trkpt>
      <trkpt lat="39.78108" lon="-4.077422">
        <ele>616.68</ele>
        <time>2020-12-09T14:52:18Z</time>
      </trkpt>
      <trkpt lat="39.781143" lon="-4.0774364">
        <ele>616.68</ele>
        <time>2020-12-09T14:52:22Z</time>
      </trkpt>
      <trkpt lat="39.781185" lon="-4.0774674">
        <ele>616.68</ele>
        <time>2020-12-09T14:52:25Z</time>
      </trkpt>
      <trkpt lat="39.78123" lon="-4.077529">
        <ele>616.68</ele>
        <time>2020-12-09T14:52:29Z</time>
      </trkpt>
      <trkpt lat="39.781265" lon="-4.0776">
        <ele>616.68</ele>
        <time>2020-12-09T14:52:33Z</time>
      </trkpt>
      <trkpt lat="39.7813" lon="-4.077666">
        <ele>616.68</ele>
        <time>2020-12-09T14:52:37Z</time>
      </trkpt>
      <trkpt lat="39.781338" lon="-4.0777283">
        <ele>616.68</ele>
        <time>2020-12-09T14:52:41Z</time>
      </trkpt>
      <trkpt lat="39.781376" lon="-4.077789">
        <ele>615.4</ele>
        <time>2020-12-09T14:52:45Z</time>
      </trkpt>
      <trkpt lat="39.78142" lon="-4.077851">
        <ele>615.4</ele>
        <time>2020-12-09T14:52:49Z</time>
      </trkpt>
      <trkpt lat="39.78147" lon="-4.077911">
        <ele>614.13</ele>
        <time>2020-12-09T14:52:53Z</time>
      </trkpt>
      <trkpt lat="39.78151" lon="-4.0779505">
        <ele>614.13</ele>
        <time>2020-12-09T14:52:56Z</time>
      </trkpt>
      <trkpt lat="39.78155" lon="-4.078004">
        <ele>612.95</ele>
        <time>2020-12-09T14:53:00Z</time>
      </trkpt>
      <trkpt lat="39.781578" lon="-4.0780554">
        <ele>612.95</ele>
        <time>2020-12-09T14:53:04Z</time>
      </trkpt>
      <trkpt lat="39.781643" lon="-4.078078">
        <ele>612.95</ele>
        <time>2020-12-09T14:53:10Z</time>
      </trkpt>
      <trkpt lat="39.781693" lon="-4.078107">
        <ele>612.95</ele>
        <time>2020-12-09T14:53:14Z</time>
      </trkpt>
      <trkpt lat="39.781734" lon="-4.07816">
        <ele>612.95</ele>
        <time>2020-12-09T14:53:18Z</time>
      </trkpt>
      <trkpt lat="39.781765" lon="-4.0782313">
        <ele>612.95</ele>
        <time>2020-12-09T14:53:22Z</time>
      </trkpt>
      <trkpt lat="39.7818" lon="-4.078277">
        <ele>612.95</ele>
        <time>2020-12-09T14:53:25Z</time>
      </trkpt>
      <trkpt lat="39.781853" lon="-4.0783157">
        <ele>612.95</ele>
        <time>2020-12-09T14:53:29Z</time>
      </trkpt>
      <trkpt lat="39.78191" lon="-4.0783453">
        <ele>612.95</ele>
        <time>2020-12-09T14:53:33Z</time>
      </trkpt>
      <trkpt lat="39.781975" lon="-4.0783687">
        <ele>612.95</ele>
        <time>2020-12-09T14:53:37Z</time>
      </trkpt>
      <trkpt lat="39.782032" lon="-4.0783563">
        <ele>612.95</ele>
        <time>2020-12-09T14:53:41Z</time>
      </trkpt>
      <trkpt lat="39.78208" lon="-4.078321">
        <ele>612.95</ele>
        <time>2020-12-09T14:53:45Z</time>
      </trkpt>
      <trkpt lat="39.78214" lon="-4.0783095">
        <ele>612.95</ele>
        <time>2020-12-09T14:53:49Z</time>
      </trkpt>
      <trkpt lat="39.7822" lon="-4.078308">
        <ele>612.95</ele>
        <time>2020-12-09T14:53:53Z</time>
      </trkpt>
      <trkpt lat="39.78225" lon="-4.0783086">
        <ele>612.95</ele>
        <time>2020-12-09T14:53:56Z</time>
      </trkpt>
      <trkpt lat="39.78232" lon="-4.0783153">
        <ele>612.95</ele>
        <time>2020-12-09T14:54:00Z</time>
      </trkpt>
      <trkpt lat="39.782364" lon="-4.078319">
        <ele>612.95</ele>
        <time>2020-12-09T14:54:03Z</time>
      </trkpt>
      <trkpt lat="39.782444" lon="-4.078305">
        <ele>611.68</ele>
        <time>2020-12-09T14:54:08Z</time>
      </trkpt>
      <trkpt lat="39.782505" lon="-4.0782995">
        <ele>608.25</ele>
        <time>2020-12-09T14:54:12Z</time>
      </trkpt>
      <trkpt lat="39.782543" lon="-4.078347">
        <ele>607.07</ele>
        <time>2020-12-09T14:54:16Z</time>
      </trkpt>
      <trkpt lat="39.782585" lon="-4.078411">
        <ele>607.07</ele>
        <time>2020-12-09T14:54:20Z</time>
      </trkpt>
      <trkpt lat="39.78261" lon="-4.078461">
        <ele>607.07</ele>
        <time>2020-12-09T14:54:23Z</time>
      </trkpt>
      <trkpt lat="39.782627" lon="-4.078539">
        <ele>607.07</ele>
        <time>2020-12-09T14:54:27Z</time>
      </trkpt>
      <trkpt lat="39.782646" lon="-4.0786176">
        <ele>607.07</ele>
        <time>2020-12-09T14:54:31Z</time>
      </trkpt>
      <trkpt lat="39.782677" lon="-4.078687">
        <ele>608.25</ele>
        <time>2020-12-09T14:54:35Z</time>
      </trkpt>
      <trkpt lat="39.782707" lon="-4.078759">
        <ele>608.25</ele>
        <time>2020-12-09T14:54:39Z</time>
      </trkpt>
      <trkpt lat="39.78274" lon="-4.0788345">
        <ele>608.25</ele>
        <time>2020-12-09T14:54:43Z</time>
      </trkpt>
      <trkpt lat="39.78277" lon="-4.078893">
        <ele>609.43</ele>
        <time>2020-12-09T14:54:46Z</time>
      </trkpt>
      <trkpt lat="39.782795" lon="-4.078951">
        <ele>609.43</ele>
        <time>2020-12-09T14:54:49Z</time>
      </trkpt>
      <trkpt lat="39.78282" lon="-4.0790057">
        <ele>609.43</ele>
        <time>2020-12-09T14:54:52Z</time>
      </trkpt>
      <trkpt lat="39.782867" lon="-4.0790825">
        <ele>609.43</ele>
        <time>2020-12-09T14:54:56Z</time>
      </trkpt>
      <trkpt lat="39.782898" lon="-4.0791354">
        <ele>609.43</ele>
        <time>2020-12-09T14:54:59Z</time>
      </trkpt>
      <trkpt lat="39.78293" lon="-4.079187">
        <ele>609.43</ele>
        <time>2020-12-09T14:55:02Z</time>
      </trkpt>
      <trkpt lat="39.782963" lon="-4.0792556">
        <ele>609.43</ele>
        <time>2020-12-09T14:55:06Z</time>
      </trkpt>
      <trkpt lat="39.783005" lon="-4.0793176">
        <ele>609.43</ele>
        <time>2020-12-09T14:55:10Z</time>
      </trkpt>
      <trkpt lat="39.783043" lon="-4.079364">
        <ele>609.43</ele>
        <time>2020-12-09T14:55:13Z</time>
      </trkpt>
      <trkpt lat="39.783085" lon="-4.0794044">
        <ele>609.43</ele>
        <time>2020-12-09T14:55:16Z</time>
      </trkpt>
      <trkpt lat="39.78313" lon="-4.079465">
        <ele>609.43</ele>
        <time>2020-12-09T14:55:20Z</time>
      </trkpt>
      <trkpt lat="39.783157" lon="-4.079526">
        <ele>609.43</ele>
        <time>2020-12-09T14:55:24Z</time>
      </trkpt>
      <trkpt lat="39.783184" lon="-4.079581">
        <ele>609.43</ele>
        <time>2020-12-09T14:55:30Z</time>
      </trkpt>
      <trkpt lat="39.783253" lon="-4.079551">
        <ele>609.43</ele>
        <time>2020-12-09T14:55:36Z</time>
      </trkpt>
      <trkpt lat="39.7833" lon="-4.079523">
        <ele>609.43</ele>
        <time>2020-12-09T14:55:39Z</time>
      </trkpt>
      <trkpt lat="39.78336" lon="-4.079516">
        <ele>609.43</ele>
        <time>2020-12-09T14:55:43Z</time>
      </trkpt>
      <trkpt lat="39.783424" lon="-4.0795307">
        <ele>609.43</ele>
        <time>2020-12-09T14:55:47Z</time>
      </trkpt>
      <trkpt lat="39.783474" lon="-4.0795417">
        <ele>609.43</ele>
        <time>2020-12-09T14:55:50Z</time>
      </trkpt>
      <trkpt lat="39.783535" lon="-4.0795565">
        <ele>609.43</ele>
        <time>2020-12-09T14:55:54Z</time>
      </trkpt>
      <trkpt lat="39.783585" lon="-4.079571">
        <ele>609.43</ele>
        <time>2020-12-09T14:55:57Z</time>
      </trkpt>
      <trkpt lat="39.783646" lon="-4.0795894">
        <ele>609.43</ele>
        <time>2020-12-09T14:56:01Z</time>
      </trkpt>
      <trkpt lat="39.783703" lon="-4.07961">
        <ele>609.43</ele>
        <time>2020-12-09T14:56:05Z</time>
      </trkpt>
      <trkpt lat="39.783775" lon="-4.0796385">
        <ele>606.08</ele>
        <time>2020-12-09T14:56:10Z</time>
      </trkpt>
      <trkpt lat="39.783833" lon="-4.079673">
        <ele>607.36</ele>
        <time>2020-12-09T14:56:14Z</time>
      </trkpt>
      <trkpt lat="39.783886" lon="-4.079708">
        <ele>607.36</ele>
        <time>2020-12-09T14:56:18Z</time>
      </trkpt>
      <trkpt lat="39.78394" lon="-4.0797434">
        <ele>607.36</ele>
        <time>2020-12-09T14:56:22Z</time>
      </trkpt>
      <trkpt lat="39.783997" lon="-4.079773">
        <ele>608.54</ele>
        <time>2020-12-09T14:56:26Z</time>
      </trkpt>
      <trkpt lat="39.78405" lon="-4.079809">
        <ele>608.54</ele>
        <time>2020-12-09T14:56:30Z</time>
      </trkpt>
      <trkpt lat="39.784092" lon="-4.079862">
        <ele>608.54</ele>
        <time>2020-12-09T14:56:34Z</time>
      </trkpt>
      <trkpt lat="39.784122" lon="-4.0799165">
        <ele>608.54</ele>
        <time>2020-12-09T14:56:38Z</time>
      </trkpt>
      <trkpt lat="39.78416" lon="-4.079971">
        <ele>607.17</ele>
        <time>2020-12-09T14:56:42Z</time>
      </trkpt>
      <trkpt lat="39.78421" lon="-4.080021">
        <ele>607.17</ele>
        <time>2020-12-09T14:56:46Z</time>
      </trkpt>
      <trkpt lat="39.784267" lon="-4.080065">
        <ele>605.99</ele>
        <time>2020-12-09T14:56:50Z</time>
      </trkpt>
      <trkpt lat="39.784313" lon="-4.0800905">
        <ele>605.99</ele>
        <time>2020-12-09T14:56:53Z</time>
      </trkpt>
      <trkpt lat="39.784367" lon="-4.080127">
        <ele>605.99</ele>
        <time>2020-12-09T14:56:57Z</time>
      </trkpt>
      <trkpt lat="39.784416" lon="-4.080168">
        <ele>605.99</ele>
        <time>2020-12-09T14:57:01Z</time>
      </trkpt>
      <trkpt lat="39.784473" lon="-4.0801873">
        <ele>605.99</ele>
        <time>2020-12-09T14:57:05Z</time>
      </trkpt>
      <trkpt lat="39.784534" lon="-4.080194">
        <ele>605.99</ele>
        <time>2020-12-09T14:57:09Z</time>
      </trkpt>
      <trkpt lat="39.7846" lon="-4.0802064">
        <ele>605.99</ele>
        <time>2020-12-09T14:57:13Z</time>
      </trkpt>
      <trkpt lat="39.784664" lon="-4.080222">
        <ele>605.99</ele>
        <time>2020-12-09T14:57:17Z</time>
      </trkpt>
      <trkpt lat="39.784725" lon="-4.0802445">
        <ele>605.99</ele>
        <time>2020-12-09T14:57:21Z</time>
      </trkpt>
      <trkpt lat="39.78477" lon="-4.08026">
        <ele>605.99</ele>
        <time>2020-12-09T14:57:24Z</time>
      </trkpt>
      <trkpt lat="39.784832" lon="-4.080276">
        <ele>605.99</ele>
        <time>2020-12-09T14:57:28Z</time>
      </trkpt>
      <trkpt lat="39.784878" lon="-4.080275">
        <ele>605.99</ele>
        <time>2020-12-09T14:57:31Z</time>
      </trkpt>
      <trkpt lat="39.78494" lon="-4.0802517">
        <ele>607.17</ele>
        <time>2020-12-09T14:57:35Z</time>
      </trkpt>
      <trkpt lat="39.784992" lon="-4.08024">
        <ele>607.17</ele>
        <time>2020-12-09T14:57:39Z</time>
      </trkpt>
      <trkpt lat="39.78505" lon="-4.0802374">
        <ele>607.17</ele>
        <time>2020-12-09T14:57:43Z</time>
      </trkpt>
      <trkpt lat="39.785095" lon="-4.080211">
        <ele>607.17</ele>
        <time>2020-12-09T14:57:46Z</time>
      </trkpt>
      <trkpt lat="39.785133" lon="-4.0801687">
        <ele>607.17</ele>
        <time>2020-12-09T14:57:50Z</time>
      </trkpt>
      <trkpt lat="39.785175" lon="-4.080126">
        <ele>608.36</ele>
        <time>2020-12-09T14:57:54Z</time>
      </trkpt>
      <trkpt lat="39.78523" lon="-4.080073">
        <ele>609.63</ele>
        <time>2020-12-09T14:57:59Z</time>
      </trkpt>
      <trkpt lat="39.78528" lon="-4.080044">
        <ele>609.63</ele>
        <time>2020-12-09T14:58:03Z</time>
      </trkpt>
      <trkpt lat="39.785328" lon="-4.0800304">
        <ele>609.63</ele>
        <time>2020-12-09T14:58:07Z</time>
      </trkpt>
      <trkpt lat="39.785378" lon="-4.0800486">
        <ele>611.33</ele>
        <time>2020-12-09T14:58:13Z</time>
      </trkpt>
      <trkpt lat="39.78542" lon="-4.0800915">
        <ele>609.96</ele>
        <time>2020-12-09T14:58:19Z</time>
      </trkpt>
      <trkpt lat="39.785465" lon="-4.0801277">
        <ele>608.78</ele>
        <time>2020-12-09T14:58:23Z</time>
      </trkpt>
      <trkpt lat="39.785515" lon="-4.080159">
        <ele>608.78</ele>
        <time>2020-12-09T14:58:27Z</time>
      </trkpt>
      <trkpt lat="39.785572" lon="-4.080179">
        <ele>608.78</ele>
        <time>2020-12-09T14:58:31Z</time>
      </trkpt>
      <trkpt lat="39.785633" lon="-4.0801816">
        <ele>608.78</ele>
        <time>2020-12-09T14:58:35Z</time>
      </trkpt>
      <trkpt lat="39.785698" lon="-4.080166">
        <ele>607.6</ele>
        <time>2020-12-09T14:58:39Z</time>
      </trkpt>
      <trkpt lat="39.785744" lon="-4.0801435">
        <ele>607.6</ele>
        <time>2020-12-09T14:58:42Z</time>
      </trkpt>
      <trkpt lat="39.785805" lon="-4.08012">
        <ele>607.6</ele>
        <time>2020-12-09T14:58:46Z</time>
      </trkpt>
      <trkpt lat="39.78587" lon="-4.080117">
        <ele>606.42</ele>
        <time>2020-12-09T14:58:50Z</time>
      </trkpt>
      <trkpt lat="39.78593" lon="-4.080132">
        <ele>606.42</ele>
        <time>2020-12-09T14:58:54Z</time>
      </trkpt>
      <trkpt lat="39.785995" lon="-4.0801516">
        <ele>606.42</ele>
        <time>2020-12-09T14:58:58Z</time>
      </trkpt>
      <trkpt lat="39.786057" lon="-4.0801744">
        <ele>606.42</ele>
        <time>2020-12-09T14:59:02Z</time>
      </trkpt>
      <trkpt lat="39.786102" lon="-4.080198">
        <ele>606.42</ele>
        <time>2020-12-09T14:59:05Z</time>
      </trkpt>
      <trkpt lat="39.786156" lon="-4.0802393">
        <ele>606.42</ele>
        <time>2020-12-09T14:59:09Z</time>
      </trkpt>
      <trkpt lat="39.786205" lon="-4.0802917">
        <ele>606.42</ele>
        <time>2020-12-09T14:59:13Z</time>
      </trkpt>
      <trkpt lat="39.786247" lon="-4.080354">
        <ele>607.6</ele>
        <time>2020-12-09T14:59:17Z</time>
      </trkpt>
      <trkpt lat="39.78629" lon="-4.080414">
        <ele>607.6</ele>
        <time>2020-12-09T14:59:21Z</time>
      </trkpt>
      <trkpt lat="39.78633" lon="-4.080474">
        <ele>607.6</ele>
        <time>2020-12-09T14:59:25Z</time>
      </trkpt>
      <trkpt lat="39.786377" lon="-4.0805306">
        <ele>607.6</ele>
        <time>2020-12-09T14:59:29Z</time>
      </trkpt>
      <trkpt lat="39.786427" lon="-4.080612">
        <ele>606.42</ele>
        <time>2020-12-09T14:59:34Z</time>
      </trkpt>
      <trkpt lat="39.786457" lon="-4.0806785">
        <ele>606.42</ele>
        <time>2020-12-09T14:59:38Z</time>
      </trkpt>
      <trkpt lat="39.786484" lon="-4.080755">
        <ele>606.42</ele>
        <time>2020-12-09T14:59:42Z</time>
      </trkpt>
      <trkpt lat="39.786503" lon="-4.080838">
        <ele>606.42</ele>
        <time>2020-12-09T14:59:46Z</time>
      </trkpt>
      <trkpt lat="39.786522" lon="-4.080895">
        <ele>606.42</ele>
        <time>2020-12-09T14:59:49Z</time>
      </trkpt>
      <trkpt lat="39.78655" lon="-4.080968">
        <ele>606.42</ele>
        <time>2020-12-09T14:59:53Z</time>
      </trkpt>
      <trkpt lat="39.78658" lon="-4.0810385">
        <ele>606.42</ele>
        <time>2020-12-09T14:59:57Z</time>
      </trkpt>
      <trkpt lat="39.786613" lon="-4.0811086">
        <ele>606.42</ele>
        <time>2020-12-09T15:00:01Z</time>
      </trkpt>
      <trkpt lat="39.786644" lon="-4.0811815">
        <ele>606.42</ele>
        <time>2020-12-09T15:00:05Z</time>
      </trkpt>
      <trkpt lat="39.786667" lon="-4.081258">
        <ele>606.42</ele>
        <time>2020-12-09T15:00:09Z</time>
      </trkpt>
      <trkpt lat="39.786686" lon="-4.081334">
        <ele>606.92</ele>
        <time>2020-12-09T15:00:13Z</time>
      </trkpt>
      <trkpt lat="39.786713" lon="-4.081433">
        <ele>606.92</ele>
        <time>2020-12-09T15:00:18Z</time>
      </trkpt>
      <trkpt lat="39.786747" lon="-4.0814962">
        <ele>606.92</ele>
        <time>2020-12-09T15:00:22Z</time>
      </trkpt>
      <trkpt lat="39.7868" lon="-4.0815425">
        <ele>606.92</ele>
        <time>2020-12-09T15:00:26Z</time>
      </trkpt>
      <trkpt lat="39.78686" lon="-4.081566">
        <ele>606.92</ele>
        <time>2020-12-09T15:00:30Z</time>
      </trkpt>
      <trkpt lat="39.78692" lon="-4.081576">
        <ele>608.19</ele>
        <time>2020-12-09T15:00:34Z</time>
      </trkpt>
      <trkpt lat="39.786976" lon="-4.081576">
        <ele>608.19</ele>
        <time>2020-12-09T15:00:38Z</time>
      </trkpt>
      <trkpt lat="39.78704" lon="-4.081576">
        <ele>609.38</ele>
        <time>2020-12-09T15:00:43Z</time>
      </trkpt>
      <trkpt lat="39.787094" lon="-4.081576">
        <ele>610.65</ele>
        <time>2020-12-09T15:00:47Z</time>
      </trkpt>
      <trkpt lat="39.78715" lon="-4.081571">
        <ele>611.92</ele>
        <time>2020-12-09T15:00:51Z</time>
      </trkpt>
      <trkpt lat="39.7872" lon="-4.0815687">
        <ele>611.92</ele>
        <time>2020-12-09T15:00:55Z</time>
      </trkpt>
      <trkpt lat="39.78726" lon="-4.081569">
        <ele>613.29</ele>
        <time>2020-12-09T15:01:00Z</time>
      </trkpt>
      <trkpt lat="39.787308" lon="-4.0815644">
        <ele>614.56</ele>
        <time>2020-12-09T15:01:04Z</time>
      </trkpt>
      <trkpt lat="39.787365" lon="-4.0815563">
        <ele>614.56</ele>
        <time>2020-12-09T15:01:08Z</time>
      </trkpt>
      <trkpt lat="39.787426" lon="-4.0815434">
        <ele>615.74</ele>
        <time>2020-12-09T15:01:12Z</time>
      </trkpt>
      <trkpt lat="39.787483" lon="-4.081516">
        <ele>615.74</ele>
        <time>2020-12-09T15:01:16Z</time>
      </trkpt>
      <trkpt lat="39.78754" lon="-4.081487">
        <ele>615.74</ele>
        <time>2020-12-09T15:01:20Z</time>
      </trkpt>
      <trkpt lat="39.787598" lon="-4.0814595">
        <ele>615.74</ele>
        <time>2020-12-09T15:01:24Z</time>
      </trkpt>
      <trkpt lat="39.78765" lon="-4.081442">
        <ele>615.74</ele>
        <time>2020-12-09T15:01:28Z</time>
      </trkpt>
      <trkpt lat="39.787704" lon="-4.081442">
        <ele>615.74</ele>
        <time>2020-12-09T15:01:33Z</time>
      </trkpt>
      <trkpt lat="39.787743" lon="-4.081484">
        <ele>614.47</ele>
        <time>2020-12-09T15:01:38Z</time>
      </trkpt>
      <trkpt lat="39.78777" lon="-4.081549">
        <ele>613.29</ele>
        <time>2020-12-09T15:01:43Z</time>
      </trkpt>
      <trkpt lat="39.7878" lon="-4.081601">
        <ele>613.29</ele>
        <time>2020-12-09T15:01:48Z</time>
      </trkpt>
      <trkpt lat="39.78785" lon="-4.081642">
        <ele>612.1</ele>
        <time>2020-12-09T15:01:54Z</time>
      </trkpt>
      <trkpt lat="39.787903" lon="-4.08165">
        <ele>612.1</ele>
        <time>2020-12-09T15:02:00Z</time>
      </trkpt>
      <trkpt lat="39.787975" lon="-4.081666">
        <ele>610.83</ele>
        <time>2020-12-09T15:02:07Z</time>
      </trkpt>
      <trkpt lat="39.788033" lon="-4.08171">
        <ele>604.24</ele>
        <time>2020-12-09T15:02:12Z</time>
      </trkpt>
      <trkpt lat="39.788086" lon="-4.081759">
        <ele>604.24</ele>
        <time>2020-12-09T15:02:16Z</time>
      </trkpt>
      <trkpt lat="39.78813" lon="-4.081816">
        <ele>603.06</ele>
        <time>2020-12-09T15:02:20Z</time>
      </trkpt>
      <trkpt lat="39.788177" lon="-4.0818615">
        <ele>603.06</ele>
        <time>2020-12-09T15:02:24Z</time>
      </trkpt>
      <trkpt lat="39.788227" lon="-4.0818987">
        <ele>603.06</ele>
        <time>2020-12-09T15:02:28Z</time>
      </trkpt>
      <trkpt lat="39.788284" lon="-4.0819273">
        <ele>603.06</ele>
        <time>2020-12-09T15:02:32Z</time>
      </trkpt>
      <trkpt lat="39.78834" lon="-4.0819535">
        <ele>603.06</ele>
        <time>2020-12-09T15:02:36Z</time>
      </trkpt>
      <trkpt lat="39.788395" lon="-4.0819855">
        <ele>604.24</ele>
        <time>2020-12-09T15:02:40Z</time>
      </trkpt>
      <trkpt lat="39.788437" lon="-4.082039">
        <ele>604.24</ele>
        <time>2020-12-09T15:02:44Z</time>
      </trkpt>
      <trkpt lat="39.788483" lon="-4.0820975">
        <ele>604.24</ele>
        <time>2020-12-09T15:02:48Z</time>
      </trkpt>
      <trkpt lat="39.788532" lon="-4.082147">
        <ele>604.24</ele>
        <time>2020-12-09T15:02:52Z</time>
      </trkpt>
      <trkpt lat="39.78857" lon="-4.082199">
        <ele>604.24</ele>
        <time>2020-12-09T15:02:56Z</time>
      </trkpt>
      <trkpt lat="39.78861" lon="-4.0822687">
        <ele>604.24</ele>
        <time>2020-12-09T15:03:00Z</time>
      </trkpt>
      <trkpt lat="39.788628" lon="-4.0823293">
        <ele>602.97</ele>
        <time>2020-12-09T15:03:03Z</time>
      </trkpt>
      <trkpt lat="39.788643" lon="-4.08239">
        <ele>602.97</ele>
        <time>2020-12-09T15:03:06Z</time>
      </trkpt>
      <trkpt lat="39.788666" lon="-4.0824695">
        <ele>602.97</ele>
        <time>2020-12-09T15:03:10Z</time>
      </trkpt>
      <trkpt lat="39.7887" lon="-4.0825377">
        <ele>602.97</ele>
        <time>2020-12-09T15:03:14Z</time>
      </trkpt>
      <trkpt lat="39.788723" lon="-4.0826206">
        <ele>601.79</ele>
        <time>2020-12-09T15:03:18Z</time>
      </trkpt>
      <trkpt lat="39.788746" lon="-4.082677">
        <ele>601.79</ele>
        <time>2020-12-09T15:03:21Z</time>
      </trkpt>
      <trkpt lat="39.78879" lon="-4.0827417">
        <ele>601.79</ele>
        <time>2020-12-09T15:03:25Z</time>
      </trkpt>
      <trkpt lat="39.788834" lon="-4.082773">
        <ele>601.79</ele>
        <time>2020-12-09T15:03:28Z</time>
      </trkpt>
      <trkpt lat="39.788895" lon="-4.082802">
        <ele>600.52</ele>
        <time>2020-12-09T15:03:32Z</time>
      </trkpt>
      <trkpt lat="39.788944" lon="-4.082814">
        <ele>600.52</ele>
        <time>2020-12-09T15:03:35Z</time>
      </trkpt>
      <trkpt lat="39.78901" lon="-4.082816">
        <ele>600.52</ele>
        <time>2020-12-09T15:03:39Z</time>
      </trkpt>
      <trkpt lat="39.78906" lon="-4.082821">
        <ele>600.52</ele>
        <time>2020-12-09T15:03:42Z</time>
      </trkpt>
      <trkpt lat="39.789124" lon="-4.0828376">
        <ele>600.52</ele>
        <time>2020-12-09T15:03:46Z</time>
      </trkpt>
      <trkpt lat="39.78919" lon="-4.082864">
        <ele>600.52</ele>
        <time>2020-12-09T15:03:50Z</time>
      </trkpt>
      <trkpt lat="39.78925" lon="-4.0828896">
        <ele>600.52</ele>
        <time>2020-12-09T15:03:54Z</time>
      </trkpt>
      <trkpt lat="39.78931" lon="-4.0829067">
        <ele>600.52</ele>
        <time>2020-12-09T15:03:58Z</time>
      </trkpt>
      <trkpt lat="39.789364" lon="-4.0829315">
        <ele>600.52</ele>
        <time>2020-12-09T15:04:02Z</time>
      </trkpt>
      <trkpt lat="39.789413" lon="-4.082969">
        <ele>600.52</ele>
        <time>2020-12-09T15:04:06Z</time>
      </trkpt>
      <trkpt lat="39.789455" lon="-4.082999">
        <ele>600.52</ele>
        <time>2020-12-09T15:04:09Z</time>
      </trkpt>
      <trkpt lat="39.789513" lon="-4.083032">
        <ele>605.93</ele>
        <time>2020-12-09T15:04:13Z</time>
      </trkpt>
      <trkpt lat="39.789577" lon="-4.0830574">
        <ele>605.93</ele>
        <time>2020-12-09T15:04:17Z</time>
      </trkpt>
      <trkpt lat="39.789635" lon="-4.0830903">
        <ele>605.93</ele>
        <time>2020-12-09T15:04:21Z</time>
      </trkpt>
      <trkpt lat="39.78968" lon="-4.083141">
        <ele>605.93</ele>
        <time>2020-12-09T15:04:25Z</time>
      </trkpt>
      <trkpt lat="39.789715" lon="-4.083209">
        <ele>605.93</ele>
        <time>2020-12-09T15:04:29Z</time>
      </trkpt>
      <trkpt lat="39.789734" lon="-4.083284">
        <ele>604.74</ele>
        <time>2020-12-09T15:04:33Z</time>
      </trkpt>
      <trkpt lat="39.789753" lon="-4.083357">
        <ele>604.74</ele>
        <time>2020-12-09T15:04:37Z</time>
      </trkpt>
      <trkpt lat="39.789776" lon="-4.083409">
        <ele>604.74</ele>
        <time>2020-12-09T15:04:40Z</time>
      </trkpt>
      <trkpt lat="39.789818" lon="-4.083459">
        <ele>604.74</ele>
        <time>2020-12-09T15:04:44Z</time>
      </trkpt>
      <trkpt lat="39.789856" lon="-4.0835094">
        <ele>606.02</ele>
        <time>2020-12-09T15:04:48Z</time>
      </trkpt>
      <trkpt lat="39.78988" lon="-4.083581">
        <ele>606.02</ele>
        <time>2020-12-09T15:04:52Z</time>
      </trkpt>
      <trkpt lat="39.789917" lon="-4.083648">
        <ele>606.02</ele>
        <time>2020-12-09T15:04:56Z</time>
      </trkpt>
      <trkpt lat="39.789963" lon="-4.083704">
        <ele>606.02</ele>
        <time>2020-12-09T15:05:00Z</time>
      </trkpt>
      <trkpt lat="39.79002" lon="-4.0837364">
        <ele>606.02</ele>
        <time>2020-12-09T15:05:04Z</time>
      </trkpt>
      <trkpt lat="39.790085" lon="-4.083736">
        <ele>606.02</ele>
        <time>2020-12-09T15:05:08Z</time>
      </trkpt>
      <trkpt lat="39.790142" lon="-4.083727">
        <ele>606.02</ele>
        <time>2020-12-09T15:05:12Z</time>
      </trkpt>
      <trkpt lat="39.790195" lon="-4.0837235">
        <ele>606.02</ele>
        <time>2020-12-09T15:05:16Z</time>
      </trkpt>
      <trkpt lat="39.790253" lon="-4.0837226">
        <ele>607.38</ele>
        <time>2020-12-09T15:05:20Z</time>
      </trkpt>
      <trkpt lat="39.790302" lon="-4.0837297">
        <ele>607.38</ele>
        <time>2020-12-09T15:05:23Z</time>
      </trkpt>
      <trkpt lat="39.790367" lon="-4.083741">
        <ele>607.38</ele>
        <time>2020-12-09T15:05:27Z</time>
      </trkpt>
      <trkpt lat="39.79043" lon="-4.083739">
        <ele>608.74</ele>
        <time>2020-12-09T15:05:31Z</time>
      </trkpt>
      <trkpt lat="39.79042" lon="-4.083638">
        <ele>608.74</ele>
        <time>2020-12-09T15:08:35Z</time>
      </trkpt>
      <trkpt lat="39.79043" lon="-4.083657">
        <ele>608.74</ele>
        <time>2020-12-09T15:08:43Z</time>
      </trkpt>
      <trkpt lat="39.790466" lon="-4.0837173">
        <ele>608.74</ele>
        <time>2020-12-09T15:08:47Z</time>
      </trkpt>
      <trkpt lat="39.790497" lon="-4.0837736">
        <ele>608.74</ele>
        <time>2020-12-09T15:08:50Z</time>
      </trkpt>
      <trkpt lat="39.79052" lon="-4.083844">
        <ele>608.74</ele>
        <time>2020-12-09T15:08:54Z</time>
      </trkpt>
      <trkpt lat="39.790543" lon="-4.0839024">
        <ele>607.38</ele>
        <time>2020-12-09T15:08:58Z</time>
      </trkpt>
      <trkpt lat="39.790573" lon="-4.0839624">
        <ele>606.11</ele>
        <time>2020-12-09T15:09:03Z</time>
      </trkpt>
      <trkpt lat="39.79061" lon="-4.0840125">
        <ele>604.74</ele>
        <time>2020-12-09T15:09:07Z</time>
      </trkpt>
      <trkpt lat="39.790653" lon="-4.084066">
        <ele>603.47</ele>
        <time>2020-12-09T15:09:11Z</time>
      </trkpt>
      <trkpt lat="39.790718" lon="-4.084105">
        <ele>603.47</ele>
        <time>2020-12-09T15:09:16Z</time>
      </trkpt>
      <trkpt lat="39.790787" lon="-4.084107">
        <ele>602.29</ele>
        <time>2020-12-09T15:09:20Z</time>
      </trkpt>
      <trkpt lat="39.790848" lon="-4.084086">
        <ele>602.29</ele>
        <time>2020-12-09T15:09:24Z</time>
      </trkpt>
      <trkpt lat="39.79091" lon="-4.084056">
        <ele>602.29</ele>
        <time>2020-12-09T15:09:28Z</time>
      </trkpt>
      <trkpt lat="39.790955" lon="-4.084031">
        <ele>602.29</ele>
        <time>2020-12-09T15:09:31Z</time>
      </trkpt>
      <trkpt lat="39.79102" lon="-4.084005">
        <ele>603.56</ele>
        <time>2020-12-09T15:09:35Z</time>
      </trkpt>
      <trkpt lat="39.79107" lon="-4.083992">
        <ele>603.56</ele>
        <time>2020-12-09T15:09:38Z</time>
      </trkpt>
      <trkpt lat="39.79113" lon="-4.0839806">
        <ele>603.56</ele>
        <time>2020-12-09T15:09:42Z</time>
      </trkpt>
      <trkpt lat="39.791187" lon="-4.0839705">
        <ele>604.74</ele>
        <time>2020-12-09T15:09:46Z</time>
      </trkpt>
      <trkpt lat="39.791245" lon="-4.0839653">
        <ele>606.02</ele>
        <time>2020-12-09T15:09:50Z</time>
      </trkpt>
      <trkpt lat="39.79131" lon="-4.083962">
        <ele>606.02</ele>
        <time>2020-12-09T15:09:54Z</time>
      </trkpt>
      <trkpt lat="39.791374" lon="-4.0839505">
        <ele>606.02</ele>
        <time>2020-12-09T15:09:58Z</time>
      </trkpt>
      <trkpt lat="39.791424" lon="-4.0839405">
        <ele>607.2</ele>
        <time>2020-12-09T15:10:01Z</time>
      </trkpt>
      <trkpt lat="39.79149" lon="-4.083928">
        <ele>607.2</ele>
        <time>2020-12-09T15:10:05Z</time>
      </trkpt>
      <trkpt lat="39.79155" lon="-4.083928">
        <ele>607.2</ele>
        <time>2020-12-09T15:10:09Z</time>
      </trkpt>
      <trkpt lat="39.79161" lon="-4.083936">
        <ele>607.2</ele>
        <time>2020-12-09T15:10:13Z</time>
      </trkpt>
      <trkpt lat="39.791668" lon="-4.0839405">
        <ele>607.2</ele>
        <time>2020-12-09T15:10:17Z</time>
      </trkpt>
      <trkpt lat="39.79172" lon="-4.083929">
        <ele>607.2</ele>
        <time>2020-12-09T15:10:21Z</time>
      </trkpt>
      <trkpt lat="39.791767" lon="-4.0839014">
        <ele>608.38</ele>
        <time>2020-12-09T15:10:24Z</time>
      </trkpt>
      <trkpt lat="39.79182" lon="-4.083857">
        <ele>608.38</ele>
        <time>2020-12-09T15:10:28Z</time>
      </trkpt>
      <trkpt lat="39.79187" lon="-4.0838156">
        <ele>608.38</ele>
        <time>2020-12-09T15:10:32Z</time>
      </trkpt>
      <trkpt lat="39.79192" lon="-4.0837884">
        <ele>609.65</ele>
        <time>2020-12-09T15:10:36Z</time>
      </trkpt>
      <trkpt lat="39.791977" lon="-4.0837727">
        <ele>617.4</ele>
        <time>2020-12-09T15:10:41Z</time>
      </trkpt>
      <trkpt lat="39.792065" lon="-4.08374">
        <ele>617.4</ele>
        <time>2020-12-09T15:12:32Z</time>
      </trkpt>
      <trkpt lat="39.792084" lon="-4.083735">
        <ele>617.4</ele>
        <time>2020-12-09T15:12:39Z</time>
      </trkpt>
      <trkpt lat="39.792152" lon="-4.083726">
        <ele>617.4</ele>
        <time>2020-12-09T15:12:43Z</time>
      </trkpt>
      <trkpt lat="39.792213" lon="-4.083719">
        <ele>617.4</ele>
        <time>2020-12-09T15:12:46Z</time>
      </trkpt>
      <trkpt lat="39.792263" lon="-4.083706">
        <ele>617.4</ele>
        <time>2020-12-09T15:12:49Z</time>
      </trkpt>
      <trkpt lat="39.79231" lon="-4.0836606">
        <ele>617.4</ele>
        <time>2020-12-09T15:12:53Z</time>
      </trkpt>
      <trkpt lat="39.792343" lon="-4.0836">
        <ele>617.4</ele>
        <time>2020-12-09T15:12:57Z</time>
      </trkpt>
      <trkpt lat="39.79239" lon="-4.08355">
        <ele>617.4</ele>
        <time>2020-12-09T15:13:01Z</time>
      </trkpt>
      <trkpt lat="39.79243" lon="-4.0834823">
        <ele>616.12</ele>
        <time>2020-12-09T15:13:05Z</time>
      </trkpt>
      <trkpt lat="39.79246" lon="-4.08343">
        <ele>616.12</ele>
        <time>2020-12-09T15:13:08Z</time>
      </trkpt>
      <trkpt lat="39.7925" lon="-4.083382">
        <ele>614.94</ele>
        <time>2020-12-09T15:13:11Z</time>
      </trkpt>
      <trkpt lat="39.792557" lon="-4.083333">
        <ele>614.94</ele>
        <time>2020-12-09T15:13:15Z</time>
      </trkpt>
      <trkpt lat="39.7926" lon="-4.0832987">
        <ele>613.76</ele>
        <time>2020-12-09T15:13:18Z</time>
      </trkpt>
      <trkpt lat="39.792645" lon="-4.083269">
        <ele>613.76</ele>
        <time>2020-12-09T15:13:21Z</time>
      </trkpt>
      <trkpt lat="39.792698" lon="-4.0832443">
        <ele>613.76</ele>
        <time>2020-12-09T15:13:24Z</time>
      </trkpt>
      <trkpt lat="39.792744" lon="-4.083221">
        <ele>612.58</ele>
        <time>2020-12-09T15:13:27Z</time>
      </trkpt>
      <trkpt lat="39.792805" lon="-4.0831895">
        <ele>612.58</ele>
        <time>2020-12-09T15:13:31Z</time>
      </trkpt>
      <trkpt lat="39.79285" lon="-4.0831656">
        <ele>611.4</ele>
        <time>2020-12-09T15:13:34Z</time>
      </trkpt>
      <trkpt lat="39.792915" lon="-4.0831323">
        <ele>611.4</ele>
        <time>2020-12-09T15:13:38Z</time>
      </trkpt>
      <trkpt lat="39.792965" lon="-4.083103">
        <ele>611.4</ele>
        <time>2020-12-09T15:13:41Z</time>
      </trkpt>
      <trkpt lat="39.79301" lon="-4.0830746">
        <ele>610.21</ele>
        <time>2020-12-09T15:13:44Z</time>
      </trkpt>
      <trkpt lat="39.793056" lon="-4.083039">
        <ele>610.21</ele>
        <time>2020-12-09T15:13:47Z</time>
      </trkpt>
      <trkpt lat="39.793095" lon="-4.0829964">
        <ele>610.21</ele>
        <time>2020-12-09T15:13:50Z</time>
      </trkpt>
      <trkpt lat="39.793118" lon="-4.082934">
        <ele>609.03</ele>
        <time>2020-12-09T15:13:54Z</time>
      </trkpt>
      <trkpt lat="39.793133" lon="-4.08287">
        <ele>609.03</ele>
        <time>2020-12-09T15:13:58Z</time>
      </trkpt>
      <trkpt lat="39.793148" lon="-4.0827913">
        <ele>607.85</ele>
        <time>2020-12-09T15:14:03Z</time>
      </trkpt>
      <trkpt lat="39.79315" lon="-4.082706">
        <ele>607.85</ele>
        <time>2020-12-09T15:14:08Z</time>
      </trkpt>
      <trkpt lat="39.793175" lon="-4.0826464">
        <ele>607.85</ele>
        <time>2020-12-09T15:14:12Z</time>
      </trkpt>
      <trkpt lat="39.793224" lon="-4.0826344">
        <ele>607.85</ele>
        <time>2020-12-09T15:14:17Z</time>
      </trkpt>
      <trkpt lat="39.793274" lon="-4.08261">
        <ele>607.85</ele>
        <time>2020-12-09T15:14:22Z</time>
      </trkpt>
      <trkpt lat="39.793293" lon="-4.082548">
        <ele>607.85</ele>
        <time>2020-12-09T15:14:28Z</time>
      </trkpt>
      <trkpt lat="39.793335" lon="-4.082491">
        <ele>607.85</ele>
        <time>2020-12-09T15:14:33Z</time>
      </trkpt>
      <trkpt lat="39.793377" lon="-4.082441">
        <ele>615.58</ele>
        <time>2020-12-09T15:14:37Z</time>
      </trkpt>
      <trkpt lat="39.793423" lon="-4.082372">
        <ele>615.58</ele>
        <time>2020-12-09T15:14:42Z</time>
      </trkpt>
      <trkpt lat="39.79345" lon="-4.082307">
        <ele>615.58</ele>
        <time>2020-12-09T15:14:46Z</time>
      </trkpt>
      <trkpt lat="39.793465" lon="-4.082238">
        <ele>615.58</ele>
        <time>2020-12-09T15:14:50Z</time>
      </trkpt>
      <trkpt lat="39.79348" lon="-4.0821657">
        <ele>615.58</ele>
        <time>2020-12-09T15:14:54Z</time>
      </trkpt>
      <trkpt lat="39.793503" lon="-4.0821004">
        <ele>615.58</ele>
        <time>2020-12-09T15:14:58Z</time>
      </trkpt>
      <trkpt lat="39.793533" lon="-4.0820413">
        <ele>615.58</ele>
        <time>2020-12-09T15:15:02Z</time>
      </trkpt>
      <trkpt lat="39.793575" lon="-4.081992">
        <ele>614.4</ele>
        <time>2020-12-09T15:15:06Z</time>
      </trkpt>
      <trkpt lat="39.79363" lon="-4.081948">
        <ele>614.4</ele>
        <time>2020-12-09T15:15:10Z</time>
      </trkpt>
      <trkpt lat="39.793667" lon="-4.081914">
        <ele>614.4</ele>
        <time>2020-12-09T15:15:13Z</time>
      </trkpt>
      <trkpt lat="39.793728" lon="-4.081865">
        <ele>613.13</ele>
        <time>2020-12-09T15:15:17Z</time>
      </trkpt>
      <trkpt lat="39.793766" lon="-4.081828">
        <ele>613.13</ele>
        <time>2020-12-09T15:15:20Z</time>
      </trkpt>
      <trkpt lat="39.79381" lon="-4.081793">
        <ele>611.95</ele>
        <time>2020-12-09T15:15:23Z</time>
      </trkpt>
      <trkpt lat="39.793873" lon="-4.0817485">
        <ele>611.95</ele>
        <time>2020-12-09T15:15:27Z</time>
      </trkpt>
      <trkpt lat="39.793907" lon="-4.0817065">
        <ele>611.95</ele>
        <time>2020-12-09T15:15:30Z</time>
      </trkpt>
      <trkpt lat="39.793957" lon="-4.081653">
        <ele>611.95</ele>
        <time>2020-12-09T15:15:34Z</time>
      </trkpt>
      <trkpt lat="39.79399" lon="-4.0816054">
        <ele>611.95</ele>
        <time>2020-12-09T15:15:37Z</time>
      </trkpt>
      <trkpt lat="39.79402" lon="-4.0815325">
        <ele>611.95</ele>
        <time>2020-12-09T15:15:41Z</time>
      </trkpt>
      <trkpt lat="39.79404" lon="-4.0814266">
        <ele>611.95</ele>
        <time>2020-12-09T15:15:46Z</time>
      </trkpt>
      <trkpt lat="39.79405" lon="-4.081361">
        <ele>613.13</ele>
        <time>2020-12-09T15:15:49Z</time>
      </trkpt>
      <trkpt lat="39.794052" lon="-4.0812745">
        <ele>613.13</ele>
        <time>2020-12-09T15:15:53Z</time>
      </trkpt>
      <trkpt lat="39.794056" lon="-4.08121">
        <ele>613.13</ele>
        <time>2020-12-09T15:15:56Z</time>
      </trkpt>
      <trkpt lat="39.794064" lon="-4.081123">
        <ele>614.4</ele>
        <time>2020-12-09T15:16:00Z</time>
      </trkpt>
      <trkpt lat="39.794067" lon="-4.0810595">
        <ele>614.4</ele>
        <time>2020-12-09T15:16:03Z</time>
      </trkpt>
      <trkpt lat="39.79407" lon="-4.0809755">
        <ele>614.4</ele>
        <time>2020-12-09T15:16:07Z</time>
      </trkpt>
      <trkpt lat="39.794075" lon="-4.08089">
        <ele>614.4</ele>
        <time>2020-12-09T15:16:11Z</time>
      </trkpt>
      <trkpt lat="39.794083" lon="-4.0808263">
        <ele>614.4</ele>
        <time>2020-12-09T15:16:14Z</time>
      </trkpt>
      <trkpt lat="39.79409" lon="-4.080739">
        <ele>614.4</ele>
        <time>2020-12-09T15:16:18Z</time>
      </trkpt>
      <trkpt lat="39.794094" lon="-4.0806775">
        <ele>614.4</ele>
        <time>2020-12-09T15:16:21Z</time>
      </trkpt>
      <trkpt lat="39.794094" lon="-4.0805936">
        <ele>614.4</ele>
        <time>2020-12-09T15:16:25Z</time>
      </trkpt>
      <trkpt lat="39.79409" lon="-4.0805097">
        <ele>614.4</ele>
        <time>2020-12-09T15:16:29Z</time>
      </trkpt>
      <trkpt lat="39.79409" lon="-4.0804286">
        <ele>614.4</ele>
        <time>2020-12-09T15:16:33Z</time>
      </trkpt>
      <trkpt lat="39.794106" lon="-4.080352">
        <ele>608.28</ele>
        <time>2020-12-09T15:16:37Z</time>
      </trkpt>
      <trkpt lat="39.794113" lon="-4.080277">
        <ele>608.28</ele>
        <time>2020-12-09T15:16:41Z</time>
      </trkpt>
      <trkpt lat="39.794132" lon="-4.080187">
        <ele>608.28</ele>
        <time>2020-12-09T15:16:46Z</time>
      </trkpt>
      <trkpt lat="39.79415" lon="-4.080113">
        <ele>608.28</ele>
        <time>2020-12-09T15:16:50Z</time>
      </trkpt>
      <trkpt lat="39.794178" lon="-4.0800457">
        <ele>608.28</ele>
        <time>2020-12-09T15:16:54Z</time>
      </trkpt>
      <trkpt lat="39.794193" lon="-4.0799766">
        <ele>608.28</ele>
        <time>2020-12-09T15:16:58Z</time>
      </trkpt>
      <trkpt lat="39.794197" lon="-4.079901">
        <ele>609.46</ele>
        <time>2020-12-09T15:17:02Z</time>
      </trkpt>
      <trkpt lat="39.794205" lon="-4.0798106">
        <ele>609.46</ele>
        <time>2020-12-09T15:17:07Z</time>
      </trkpt>
      <trkpt lat="39.79424" lon="-4.0797606">
        <ele>609.46</ele>
        <time>2020-12-09T15:17:11Z</time>
      </trkpt>
      <trkpt lat="39.794292" lon="-4.079759">
        <ele>609.46</ele>
        <time>2020-12-09T15:17:15Z</time>
      </trkpt>
      <trkpt lat="39.794342" lon="-4.079782">
        <ele>609.46</ele>
        <time>2020-12-09T15:17:19Z</time>
      </trkpt>
      <trkpt lat="39.79439" lon="-4.0798144">
        <ele>609.46</ele>
        <time>2020-12-09T15:17:23Z</time>
      </trkpt>
      <trkpt lat="39.79444" lon="-4.0798573">
        <ele>609.46</ele>
        <time>2020-12-09T15:17:27Z</time>
      </trkpt>
      <trkpt lat="39.794483" lon="-4.0799046">
        <ele>609.46</ele>
        <time>2020-12-09T15:17:31Z</time>
      </trkpt>
      <trkpt lat="39.794502" lon="-4.0799623">
        <ele>609.46</ele>
        <time>2020-12-09T15:17:35Z</time>
      </trkpt>
      <trkpt lat="39.7945" lon="-4.0800505">
        <ele>609.46</ele>
        <time>2020-12-09T15:17:40Z</time>
      </trkpt>
      <trkpt lat="39.794495" lon="-4.080136">
        <ele>609.46</ele>
        <time>2020-12-09T15:17:44Z</time>
      </trkpt>
      <trkpt lat="39.7945" lon="-4.0802016">
        <ele>609.46</ele>
        <time>2020-12-09T15:17:47Z</time>
      </trkpt>
      <trkpt lat="39.79451" lon="-4.0802875">
        <ele>609.46</ele>
        <time>2020-12-09T15:17:51Z</time>
      </trkpt>
      <trkpt lat="39.79453" lon="-4.080349">
        <ele>609.46</ele>
        <time>2020-12-09T15:17:54Z</time>
      </trkpt>
      <trkpt lat="39.794548" lon="-4.080424">
        <ele>609.46</ele>
        <time>2020-12-09T15:17:58Z</time>
      </trkpt>
      <trkpt lat="39.79458" lon="-4.080501">
        <ele>609.46</ele>
        <time>2020-12-09T15:18:02Z</time>
      </trkpt>
      <trkpt lat="39.794617" lon="-4.08057">
        <ele>609.46</ele>
        <time>2020-12-09T15:18:06Z</time>
      </trkpt>
      <trkpt lat="39.794647" lon="-4.08062">
        <ele>609.46</ele>
        <time>2020-12-09T15:18:09Z</time>
      </trkpt>
      <trkpt lat="39.794662" lon="-4.0806904">
        <ele>609.46</ele>
        <time>2020-12-09T15:18:13Z</time>
      </trkpt>
      <trkpt lat="39.794697" lon="-4.080738">
        <ele>609.46</ele>
        <time>2020-12-09T15:18:18Z</time>
      </trkpt>
      <trkpt lat="39.79475" lon="-4.0807385">
        <ele>609.46</ele>
        <time>2020-12-09T15:18:23Z</time>
      </trkpt>
      <trkpt lat="39.7948" lon="-4.080714">
        <ele>610.73</ele>
        <time>2020-12-09T15:18:27Z</time>
      </trkpt>
      <trkpt lat="39.794853" lon="-4.080708">
        <ele>610.73</ele>
        <time>2020-12-09T15:18:31Z</time>
      </trkpt>
      <trkpt lat="39.794914" lon="-4.08071">
        <ele>610.85</ele>
        <time>2020-12-09T15:18:36Z</time>
      </trkpt>
      <trkpt lat="39.79497" lon="-4.080718">
        <ele>612.03</ele>
        <time>2020-12-09T15:18:42Z</time>
      </trkpt>
      <trkpt lat="39.795006" lon="-4.080741">
        <ele>613.4</ele>
        <time>2020-12-09T15:18:48Z</time>
      </trkpt>
      <trkpt lat="39.795025" lon="-4.080803">
        <ele>615.85</ele>
        <time>2020-12-09T15:18:54Z</time>
      </trkpt>
      <trkpt lat="39.79506" lon="-4.0808616">
        <ele>615.85</ele>
        <time>2020-12-09T15:18:59Z</time>
      </trkpt>
      <trkpt lat="39.795086" lon="-4.080927">
        <ele>617.03</ele>
        <time>2020-12-09T15:19:04Z</time>
      </trkpt>
      <trkpt lat="39.79509" lon="-4.080994">
        <ele>618.21</ele>
        <time>2020-12-09T15:19:08Z</time>
      </trkpt>
      <trkpt lat="39.795097" lon="-4.08107">
        <ele>618.21</ele>
        <time>2020-12-09T15:19:12Z</time>
      </trkpt>
      <trkpt lat="39.795113" lon="-4.081129">
        <ele>618.21</ele>
        <time>2020-12-09T15:19:16Z</time>
      </trkpt>
      <trkpt lat="39.79511" lon="-4.081193">
        <ele>618.21</ele>
        <time>2020-12-09T15:19:21Z</time>
      </trkpt>
      <trkpt lat="39.795124" lon="-4.08128">
        <ele>618.21</ele>
        <time>2020-12-09T15:19:26Z</time>
      </trkpt>
      <trkpt lat="39.795128" lon="-4.081352">
        <ele>617.03</ele>
        <time>2020-12-09T15:19:30Z</time>
      </trkpt>
      <trkpt lat="39.795135" lon="-4.08143">
        <ele>615.85</ele>
        <time>2020-12-09T15:19:34Z</time>
      </trkpt>
      <trkpt lat="39.79516" lon="-4.0815005">
        <ele>614.58</ele>
        <time>2020-12-09T15:19:38Z</time>
      </trkpt>
      <trkpt lat="39.79519" lon="-4.0815663">
        <ele>614.58</ele>
        <time>2020-12-09T15:19:42Z</time>
      </trkpt>
      <trkpt lat="39.79523" lon="-4.0816116">
        <ele>614.58</ele>
        <time>2020-12-09T15:19:46Z</time>
      </trkpt>
      <trkpt lat="39.795277" lon="-4.0816464">
        <ele>614.58</ele>
        <time>2020-12-09T15:19:51Z</time>
      </trkpt>
      <trkpt lat="39.795338" lon="-4.081648">
        <ele>615.76</ele>
        <time>2020-12-09T15:19:57Z</time>
      </trkpt>
      <trkpt lat="39.795387" lon="-4.081655">
        <ele>617.03</ele>
        <time>2020-12-09T15:20:02Z</time>
      </trkpt>
      <trkpt lat="39.795437" lon="-4.08163">
        <ele>618.31</ele>
        <time>2020-12-09T15:20:07Z</time>
      </trkpt>
      <trkpt lat="39.79548" lon="-4.0815945">
        <ele>618.31</ele>
        <time>2020-12-09T15:20:12Z</time>
      </trkpt>
      <trkpt lat="39.79554" lon="-4.0815835">
        <ele>619.49</ele>
        <time>2020-12-09T15:20:17Z</time>
      </trkpt>
      <trkpt lat="39.795586" lon="-4.0815763">
        <ele>619.49</ele>
        <time>2020-12-09T15:20:21Z</time>
      </trkpt>
      <trkpt lat="39.795643" lon="-4.0815706">
        <ele>619.49</ele>
        <time>2020-12-09T15:20:26Z</time>
      </trkpt>
      <trkpt lat="39.795643" lon="-4.0816417">
        <ele>617.43</ele>
        <time>2020-12-09T15:20:52Z</time>
      </trkpt>
      <trkpt lat="39.795677" lon="-4.0816994">
        <ele>613.53</ele>
        <time>2020-12-09T15:21:00Z</time>
      </trkpt>
      <trkpt lat="39.795708" lon="-4.0817604">
        <ele>612.34</ele>
        <time>2020-12-09T15:21:04Z</time>
      </trkpt>
      <trkpt lat="39.79575" lon="-4.081787">
        <ele>610.98</ele>
        <time>2020-12-09T15:21:08Z</time>
      </trkpt>
      <trkpt lat="39.795807" lon="-4.0817914">
        <ele>609.62</ele>
        <time>2020-12-09T15:21:13Z</time>
      </trkpt>
      <trkpt lat="39.795845" lon="-4.081855">
        <ele>608.34</ele>
        <time>2020-12-09T15:21:19Z</time>
      </trkpt>
      <trkpt lat="39.795883" lon="-4.081909">
        <ele>607.16</ele>
        <time>2020-12-09T15:21:23Z</time>
      </trkpt>
      <trkpt lat="39.795933" lon="-4.081943">
        <ele>607.16</ele>
        <time>2020-12-09T15:21:27Z</time>
      </trkpt>
      <trkpt lat="39.79598" lon="-4.0819955">
        <ele>607.16</ele>
        <time>2020-12-09T15:21:31Z</time>
      </trkpt>
      <trkpt lat="39.796017" lon="-4.0820403">
        <ele>607.16</ele>
        <time>2020-12-09T15:21:34Z</time>
      </trkpt>
      <trkpt lat="39.79607" lon="-4.082096">
        <ele>607.16</ele>
        <time>2020-12-09T15:21:38Z</time>
      </trkpt>
      <trkpt lat="39.79611" lon="-4.082136">
        <ele>607.16</ele>
        <time>2020-12-09T15:21:41Z</time>
      </trkpt>
      <trkpt lat="39.796154" lon="-4.082194">
        <ele>607.16</ele>
        <time>2020-12-09T15:21:45Z</time>
      </trkpt>
      <trkpt lat="39.7962" lon="-4.082249">
        <ele>607.16</ele>
        <time>2020-12-09T15:21:49Z</time>
      </trkpt>
      <trkpt lat="39.79625" lon="-4.0822906">
        <ele>607.16</ele>
        <time>2020-12-09T15:21:53Z</time>
      </trkpt>
      <trkpt lat="39.796303" lon="-4.0823255">
        <ele>608.34</ele>
        <time>2020-12-09T15:21:57Z</time>
      </trkpt>
      <trkpt lat="39.79635" lon="-4.082368">
        <ele>608.34</ele>
        <time>2020-12-09T15:22:01Z</time>
      </trkpt>
      <trkpt lat="39.796406" lon="-4.082391">
        <ele>609.62</ele>
        <time>2020-12-09T15:22:05Z</time>
      </trkpt>
      <trkpt lat="39.79646" lon="-4.0824113">
        <ele>610.89</ele>
        <time>2020-12-09T15:22:09Z</time>
      </trkpt>
      <trkpt lat="39.7965" lon="-4.0824537">
        <ele>610.89</ele>
        <time>2020-12-09T15:22:13Z</time>
      </trkpt>
      <trkpt lat="39.796535" lon="-4.0825205">
        <ele>610.89</ele>
        <time>2020-12-09T15:22:18Z</time>
      </trkpt>
      <trkpt lat="39.796566" lon="-4.082587">
        <ele>610.89</ele>
        <time>2020-12-09T15:22:22Z</time>
      </trkpt>
      <trkpt lat="39.796604" lon="-4.082656">
        <ele>609.62</ele>
        <time>2020-12-09T15:22:26Z</time>
      </trkpt>
      <trkpt lat="39.79664" lon="-4.0827">
        <ele>609.62</ele>
        <time>2020-12-09T15:22:29Z</time>
      </trkpt>
      <trkpt lat="39.79669" lon="-4.0827518">
        <ele>609.62</ele>
        <time>2020-12-09T15:22:33Z</time>
      </trkpt>
      <trkpt lat="39.79674" lon="-4.082797">
        <ele>609.62</ele>
        <time>2020-12-09T15:22:37Z</time>
      </trkpt>
      <trkpt lat="39.796795" lon="-4.0828347">
        <ele>609.62</ele>
        <time>2020-12-09T15:22:41Z</time>
      </trkpt>
      <trkpt lat="39.796852" lon="-4.0828624">
        <ele>609.62</ele>
        <time>2020-12-09T15:22:45Z</time>
      </trkpt>
      <trkpt lat="39.79691" lon="-4.0828705">
        <ele>609.62</ele>
        <time>2020-12-09T15:22:49Z</time>
      </trkpt>
      <trkpt lat="39.79699" lon="-4.082872">
        <ele>612.06</ele>
        <time>2020-12-09T15:22:54Z</time>
      </trkpt>
      <trkpt lat="39.797062" lon="-4.08288">
        <ele>612.06</ele>
        <time>2020-12-09T15:22:59Z</time>
      </trkpt>
      <trkpt lat="39.797127" lon="-4.0828805">
        <ele>613.24</ele>
        <time>2020-12-09T15:23:03Z</time>
      </trkpt>
      <trkpt lat="39.797176" lon="-4.082877">
        <ele>613.24</ele>
        <time>2020-12-09T15:23:06Z</time>
      </trkpt>
      <trkpt lat="39.797237" lon="-4.082867">
        <ele>614.42</ele>
        <time>2020-12-09T15:23:10Z</time>
      </trkpt>
      <trkpt lat="39.797295" lon="-4.082863">
        <ele>614.42</ele>
        <time>2020-12-09T15:23:14Z</time>
      </trkpt>
      <trkpt lat="39.797356" lon="-4.0828614">
        <ele>614.42</ele>
        <time>2020-12-09T15:23:18Z</time>
      </trkpt>
      <trkpt lat="39.797413" lon="-4.0828695">
        <ele>615.61</ele>
        <time>2020-12-09T15:23:22Z</time>
      </trkpt>
      <trkpt lat="39.797474" lon="-4.082875">
        <ele>615.61</ele>
        <time>2020-12-09T15:23:26Z</time>
      </trkpt>
      <trkpt lat="39.797523" lon="-4.082871">
        <ele>615.61</ele>
        <time>2020-12-09T15:23:29Z</time>
      </trkpt>
      <trkpt lat="39.797585" lon="-4.0828505">
        <ele>616.88</ele>
        <time>2020-12-09T15:23:33Z</time>
      </trkpt>
      <trkpt lat="39.797646" lon="-4.0828085">
        <ele>616.88</ele>
        <time>2020-12-09T15:23:37Z</time>
      </trkpt>
      <trkpt lat="39.797695" lon="-4.082767">
        <ele>618.06</ele>
        <time>2020-12-09T15:23:41Z</time>
      </trkpt>
      <trkpt lat="39.79775" lon="-4.0827346">
        <ele>618.06</ele>
        <time>2020-12-09T15:23:45Z</time>
      </trkpt>
      <trkpt lat="39.797813" lon="-4.082717">
        <ele>618.06</ele>
        <time>2020-12-09T15:23:49Z</time>
      </trkpt>
      <trkpt lat="39.79788" lon="-4.0827055">
        <ele>618.06</ele>
        <time>2020-12-09T15:23:53Z</time>
      </trkpt>
      <trkpt lat="39.79793" lon="-4.0826983">
        <ele>618.06</ele>
        <time>2020-12-09T15:23:56Z</time>
      </trkpt>
      <trkpt lat="39.797997" lon="-4.082694">
        <ele>618.06</ele>
        <time>2020-12-09T15:24:00Z</time>
      </trkpt>
      <trkpt lat="39.798046" lon="-4.0826874">
        <ele>618.06</ele>
        <time>2020-12-09T15:24:03Z</time>
      </trkpt>
      <trkpt lat="39.79811" lon="-4.082679">
        <ele>618.06</ele>
        <time>2020-12-09T15:24:07Z</time>
      </trkpt>
      <trkpt lat="39.79816" lon="-4.082663">
        <ele>618.06</ele>
        <time>2020-12-09T15:24:10Z</time>
      </trkpt>
      <trkpt lat="39.798218" lon="-4.08263">
        <ele>618.06</ele>
        <time>2020-12-09T15:24:14Z</time>
      </trkpt>
      <trkpt lat="39.79827" lon="-4.0825834">
        <ele>618.06</ele>
        <time>2020-12-09T15:24:18Z</time>
      </trkpt>
      <trkpt lat="39.798325" lon="-4.0825286">
        <ele>618.06</ele>
        <time>2020-12-09T15:24:22Z</time>
      </trkpt>
      <trkpt lat="39.798363" lon="-4.0824924">
        <ele>618.06</ele>
        <time>2020-12-09T15:24:25Z</time>
      </trkpt>
      <trkpt lat="39.798416" lon="-4.0824494">
        <ele>618.06</ele>
        <time>2020-12-09T15:24:29Z</time>
      </trkpt>
      <trkpt lat="39.79847" lon="-4.0824065">
        <ele>618.06</ele>
        <time>2020-12-09T15:24:33Z</time>
      </trkpt>
      <trkpt lat="39.798527" lon="-4.082365">
        <ele>618.06</ele>
        <time>2020-12-09T15:24:37Z</time>
      </trkpt>
      <trkpt lat="39.798573" lon="-4.082341">
        <ele>618.06</ele>
        <time>2020-12-09T15:24:40Z</time>
      </trkpt>
      <trkpt lat="39.798634" lon="-4.082309">
        <ele>618.06</ele>
        <time>2020-12-09T15:24:44Z</time>
      </trkpt>
      <trkpt lat="39.79869" lon="-4.082287">
        <ele>618.06</ele>
        <time>2020-12-09T15:24:48Z</time>
      </trkpt>
      <trkpt lat="39.79875" lon="-4.082298">
        <ele>613.62</ele>
        <time>2020-12-09T15:24:52Z</time>
      </trkpt>
      <trkpt lat="39.798794" lon="-4.082327">
        <ele>612.35</ele>
        <time>2020-12-09T15:24:55Z</time>
      </trkpt>
      <trkpt lat="39.79885" lon="-4.0823717">
        <ele>612.35</ele>
        <time>2020-12-09T15:24:59Z</time>
      </trkpt>
      <trkpt lat="39.79891" lon="-4.082403">
        <ele>612.35</ele>
        <time>2020-12-09T15:25:03Z</time>
      </trkpt>
      <trkpt lat="39.798958" lon="-4.082432">
        <ele>612.35</ele>
        <time>2020-12-09T15:25:07Z</time>
      </trkpt>
      <trkpt lat="39.799004" lon="-4.0824847">
        <ele>611.17</ele>
        <time>2020-12-09T15:25:11Z</time>
      </trkpt>
      <trkpt lat="39.799046" lon="-4.08254">
        <ele>611.17</ele>
        <time>2020-12-09T15:25:15Z</time>
      </trkpt>
      <trkpt lat="39.79909" lon="-4.0826">
        <ele>609.99</ele>
        <time>2020-12-09T15:25:19Z</time>
      </trkpt>
      <trkpt lat="39.799137" lon="-4.0826554">
        <ele>609.99</ele>
        <time>2020-12-09T15:25:23Z</time>
      </trkpt>
      <trkpt lat="39.799183" lon="-4.0827146">
        <ele>608.8</ele>
        <time>2020-12-09T15:25:27Z</time>
      </trkpt>
      <trkpt lat="39.799213" lon="-4.082768">
        <ele>608.8</ele>
        <time>2020-12-09T15:25:30Z</time>
      </trkpt>
      <trkpt lat="39.799263" lon="-4.082852">
        <ele>608.8</ele>
        <time>2020-12-09T15:25:35Z</time>
      </trkpt>
      <trkpt lat="39.7993" lon="-4.0829134">
        <ele>607.62</ele>
        <time>2020-12-09T15:25:39Z</time>
      </trkpt>
      <trkpt lat="39.79932" lon="-4.082978">
        <ele>607.62</ele>
        <time>2020-12-09T15:25:43Z</time>
      </trkpt>
      <trkpt lat="39.799328" lon="-4.083041">
        <ele>607.62</ele>
        <time>2020-12-09T15:25:47Z</time>
      </trkpt>
    </trkseg>
  </trk>
</gpx>
